Wetterdaten: Samstag, 07.07.2018
Datum Zeit Temp. A. Pool Temp. Feuchte A. Luftdruck Regen Wind Richtung Richtung Sonnenschein ET UV Solar Taupunkt Windchill Windben Empfang
07.07.2018 00:00 16,3 C 22,8 C 95 % 1018,0 hPa 0,0 l/m 10,3 km/h (2 Bft) W 270 0 min 0,000 mm 0,0 UV-I 0 W/m 15,5 C 14,4 C 16,1 km/h (3 Bft) 100,00 %
07.07.2018 00:02 16,3 C 22,8 C 95 % 1018,0 hPa 0,0 l/m 11,9 km/h (2 Bft) W-SW 258 0 min 0,000 mm 0,0 UV-I 0 W/m 15,5 C 13,8 C 16,1 km/h (3 Bft) 97,73 %
07.07.2018 00:03 16,3 C 22,8 C 95 % 1018,1 hPa 0,0 l/m 9,7 km/h (2 Bft) W-SW 246 0 min 0,000 mm 0,0 UV-I 0 W/m 15,5 C 14,7 C 14,5 km/h (3 Bft) 95,65 %
07.07.2018 00:04 16,3 C 22,8 C 95 % 1018,0 hPa 0,0 l/m 10,5 km/h (2 Bft) W 260 0 min 0,000 mm 0,0 UV-I 0 W/m 15,5 C 14,3 C 12,9 km/h (3 Bft) 100,00 %
07.07.2018 00:05 16,3 C 22,8 C 95 % 1018,1 hPa 0,0 l/m 11,7 km/h (2 Bft) SW 229 0 min 0,000 mm 0,0 UV-I 0 W/m 15,5 C 13,9 C 16,1 km/h (3 Bft) 95,65 %
07.07.2018 00:06 16,3 C 22,8 C 95 % 1018,1 hPa 0,0 l/m 13,1 km/h (3 Bft) SW 234 0 min 0,000 mm 0,0 UV-I 0 W/m 15,5 C 13,4 C 17,7 km/h (3 Bft) 95,83 %
07.07.2018 00:07 16,3 C 22,8 C 95 % 1018,0 hPa 0,0 l/m 12,4 km/h (3 Bft) W-SW 241 0 min 0,000 mm 0,0 UV-I 0 W/m 15,5 C 13,6 C 17,7 km/h (3 Bft) 95,65 %
07.07.2018 00:08 16,3 C 22,8 C 95 % 1018,0 hPa 0,0 l/m 8,7 km/h (2 Bft) W 275 0 min 0,000 mm 0,0 UV-I 0 W/m 15,5 C 15,1 C 14,5 km/h (3 Bft) 95,83 %
07.07.2018 00:09 16,3 C 22,8 C 95 % 1018,1 hPa 0,0 l/m 8,0 km/h (2 Bft) W-SW 249 0 min 0,000 mm 0,0 UV-I 0 W/m 15,5 C 15,5 C 12,9 km/h (3 Bft) 100,00 %
07.07.2018 00:10 16,3 C 22,8 C 95 % 1018,1 hPa 0,0 l/m 10,4 km/h (2 Bft) W 267 0 min 0,000 mm 0,0 UV-I 0 W/m 15,5 C 14,4 C 16,1 km/h (3 Bft) 95,83 %
07.07.2018 00:11 16,3 C 22,8 C 95 % 1018,1 hPa 0,0 l/m 9,7 km/h (2 Bft) W-SW 256 0 min 0,000 mm 0,0 UV-I 0 W/m 15,5 C 14,7 C 16,1 km/h (3 Bft) 100,00 %
07.07.2018 00:12 16,3 C 22,8 C 95 % 1018,1 hPa 0,0 l/m 11,5 km/h (2 Bft) W-SW 249 0 min 0,000 mm 0,0 UV-I 0 W/m 15,5 C 14,0 C 17,7 km/h (3 Bft) 95,65 %
07.07.2018 00:13 16,3 C 22,8 C 95 % 1018,1 hPa 0,0 l/m 10,0 km/h (2 Bft) W-SW 250 0 min 0,000 mm 0,0 UV-I 0 W/m 15,5 C 14,6 C 16,1 km/h (3 Bft) 95,83 %
07.07.2018 00:14 16,3 C 22,8 C 95 % 1018,1 hPa 0,0 l/m 10,3 km/h (2 Bft) W 274 0 min 0,000 mm 0,0 UV-I 0 W/m 15,5 C 14,4 C 16,1 km/h (3 Bft) 95,65 %
07.07.2018 00:15 16,3 C 22,8 C 95 % 1018,1 hPa 0,0 l/m 12,3 km/h (3 Bft) W 273 0 min 0,000 mm 0,0 UV-I 0 W/m 15,5 C 13,7 C 17,7 km/h (3 Bft) 100,00 %
07.07.2018 00:16 16,3 C 22,8 C 95 % 1018,1 hPa 0,0 l/m 9,1 km/h (2 Bft) W 276 0 min 0,000 mm 0,0 UV-I 0 W/m 15,5 C 14,9 C 11,3 km/h (2 Bft) 91,30 %
07.07.2018 00:17 16,3 C 22,8 C 95 % 1018,2 hPa 0,0 l/m 11,5 km/h (2 Bft) W-SW 239 0 min 0,000 mm 0,0 UV-I 0 W/m 15,5 C 14,0 C 16,1 km/h (3 Bft) 100,00 %
07.07.2018 00:18 16,3 C 22,8 C 95 % 1018,2 hPa 0,0 l/m 11,4 km/h (2 Bft) W-SW 253 0 min 0,000 mm 0,0 UV-I 0 W/m 15,5 C 14,0 C 16,1 km/h (3 Bft) 91,30 %
07.07.2018 00:19 16,3 C 22,8 C 94 % 1018,2 hPa 0,0 l/m 13,3 km/h (3 Bft) W 274 0 min 0,000 mm 0,0 UV-I 0 W/m 15,3 C 13,3 C 17,7 km/h (3 Bft) 95,83 %
07.07.2018 00:20 16,3 C 22,8 C 94 % 1018,2 hPa 0,0 l/m 9,3 km/h (2 Bft) W-SW 249 0 min 0,000 mm 0,0 UV-I 0 W/m 15,3 C 14,9 C 14,5 km/h (3 Bft) 91,67 %
07.07.2018 00:21 16,3 C 22,8 C 94 % 1018,2 hPa 0,0 l/m 8,1 km/h (2 Bft) W 266 0 min 0,000 mm 0,0 UV-I 0 W/m 15,3 C 15,4 C 12,9 km/h (3 Bft) 100,00 %
07.07.2018 00:22 16,3 C 22,8 C 94 % 1018,2 hPa 0,0 l/m 8,4 km/h (2 Bft) W-SW 256 0 min 0,000 mm 0,0 UV-I 0 W/m 15,3 C 15,3 C 11,3 km/h (2 Bft) 95,83 %
07.07.2018 00:23 16,3 C 22,8 C 94 % 1018,2 hPa 0,0 l/m 10,1 km/h (2 Bft) W 265 0 min 0,000 mm 0,0 UV-I 0 W/m 15,3 C 14,5 C 14,5 km/h (3 Bft) 91,30 %
07.07.2018 00:24 16,3 C 22,8 C 94 % 1018,2 hPa 0,0 l/m 11,4 km/h (2 Bft) W-SW 247 0 min 0,000 mm 0,0 UV-I 0 W/m 15,3 C 14,0 C 17,7 km/h (3 Bft) 100,00 %
07.07.2018 00:25 16,3 C 22,8 C 94 % 1018,2 hPa 0,0 l/m 11,7 km/h (2 Bft) W 272 0 min 0,000 mm 0,0 UV-I 0 W/m 15,3 C 13,9 C 16,1 km/h (3 Bft) 95,65 %
07.07.2018 00:26 16,3 C 22,8 C 95 % 1018,2 hPa 0,0 l/m 11,8 km/h (2 Bft) W-SW 240 0 min 0,000 mm 0,0 UV-I 0 W/m 15,5 C 13,8 C 14,5 km/h (3 Bft) 100,00 %
07.07.2018 00:27 16,3 C 22,8 C 95 % 1018,2 hPa 0,0 l/m 13,5 km/h (3 Bft) W 259 0 min 0,000 mm 0,0 UV-I 0 W/m 15,5 C 13,2 C 16,1 km/h (3 Bft) 95,83 %
07.07.2018 00:28 16,3 C 22,8 C 95 % 1018,2 hPa 0,0 l/m 10,6 km/h (2 Bft) W 259 0 min 0,000 mm 0,0 UV-I 0 W/m 15,5 C 14,3 C 14,5 km/h (3 Bft) 100,00 %
07.07.2018 00:29 16,3 C 22,8 C 95 % 1018,2 hPa 0,0 l/m 10,3 km/h (2 Bft) W-SW 250 0 min 0,000 mm 0,0 UV-I 0 W/m 15,5 C 14,4 C 16,1 km/h (3 Bft) 95,65 %
07.07.2018 00:30 16,3 C 22,8 C 94 % 1018,2 hPa 0,0 l/m 13,1 km/h (3 Bft) W-SW 246 0 min 0,000 mm 0,0 UV-I 0 W/m 15,3 C 13,4 C 16,1 km/h (3 Bft) 100,00 %
07.07.2018 00:31 16,3 C 22,8 C 94 % 1018,2 hPa 0,0 l/m 9,9 km/h (2 Bft) W-NW 284 0 min 0,000 mm 0,0 UV-I 0 W/m 15,3 C 14,6 C 16,1 km/h (3 Bft) 95,65 %
07.07.2018 00:32 16,3 C 22,8 C 95 % 1018,2 hPa 0,0 l/m 11,3 km/h (2 Bft) W-SW 257 0 min 0,000 mm 0,0 UV-I 0 W/m 15,5 C 14,0 C 14,5 km/h (3 Bft) 95,83 %
07.07.2018 00:33 16,3 C 22,8 C 95 % 1018,2 hPa 0,0 l/m 10,1 km/h (2 Bft) W-SW 248 0 min 0,000 mm 0,0 UV-I 0 W/m 15,5 C 14,5 C 14,5 km/h (3 Bft) 100,00 %
07.07.2018 00:34 16,3 C 22,8 C 95 % 1018,2 hPa 0,0 l/m 10,1 km/h (2 Bft) W-SW 249 0 min 0,000 mm 0,0 UV-I 0 W/m 15,5 C 14,5 C 12,9 km/h (3 Bft) 95,83 %
07.07.2018 00:35 16,3 C 22,8 C 94 % 1018,2 hPa 0,0 l/m 9,9 km/h (2 Bft) W 269 0 min 0,000 mm 0,0 UV-I 0 W/m 15,3 C 14,6 C 11,3 km/h (2 Bft) 100,00 %
07.07.2018 00:36 16,3 C 22,8 C 94 % 1018,2 hPa 0,0 l/m 11,9 km/h (2 Bft) W 265 0 min 0,000 mm 0,0 UV-I 0 W/m 15,3 C 13,8 C 17,7 km/h (3 Bft) 100,00 %
07.07.2018 00:37 16,3 C 22,8 C 94 % 1018,2 hPa 0,0 l/m 9,2 km/h (2 Bft) W-SW 254 0 min 0,000 mm 0,0 UV-I 0 W/m 15,3 C 14,9 C 14,5 km/h (3 Bft) 100,00 %
07.07.2018 00:38 16,3 C 22,8 C 94 % 1018,2 hPa 0,0 l/m 9,0 km/h (2 Bft) W 261 0 min 0,000 mm 0,0 UV-I 0 W/m 15,3 C 15,0 C 12,9 km/h (3 Bft) 96,30 %
07.07.2018 00:39 16,3 C 22,8 C 94 % 1018,1 hPa 0,0 l/m 8,8 km/h (2 Bft) W 273 0 min 0,000 mm 0,0 UV-I 0 W/m 15,3 C 15,1 C 12,9 km/h (3 Bft) 95,65 %
07.07.2018 00:40 16,3 C 22,8 C 94 % 1018,2 hPa 0,0 l/m 9,3 km/h (2 Bft) W-NW 282 0 min 0,000 mm 0,0 UV-I 0 W/m 15,3 C 14,9 C 12,9 km/h (3 Bft) 100,00 %
07.07.2018 00:41 16,3 C 22,8 C 94 % 1018,2 hPa 0,0 l/m 9,1 km/h (2 Bft) W-SW 255 0 min 0,000 mm 0,0 UV-I 0 W/m 15,3 C 14,9 C 14,5 km/h (3 Bft) 100,00 %
07.07.2018 00:42 16,3 C 22,8 C 94 % 1018,2 hPa 0,0 l/m 10,5 km/h (2 Bft) W 267 0 min 0,000 mm 0,0 UV-I 0 W/m 15,3 C 14,3 C 12,9 km/h (3 Bft) 100,00 %
07.07.2018 00:43 16,3 C 22,8 C 94 % 1018,2 hPa 0,0 l/m 11,3 km/h (2 Bft) W 274 0 min 0,000 mm 0,0 UV-I 0 W/m 15,3 C 14,0 C 14,5 km/h (3 Bft) 100,00 %
07.07.2018 00:44 16,3 C 22,8 C 94 % 1018,2 hPa 0,0 l/m 10,2 km/h (2 Bft) W-SW 249 0 min 0,000 mm 0,0 UV-I 0 W/m 15,3 C 14,5 C 12,9 km/h (3 Bft) 100,00 %
07.07.2018 00:45 16,3 C 22,8 C 94 % 1018,2 hPa 0,0 l/m 8,0 km/h (2 Bft) W 271 0 min 0,000 mm 0,0 UV-I 0 W/m 15,3 C 15,5 C 12,9 km/h (3 Bft) 100,00 %
07.07.2018 00:46 16,3 C 22,8 C 94 % 1018,2 hPa 0,0 l/m 8,3 km/h (2 Bft) W 261 0 min 0,000 mm 0,0 UV-I 0 W/m 15,3 C 15,3 C 11,3 km/h (2 Bft) 100,00 %
07.07.2018 00:47 16,3 C 22,8 C 94 % 1018,2 hPa 0,0 l/m 9,4 km/h (2 Bft) SW 230 0 min 0,000 mm 0,0 UV-I 0 W/m 15,3 C 14,8 C 14,5 km/h (3 Bft) 95,83 %
07.07.2018 00:48 16,3 C 22,8 C 94 % 1018,2 hPa 0,0 l/m 12,5 km/h (3 Bft) W 265 0 min 0,000 mm 0,0 UV-I 0 W/m 15,3 C 13,6 C 16,1 km/h (3 Bft) 100,00 %
07.07.2018 00:49 16,3 C 22,8 C 94 % 1018,2 hPa 0,0 l/m 9,3 km/h (2 Bft) W-SW 255 0 min 0,000 mm 0,0 UV-I 0 W/m 15,3 C 14,9 C 14,5 km/h (3 Bft) 100,00 %
07.07.2018 00:50 16,3 C 22,8 C 94 % 1018,2 hPa 0,0 l/m 9,5 km/h (2 Bft) W 271 0 min 0,000 mm 0,0 UV-I 0 W/m 15,3 C 14,8 C 12,9 km/h (3 Bft) 100,00 %
07.07.2018 00:51 16,3 C 22,8 C 94 % 1018,3 hPa 0,0 l/m 9,3 km/h (2 Bft) W 259 0 min 0,000 mm 0,0 UV-I 0 W/m 15,3 C 14,9 C 12,9 km/h (3 Bft) 100,00 %
07.07.2018 00:52 16,3 C 22,8 C 94 % 1018,3 hPa 0,0 l/m 7,0 km/h (2 Bft) W-SW 256 0 min 0,000 mm 0,0 UV-I 0 W/m 15,3 C 16,0 C 9,7 km/h (2 Bft) 95,65 %
07.07.2018 00:53 16,3 C 22,8 C 94 % 1018,3 hPa 0,0 l/m 6,3 km/h (2 Bft) W 265 0 min 0,000 mm 0,0 UV-I 0 W/m 15,3 C 16,3 C 8,0 km/h (2 Bft) 100,00 %
07.07.2018 00:54 16,3 C 22,8 C 94 % 1018,3 hPa 0,0 l/m 6,7 km/h (2 Bft) W-SW 255 0 min 0,000 mm 0,0 UV-I 0 W/m 15,3 C 16,2 C 11,3 km/h (2 Bft) 100,00 %
07.07.2018 00:55 16,3 C 22,8 C 94 % 1018,3 hPa 0,0 l/m 8,3 km/h (2 Bft) W-SW 257 0 min 0,000 mm 0,0 UV-I 0 W/m 15,3 C 15,3 C 14,5 km/h (3 Bft) 100,00 %
07.07.2018 00:56 16,3 C 22,8 C 94 % 1018,3 hPa 0,0 l/m 7,6 km/h (2 Bft) W 264 0 min 0,000 mm 0,0 UV-I 0 W/m 15,3 C 15,7 C 12,9 km/h (3 Bft) 100,00 %
07.07.2018 00:57 16,3 C 22,8 C 94 % 1018,3 hPa 0,0 l/m 6,6 km/h (2 Bft) W-SW 256 0 min 0,000 mm 0,0 UV-I 0 W/m 15,3 C 16,2 C 11,3 km/h (2 Bft) 100,00 %
07.07.2018 00:58 16,3 C 22,8 C 94 % 1018,4 hPa 0,0 l/m 4,4 km/h (1 Bft) W-SW 254 0 min 0,000 mm 0,0 UV-I 0 W/m 15,3 C 16,3 C 6,4 km/h (2 Bft) 100,00 %
07.07.2018 00:59 16,3 C 22,8 C 94 % 1018,4 hPa 0,0 l/m 4,9 km/h (1 Bft) W 265 0 min 0,000 mm 0,0 UV-I 0 W/m 15,3 C 16,3 C 6,4 km/h (2 Bft) 100,00 %
07.07.2018 01:00 16,2 C 22,8 C 94 % 1018,4 hPa 0,0 l/m 6,2 km/h (2 Bft) W-SW 257 0 min 0,000 mm 0,0 UV-I 0 W/m 15,2 C 16,2 C 9,7 km/h (2 Bft) 100,00 %
07.07.2018 01:01 16,3 C 22,8 C 94 % 1018,3 hPa 0,0 l/m 7,7 km/h (2 Bft) W-SW 243 0 min 0,000 mm 0,0 UV-I 0 W/m 15,3 C 15,6 C 12,9 km/h (3 Bft) 100,00 %
07.07.2018 01:02 16,3 C 22,8 C 94 % 1018,3 hPa 0,0 l/m 6,2 km/h (2 Bft) W 265 0 min 0,000 mm 0,0 UV-I 0 W/m 15,3 C 16,3 C 9,7 km/h (2 Bft) 95,65 %
07.07.2018 01:03 16,3 C 22,8 C 94 % 1018,3 hPa 0,0 l/m 6,0 km/h (2 Bft) W 259 0 min 0,000 mm 0,0 UV-I 0 W/m 15,3 C 16,3 C 9,7 km/h (2 Bft) 100,00 %
07.07.2018 01:04 16,3 C 22,8 C 94 % 1018,4 hPa 0,0 l/m 5,1 km/h (1 Bft) W 261 0 min 0,000 mm 0,0 UV-I 0 W/m 15,3 C 16,3 C 6,4 km/h (2 Bft) 100,00 %
07.07.2018 01:05 16,2 C 22,8 C 94 % 1018,3 hPa 0,0 l/m 5,8 km/h (2 Bft) W 260 0 min 0,000 mm 0,0 UV-I 0 W/m 15,2 C 16,2 C 9,7 km/h (2 Bft) 100,00 %
07.07.2018 01:06 16,2 C 22,8 C 94 % 1018,3 hPa 0,0 l/m 5,6 km/h (1 Bft) W 267 0 min 0,000 mm 0,0 UV-I 0 W/m 15,2 C 16,2 C 9,7 km/h (2 Bft) 100,00 %
07.07.2018 01:07 16,2 C 22,8 C 94 % 1018,3 hPa 0,0 l/m 5,5 km/h (1 Bft) W-NW 283 0 min 0,000 mm 0,0 UV-I 0 W/m 15,2 C 16,2 C 9,7 km/h (2 Bft) 100,00 %
07.07.2018 01:08 16,3 C 22,8 C 95 % 1018,3 hPa 0,0 l/m 6,1 km/h (2 Bft) W 259 0 min 0,000 mm 0,0 UV-I 0 W/m 15,5 C 16,3 C 9,7 km/h (2 Bft) 100,00 %
07.07.2018 01:09 16,2 C 22,8 C 95 % 1018,3 hPa 0,0 l/m 6,1 km/h (2 Bft) W 259 0 min 0,000 mm 0,0 UV-I 0 W/m 15,4 C 16,2 C 9,7 km/h (2 Bft) 100,00 %
07.07.2018 01:10 16,2 C 22,8 C 94 % 1018,3 hPa 0,0 l/m 6,2 km/h (2 Bft) W 262 0 min 0,000 mm 0,0 UV-I 0 W/m 15,2 C 16,2 C 9,7 km/h (2 Bft) 96,30 %
07.07.2018 01:11 16,2 C 22,8 C 94 % 1018,3 hPa 0,0 l/m 5,9 km/h (2 Bft) W 265 0 min 0,000 mm 0,0 UV-I 0 W/m 15,2 C 16,2 C 9,7 km/h (2 Bft) 95,65 %
07.07.2018 01:12 16,2 C 22,8 C 94 % 1018,3 hPa 0,0 l/m 6,2 km/h (2 Bft) W-SW 246 0 min 0,000 mm 0,0 UV-I 0 W/m 15,2 C 16,2 C 9,7 km/h (2 Bft) 100,00 %
07.07.2018 01:13 16,2 C 22,8 C 95 % 1018,2 hPa 0,0 l/m 6,6 km/h (2 Bft) W 262 0 min 0,000 mm 0,0 UV-I 0 W/m 15,4 C 16,1 C 9,7 km/h (2 Bft) 95,65 %
07.07.2018 01:14 16,2 C 22,8 C 95 % 1018,3 hPa 0,0 l/m 5,7 km/h (1 Bft) W 275 0 min 0,000 mm 0,0 UV-I 0 W/m 15,4 C 16,2 C 6,4 km/h (2 Bft) 100,00 %
07.07.2018 01:15 16,3 C 22,8 C 95 % 1018,3 hPa 0,0 l/m 5,2 km/h (1 Bft) W-SW 256 0 min 0,000 mm 0,0 UV-I 0 W/m 15,5 C 16,3 C 6,4 km/h (2 Bft) 95,65 %
07.07.2018 01:16 16,3 C 22,8 C 95 % 1018,3 hPa 0,0 l/m 5,4 km/h (1 Bft) W 264 0 min 0,000 mm 0,0 UV-I 0 W/m 15,5 C 16,3 C 6,4 km/h (2 Bft) 100,00 %
07.07.2018 01:17 16,2 C 22,8 C 95 % 1018,3 hPa 0,0 l/m 4,2 km/h (1 Bft) W 265 0 min 0,000 mm 0,0 UV-I 0 W/m 15,4 C 16,2 C 4,8 km/h (1 Bft) 95,65 %
07.07.2018 01:18 16,2 C 22,8 C 95 % 1018,2 hPa 0,0 l/m 5,4 km/h (1 Bft) W 262 0 min 0,000 mm 0,0 UV-I 0 W/m 15,4 C 16,2 C 8,0 km/h (2 Bft) 95,83 %
07.07.2018 01:19 16,2 C 22,8 C 95 % 1018,2 hPa 0,0 l/m 5,5 km/h (1 Bft) W 261 0 min 0,000 mm 0,0 UV-I 0 W/m 15,4 C 16,2 C 8,0 km/h (2 Bft) 100,00 %
07.07.2018 01:20 16,2 C 22,8 C 95 % 1018,2 hPa 0,0 l/m 6,2 km/h (2 Bft) W 264 0 min 0,000 mm 0,0 UV-I 0 W/m 15,4 C 16,2 C 9,7 km/h (2 Bft) 95,83 %
07.07.2018 01:21 16,2 C 22,8 C 95 % 1018,2 hPa 0,0 l/m 4,3 km/h (1 Bft) W 269 0 min 0,000 mm 0,0 UV-I 0 W/m 15,4 C 16,2 C 9,7 km/h (2 Bft) 100,00 %
07.07.2018 01:22 16,2 C 22,8 C 95 % 1018,3 hPa 0,0 l/m 3,6 km/h (1 Bft) W 275 0 min 0,000 mm 0,0 UV-I 0 W/m 15,4 C 16,2 C 4,8 km/h (1 Bft) 95,83 %
07.07.2018 01:23 16,2 C 22,8 C 95 % 1018,3 hPa 0,0 l/m 3,6 km/h (1 Bft) W 273 0 min 0,000 mm 0,0 UV-I 0 W/m 15,4 C 16,2 C 4,8 km/h (1 Bft) 100,00 %
07.07.2018 01:24 16,2 C 22,8 C 95 % 1018,3 hPa 0,0 l/m 5,0 km/h (1 Bft) W 264 0 min 0,000 mm 0,0 UV-I 0 W/m 15,4 C 16,2 C 9,7 km/h (2 Bft) 95,83 %
07.07.2018 01:25 16,2 C 22,8 C 95 % 1018,3 hPa 0,0 l/m 6,4 km/h (2 Bft) W-SW 257 0 min 0,000 mm 0,0 UV-I 0 W/m 15,4 C 16,2 C 9,7 km/h (2 Bft) 95,83 %
07.07.2018 01:26 16,2 C 22,8 C 95 % 1018,3 hPa 0,0 l/m 5,4 km/h (1 Bft) W 267 0 min 0,000 mm 0,0 UV-I 0 W/m 15,4 C 16,2 C 9,7 km/h (2 Bft) 100,00 %
07.07.2018 01:27 16,2 C 22,8 C 95 % 1018,3 hPa 0,0 l/m 6,2 km/h (2 Bft) SW 225 0 min 0,000 mm 0,0 UV-I 0 W/m 15,4 C 16,2 C 9,7 km/h (2 Bft) 95,83 %
07.07.2018 01:28 16,2 C 22,8 C 95 % 1018,3 hPa 0,0 l/m 5,2 km/h (1 Bft) W 268 0 min 0,000 mm 0,0 UV-I 0 W/m 15,4 C 16,2 C 9,7 km/h (2 Bft) 95,65 %
07.07.2018 01:29 16,2 C 22,8 C 95 % 1018,3 hPa 0,0 l/m 7,1 km/h (2 Bft) W 266 0 min 0,000 mm 0,0 UV-I 0 W/m 15,4 C 15,8 C 9,7 km/h (2 Bft) 95,83 %
07.07.2018 01:30 16,2 C 22,8 C 95 % 1018,2 hPa 0,0 l/m 8,2 km/h (2 Bft) W 268 0 min 0,000 mm 0,0 UV-I 0 W/m 15,4 C 15,3 C 11,3 km/h (2 Bft) 95,65 %
07.07.2018 01:31 16,2 C 22,8 C 95 % 1018,3 hPa 0,0 l/m 5,6 km/h (1 Bft) W-SW 251 0 min 0,000 mm 0,0 UV-I 0 W/m 15,4 C 16,2 C 8,0 km/h (2 Bft) 95,83 %
07.07.2018 01:32 16,2 C 22,8 C 95 % 1018,3 hPa 0,0 l/m 5,2 km/h (1 Bft) W 260 0 min 0,000 mm 0,0 UV-I 0 W/m 15,4 C 16,2 C 6,4 km/h (2 Bft) 95,65 %
07.07.2018 01:33 16,2 C 22,8 C 95 % 1018,3 hPa 0,0 l/m 7,0 km/h (2 Bft) W-SW 244 0 min 0,000 mm 0,0 UV-I 0 W/m 15,4 C 15,9 C 11,3 km/h (2 Bft) 95,83 %
07.07.2018 01:34 16,2 C 22,8 C 95 % 1018,3 hPa 0,0 l/m 8,4 km/h (2 Bft) W 268 0 min 0,000 mm 0,0 UV-I 0 W/m 15,4 C 15,2 C 12,9 km/h (3 Bft) 100,00 %
07.07.2018 01:35 16,3 C 22,8 C 95 % 1018,3 hPa 0,0 l/m 7,7 km/h (2 Bft) W 261 0 min 0,000 mm 0,0 UV-I 0 W/m 15,5 C 15,6 C 11,3 km/h (2 Bft) 96,15 %
07.07.2018 01:36 16,3 C 22,8 C 95 % 1018,3 hPa 0,0 l/m 6,7 km/h (2 Bft) W 264 0 min 0,000 mm 0,0 UV-I 0 W/m 15,5 C 16,2 C 9,7 km/h (2 Bft) 100,00 %
07.07.2018 01:37 16,3 C 22,8 C 95 % 1018,3 hPa 0,0 l/m 8,8 km/h (2 Bft) W 265 0 min 0,000 mm 0,0 UV-I 0 W/m 15,5 C 15,1 C 11,3 km/h (2 Bft) 96,15 %
07.07.2018 01:38 16,3 C 22,8 C 95 % 1018,3 hPa 0,0 l/m 7,4 km/h (2 Bft) W-SW 254 0 min 0,000 mm 0,0 UV-I 0 W/m 15,5 C 15,8 C 9,7 km/h (2 Bft) 95,83 %
07.07.2018 01:39 16,3 C 22,8 C 95 % 1018,3 hPa 0,0 l/m 6,3 km/h (2 Bft) W 263 0 min 0,000 mm 0,0 UV-I 0 W/m 15,5 C 16,3 C 9,7 km/h (2 Bft) 100,00 %
07.07.2018 01:40 16,2 C 22,8 C 95 % 1018,3 hPa 0,0 l/m 8,5 km/h (2 Bft) W-SW 253 0 min 0,000 mm 0,0 UV-I 0 W/m 15,4 C 15,1 C 12,9 km/h (3 Bft) 95,83 %
07.07.2018 01:41 16,2 C 22,8 C 95 % 1018,3 hPa 0,0 l/m 6,0 km/h (2 Bft) W-SW 246 0 min 0,000 mm 0,0 UV-I 0 W/m 15,4 C 16,2 C 9,7 km/h (2 Bft) 100,00 %
07.07.2018 01:42 16,2 C 22,8 C 95 % 1018,3 hPa 0,0 l/m 6,9 km/h (2 Bft) W-SW 256 0 min 0,000 mm 0,0 UV-I 0 W/m 15,4 C 15,9 C 9,7 km/h (2 Bft) 95,83 %
07.07.2018 01:43 16,2 C 22,8 C 95 % 1018,3 hPa 0,0 l/m 5,7 km/h (1 Bft) W 260 0 min 0,000 mm 0,0 UV-I 0 W/m 15,4 C 16,2 C 6,4 km/h (2 Bft) 100,00 %
07.07.2018 01:44 16,2 C 22,8 C 95 % 1018,3 hPa 0,0 l/m 6,1 km/h (2 Bft) W 259 0 min 0,000 mm 0,0 UV-I 0 W/m 15,4 C 16,2 C 9,7 km/h (2 Bft) 100,00 %
07.07.2018 01:45 16,2 C 22,8 C 95 % 1018,3 hPa 0,0 l/m 5,4 km/h (1 Bft) W 265 0 min 0,000 mm 0,0 UV-I 0 W/m 15,4 C 16,2 C 11,3 km/h (2 Bft) 100,00 %
07.07.2018 01:46 16,3 C 22,8 C 95 % 1018,3 hPa 0,0 l/m 5,2 km/h (1 Bft) W-SW 257 0 min 0,000 mm 0,0 UV-I 0 W/m 15,5 C 16,3 C 6,4 km/h (2 Bft) 100,00 %
07.07.2018 01:47 16,2 C 22,8 C 95 % 1018,3 hPa 0,0 l/m 4,7 km/h (1 Bft) W-SW 254 0 min 0,000 mm 0,0 UV-I 0 W/m 15,4 C 16,2 C 6,4 km/h (2 Bft) 100,00 %
07.07.2018 01:48 16,3 C 22,8 C 95 % 1018,3 hPa 0,0 l/m 4,4 km/h (1 Bft) W-SW 250 0 min 0,000 mm 0,0 UV-I 0 W/m 15,5 C 16,3 C 4,8 km/h (1 Bft) 100,00 %
07.07.2018 01:49 16,2 C 22,8 C 95 % 1018,2 hPa 0,0 l/m 5,3 km/h (1 Bft) W-SW 252 0 min 0,000 mm 0,0 UV-I 0 W/m 15,4 C 16,2 C 6,4 km/h (2 Bft) 92,31 %
07.07.2018 01:50 16,2 C 22,8 C 95 % 1018,2 hPa 0,0 l/m 5,6 km/h (1 Bft) W-SW 240 0 min 0,000 mm 0,0 UV-I 0 W/m 15,4 C 16,2 C 8,0 km/h (2 Bft) 100,00 %
07.07.2018 01:51 16,2 C 22,8 C 95 % 1018,2 hPa 0,0 l/m 6,2 km/h (2 Bft) W-SW 258 0 min 0,000 mm 0,0 UV-I 0 W/m 15,4 C 16,2 C 8,0 km/h (2 Bft) 100,00 %
07.07.2018 01:52 16,2 C 22,8 C 95 % 1018,2 hPa 0,0 l/m 4,6 km/h (1 Bft) W 260 0 min 0,000 mm 0,0 UV-I 0 W/m 15,4 C 16,2 C 6,4 km/h (2 Bft) 100,00 %
07.07.2018 01:53 16,2 C 22,8 C 95 % 1018,2 hPa 0,0 l/m 5,3 km/h (1 Bft) W 265 0 min 0,000 mm 0,0 UV-I 0 W/m 15,4 C 16,2 C 8,0 km/h (2 Bft) 100,00 %
07.07.2018 01:54 16,2 C 22,8 C 95 % 1018,2 hPa 0,0 l/m 4,2 km/h (1 Bft) W-SW 252 0 min 0,000 mm 0,0 UV-I 0 W/m 15,4 C 16,2 C 4,8 km/h (1 Bft) 100,00 %
07.07.2018 01:55 16,2 C 22,8 C 95 % 1018,1 hPa 0,0 l/m 4,4 km/h (1 Bft) W 269 0 min 0,000 mm 0,0 UV-I 0 W/m 15,4 C 16,2 C 6,4 km/h (2 Bft) 100,00 %
07.07.2018 01:56 16,2 C 22,8 C 95 % 1018,2 hPa 0,0 l/m 4,4 km/h (1 Bft) W-SW 258 0 min 0,000 mm 0,0 UV-I 0 W/m 15,4 C 16,2 C 6,4 km/h (2 Bft) 100,00 %
07.07.2018 01:57 16,2 C 22,8 C 95 % 1018,2 hPa 0,0 l/m 5,7 km/h (1 Bft) W 277 0 min 0,000 mm 0,0 UV-I 0 W/m 15,4 C 16,2 C 6,4 km/h (2 Bft) 100,00 %
07.07.2018 01:58 16,2 C 22,8 C 95 % 1018,2 hPa 0,0 l/m 5,0 km/h (1 Bft) W 269 0 min 0,000 mm 0,0 UV-I 0 W/m 15,4 C 16,2 C 6,4 km/h (2 Bft) 100,00 %
07.07.2018 01:59 16,2 C 22,8 C 95 % 1018,2 hPa 0,0 l/m 3,8 km/h (1 Bft) W 268 0 min 0,000 mm 0,0 UV-I 0 W/m 15,4 C 16,2 C 6,4 km/h (2 Bft) 100,00 %
07.07.2018 02:00 16,2 C 22,8 C 95 % 1018,2 hPa 0,0 l/m 1,4 km/h (1 Bft) W 268 0 min 0,000 mm 0,0 UV-I 0 W/m 15,4 C 16,2 C 3,2 km/h (1 Bft) 100,00 %
07.07.2018 02:01 16,2 C 22,8 C 95 % 1018,2 hPa 0,0 l/m 1,7 km/h (1 Bft) W 268 0 min 0,000 mm 0,0 UV-I 0 W/m 15,4 C 16,2 C 3,2 km/h (1 Bft) 100,00 %
07.07.2018 02:02 16,1 C 22,8 C 95 % 1018,2 hPa 0,0 l/m 3,0 km/h (1 Bft) W 270 0 min 0,000 mm 0,0 UV-I 0 W/m 15,3 C 16,1 C 4,8 km/h (1 Bft) 100,00 %
07.07.2018 02:03 16,1 C 22,8 C 95 % 1018,2 hPa 0,0 l/m 3,5 km/h (1 Bft) W 269 0 min 0,000 mm 0,0 UV-I 0 W/m 15,3 C 16,1 C 4,8 km/h (1 Bft) 100,00 %
07.07.2018 02:04 16,1 C 22,8 C 95 % 1018,2 hPa 0,0 l/m 3,1 km/h (1 Bft) W 265 0 min 0,000 mm 0,0 UV-I 0 W/m 15,3 C 16,1 C 6,4 km/h (2 Bft) 100,00 %
07.07.2018 02:05 16,1 C 22,8 C 95 % 1018,2 hPa 0,0 l/m 4,8 km/h (1 Bft) W 275 0 min 0,000 mm 0,0 UV-I 0 W/m 15,3 C 16,1 C 6,4 km/h (2 Bft) 100,00 %
07.07.2018 02:06 16,1 C 22,8 C 95 % 1018,2 hPa 0,0 l/m 3,7 km/h (1 Bft) W 259 0 min 0,000 mm 0,0 UV-I 0 W/m 15,3 C 16,1 C 6,4 km/h (2 Bft) 95,65 %
07.07.2018 02:07 16,1 C 22,8 C 95 % 1018,2 hPa 0,0 l/m 4,2 km/h (1 Bft) W 267 0 min 0,000 mm 0,0 UV-I 0 W/m 15,3 C 16,1 C 6,4 km/h (2 Bft) 100,00 %
07.07.2018 02:08 16,1 C 22,8 C 95 % 1018,2 hPa 0,0 l/m 5,9 km/h (2 Bft) W-SW 250 0 min 0,000 mm 0,0 UV-I 0 W/m 15,3 C 16,1 C 9,7 km/h (2 Bft) 100,00 %
07.07.2018 02:09 16,1 C 22,8 C 95 % 1018,2 hPa 0,0 l/m 7,1 km/h (2 Bft) W 263 0 min 0,000 mm 0,0 UV-I 0 W/m 15,3 C 15,7 C 11,3 km/h (2 Bft) 100,00 %
07.07.2018 02:10 16,1 C 22,8 C 95 % 1018,2 hPa 0,0 l/m 5,6 km/h (1 Bft) W-SW 256 0 min 0,000 mm 0,0 UV-I 0 W/m 15,3 C 16,1 C 6,4 km/h (2 Bft) 95,65 %
07.07.2018 02:11 16,1 C 22,8 C 95 % 1018,2 hPa 0,0 l/m 4,8 km/h (1 Bft) W-SW 252 0 min 0,000 mm 0,0 UV-I 0 W/m 15,3 C 16,1 C 6,4 km/h (2 Bft) 100,00 %
07.07.2018 02:12 16,1 C 22,8 C 95 % 1018,2 hPa 0,0 l/m 5,5 km/h (1 Bft) W-SW 250 0 min 0,000 mm 0,0 UV-I 0 W/m 15,3 C 16,1 C 6,4 km/h (2 Bft) 95,65 %
07.07.2018 02:13 16,1 C 22,8 C 95 % 1018,2 hPa 0,0 l/m 4,3 km/h (1 Bft) W 263 0 min 0,000 mm 0,0 UV-I 0 W/m 15,3 C 16,1 C 6,4 km/h (2 Bft) 100,00 %
07.07.2018 02:14 16,2 C 22,8 C 95 % 1018,2 hPa 0,0 l/m 6,4 km/h (2 Bft) W 270 0 min 0,000 mm 0,0 UV-I 0 W/m 15,4 C 16,2 C 9,7 km/h (2 Bft) 100,00 %
07.07.2018 02:15 16,2 C 22,8 C 95 % 1018,2 hPa 0,0 l/m 6,1 km/h (2 Bft) W 263 0 min 0,000 mm 0,0 UV-I 0 W/m 15,4 C 16,2 C 9,7 km/h (2 Bft) 100,00 %
07.07.2018 02:16 16,2 C 22,8 C 95 % 1018,2 hPa 0,0 l/m 6,3 km/h (2 Bft) W 270 0 min 0,000 mm 0,0 UV-I 0 W/m 15,4 C 16,2 C 11,3 km/h (2 Bft) 100,00 %
07.07.2018 02:17 16,2 C 22,8 C 95 % 1018,2 hPa 0,0 l/m 6,7 km/h (2 Bft) W-SW 238 0 min 0,000 mm 0,0 UV-I 0 W/m 15,4 C 16,1 C 9,7 km/h (2 Bft) 100,00 %
07.07.2018 02:18 16,2 C 22,8 C 95 % 1018,1 hPa 0,0 l/m 5,4 km/h (1 Bft) W-SW 254 0 min 0,000 mm 0,0 UV-I 0 W/m 15,4 C 16,2 C 6,4 km/h (2 Bft) 100,00 %
07.07.2018 02:19 16,2 C 22,8 C 95 % 1018,2 hPa 0,0 l/m 5,6 km/h (1 Bft) W-SW 242 0 min 0,000 mm 0,0 UV-I 0 W/m 15,4 C 16,2 C 8,0 km/h (2 Bft) 100,00 %
07.07.2018 02:20 16,2 C 22,8 C 95 % 1018,1 hPa 0,0 l/m 6,0 km/h (2 Bft) W-SW 251 0 min 0,000 mm 0,0 UV-I 0 W/m 15,4 C 16,2 C 8,0 km/h (2 Bft) 100,00 %
07.07.2018 02:21 16,2 C 22,8 C 95 % 1018,1 hPa 0,0 l/m 6,9 km/h (2 Bft) W-SW 241 0 min 0,000 mm 0,0 UV-I 0 W/m 15,4 C 15,9 C 9,7 km/h (2 Bft) 95,65 %
07.07.2018 02:22 16,2 C 22,8 C 95 % 1018,1 hPa 0,0 l/m 6,0 km/h (2 Bft) W-SW 244 0 min 0,000 mm 0,0 UV-I 0 W/m 15,4 C 16,2 C 8,0 km/h (2 Bft) 100,00 %
07.07.2018 02:23 16,2 C 22,8 C 95 % 1018,1 hPa 0,0 l/m 5,0 km/h (1 Bft) W 263 0 min 0,000 mm 0,0 UV-I 0 W/m 15,4 C 16,2 C 6,4 km/h (2 Bft) 95,65 %
07.07.2018 02:24 16,2 C 22,8 C 95 % 1018,1 hPa 0,0 l/m 5,5 km/h (1 Bft) W-SW 247 0 min 0,000 mm 0,0 UV-I 0 W/m 15,4 C 16,2 C 6,4 km/h (2 Bft) 100,00 %
07.07.2018 02:25 16,2 C 22,8 C 95 % 1018,1 hPa 0,0 l/m 5,2 km/h (1 Bft) W-SW 257 0 min 0,000 mm 0,0 UV-I 0 W/m 15,4 C 16,2 C 8,0 km/h (2 Bft) 100,00 %
07.07.2018 02:26 16,2 C 22,8 C 95 % 1018,1 hPa 0,0 l/m 7,5 km/h (2 Bft) W-SW 247 0 min 0,000 mm 0,0 UV-I 0 W/m 15,4 C 15,6 C 9,7 km/h (2 Bft) 100,00 %
07.07.2018 02:27 16,2 C 22,8 C 95 % 1018,1 hPa 0,0 l/m 7,5 km/h (2 Bft) SW 225 0 min 0,000 mm 0,0 UV-I 0 W/m 15,4 C 15,6 C 11,3 km/h (2 Bft) 100,00 %
07.07.2018 02:28 16,2 C 22,8 C 95 % 1018,0 hPa 0,0 l/m 7,8 km/h (2 Bft) SW 221 0 min 0,000 mm 0,0 UV-I 0 W/m 15,4 C 15,5 C 11,3 km/h (2 Bft) 100,00 %
07.07.2018 02:29 16,2 C 22,8 C 95 % 1018,0 hPa 0,0 l/m 8,0 km/h (2 Bft) W-SW 242 0 min 0,000 mm 0,0 UV-I 0 W/m 15,4 C 15,4 C 9,7 km/h (2 Bft) 100,00 %
07.07.2018 02:30 16,2 C 22,8 C 95 % 1018,0 hPa 0,0 l/m 7,9 km/h (2 Bft) SW 232 0 min 0,000 mm 0,0 UV-I 0 W/m 15,4 C 15,4 C 11,3 km/h (2 Bft) 100,00 %
07.07.2018 02:31 16,2 C 22,8 C 95 % 1018,0 hPa 0,0 l/m 9,9 km/h (2 Bft) W-SW 237 0 min 0,000 mm 0,0 UV-I 0 W/m 15,4 C 14,5 C 12,9 km/h (3 Bft) 95,65 %
07.07.2018 02:32 16,1 C 22,8 C 95 % 1018,0 hPa 0,0 l/m 7,3 km/h (2 Bft) W-SW 256 0 min 0,000 mm 0,0 UV-I 0 W/m 15,3 C 15,6 C 9,7 km/h (2 Bft) 100,00 %
07.07.2018 02:33 16,2 C 22,8 C 95 % 1018,0 hPa 0,0 l/m 6,6 km/h (2 Bft) SW 228 0 min 0,000 mm 0,0 UV-I 0 W/m 15,4 C 16,1 C 12,9 km/h (3 Bft) 100,00 %
07.07.2018 02:34 16,1 C 22,8 C 95 % 1018,0 hPa 0,0 l/m 6,0 km/h (2 Bft) W-SW 242 0 min 0,000 mm 0,0 UV-I 0 W/m 15,3 C 16,1 C 8,0 km/h (2 Bft) 100,00 %
07.07.2018 02:35 16,1 C 22,8 C 95 % 1018,0 hPa 0,0 l/m 6,5 km/h (2 Bft) W 267 0 min 0,000 mm 0,0 UV-I 0 W/m 15,3 C 16,1 C 9,7 km/h (2 Bft) 100,00 %
07.07.2018 02:36 16,1 C 22,8 C 95 % 1018,0 hPa 0,0 l/m 5,8 km/h (2 Bft) W 270 0 min 0,000 mm 0,0 UV-I 0 W/m 15,3 C 16,1 C 8,0 km/h (2 Bft) 100,00 %
07.07.2018 02:37 16,1 C 22,8 C 95 % 1018,0 hPa 0,0 l/m 6,4 km/h (2 Bft) W-SW 248 0 min 0,000 mm 0,0 UV-I 0 W/m 15,3 C 16,1 C 9,7 km/h (2 Bft) 100,00 %
07.07.2018 02:38 16,1 C 22,8 C 95 % 1018,0 hPa 0,0 l/m 5,8 km/h (2 Bft) W-SW 252 0 min 0,000 mm 0,0 UV-I 0 W/m 15,3 C 16,1 C 9,7 km/h (2 Bft) 100,00 %
07.07.2018 02:39 16,1 C 22,8 C 95 % 1018,0 hPa 0,0 l/m 7,3 km/h (2 Bft) W 262 0 min 0,000 mm 0,0 UV-I 0 W/m 15,3 C 15,6 C 11,3 km/h (2 Bft) 100,00 %
07.07.2018 02:40 16,1 C 22,8 C 95 % 1018,0 hPa 0,0 l/m 7,4 km/h (2 Bft) SW 232 0 min 0,000 mm 0,0 UV-I 0 W/m 15,3 C 15,6 C 11,3 km/h (2 Bft) 100,00 %
07.07.2018 02:41 16,1 C 22,8 C 95 % 1018,0 hPa 0,0 l/m 5,1 km/h (1 Bft) W-SW 244 0 min 0,000 mm 0,0 UV-I 0 W/m 15,3 C 16,1 C 9,7 km/h (2 Bft) 100,00 %
07.07.2018 02:42 16,2 C 22,8 C 95 % 1018,0 hPa 0,0 l/m 6,4 km/h (2 Bft) W-SW 239 0 min 0,000 mm 0,0 UV-I 0 W/m 15,4 C 16,2 C 8,0 km/h (2 Bft) 100,00 %
07.07.2018 02:43 16,2 C 22,8 C 95 % 1018,0 hPa 0,0 l/m 9,0 km/h (2 Bft) W 259 0 min 0,000 mm 0,0 UV-I 0 W/m 15,4 C 14,9 C 12,9 km/h (3 Bft) 100,00 %
07.07.2018 02:44 16,2 C 22,8 C 95 % 1018,0 hPa 0,0 l/m 8,0 km/h (2 Bft) SW 234 0 min 0,000 mm 0,0 UV-I 0 W/m 15,4 C 15,4 C 14,5 km/h (3 Bft) 100,00 %
07.07.2018 02:45 16,2 C 22,8 C 95 % 1018,0 hPa 0,0 l/m 9,9 km/h (2 Bft) SW 229 0 min 0,000 mm 0,0 UV-I 0 W/m 15,4 C 14,5 C 14,5 km/h (3 Bft) 100,00 %
07.07.2018 02:46 16,2 C 22,8 C 95 % 1018,0 hPa 0,0 l/m 12,3 km/h (3 Bft) W-SW 241 0 min 0,000 mm 0,0 UV-I 0 W/m 15,4 C 13,5 C 16,1 km/h (3 Bft) 100,00 %
07.07.2018 02:47 16,2 C 22,8 C 95 % 1018,0 hPa 0,0 l/m 11,9 km/h (2 Bft) W 265 0 min 0,000 mm 0,0 UV-I 0 W/m 15,4 C 13,7 C 14,5 km/h (3 Bft) 100,00 %
07.07.2018 02:48 16,2 C 22,8 C 94 % 1018,0 hPa 0,0 l/m 9,1 km/h (2 Bft) SW 236 0 min 0,000 mm 0,0 UV-I 0 W/m 15,2 C 14,8 C 14,5 km/h (3 Bft) 100,00 %
07.07.2018 02:49 16,2 C 22,8 C 94 % 1018,0 hPa 0,0 l/m 13,3 km/h (3 Bft) W 262 0 min 0,000 mm 0,0 UV-I 0 W/m 15,2 C 13,2 C 16,1 km/h (3 Bft) 100,00 %
07.07.2018 02:50 16,3 C 22,8 C 94 % 1018,0 hPa 0,0 l/m 11,5 km/h (2 Bft) W 268 0 min 0,000 mm 0,0 UV-I 0 W/m 15,3 C 14,0 C 14,5 km/h (3 Bft) 100,00 %
07.07.2018 02:51 16,3 C 22,8 C 94 % 1018,0 hPa 0,0 l/m 11,6 km/h (2 Bft) W 261 0 min 0,000 mm 0,0 UV-I 0 W/m 15,3 C 13,9 C 14,5 km/h (3 Bft) 100,00 %
07.07.2018 02:52 16,3 C 22,8 C 94 % 1018,0 hPa 0,0 l/m 9,7 km/h (2 Bft) W 275 0 min 0,000 mm 0,0 UV-I 0 W/m 15,3 C 14,7 C 14,5 km/h (3 Bft) 100,00 %
07.07.2018 02:53 16,3 C 22,2 C 94 % 1018,0 hPa 0,0 l/m 11,7 km/h (2 Bft) W 280 0 min 0,000 mm 0,0 UV-I 0 W/m 15,3 C 13,9 C 16,1 km/h (3 Bft) 95,65 %
07.07.2018 02:54 16,3 C 22,8 C 94 % 1018,0 hPa 0,0 l/m 9,3 km/h (2 Bft) W 263 0 min 0,000 mm 0,0 UV-I 0 W/m 15,3 C 14,9 C 12,9 km/h (3 Bft) 100,00 %
07.07.2018 02:55 16,3 C 22,2 C 94 % 1018,0 hPa 0,0 l/m 6,7 km/h (2 Bft) W 265 0 min 0,000 mm 0,0 UV-I 0 W/m 15,3 C 16,2 C 11,3 km/h (2 Bft) 100,00 %
07.07.2018 02:56 16,3 C 22,2 C 94 % 1018,0 hPa 0,0 l/m 7,1 km/h (2 Bft) W 261 0 min 0,000 mm 0,0 UV-I 0 W/m 15,3 C 15,9 C 11,3 km/h (2 Bft) 100,00 %
07.07.2018 02:57 16,3 C 22,2 C 94 % 1018,1 hPa 0,0 l/m 9,3 km/h (2 Bft) W 270 0 min 0,000 mm 0,0 UV-I 0 W/m 15,3 C 14,9 C 12,9 km/h (3 Bft) 95,65 %
07.07.2018 02:58 16,3 C 22,2 C 94 % 1018,0 hPa 0,0 l/m 7,9 km/h (2 Bft) W 267 0 min 0,000 mm 0,0 UV-I 0 W/m 15,3 C 15,5 C 11,3 km/h (2 Bft) 100,00 %
07.07.2018 02:59 16,3 C 22,2 C 94 % 1018,0 hPa 0,0 l/m 11,5 km/h (2 Bft) W 267 0 min 0,000 mm 0,0 UV-I 0 W/m 15,3 C 14,0 C 14,5 km/h (3 Bft) 100,00 %
07.07.2018 03:00 16,4 C 22,2 C 94 % 1018,0 hPa 0,0 l/m 10,3 km/h (2 Bft) W 267 0 min 0,000 mm 0,0 UV-I 0 W/m 15,4 C 14,5 C 12,9 km/h (3 Bft) 100,00 %
07.07.2018 03:01 16,4 C 22,2 C 94 % 1018,1 hPa 0,0 l/m 6,0 km/h (2 Bft) W 271 0 min 0,000 mm 0,0 UV-I 0 W/m 15,4 C 16,4 C 11,3 km/h (2 Bft) 100,00 %
07.07.2018 03:02 16,4 C 22,2 C 94 % 1018,1 hPa 0,0 l/m 8,3 km/h (2 Bft) W 273 0 min 0,000 mm 0,0 UV-I 0 W/m 15,4 C 15,4 C 11,3 km/h (2 Bft) 100,00 %
07.07.2018 03:03 16,3 C 22,2 C 94 % 1018,1 hPa 0,0 l/m 8,3 km/h (2 Bft) W-SW 244 0 min 0,000 mm 0,0 UV-I 0 W/m 15,3 C 15,3 C 11,3 km/h (2 Bft) 95,65 %
07.07.2018 03:04 16,4 C 22,2 C 94 % 1018,1 hPa 0,0 l/m 10,0 km/h (2 Bft) W 279 0 min 0,000 mm 0,0 UV-I 0 W/m 15,4 C 14,7 C 14,5 km/h (3 Bft) 100,00 %
07.07.2018 03:05 16,4 C 22,2 C 94 % 1018,1 hPa 0,0 l/m 10,8 km/h (2 Bft) W-SW 258 0 min 0,000 mm 0,0 UV-I 0 W/m 15,4 C 14,3 C 12,9 km/h (3 Bft) 100,00 %
07.07.2018 03:06 16,4 C 22,2 C 94 % 1018,1 hPa 0,0 l/m 9,3 km/h (2 Bft) W 269 0 min 0,000 mm 0,0 UV-I 0 W/m 15,4 C 15,0 C 11,3 km/h (2 Bft) 100,00 %
07.07.2018 03:07 16,4 C 22,2 C 94 % 1018,1 hPa 0,0 l/m 9,7 km/h (2 Bft) W 279 0 min 0,000 mm 0,0 UV-I 0 W/m 15,4 C 14,8 C 12,9 km/h (3 Bft) 95,65 %
07.07.2018 03:08 16,3 C 22,2 C 94 % 1018,2 hPa 0,0 l/m 7,0 km/h (2 Bft) W 264 0 min 0,000 mm 0,0 UV-I 0 W/m 15,3 C 16,0 C 11,3 km/h (2 Bft) 100,00 %
07.07.2018 03:09 16,4 C 22,2 C 94 % 1018,2 hPa 0,0 l/m 7,8 km/h (2 Bft) W-SW 256 0 min 0,000 mm 0,0 UV-I 0 W/m 15,4 C 15,7 C 11,3 km/h (2 Bft) 100,00 %
07.07.2018 03:10 16,4 C 22,2 C 94 % 1018,2 hPa 0,0 l/m 9,2 km/h (2 Bft) W-SW 258 0 min 0,000 mm 0,0 UV-I 0 W/m 15,4 C 15,0 C 12,9 km/h (3 Bft) 95,83 %
07.07.2018 03:11 16,4 C 22,2 C 94 % 1018,2 hPa 0,0 l/m 9,9 km/h (2 Bft) W 259 0 min 0,000 mm 0,0 UV-I 0 W/m 15,4 C 14,7 C 14,5 km/h (3 Bft) 95,83 %
07.07.2018 03:12 16,3 C 22,2 C 94 % 1018,2 hPa 0,0 l/m 8,6 km/h (2 Bft) W-SW 254 0 min 0,000 mm 0,0 UV-I 0 W/m 15,3 C 15,2 C 12,9 km/h (3 Bft) 100,00 %
07.07.2018 03:13 16,3 C 22,2 C 94 % 1018,2 hPa 0,0 l/m 9,0 km/h (2 Bft) W 275 0 min 0,000 mm 0,0 UV-I 0 W/m 15,3 C 15,0 C 12,9 km/h (3 Bft) 95,83 %
07.07.2018 03:14 16,3 C 22,2 C 94 % 1018,2 hPa 0,0 l/m 9,2 km/h (2 Bft) W 266 0 min 0,000 mm 0,0 UV-I 0 W/m 15,3 C 14,9 C 11,3 km/h (2 Bft) 100,00 %
07.07.2018 03:15 16,3 C 22,2 C 94 % 1018,2 hPa 0,0 l/m 8,3 km/h (2 Bft) W 266 0 min 0,000 mm 0,0 UV-I 0 W/m 15,3 C 15,3 C 12,9 km/h (3 Bft) 95,83 %
07.07.2018 03:16 16,3 C 22,2 C 94 % 1018,2 hPa 0,0 l/m 8,0 km/h (2 Bft) W-SW 237 0 min 0,000 mm 0,0 UV-I 0 W/m 15,3 C 15,5 C 11,3 km/h (2 Bft) 100,00 %
07.07.2018 03:17 16,3 C 22,2 C 94 % 1018,2 hPa 0,2 l/m 9,0 km/h (2 Bft) W 269 0 min 0,000 mm 0,0 UV-I 0 W/m 15,3 C 15,0 C 11,3 km/h (2 Bft) 95,83 %
07.07.2018 03:18 16,3 C 22,2 C 94 % 1018,2 hPa 0,0 l/m 6,5 km/h (2 Bft) W-SW 250 0 min 0,000 mm 0,0 UV-I 0 W/m 15,3 C 16,3 C 11,3 km/h (2 Bft) 100,00 %
07.07.2018 03:19 16,3 C 22,2 C 94 % 1018,2 hPa 0,0 l/m 7,4 km/h (2 Bft) W 270 0 min 0,000 mm 0,0 UV-I 0 W/m 15,3 C 15,8 C 11,3 km/h (2 Bft) 95,83 %
07.07.2018 03:20 16,3 C 22,2 C 94 % 1018,2 hPa 0,0 l/m 9,8 km/h (2 Bft) W 269 0 min 0,000 mm 0,0 UV-I 0 W/m 15,3 C 14,6 C 11,3 km/h (2 Bft) 95,65 %
07.07.2018 03:21 16,3 C 22,2 C 94 % 1018,2 hPa 0,0 l/m 9,2 km/h (2 Bft) W 272 0 min 0,000 mm 0,0 UV-I 0 W/m 15,3 C 14,9 C 11,3 km/h (2 Bft) 100,00 %
07.07.2018 03:22 16,3 C 22,2 C 94 % 1018,2 hPa 0,0 l/m 7,9 km/h (2 Bft) W 264 0 min 0,000 mm 0,0 UV-I 0 W/m 15,3 C 15,5 C 12,9 km/h (3 Bft) 95,65 %
07.07.2018 03:23 16,3 C 22,2 C 94 % 1018,2 hPa 0,0 l/m 7,2 km/h (2 Bft) W-SW 247 0 min 0,000 mm 0,0 UV-I 0 W/m 15,3 C 15,9 C 11,3 km/h (2 Bft) 100,00 %
07.07.2018 03:24 16,3 C 22,2 C 94 % 1018,2 hPa 0,0 l/m 8,0 km/h (2 Bft) W-SW 254 0 min 0,000 mm 0,0 UV-I 0 W/m 15,3 C 15,5 C 12,9 km/h (3 Bft) 95,65 %
07.07.2018 03:25 16,3 C 22,2 C 94 % 1018,2 hPa 0,0 l/m 7,8 km/h (2 Bft) W 275 0 min 0,000 mm 0,0 UV-I 0 W/m 15,3 C 15,6 C 11,3 km/h (2 Bft) 100,00 %
07.07.2018 03:26 16,2 C 22,2 C 94 % 1018,2 hPa 0,0 l/m 10,2 km/h (2 Bft) W-SW 246 0 min 0,000 mm 0,0 UV-I 0 W/m 15,2 C 14,4 C 12,9 km/h (3 Bft) 86,96 %
07.07.2018 03:27 16,2 C 22,2 C 94 % 1018,2 hPa 0,0 l/m 6,2 km/h (2 Bft) W 262 0 min 0,000 mm 0,0 UV-I 0 W/m 15,2 C 16,2 C 9,7 km/h (2 Bft) 100,00 %
07.07.2018 03:28 16,2 C 22,2 C 94 % 1018,2 hPa 0,0 l/m 5,9 km/h (2 Bft) W 266 0 min 0,000 mm 0,0 UV-I 0 W/m 15,2 C 16,2 C 6,4 km/h (2 Bft) 91,30 %
07.07.2018 03:29 16,2 C 22,2 C 95 % 1018,2 hPa 0,0 l/m 6,8 km/h (2 Bft) W-SW 256 0 min 0,000 mm 0,0 UV-I 0 W/m 15,4 C 16,0 C 11,3 km/h (2 Bft) 95,83 %
07.07.2018 03:30 16,2 C 22,2 C 95 % 1018,2 hPa 0,0 l/m 6,2 km/h (2 Bft) SW 236 0 min 0,000 mm 0,0 UV-I 0 W/m 15,4 C 16,2 C 11,3 km/h (2 Bft) 95,65 %
07.07.2018 03:31 16,2 C 22,2 C 95 % 1018,2 hPa 0,0 l/m 5,1 km/h (1 Bft) W-SW 241 0 min 0,000 mm 0,0 UV-I 0 W/m 15,4 C 16,2 C 6,4 km/h (2 Bft) 91,67 %
07.07.2018 03:32 16,2 C 22,2 C 95 % 1018,2 hPa 0,0 l/m 5,7 km/h (1 Bft) W 271 0 min 0,000 mm 0,0 UV-I 0 W/m 15,4 C 16,2 C 11,3 km/h (2 Bft) 100,00 %
07.07.2018 03:33 16,2 C 22,2 C 95 % 1018,2 hPa 0,0 l/m 4,7 km/h (1 Bft) W-SW 258 0 min 0,000 mm 0,0 UV-I 0 W/m 15,4 C 16,2 C 6,4 km/h (2 Bft) 88,00 %
07.07.2018 03:34 16,2 C 22,2 C 95 % 1018,2 hPa 0,0 l/m 6,7 km/h (2 Bft) W 268 0 min 0,000 mm 0,0 UV-I 0 W/m 15,4 C 16,1 C 9,7 km/h (2 Bft) 100,00 %
07.07.2018 03:35 16,2 C 22,2 C 94 % 1018,2 hPa 0,0 l/m 8,0 km/h (2 Bft) W 273 0 min 0,000 mm 0,0 UV-I 0 W/m 15,2 C 15,4 C 11,3 km/h (2 Bft) 91,30 %
07.07.2018 03:36 16,2 C 22,2 C 94 % 1018,1 hPa 0,0 l/m 7,5 km/h (2 Bft) W 269 0 min 0,000 mm 0,0 UV-I 0 W/m 15,2 C 15,6 C 9,7 km/h (2 Bft) 95,83 %
07.07.2018 03:37 16,3 C 22,2 C 94 % 1018,1 hPa 0,0 l/m 6,7 km/h (2 Bft) W 263 0 min 0,000 mm 0,0 UV-I 0 W/m 15,3 C 16,2 C 9,7 km/h (2 Bft) 91,30 %
07.07.2018 03:38 16,3 C 22,2 C 94 % 1018,1 hPa 0,0 l/m 7,5 km/h (2 Bft) W 265 0 min 0,000 mm 0,0 UV-I 0 W/m 15,3 C 15,7 C 11,3 km/h (2 Bft) 95,83 %
07.07.2018 03:39 16,2 C 22,2 C 94 % 1018,1 hPa 0,0 l/m 4,5 km/h (1 Bft) W 265 0 min 0,000 mm 0,0 UV-I 0 W/m 15,2 C 16,2 C 9,7 km/h (2 Bft) 91,30 %
07.07.2018 03:40 16,3 C 22,2 C 94 % 1018,1 hPa 0,0 l/m 5,2 km/h (1 Bft) W 275 0 min 0,000 mm 0,0 UV-I 0 W/m 15,3 C 16,3 C 8,0 km/h (2 Bft) 91,67 %
07.07.2018 03:41 16,2 C 22,2 C 94 % 1018,1 hPa 0,0 l/m 5,9 km/h (2 Bft) W-SW 256 0 min 0,000 mm 0,0 UV-I 0 W/m 15,2 C 16,2 C 8,0 km/h (2 Bft) 100,00 %
07.07.2018 03:42 16,2 C 22,2 C 94 % 1018,2 hPa 0,0 l/m 5,3 km/h (1 Bft) W 271 0 min 0,000 mm 0,0 UV-I 0 W/m 15,2 C 16,2 C 9,7 km/h (2 Bft) 100,00 %
07.07.2018 03:43 16,2 C 22,2 C 95 % 1018,2 hPa 0,0 l/m 9,4 km/h (2 Bft) SW 232 0 min 0,000 mm 0,0 UV-I 0 W/m 15,4 C 14,7 C 12,9 km/h (3 Bft) 91,30 %
07.07.2018 03:44 16,2 C 22,2 C 95 % 1018,1 hPa 0,0 l/m 5,2 km/h (1 Bft) W 267 0 min 0,000 mm 0,0 UV-I 0 W/m 15,4 C 16,2 C 9,7 km/h (2 Bft) 100,00 %
07.07.2018 03:45 16,2 C 22,2 C 94 % 1018,1 hPa 0,0 l/m 5,8 km/h (2 Bft) W 266 0 min 0,000 mm 0,0 UV-I 0 W/m 15,2 C 16,2 C 9,7 km/h (2 Bft) 91,30 %
07.07.2018 03:46 16,2 C 22,2 C 95 % 1018,1 hPa 0,0 l/m 5,6 km/h (1 Bft) W 267 0 min 0,000 mm 0,0 UV-I 0 W/m 15,4 C 16,2 C 11,3 km/h (2 Bft) 95,83 %
07.07.2018 03:47 16,2 C 22,2 C 94 % 1018,1 hPa 0,0 l/m 11,0 km/h (2 Bft) W 261 0 min 0,000 mm 0,0 UV-I 0 W/m 15,2 C 14,0 C 12,9 km/h (3 Bft) 100,00 %
07.07.2018 03:48 16,2 C 22,2 C 94 % 1018,1 hPa 0,0 l/m 7,5 km/h (2 Bft) W-SW 258 0 min 0,000 mm 0,0 UV-I 0 W/m 15,2 C 15,6 C 11,3 km/h (2 Bft) 95,65 %
07.07.2018 03:49 16,2 C 22,2 C 94 % 1018,1 hPa 0,0 l/m 5,3 km/h (1 Bft) W 265 0 min 0,000 mm 0,0 UV-I 0 W/m 15,2 C 16,2 C 9,7 km/h (2 Bft) 100,00 %
07.07.2018 03:50 16,2 C 22,2 C 94 % 1018,1 hPa 0,0 l/m 4,3 km/h (1 Bft) W 265 0 min 0,000 mm 0,0 UV-I 0 W/m 15,2 C 16,2 C 6,4 km/h (2 Bft) 95,65 %
07.07.2018 03:51 16,2 C 22,2 C 94 % 1018,1 hPa 0,0 l/m 6,0 km/h (2 Bft) W-SW 249 0 min 0,000 mm 0,0 UV-I 0 W/m 15,2 C 16,2 C 8,0 km/h (2 Bft) 100,00 %
07.07.2018 03:52 16,2 C 22,2 C 94 % 1018,1 hPa 0,0 l/m 5,9 km/h (2 Bft) W-SW 238 0 min 0,000 mm 0,0 UV-I 0 W/m 15,2 C 16,2 C 6,4 km/h (2 Bft) 95,65 %
07.07.2018 03:53 16,2 C 22,2 C 94 % 1018,1 hPa 0,0 l/m 5,6 km/h (1 Bft) W-SW 248 0 min 0,000 mm 0,0 UV-I 0 W/m 15,2 C 16,2 C 8,0 km/h (2 Bft) 100,00 %
07.07.2018 03:54 16,2 C 22,2 C 94 % 1018,1 hPa 0,0 l/m 7,2 km/h (2 Bft) W 269 0 min 0,000 mm 0,0 UV-I 0 W/m 15,2 C 15,8 C 11,3 km/h (2 Bft) 95,65 %
07.07.2018 03:55 16,3 C 22,2 C 94 % 1018,1 hPa 0,0 l/m 5,9 km/h (2 Bft) W 263 0 min 0,000 mm 0,0 UV-I 0 W/m 15,3 C 16,3 C 9,7 km/h (2 Bft) 95,83 %
07.07.2018 03:56 16,2 C 22,2 C 94 % 1018,1 hPa 0,0 l/m 7,2 km/h (2 Bft) W 269 0 min 0,000 mm 0,0 UV-I 0 W/m 15,2 C 15,8 C 11,3 km/h (2 Bft) 100,00 %
07.07.2018 03:57 16,2 C 22,2 C 94 % 1018,0 hPa 0,0 l/m 7,6 km/h (2 Bft) W 266 0 min 0,000 mm 0,0 UV-I 0 W/m 15,2 C 15,6 C 11,3 km/h (2 Bft) 95,83 %
07.07.2018 03:58 16,2 C 22,2 C 94 % 1018,0 hPa 0,0 l/m 5,4 km/h (1 Bft) SW 227 0 min 0,000 mm 0,0 UV-I 0 W/m 15,2 C 16,2 C 8,0 km/h (2 Bft) 100,00 %
07.07.2018 03:59 16,2 C 22,2 C 94 % 1018,0 hPa 0,0 l/m 7,1 km/h (2 Bft) W-SW 241 0 min 0,000 mm 0,0 UV-I 0 W/m 15,2 C 15,8 C 9,7 km/h (2 Bft) 96,15 %
07.07.2018 04:00 16,2 C 22,2 C 94 % 1018,0 hPa 0,0 l/m 5,7 km/h (1 Bft) W-SW 250 0 min 0,000 mm 0,0 UV-I 0 W/m 15,2 C 16,2 C 8,0 km/h (2 Bft) 100,00 %
07.07.2018 04:01 16,2 C 22,2 C 94 % 1018,1 hPa 0,2 l/m 7,2 km/h (2 Bft) W-SW 247 0 min 0,000 mm 0,0 UV-I 0 W/m 15,2 C 15,8 C 11,3 km/h (2 Bft) 100,00 %
07.07.2018 04:02 16,2 C 22,2 C 94 % 1018,1 hPa 0,2 l/m 7,6 km/h (2 Bft) W 263 0 min 0,000 mm 0,0 UV-I 0 W/m 15,2 C 15,6 C 11,3 km/h (2 Bft) 100,00 %
07.07.2018 04:03 16,2 C 22,2 C 94 % 1018,1 hPa 0,2 l/m 7,0 km/h (2 Bft) W 276 0 min 0,000 mm 0,0 UV-I 0 W/m 15,2 C 15,9 C 11,3 km/h (2 Bft) 96,30 %
07.07.2018 04:04 16,2 C 22,2 C 94 % 1018,1 hPa 0,2 l/m 6,2 km/h (2 Bft) W 279 0 min 0,000 mm 0,0 UV-I 0 W/m 15,2 C 16,2 C 9,7 km/h (2 Bft) 95,65 %
07.07.2018 04:05 16,2 C 22,2 C 95 % 1018,2 hPa 0,2 l/m 9,4 km/h (2 Bft) W-SW 253 0 min 0,000 mm 0,0 UV-I 0 W/m 15,4 C 14,7 C 12,9 km/h (3 Bft) 100,00 %
07.07.2018 04:06 16,2 C 22,2 C 95 % 1018,0 hPa 0,2 l/m 9,3 km/h (2 Bft) W 259 0 min 0,000 mm 0,0 UV-I 0 W/m 15,4 C 14,7 C 12,9 km/h (3 Bft) 95,65 %
07.07.2018 04:07 16,1 C 22,2 C 95 % 1018,0 hPa 0,2 l/m 8,1 km/h (2 Bft) W 269 0 min 0,000 mm 0,0 UV-I 0 W/m 15,3 C 15,2 C 11,3 km/h (2 Bft) 100,00 %
07.07.2018 04:08 16,1 C 22,2 C 95 % 1018,0 hPa 0,2 l/m 8,2 km/h (2 Bft) W-SW 245 0 min 0,000 mm 0,0 UV-I 0 W/m 15,3 C 15,2 C 12,9 km/h (3 Bft) 93,33 %
07.07.2018 04:09 16,1 C 22,2 C 95 % 1018,0 hPa 0,0 l/m 6,9 km/h (2 Bft) SW 225 0 min 0,000 mm 0,0 UV-I 0 W/m 15,3 C 15,8 C 11,3 km/h (2 Bft) 96,00 %
07.07.2018 04:10 16,1 C 22,2 C 95 % 1018,0 hPa 0,2 l/m 5,9 km/h (2 Bft) W-SW 244 0 min 0,000 mm 0,0 UV-I 0 W/m 15,3 C 16,1 C 8,0 km/h (2 Bft) 95,83 %
07.07.2018 04:11 16,1 C 22,2 C 95 % 1018,0 hPa 0,0 l/m 7,1 km/h (2 Bft) SW 227 0 min 0,000 mm 0,0 UV-I 0 W/m 15,3 C 15,7 C 9,7 km/h (2 Bft) 100,00 %
07.07.2018 04:12 16,1 C 22,2 C 95 % 1018,0 hPa 0,0 l/m 5,9 km/h (2 Bft) W-SW 243 0 min 0,000 mm 0,0 UV-I 0 W/m 15,3 C 16,1 C 8,0 km/h (2 Bft) 95,83 %
07.07.2018 04:13 16,1 C 22,2 C 95 % 1017,9 hPa 0,0 l/m 7,4 km/h (2 Bft) W 271 0 min 0,000 mm 0,0 UV-I 0 W/m 15,3 C 15,6 C 12,9 km/h (3 Bft) 100,00 %
07.07.2018 04:14 16,1 C 22,2 C 95 % 1018,0 hPa 0,0 l/m 6,9 km/h (2 Bft) W-SW 252 0 min 0,000 mm 0,0 UV-I 0 W/m 15,3 C 15,8 C 9,7 km/h (2 Bft) 95,83 %
07.07.2018 04:15 16,1 C 22,2 C 95 % 1018,0 hPa 0,0 l/m 7,5 km/h (2 Bft) W 261 0 min 0,000 mm 0,0 UV-I 0 W/m 15,3 C 15,5 C 12,9 km/h (3 Bft) 100,00 %
07.07.2018 04:16 16,1 C 22,2 C 95 % 1018,0 hPa 0,0 l/m 9,3 km/h (2 Bft) W 263 0 min 0,000 mm 0,0 UV-I 0 W/m 15,3 C 14,6 C 11,3 km/h (2 Bft) 95,83 %
07.07.2018 04:17 16,1 C 22,2 C 95 % 1018,0 hPa 0,0 l/m 7,9 km/h (2 Bft) W 263 0 min 0,000 mm 0,0 UV-I 0 W/m 15,3 C 15,3 C 11,3 km/h (2 Bft) 88,46 %
07.07.2018 04:18 16,0 C 22,2 C 95 % 1018,0 hPa 0,0 l/m 7,2 km/h (2 Bft) W 263 0 min 0,000 mm 0,0 UV-I 0 W/m 15,2 C 15,6 C 9,7 km/h (2 Bft) 100,00 %
07.07.2018 04:19 16,1 C 22,2 C 95 % 1018,0 hPa 0,0 l/m 10,3 km/h (2 Bft) W-SW 253 0 min 0,000 mm 0,0 UV-I 0 W/m 15,3 C 14,2 C 12,9 km/h (3 Bft) 88,00 %
07.07.2018 04:20 16,0 C 22,2 C 95 % 1018,0 hPa 0,0 l/m 7,6 km/h (2 Bft) SW 227 0 min 0,000 mm 0,0 UV-I 0 W/m 15,2 C 15,4 C 11,3 km/h (2 Bft) 100,00 %
07.07.2018 04:21 16,0 C 22,2 C 95 % 1017,9 hPa 0,0 l/m 8,0 km/h (2 Bft) W 279 0 min 0,000 mm 0,0 UV-I 0 W/m 15,2 C 15,2 C 11,3 km/h (2 Bft) 92,31 %
07.07.2018 04:22 16,0 C 22,2 C 95 % 1017,9 hPa 0,0 l/m 8,6 km/h (2 Bft) W 270 0 min 0,000 mm 0,0 UV-I 0 W/m 15,2 C 14,9 C 12,9 km/h (3 Bft) 95,83 %
07.07.2018 04:23 16,0 C 22,2 C 95 % 1018,0 hPa 0,0 l/m 9,5 km/h (2 Bft) W 261 0 min 0,000 mm 0,0 UV-I 0 W/m 15,2 C 14,4 C 11,3 km/h (2 Bft) 95,65 %
07.07.2018 04:24 16,0 C 22,2 C 95 % 1018,0 hPa 0,0 l/m 7,8 km/h (2 Bft) W 259 0 min 0,000 mm 0,0 UV-I 0 W/m 15,2 C 15,3 C 11,3 km/h (2 Bft) 95,83 %
07.07.2018 04:25 16,0 C 22,2 C 95 % 1017,9 hPa 0,0 l/m 6,0 km/h (2 Bft) W 269 0 min 0,000 mm 0,0 UV-I 0 W/m 15,2 C 16,0 C 9,7 km/h (2 Bft) 100,00 %
07.07.2018 04:26 15,9 C 22,2 C 95 % 1017,9 hPa 0,0 l/m 5,7 km/h (1 Bft) W-SW 244 0 min 0,000 mm 0,0 UV-I 0 W/m 15,1 C 15,9 C 9,7 km/h (2 Bft) 100,00 %
07.07.2018 04:27 16,0 C 22,2 C 95 % 1017,9 hPa 0,0 l/m 6,7 km/h (2 Bft) W-SW 248 0 min 0,000 mm 0,0 UV-I 0 W/m 15,2 C 15,8 C 12,9 km/h (3 Bft) 97,14 %
07.07.2018 04:28 16,0 C 22,2 C 95 % 1017,9 hPa 0,0 l/m 5,7 km/h (1 Bft) W-SW 237 0 min 0,000 mm 0,0 UV-I 0 W/m 15,2 C 16,0 C 8,0 km/h (2 Bft) 91,67 %
07.07.2018 04:29 16,0 C 22,2 C 95 % 1017,9 hPa 0,0 l/m 8,4 km/h (2 Bft) W-SW 251 0 min 0,000 mm 0,0 UV-I 0 W/m 15,2 C 15,0 C 11,3 km/h (2 Bft) 96,15 %
07.07.2018 04:30 16,0 C 22,2 C 95 % 1017,9 hPa 0,0 l/m 8,6 km/h (2 Bft) W 279 0 min 0,000 mm 0,0 UV-I 0 W/m 15,2 C 14,9 C 11,3 km/h (2 Bft) 95,65 %
07.07.2018 04:31 16,0 C 22,2 C 95 % 1018,0 hPa 0,0 l/m 5,4 km/h (1 Bft) W 274 0 min 0,000 mm 0,0 UV-I 0 W/m 15,2 C 16,0 C 9,7 km/h (2 Bft) 100,00 %
07.07.2018 04:32 16,0 C 22,2 C 95 % 1018,0 hPa 0,0 l/m 5,6 km/h (1 Bft) W 272 0 min 0,000 mm 0,0 UV-I 0 W/m 15,2 C 16,0 C 9,7 km/h (2 Bft) 95,65 %
07.07.2018 04:33 16,0 C 22,2 C 96 % 1018,0 hPa 0,0 l/m 5,2 km/h (1 Bft) W 261 0 min 0,000 mm 0,0 UV-I 0 W/m 15,4 C 16,0 C 8,0 km/h (2 Bft) 100,00 %
07.07.2018 04:34 16,0 C 22,2 C 95 % 1018,0 hPa 0,0 l/m 6,5 km/h (2 Bft) W-SW 252 0 min 0,000 mm 0,0 UV-I 0 W/m 15,2 C 16,0 C 11,3 km/h (2 Bft) 95,65 %
07.07.2018 04:35 16,0 C 22,2 C 96 % 1018,0 hPa 0,0 l/m 7,1 km/h (2 Bft) W 275 0 min 0,000 mm 0,0 UV-I 0 W/m 15,4 C 15,6 C 12,9 km/h (3 Bft) 100,00 %
07.07.2018 04:36 15,9 C 22,2 C 96 % 1018,0 hPa 0,0 l/m 6,4 km/h (2 Bft) W 267 0 min 0,000 mm 0,0 UV-I 0 W/m 15,3 C 15,9 C 9,7 km/h (2 Bft) 100,00 %
07.07.2018 04:37 16,0 C 22,2 C 96 % 1018,0 hPa 0,0 l/m 8,2 km/h (2 Bft) W-SW 250 0 min 0,000 mm 0,0 UV-I 0 W/m 15,4 C 15,1 C 11,3 km/h (2 Bft) 100,00 %
07.07.2018 04:38 16,0 C 22,2 C 96 % 1018,0 hPa 0,0 l/m 5,1 km/h (1 Bft) W 267 0 min 0,000 mm 0,0 UV-I 0 W/m 15,4 C 16,0 C 9,7 km/h (2 Bft) 100,00 %
07.07.2018 04:39 16,0 C 22,2 C 96 % 1018,0 hPa 0,0 l/m 8,7 km/h (2 Bft) W 273 0 min 0,000 mm 0,0 UV-I 0 W/m 15,4 C 14,8 C 11,3 km/h (2 Bft) 100,00 %
07.07.2018 04:40 16,0 C 22,2 C 96 % 1018,0 hPa 0,0 l/m 6,1 km/h (2 Bft) W 259 0 min 0,000 mm 0,0 UV-I 0 W/m 15,4 C 16,0 C 9,7 km/h (2 Bft) 100,00 %
07.07.2018 04:41 16,0 C 22,2 C 96 % 1018,1 hPa 0,0 l/m 5,0 km/h (1 Bft) W 263 0 min 0,000 mm 0,0 UV-I 0 W/m 15,4 C 16,0 C 9,7 km/h (2 Bft) 100,00 %
07.07.2018 04:42 15,9 C 22,2 C 96 % 1018,1 hPa 0,0 l/m 3,6 km/h (1 Bft) W 263 0 min 0,000 mm 0,0 UV-I 0 W/m 15,3 C 15,9 C 6,4 km/h (2 Bft) 100,00 %
07.07.2018 04:43 15,9 C 22,2 C 96 % 1018,1 hPa 0,0 l/m 5,7 km/h (1 Bft) W-SW 257 0 min 0,000 mm 0,0 UV-I 0 W/m 15,3 C 15,9 C 9,7 km/h (2 Bft) 100,00 %
07.07.2018 04:44 15,9 C 22,2 C 96 % 1018,1 hPa 0,0 l/m 6,5 km/h (2 Bft) W-SW 247 0 min 0,000 mm 0,0 UV-I 0 W/m 15,3 C 15,9 C 9,7 km/h (2 Bft) 100,00 %
07.07.2018 04:45 15,9 C 22,2 C 96 % 1018,1 hPa 0,0 l/m 4,4 km/h (1 Bft) W 272 0 min 0,000 mm 0,0 UV-I 0 W/m 15,3 C 15,9 C 6,4 km/h (2 Bft) 100,00 %
07.07.2018 04:46 15,9 C 22,2 C 96 % 1018,1 hPa 0,0 l/m 4,0 km/h (1 Bft) W 276 0 min 0,000 mm 0,0 UV-I 0 W/m 15,3 C 15,9 C 6,4 km/h (2 Bft) 100,00 %
07.07.2018 04:47 15,9 C 22,2 C 96 % 1018,1 hPa 0,0 l/m 3,4 km/h (1 Bft) W 275 0 min 0,000 mm 0,0 UV-I 0 W/m 15,3 C 15,9 C 4,8 km/h (1 Bft) 100,00 %
07.07.2018 04:48 15,9 C 22,2 C 96 % 1018,1 hPa 0,0 l/m 3,8 km/h (1 Bft) W 271 0 min 0,000 mm 0,0 UV-I 0 W/m 15,3 C 15,9 C 4,8 km/h (1 Bft) 100,00 %
07.07.2018 04:49 15,9 C 22,2 C 96 % 1018,1 hPa 0,0 l/m 3,8 km/h (1 Bft) W-SW 252 0 min 0,000 mm 0,0 UV-I 0 W/m 15,3 C 15,9 C 8,0 km/h (2 Bft) 95,65 %
07.07.2018 04:50 15,9 C 22,2 C 96 % 1018,1 hPa 0,0 l/m 5,5 km/h (1 Bft) W 260 0 min 0,000 mm 0,0 UV-I 0 W/m 15,3 C 15,9 C 8,0 km/h (2 Bft) 100,00 %
07.07.2018 04:51 15,9 C 22,2 C 96 % 1018,2 hPa 0,0 l/m 4,8 km/h (1 Bft) W 259 0 min 0,000 mm 0,0 UV-I 0 W/m 15,3 C 15,9 C 6,4 km/h (2 Bft) 100,00 %
07.07.2018 04:52 15,9 C 22,2 C 96 % 1018,1 hPa 0,0 l/m 4,7 km/h (1 Bft) W 262 0 min 0,000 mm 0,0 UV-I 0 W/m 15,3 C 15,9 C 6,4 km/h (2 Bft) 100,00 %
07.07.2018 04:53 15,9 C 22,2 C 96 % 1018,1 hPa 0,0 l/m 3,6 km/h (1 Bft) W-SW 247 0 min 0,000 mm 0,0 UV-I 0 W/m 15,3 C 15,9 C 4,8 km/h (1 Bft) 95,65 %
07.07.2018 04:54 15,9 C 22,2 C 96 % 1018,1 hPa 0,0 l/m 4,4 km/h (1 Bft) W-SW 248 0 min 0,000 mm 0,0 UV-I 0 W/m 15,3 C 15,9 C 6,4 km/h (2 Bft) 95,83 %
07.07.2018 04:55 15,9 C 22,2 C 96 % 1018,1 hPa 0,0 l/m 2,9 km/h (1 Bft) W-SW 248 0 min 0,000 mm 0,0 UV-I 0 W/m 15,3 C 15,9 C 4,8 km/h (1 Bft) 95,65 %
07.07.2018 04:56 15,9 C 22,2 C 96 % 1018,1 hPa 0,0 l/m 3,0 km/h (1 Bft) W-SW 248 0 min 0,000 mm 0,0 UV-I 0 W/m 15,3 C 15,9 C 4,8 km/h (1 Bft) 100,00 %
07.07.2018 04:57 15,9 C 22,2 C 96 % 1018,1 hPa 0,0 l/m 4,2 km/h (1 Bft) W 270 0 min 0,000 mm 0,0 UV-I 0 W/m 15,3 C 15,9 C 4,8 km/h (1 Bft) 95,65 %
07.07.2018 04:58 15,9 C 22,2 C 96 % 1018,1 hPa 0,0 l/m 3,8 km/h (1 Bft) W 270 0 min 0,000 mm 0,0 UV-I 0 W/m 15,3 C 15,9 C 4,8 km/h (1 Bft) 100,00 %
07.07.2018 04:59 15,9 C 22,2 C 96 % 1018,1 hPa 0,0 l/m 5,9 km/h (2 Bft) W 264 0 min 0,000 mm 0,0 UV-I 0 W/m 15,3 C 15,9 C 9,7 km/h (2 Bft) 91,30 %
07.07.2018 05:00 15,9 C 22,2 C 96 % 1018,1 hPa 0,0 l/m 3,6 km/h (1 Bft) W 265 0 min 0,000 mm 0,0 UV-I 0 W/m 15,3 C 15,9 C 4,8 km/h (1 Bft) 100,00 %
07.07.2018 05:01 15,9 C 22,2 C 96 % 1018,2 hPa 0,0 l/m 4,2 km/h (1 Bft) W 265 0 min 0,000 mm 0,0 UV-I 0 W/m 15,3 C 15,9 C 4,8 km/h (1 Bft) 95,65 %
07.07.2018 05:02 15,9 C 22,2 C 96 % 1018,2 hPa 0,0 l/m 4,2 km/h (1 Bft) W 265 0 min 0,000 mm 0,0 UV-I 0 W/m 15,3 C 15,9 C 4,8 km/h (1 Bft) 100,00 %
07.07.2018 05:03 15,9 C 22,2 C 96 % 1018,2 hPa 0,0 l/m 3,3 km/h (1 Bft) W 265 0 min 0,000 mm 0,0 UV-I 0 W/m 15,3 C 15,9 C 4,8 km/h (1 Bft) 100,00 %
07.07.2018 05:04 15,9 C 22,2 C 96 % 1018,1 hPa 0,0 l/m 2,3 km/h (1 Bft) W 265 0 min 0,000 mm 0,0 UV-I 0 W/m 15,3 C 15,9 C 3,2 km/h (1 Bft) 100,00 %
07.07.2018 05:05 16,0 C 22,2 C 96 % 1018,2 hPa 0,0 l/m 4,4 km/h (1 Bft) W 265 0 min 0,000 mm 0,0 UV-I 0 W/m 15,4 C 16,0 C 4,8 km/h (1 Bft) 100,00 %
07.07.2018 05:06 16,0 C 22,2 C 96 % 1018,1 hPa 0,0 l/m 4,9 km/h (1 Bft) W-SW 247 0 min 0,000 mm 0,0 UV-I 0 W/m 15,4 C 16,0 C 6,4 km/h (2 Bft) 100,00 %
07.07.2018 05:07 16,0 C 22,2 C 96 % 1018,2 hPa 0,0 l/m 4,6 km/h (1 Bft) W-SW 251 0 min 0,000 mm 0,0 UV-I 4 W/m 15,4 C 16,0 C 6,4 km/h (2 Bft) 100,00 %
07.07.2018 05:08 15,9 C 22,2 C 96 % 1018,2 hPa 0,0 l/m 3,5 km/h (1 Bft) W-SW 252 0 min 0,000 mm 0,0 UV-I 5 W/m 15,3 C 15,9 C 4,8 km/h (1 Bft) 95,65 %
07.07.2018 05:09 15,9 C 22,2 C 96 % 1018,2 hPa 0,0 l/m 4,5 km/h (1 Bft) W-SW 254 0 min 0,000 mm 0,0 UV-I 5 W/m 15,3 C 15,9 C 6,4 km/h (2 Bft) 100,00 %
07.07.2018 05:10 15,9 C 22,2 C 96 % 1018,2 hPa 0,0 l/m 4,4 km/h (1 Bft) W-SW 256 0 min 0,000 mm 0,0 UV-I 5 W/m 15,3 C 15,9 C 6,4 km/h (2 Bft) 91,30 %
07.07.2018 05:11 15,9 C 22,2 C 96 % 1018,2 hPa 0,0 l/m 5,4 km/h (1 Bft) W 271 0 min 0,000 mm 0,0 UV-I 5 W/m 15,3 C 15,9 C 6,4 km/h (2 Bft) 95,83 %
07.07.2018 05:12 15,9 C 22,2 C 96 % 1018,2 hPa 0,0 l/m 3,5 km/h (1 Bft) W-SW 253 0 min 0,000 mm 0,0 UV-I 5 W/m 15,3 C 15,9 C 6,4 km/h (2 Bft) 100,00 %
07.07.2018 05:13 15,9 C 22,2 C 96 % 1018,2 hPa 0,0 l/m 3,3 km/h (1 Bft) W-SW 254 0 min 0,000 mm 0,0 UV-I 5 W/m 15,3 C 15,9 C 4,8 km/h (1 Bft) 95,83 %
07.07.2018 05:14 15,9 C 22,2 C 96 % 1018,2 hPa 0,0 l/m 3,4 km/h (1 Bft) W-SW 254 0 min 0,000 mm 0,0 UV-I 5 W/m 15,3 C 15,9 C 4,8 km/h (1 Bft) 100,00 %
07.07.2018 05:15 15,9 C 22,2 C 96 % 1018,2 hPa 0,0 l/m 4,0 km/h (1 Bft) W-SW 257 0 min 0,000 mm 0,0 UV-I 5 W/m 15,3 C 15,9 C 6,4 km/h (2 Bft) 91,67 %
07.07.2018 05:16 15,9 C 22,2 C 96 % 1018,3 hPa 0,0 l/m 2,6 km/h (1 Bft) W-SW 257 0 min 0,000 mm 0,0 UV-I 5 W/m 15,3 C 15,9 C 4,8 km/h (1 Bft) 100,00 %
07.07.2018 05:17 16,0 C 22,2 C 96 % 1018,3 hPa 0,0 l/m 3,8 km/h (1 Bft) W-SW 257 0 min 0,000 mm 0,0 UV-I 5 W/m 15,4 C 16,0 C 4,8 km/h (1 Bft) 95,83 %
07.07.2018 05:18 16,0 C 22,2 C 96 % 1018,2 hPa 0,0 l/m 2,8 km/h (1 Bft) W-SW 257 0 min 0,000 mm 0,0 UV-I 6 W/m 15,4 C 16,0 C 4,8 km/h (1 Bft) 100,00 %
07.07.2018 05:19 16,0 C 22,2 C 96 % 1018,3 hPa 0,0 l/m 2,1 km/h (1 Bft) W-SW 257 0 min 0,000 mm 0,0 UV-I 7 W/m 15,4 C 16,0 C 3,2 km/h (1 Bft) 95,83 %
07.07.2018 05:20 16,0 C 22,2 C 96 % 1018,3 hPa 0,0 l/m 1,9 km/h (1 Bft) W-SW 257 0 min 0,000 mm 0,0 UV-I 7 W/m 15,4 C 16,0 C 3,2 km/h (1 Bft) 100,00 %
07.07.2018 05:21 16,0 C 22,2 C 96 % 1018,3 hPa 0,0 l/m 2,5 km/h (1 Bft) W-SW 257 0 min 0,000 mm 0,0 UV-I 7 W/m 15,4 C 16,0 C 4,8 km/h (1 Bft) 92,31 %
07.07.2018 05:22 16,0 C 22,2 C 96 % 1018,3 hPa 0,0 l/m 3,4 km/h (1 Bft) W-SW 256 0 min 0,000 mm 0,0 UV-I 7 W/m 15,4 C 16,0 C 4,8 km/h (1 Bft) 95,83 %
07.07.2018 05:23 16,1 C 22,2 C 96 % 1018,3 hPa 0,0 l/m 3,2 km/h (1 Bft) W-SW 257 0 min 0,000 mm 0,0 UV-I 7 W/m 15,5 C 16,1 C 4,8 km/h (1 Bft) 100,00 %
07.07.2018 05:24 16,0 C 22,2 C 96 % 1018,3 hPa 0,0 l/m 3,6 km/h (1 Bft) W 261 1 min 0,000 mm 0,0 UV-I 8 W/m 15,4 C 16,0 C 4,8 km/h (1 Bft) 95,83 %
07.07.2018 05:25 16,0 C 22,2 C 96 % 1018,3 hPa 0,0 l/m 4,4 km/h (1 Bft) W 261 0 min 0,000 mm 0,0 UV-I 9 W/m 15,4 C 16,0 C 4,8 km/h (1 Bft) 100,00 %
07.07.2018 05:26 16,0 C 22,2 C 96 % 1018,4 hPa 0,0 l/m 3,8 km/h (1 Bft) W 263 0 min 0,000 mm 0,0 UV-I 9 W/m 15,4 C 16,0 C 4,8 km/h (1 Bft) 95,83 %
07.07.2018 05:27 16,0 C 22,2 C 96 % 1018,4 hPa 0,0 l/m 4,1 km/h (1 Bft) W 266 0 min 0,000 mm 0,0 UV-I 9 W/m 15,4 C 16,0 C 6,4 km/h (2 Bft) 100,00 %
07.07.2018 05:28 15,9 C 22,2 C 96 % 1018,4 hPa 0,0 l/m 4,8 km/h (1 Bft) W 266 0 min 0,000 mm 0,0 UV-I 9 W/m 15,3 C 15,9 C 6,4 km/h (2 Bft) 95,83 %
07.07.2018 05:29 16,0 C 22,2 C 96 % 1018,4 hPa 0,0 l/m 4,0 km/h (1 Bft) W 269 0 min 0,000 mm 0,0 UV-I 9 W/m 15,4 C 16,0 C 6,4 km/h (2 Bft) 95,65 %
07.07.2018 05:30 16,0 C 22,2 C 96 % 1018,4 hPa 0,0 l/m 3,6 km/h (1 Bft) W 268 0 min 0,000 mm 0,0 UV-I 9 W/m 15,4 C 16,0 C 4,8 km/h (1 Bft) 95,83 %
07.07.2018 05:31 16,0 C 22,2 C 96 % 1018,4 hPa 0,0 l/m 2,5 km/h (1 Bft) W 268 0 min 0,000 mm 0,0 UV-I 7 W/m 15,4 C 16,0 C 4,8 km/h (1 Bft) 95,65 %
07.07.2018 05:32 16,0 C 22,2 C 96 % 1018,4 hPa 0,0 l/m 4,5 km/h (1 Bft) W 267 0 min 0,000 mm 0,0 UV-I 9 W/m 15,4 C 16,0 C 6,4 km/h (2 Bft) 95,83 %
07.07.2018 05:33 16,0 C 22,2 C 96 % 1018,4 hPa 0,0 l/m 4,7 km/h (1 Bft) W-SW 257 0 min 0,000 mm 0,0 UV-I 9 W/m 15,4 C 16,0 C 6,4 km/h (2 Bft) 95,65 %
07.07.2018 05:34 16,0 C 22,2 C 96 % 1018,4 hPa 0,0 l/m 3,7 km/h (1 Bft) W-SW 258 0 min 0,000 mm 0,0 UV-I 9 W/m 15,4 C 16,0 C 6,4 km/h (2 Bft) 100,00 %
07.07.2018 05:35 16,0 C 22,2 C 96 % 1018,4 hPa 0,0 l/m 3,8 km/h (1 Bft) W-SW 244 0 min 0,000 mm 0,0 UV-I 9 W/m 15,4 C 16,0 C 4,8 km/h (1 Bft) 91,30 %
07.07.2018 05:36 16,0 C 22,2 C 96 % 1018,5 hPa 0,0 l/m 5,1 km/h (1 Bft) W 264 0 min 0,000 mm 0,0 UV-I 9 W/m 15,4 C 16,0 C 6,4 km/h (2 Bft) 100,00 %
07.07.2018 05:37 16,0 C 22,2 C 96 % 1018,5 hPa 0,0 l/m 4,0 km/h (1 Bft) W 262 0 min 0,000 mm 0,0 UV-I 9 W/m 15,4 C 16,0 C 4,8 km/h (1 Bft) 95,65 %
07.07.2018 05:38 16,0 C 22,2 C 96 % 1018,5 hPa 0,0 l/m 2,7 km/h (1 Bft) W 262 0 min 0,000 mm 0,0 UV-I 9 W/m 15,4 C 16,0 C 3,2 km/h (1 Bft) 91,67 %
07.07.2018 05:39 15,9 C 22,2 C 96 % 1018,5 hPa 0,0 l/m 3,6 km/h (1 Bft) W 261 0 min 0,000 mm 0,0 UV-I 11 W/m 15,3 C 15,9 C 4,8 km/h (1 Bft) 91,30 %
07.07.2018 05:40 16,0 C 22,2 C 96 % 1018,5 hPa 0,0 l/m 2,5 km/h (1 Bft) W 261 0 min 0,000 mm 0,0 UV-I 11 W/m 15,4 C 16,0 C 3,2 km/h (1 Bft) 95,83 %
07.07.2018 05:41 16,0 C 22,2 C 96 % 1018,5 hPa 0,0 l/m 3,6 km/h (1 Bft) W 261 0 min 0,000 mm 0,0 UV-I 11 W/m 15,4 C 16,0 C 4,8 km/h (1 Bft) 100,00 %
07.07.2018 05:42 16,0 C 22,2 C 96 % 1018,5 hPa 0,0 l/m 2,1 km/h (1 Bft) W-SW 257 0 min 0,000 mm 0,0 UV-I 12 W/m 15,4 C 16,0 C 4,8 km/h (1 Bft) 100,00 %
07.07.2018 05:43 15,9 C 22,2 C 96 % 1018,5 hPa 0,0 l/m 3,6 km/h (1 Bft) W-SW 243 0 min 0,000 mm 0,0 UV-I 12 W/m 15,3 C 15,9 C 4,8 km/h (1 Bft) 95,83 %
07.07.2018 05:44 16,0 C 22,2 C 96 % 1018,6 hPa 0,0 l/m 3,9 km/h (1 Bft) W-SW 244 0 min 0,000 mm 0,0 UV-I 12 W/m 15,4 C 16,0 C 4,8 km/h (1 Bft) 100,00 %
07.07.2018 05:45 16,0 C 22,2 C 96 % 1018,6 hPa 0,0 l/m 3,5 km/h (1 Bft) W-SW 249 0 min 0,000 mm 0,0 UV-I 13 W/m 15,4 C 16,0 C 4,8 km/h (1 Bft) 100,00 %
07.07.2018 05:46 16,0 C 22,2 C 96 % 1018,6 hPa 0,0 l/m 2,9 km/h (1 Bft) W-SW 250 0 min 0,000 mm 0,0 UV-I 15 W/m 15,4 C 16,0 C 4,8 km/h (1 Bft) 100,00 %
07.07.2018 05:47 16,0 C 22,2 C 96 % 1018,6 hPa 0,0 l/m 4,5 km/h (1 Bft) W 263 0 min 0,000 mm 0,0 UV-I 18 W/m 15,4 C 16,0 C 6,4 km/h (2 Bft) 100,00 %
07.07.2018 05:48 16,0 C 22,2 C 96 % 1018,6 hPa 0,0 l/m 5,6 km/h (1 Bft) W 259 0 min 0,000 mm 0,0 UV-I 21 W/m 15,4 C 16,0 C 9,7 km/h (2 Bft) 100,00 %
07.07.2018 05:49 16,0 C 22,2 C 96 % 1018,6 hPa 0,0 l/m 5,1 km/h (1 Bft) W 260 0 min 0,000 mm 0,0 UV-I 21 W/m 15,4 C 16,0 C 6,4 km/h (2 Bft) 100,00 %
07.07.2018 05:50 16,0 C 22,2 C 96 % 1018,6 hPa 0,0 l/m 5,2 km/h (1 Bft) W 262 0 min 0,000 mm 0,0 UV-I 21 W/m 15,4 C 16,0 C 6,4 km/h (2 Bft) 96,15 %
07.07.2018 05:51 16,0 C 22,2 C 96 % 1018,6 hPa 0,0 l/m 3,9 km/h (1 Bft) W 263 0 min 0,000 mm 0,0 UV-I 24 W/m 15,4 C 16,0 C 4,8 km/h (1 Bft) 100,00 %
07.07.2018 05:52 16,0 C 22,2 C 96 % 1018,6 hPa 0,0 l/m 3,4 km/h (1 Bft) W 263 0 min 0,000 mm 0,0 UV-I 25 W/m 15,4 C 16,0 C 4,8 km/h (1 Bft) 100,00 %
07.07.2018 05:53 16,0 C 22,2 C 96 % 1018,6 hPa 0,0 l/m 2,6 km/h (1 Bft) W 263 0 min 0,000 mm 0,0 UV-I 25 W/m 15,4 C 16,0 C 3,2 km/h (1 Bft) 100,00 %
07.07.2018 05:54 16,0 C 22,2 C 96 % 1018,6 hPa 0,0 l/m 2,9 km/h (1 Bft) W 263 0 min 0,000 mm 0,0 UV-I 25 W/m 15,4 C 16,0 C 4,8 km/h (1 Bft) 95,65 %
07.07.2018 05:55 16,0 C 22,2 C 96 % 1018,6 hPa 0,0 l/m 4,7 km/h (1 Bft) W 263 0 min 0,000 mm 0,0 UV-I 25 W/m 15,4 C 16,0 C 4,8 km/h (1 Bft) 100,00 %
07.07.2018 05:56 16,1 C 22,2 C 96 % 1018,6 hPa 0,0 l/m 4,3 km/h (1 Bft) W 268 0 min 0,000 mm 0,0 UV-I 24 W/m 15,5 C 16,1 C 6,4 km/h (2 Bft) 100,00 %
07.07.2018 05:57 16,1 C 22,2 C 96 % 1018,6 hPa 0,0 l/m 4,0 km/h (1 Bft) W 267 0 min 0,000 mm 0,0 UV-I 22 W/m 15,5 C 16,1 C 4,8 km/h (1 Bft) 100,00 %
07.07.2018 05:58 16,1 C 22,2 C 96 % 1018,6 hPa 0,0 l/m 3,4 km/h (1 Bft) W 267 0 min 0,000 mm 0,0 UV-I 20 W/m 15,5 C 16,1 C 4,8 km/h (1 Bft) 100,00 %
07.07.2018 05:59 16,1 C 22,2 C 96 % 1018,7 hPa 0,0 l/m 5,0 km/h (1 Bft) W 261 0 min 0,000 mm 0,0 UV-I 19 W/m 15,5 C 16,1 C 6,4 km/h (2 Bft) 95,83 %
07.07.2018 06:00 16,1 C 22,2 C 96 % 1018,7 hPa 0,0 l/m 5,4 km/h (1 Bft) W 261 0 min 0,000 mm 0,0 UV-I 21 W/m 15,5 C 16,1 C 6,4 km/h (2 Bft) 100,00 %
07.07.2018 06:01 16,1 C 22,2 C 96 % 1018,7 hPa 0,0 l/m 4,7 km/h (1 Bft) W 267 0 min 0,000 mm 0,0 UV-I 21 W/m 15,5 C 16,1 C 6,4 km/h (2 Bft) 100,00 %
07.07.2018 06:02 16,1 C 22,2 C 96 % 1018,7 hPa 0,0 l/m 4,8 km/h (1 Bft) W-SW 257 0 min 0,000 mm 0,0 UV-I 20 W/m 15,5 C 16,1 C 6,4 km/h (2 Bft) 100,00 %
07.07.2018 06:03 16,1 C 22,2 C 96 % 1018,7 hPa 0,0 l/m 5,8 km/h (2 Bft) W 266 0 min 0,000 mm 0,0 UV-I 19 W/m 15,5 C 16,1 C 9,7 km/h (2 Bft) 100,00 %
07.07.2018 06:04 16,1 C 22,2 C 96 % 1018,7 hPa 0,0 l/m 5,8 km/h (2 Bft) W 268 0 min 0,000 mm 0,0 UV-I 18 W/m 15,5 C 16,1 C 6,4 km/h (2 Bft) 100,00 %
07.07.2018 06:05 16,1 C 22,2 C 96 % 1018,7 hPa 0,0 l/m 5,1 km/h (1 Bft) W-SW 256 0 min 0,000 mm 0,0 UV-I 18 W/m 15,5 C 16,1 C 6,4 km/h (2 Bft) 100,00 %
07.07.2018 06:06 16,1 C 22,2 C 96 % 1018,7 hPa 0,0 l/m 5,9 km/h (2 Bft) W 261 0 min 0,000 mm 0,0 UV-I 16 W/m 15,5 C 16,1 C 9,7 km/h (2 Bft) 100,00 %
07.07.2018 06:07 16,1 C 22,2 C 96 % 1018,7 hPa 0,0 l/m 5,7 km/h (1 Bft) W 259 0 min 0,000 mm 0,0 UV-I 14 W/m 15,5 C 16,1 C 9,7 km/h (2 Bft) 100,00 %
07.07.2018 06:08 16,1 C 22,2 C 96 % 1018,7 hPa 0,0 l/m 4,9 km/h (1 Bft) W 270 0 min 0,000 mm 0,0 UV-I 14 W/m 15,5 C 16,1 C 6,4 km/h (2 Bft) 100,00 %
07.07.2018 06:09 16,1 C 22,2 C 96 % 1018,7 hPa 0,0 l/m 6,1 km/h (2 Bft) W 266 0 min 0,000 mm 0,0 UV-I 15 W/m 15,5 C 16,1 C 9,7 km/h (2 Bft) 95,65 %
07.07.2018 06:10 16,1 C 22,2 C 96 % 1018,7 hPa 0,0 l/m 4,7 km/h (1 Bft) W 263 0 min 0,000 mm 0,0 UV-I 16 W/m 15,5 C 16,1 C 6,4 km/h (2 Bft) 100,00 %
07.07.2018 06:11 16,1 C 22,2 C 96 % 1018,7 hPa 0,0 l/m 4,7 km/h (1 Bft) W-SW 257 0 min 0,000 mm 0,0 UV-I 18 W/m 15,5 C 16,1 C 6,4 km/h (2 Bft) 100,00 %
07.07.2018 06:12 16,1 C 22,2 C 96 % 1018,7 hPa 0,0 l/m 4,2 km/h (1 Bft) W-SW 250 0 min 0,000 mm 0,0 UV-I 18 W/m 15,5 C 16,1 C 6,4 km/h (2 Bft) 100,00 %
07.07.2018 06:13 16,1 C 22,2 C 96 % 1018,7 hPa 0,0 l/m 3,3 km/h (1 Bft) W-SW 254 0 min 0,000 mm 0,0 UV-I 18 W/m 15,5 C 16,1 C 4,8 km/h (1 Bft) 100,00 %
07.07.2018 06:14 16,1 C 22,2 C 96 % 1018,7 hPa 0,0 l/m 3,4 km/h (1 Bft) W-SW 255 0 min 0,000 mm 0,0 UV-I 18 W/m 15,5 C 16,1 C 4,8 km/h (1 Bft) 100,00 %
07.07.2018 06:15 16,1 C 22,2 C 96 % 1018,7 hPa 0,0 l/m 3,4 km/h (1 Bft) W-SW 242 0 min 0,000 mm 0,0 UV-I 17 W/m 15,5 C 16,1 C 4,8 km/h (1 Bft) 100,00 %
07.07.2018 06:16 16,1 C 22,2 C 96 % 1018,7 hPa 0,0 l/m 3,9 km/h (1 Bft) W-SW 248 0 min 0,000 mm 0,0 UV-I 16 W/m 15,5 C 16,1 C 6,4 km/h (2 Bft) 100,00 %
07.07.2018 06:17 16,1 C 22,2 C 96 % 1018,7 hPa 0,0 l/m 3,4 km/h (1 Bft) W-SW 252 0 min 0,000 mm 0,0 UV-I 16 W/m 15,5 C 16,1 C 4,8 km/h (1 Bft) 100,00 %
07.07.2018 06:18 16,1 C 22,2 C 96 % 1018,8 hPa 0,0 l/m 3,2 km/h (1 Bft) W-SW 257 0 min 0,000 mm 0,0 UV-I 16 W/m 15,5 C 16,1 C 4,8 km/h (1 Bft) 100,00 %
07.07.2018 06:19 16,1 C 22,2 C 96 % 1018,8 hPa 0,0 l/m 4,4 km/h (1 Bft) W 259 0 min 0,000 mm 0,0 UV-I 16 W/m 15,5 C 16,1 C 6,4 km/h (2 Bft) 100,00 %
07.07.2018 06:20 16,1 C 22,2 C 96 % 1018,8 hPa 0,0 l/m 5,1 km/h (1 Bft) W-SW 241 0 min 0,000 mm 0,0 UV-I 17 W/m 15,5 C 16,1 C 6,4 km/h (2 Bft) 100,00 %
07.07.2018 06:21 16,1 C 22,2 C 96 % 1018,8 hPa 0,0 l/m 5,4 km/h (1 Bft) W-SW 241 0 min 0,000 mm 0,0 UV-I 18 W/m 15,5 C 16,1 C 6,4 km/h (2 Bft) 95,65 %
07.07.2018 06:22 16,1 C 22,2 C 96 % 1018,8 hPa 0,0 l/m 4,6 km/h (1 Bft) W-SW 240 0 min 0,000 mm 0,0 UV-I 17 W/m 15,5 C 16,1 C 6,4 km/h (2 Bft) 95,83 %
07.07.2018 06:23 16,1 C 22,2 C 96 % 1018,8 hPa 0,0 l/m 5,7 km/h (1 Bft) SW 234 0 min 0,000 mm 0,0 UV-I 16 W/m 15,5 C 16,1 C 6,4 km/h (2 Bft) 100,00 %
07.07.2018 06:24 16,1 C 22,2 C 96 % 1018,8 hPa 0,0 l/m 4,6 km/h (1 Bft) SW 235 0 min 0,000 mm 0,0 UV-I 18 W/m 15,5 C 16,1 C 6,4 km/h (2 Bft) 95,65 %
07.07.2018 06:25 16,2 C 22,2 C 96 % 1018,8 hPa 0,0 l/m 3,5 km/h (1 Bft) W-SW 240 0 min 0,000 mm 0,0 UV-I 20 W/m 15,6 C 16,2 C 6,4 km/h (2 Bft) 100,00 %
07.07.2018 06:26 16,2 C 22,2 C 96 % 1018,8 hPa 0,0 l/m 5,2 km/h (1 Bft) W-SW 242 0 min 0,000 mm 0,0 UV-I 22 W/m 15,6 C 16,2 C 8,0 km/h (2 Bft) 100,00 %
07.07.2018 06:27 16,1 C 22,2 C 96 % 1018,8 hPa 0,0 l/m 5,3 km/h (1 Bft) SW 236 0 min 0,000 mm 0,0 UV-I 27 W/m 15,5 C 16,1 C 6,4 km/h (2 Bft) 100,00 %
07.07.2018 06:28 16,1 C 22,2 C 96 % 1018,8 hPa 0,0 l/m 4,4 km/h (1 Bft) W-SW 238 0 min 0,000 mm 0,0 UV-I 29 W/m 15,5 C 16,1 C 6,4 km/h (2 Bft) 100,00 %
07.07.2018 06:29 16,2 C 22,2 C 96 % 1018,8 hPa 0,0 l/m 3,8 km/h (1 Bft) W-SW 238 0 min 0,000 mm 0,0 UV-I 32 W/m 15,6 C 16,2 C 4,8 km/h (1 Bft) 100,00 %
07.07.2018 06:30 16,1 C 22,2 C 96 % 1018,8 hPa 0,0 l/m 4,2 km/h (1 Bft) W-SW 244 0 min 0,000 mm 0,0 UV-I 32 W/m 15,5 C 16,1 C 6,4 km/h (2 Bft) 100,00 %
07.07.2018 06:31 16,1 C 22,2 C 96 % 1018,8 hPa 0,0 l/m 5,4 km/h (1 Bft) SW 234 0 min 0,000 mm 0,0 UV-I 34 W/m 15,5 C 16,1 C 8,0 km/h (2 Bft) 100,00 %
07.07.2018 06:32 16,1 C 22,2 C 96 % 1018,8 hPa 0,0 l/m 5,1 km/h (1 Bft) W-SW 239 0 min 0,000 mm 0,0 UV-I 36 W/m 15,5 C 16,1 C 6,4 km/h (2 Bft) 100,00 %
07.07.2018 06:33 16,1 C 22,2 C 96 % 1018,8 hPa 0,0 l/m 5,5 km/h (1 Bft) SW 230 0 min 0,000 mm 0,0 UV-I 39 W/m 15,5 C 16,1 C 8,0 km/h (2 Bft) 100,00 %
07.07.2018 06:34 16,2 C 22,2 C 96 % 1018,8 hPa 0,0 l/m 4,7 km/h (1 Bft) W-SW 250 0 min 0,000 mm 0,0 UV-I 41 W/m 15,6 C 16,2 C 6,4 km/h (2 Bft) 100,00 %
07.07.2018 06:35 16,2 C 22,2 C 96 % 1018,8 hPa 0,0 l/m 4,8 km/h (1 Bft) W-SW 239 0 min 0,000 mm 0,0 UV-I 45 W/m 15,6 C 16,2 C 8,0 km/h (2 Bft) 100,00 %
07.07.2018 06:36 16,2 C 22,2 C 96 % 1018,8 hPa 0,0 l/m 6,2 km/h (2 Bft) W-SW 251 0 min 0,000 mm 0,0 UV-I 48 W/m 15,6 C 16,2 C 8,0 km/h (2 Bft) 95,65 %
07.07.2018 06:37 16,2 C 22,2 C 96 % 1018,8 hPa 0,0 l/m 4,7 km/h (1 Bft) SW 235 0 min 0,000 mm 0,0 UV-I 53 W/m 15,6 C 16,2 C 6,4 km/h (2 Bft) 100,00 %
07.07.2018 06:38 16,2 C 22,2 C 96 % 1018,8 hPa 0,0 l/m 5,6 km/h (1 Bft) W-SW 246 0 min 0,000 mm 0,0 UV-I 61 W/m 15,6 C 16,2 C 8,0 km/h (2 Bft) 100,00 %
07.07.2018 06:39 16,2 C 22,2 C 96 % 1018,8 hPa 0,0 l/m 6,6 km/h (2 Bft) SW 232 0 min 0,000 mm 0,0 UV-I 67 W/m 15,6 C 16,1 C 9,7 km/h (2 Bft) 100,00 %
07.07.2018 06:40 16,2 C 22,2 C 96 % 1018,8 hPa 0,0 l/m 7,2 km/h (2 Bft) SW 234 0 min 0,000 mm 0,0 UV-I 73 W/m 15,6 C 15,8 C 11,3 km/h (2 Bft) 100,00 %
07.07.2018 06:41 16,2 C 22,2 C 96 % 1018,8 hPa 0,0 l/m 6,1 km/h (2 Bft) W-SW 258 0 min 0,000 mm 0,0 UV-I 81 W/m 15,6 C 16,2 C 11,3 km/h (2 Bft) 92,59 %
07.07.2018 06:42 16,2 C 22,2 C 96 % 1018,8 hPa 0,0 l/m 5,8 km/h (2 Bft) SW 232 0 min 0,000 mm 0,0 UV-I 88 W/m 15,6 C 16,2 C 11,3 km/h (2 Bft) 100,00 %
07.07.2018 06:43 16,2 C 22,2 C 96 % 1018,8 hPa 0,0 l/m 5,4 km/h (1 Bft) W-SW 244 0 min 0,000 mm 0,0 UV-I 91 W/m 15,6 C 16,2 C 8,0 km/h (2 Bft) 100,00 %
07.07.2018 06:44 16,3 C 22,2 C 96 % 1018,8 hPa 0,0 l/m 3,6 km/h (1 Bft) W-SW 253 0 min 0,000 mm 0,0 UV-I 89 W/m 15,7 C 16,3 C 4,8 km/h (1 Bft) 100,00 %
07.07.2018 06:45 16,3 C 22,2 C 96 % 1018,8 hPa 0,0 l/m 5,4 km/h (1 Bft) W-SW 245 0 min 0,000 mm 0,0 UV-I 81 W/m 15,7 C 16,3 C 8,0 km/h (2 Bft) 100,00 %
07.07.2018 06:46 16,3 C 22,2 C 96 % 1018,8 hPa 0,0 l/m 5,5 km/h (1 Bft) W-SW 257 0 min 0,000 mm 0,0 UV-I 73 W/m 15,7 C 16,3 C 9,7 km/h (2 Bft) 100,00 %
07.07.2018 06:47 16,3 C 22,2 C 96 % 1018,8 hPa 0,0 l/m 4,6 km/h (1 Bft) W-SW 247 0 min 0,000 mm 0,0 UV-I 69 W/m 15,7 C 16,3 C 6,4 km/h (2 Bft) 100,00 %
07.07.2018 06:48 16,3 C 22,2 C 96 % 1018,8 hPa 0,0 l/m 4,4 km/h (1 Bft) W-SW 241 0 min 0,000 mm 0,0 UV-I 67 W/m 15,7 C 16,3 C 4,8 km/h (1 Bft) 100,00 %
07.07.2018 06:49 16,3 C 22,2 C 96 % 1018,8 hPa 0,0 l/m 5,0 km/h (1 Bft) SW 232 0 min 0,000 mm 0,0 UV-I 66 W/m 15,7 C 16,3 C 6,4 km/h (2 Bft) 100,00 %
07.07.2018 06:50 16,3 C 22,2 C 96 % 1018,8 hPa 0,0 l/m 5,0 km/h (1 Bft) W-SW 243 0 min 0,000 mm 0,0 UV-I 67 W/m 15,7 C 16,3 C 9,7 km/h (2 Bft) 100,00 %
07.07.2018 06:51 16,3 C 22,2 C 96 % 1018,8 hPa 0,0 l/m 4,7 km/h (1 Bft) W 264 0 min 0,000 mm 0,0 UV-I 69 W/m 15,7 C 16,3 C 6,4 km/h (2 Bft) 100,00 %
07.07.2018 06:52 16,3 C 22,2 C 96 % 1018,8 hPa 0,0 l/m 5,8 km/h (2 Bft) W-SW 238 0 min 0,000 mm 0,0 UV-I 68 W/m 15,7 C 16,3 C 8,0 km/h (2 Bft) 100,00 %
07.07.2018 06:53 16,3 C 22,2 C 96 % 1018,8 hPa 0,0 l/m 6,0 km/h (2 Bft) W 269 0 min 0,000 mm 0,0 UV-I 67 W/m 15,7 C 16,3 C 9,7 km/h (2 Bft) 95,65 %
07.07.2018 06:54 16,3 C 22,2 C 96 % 1018,8 hPa 0,0 l/m 6,4 km/h (2 Bft) W-SW 244 0 min 0,000 mm 0,0 UV-I 68 W/m 15,7 C 16,3 C 9,7 km/h (2 Bft) 100,00 %
07.07.2018 06:55 16,3 C 22,2 C 96 % 1018,8 hPa 0,0 l/m 8,6 km/h (2 Bft) W 268 0 min 0,000 mm 0,0 UV-I 71 W/m 15,7 C 15,2 C 12,9 km/h (3 Bft) 95,65 %
07.07.2018 06:56 16,3 C 22,2 C 96 % 1018,8 hPa 0,0 l/m 5,9 km/h (2 Bft) W-SW 253 0 min 0,000 mm 0,0 UV-I 74 W/m 15,7 C 16,3 C 11,3 km/h (2 Bft) 100,00 %
07.07.2018 06:57 16,3 C 22,2 C 96 % 1018,8 hPa 0,0 l/m 8,4 km/h (2 Bft) W 259 0 min 0,000 mm 0,0 UV-I 76 W/m 15,7 C 15,3 C 12,9 km/h (3 Bft) 91,30 %
07.07.2018 06:58 16,3 C 22,2 C 96 % 1018,8 hPa 0,0 l/m 7,3 km/h (2 Bft) W 259 0 min 0,000 mm 0,0 UV-I 74 W/m 15,7 C 15,8 C 12,9 km/h (3 Bft) 100,00 %
07.07.2018 06:59 16,3 C 22,2 C 96 % 1018,8 hPa 0,0 l/m 11,5 km/h (2 Bft) W-SW 244 0 min 0,000 mm 0,0 UV-I 76 W/m 15,7 C 14,0 C 14,5 km/h (3 Bft) 100,00 %
07.07.2018 07:00 16,3 C 22,2 C 96 % 1018,8 hPa 0,0 l/m 10,1 km/h (2 Bft) W-SW 257 0 min 0,025 mm 0,0 UV-I 78 W/m 15,7 C 14,5 C 16,1 km/h (3 Bft) 95,83 %
07.07.2018 07:01 16,3 C 22,2 C 95 % 1018,8 hPa 0,0 l/m 7,4 km/h (2 Bft) W 261 0 min 0,000 mm 0,0 UV-I 89 W/m 15,5 C 15,8 C 12,9 km/h (3 Bft) 100,00 %
07.07.2018 07:02 16,3 C 22,2 C 95 % 1018,8 hPa 0,0 l/m 5,5 km/h (1 Bft) W-SW 254 0 min 0,000 mm 0,0 UV-I 101 W/m 15,5 C 16,3 C 9,7 km/h (2 Bft) 100,00 %
07.07.2018 07:03 16,3 C 22,2 C 95 % 1018,8 hPa 0,0 l/m 11,3 km/h (2 Bft) W 265 0 min 0,000 mm 0,0 UV-I 95 W/m 15,5 C 14,0 C 14,5 km/h (3 Bft) 100,00 %
07.07.2018 07:04 16,3 C 22,2 C 95 % 1018,8 hPa 0,0 l/m 10,2 km/h (2 Bft) W-SW 246 0 min 0,000 mm 0,0 UV-I 94 W/m 15,5 C 14,5 C 14,5 km/h (3 Bft) 100,00 %
07.07.2018 07:05 16,3 C 22,2 C 95 % 1018,8 hPa 0,0 l/m 9,6 km/h (2 Bft) W-SW 256 0 min 0,000 mm 0,0 UV-I 94 W/m 15,5 C 14,7 C 14,5 km/h (3 Bft) 95,83 %
07.07.2018 07:06 16,3 C 22,2 C 95 % 1018,8 hPa 0,0 l/m 10,7 km/h (2 Bft) W-SW 245 0 min 0,000 mm 0,0 UV-I 82 W/m 15,5 C 14,3 C 12,9 km/h (3 Bft) 100,00 %
07.07.2018 07:07 16,3 C 22,2 C 95 % 1018,8 hPa 0,0 l/m 11,3 km/h (2 Bft) W 273 0 min 0,000 mm 0,0 UV-I 87 W/m 15,5 C 14,0 C 17,7 km/h (3 Bft) 91,67 %
07.07.2018 07:08 16,4 C 22,2 C 95 % 1018,8 hPa 0,0 l/m 14,3 km/h (3 Bft) W-SW 257 0 min 0,000 mm 0,0 UV-I 89 W/m 15,6 C 13,1 C 17,7 km/h (3 Bft) 100,00 %
07.07.2018 07:09 16,4 C 22,2 C 95 % 1018,8 hPa 0,0 l/m 9,4 km/h (2 Bft) W 265 0 min 0,000 mm 0,0 UV-I 91 W/m 15,6 C 14,9 C 14,5 km/h (3 Bft) 100,00 %
07.07.2018 07:10 16,4 C 22,2 C 95 % 1018,8 hPa 0,0 l/m 13,1 km/h (3 Bft) W-SW 238 0 min 0,000 mm 0,0 UV-I 91 W/m 15,6 C 13,5 C 17,7 km/h (3 Bft) 95,65 %
07.07.2018 07:11 16,4 C 22,2 C 95 % 1018,8 hPa 0,0 l/m 12,9 km/h (3 Bft) SW 227 0 min 0,000 mm 0,0 UV-I 90 W/m 15,6 C 13,6 C 17,7 km/h (3 Bft) 100,00 %
07.07.2018 07:12 16,4 C 22,2 C 95 % 1018,8 hPa 0,0 l/m 9,4 km/h (2 Bft) W-SW 253 0 min 0,000 mm 0,0 UV-I 92 W/m 15,6 C 14,9 C 12,9 km/h (3 Bft) 91,30 %
07.07.2018 07:13 16,4 C 22,2 C 95 % 1018,8 hPa 0,0 l/m 9,2 km/h (2 Bft) W 266 0 min 0,000 mm 0,0 UV-I 95 W/m 15,6 C 15,0 C 14,5 km/h (3 Bft) 100,00 %
07.07.2018 07:14 16,4 C 22,2 C 95 % 1018,8 hPa 0,0 l/m 12,1 km/h (2 Bft) W-SW 257 0 min 0,000 mm 0,0 UV-I 98 W/m 15,6 C 13,8 C 16,1 km/h (3 Bft) 95,65 %
07.07.2018 07:15 16,4 C 22,2 C 95 % 1018,8 hPa 0,0 l/m 10,3 km/h (2 Bft) W 265 0 min 0,000 mm 0,0 UV-I 98 W/m 15,6 C 14,5 C 12,9 km/h (3 Bft) 95,83 %
07.07.2018 07:16 16,4 C 22,2 C 95 % 1018,8 hPa 0,0 l/m 11,3 km/h (2 Bft) W-SW 250 0 min 0,000 mm 0,0 UV-I 100 W/m 15,6 C 14,1 C 14,5 km/h (3 Bft) 100,00 %
07.07.2018 07:17 16,4 C 22,2 C 95 % 1018,8 hPa 0,0 l/m 8,2 km/h (2 Bft) W-SW 252 0 min 0,000 mm 0,0 UV-I 104 W/m 15,6 C 15,5 C 12,9 km/h (3 Bft) 95,65 %
07.07.2018 07:18 16,4 C 22,2 C 95 % 1018,8 hPa 0,0 l/m 7,6 km/h (2 Bft) SW 215 0 min 0,000 mm 0,0 UV-I 108 W/m 15,6 C 15,8 C 12,9 km/h (3 Bft) 100,00 %
07.07.2018 07:19 16,4 C 22,2 C 95 % 1018,8 hPa 0,0 l/m 10,2 km/h (2 Bft) W 274 0 min 0,000 mm 0,1 UV-I 112 W/m 15,6 C 14,6 C 16,1 km/h (3 Bft) 91,30 %
07.07.2018 07:20 16,4 C 22,2 C 95 % 1018,8 hPa 0,0 l/m 10,5 km/h (2 Bft) SW 227 0 min 0,000 mm 0,5 UV-I 116 W/m 15,6 C 14,5 C 14,5 km/h (3 Bft) 100,00 %
07.07.2018 07:21 16,4 C 22,2 C 95 % 1018,8 hPa 0,0 l/m 10,7 km/h (2 Bft) W 273 0 min 0,000 mm 0,5 UV-I 123 W/m 15,6 C 14,4 C 16,1 km/h (3 Bft) 95,65 %
07.07.2018 07:22 16,4 C 22,2 C 95 % 1018,8 hPa 0,0 l/m 9,0 km/h (2 Bft) W-SW 252 0 min 0,000 mm 0,5 UV-I 131 W/m 15,6 C 15,1 C 12,9 km/h (3 Bft) 95,83 %
07.07.2018 07:23 16,5 C 22,2 C 95 % 1018,8 hPa 0,0 l/m 9,4 km/h (2 Bft) W 276 0 min 0,000 mm 0,5 UV-I 137 W/m 15,7 C 15,0 C 12,9 km/h (3 Bft) 100,00 %
07.07.2018 07:24 16,5 C 22,2 C 95 % 1018,8 hPa 0,0 l/m 8,7 km/h (2 Bft) W-SW 248 0 min 0,000 mm 0,5 UV-I 137 W/m 15,7 C 15,3 C 12,9 km/h (3 Bft) 95,83 %
07.07.2018 07:25 16,6 C 22,2 C 95 % 1018,9 hPa 0,0 l/m 9,2 km/h (2 Bft) W-SW 256 0 min 0,000 mm 0,5 UV-I 137 W/m 15,8 C 15,2 C 14,5 km/h (3 Bft) 96,15 %
07.07.2018 07:26 16,6 C 22,2 C 95 % 1018,9 hPa 0,0 l/m 6,3 km/h (2 Bft) W-NW 296 0 min 0,000 mm 0,5 UV-I 136 W/m 15,8 C 16,6 C 9,7 km/h (2 Bft) 95,83 %
07.07.2018 07:27 16,6 C 22,2 C 95 % 1018,9 hPa 0,0 l/m 9,8 km/h (2 Bft) W-SW 252 0 min 0,000 mm 0,5 UV-I 139 W/m 15,8 C 15,0 C 12,9 km/h (3 Bft) 100,00 %
07.07.2018 07:28 16,6 C 22,2 C 95 % 1018,9 hPa 0,0 l/m 9,6 km/h (2 Bft) W 277 0 min 0,000 mm 0,5 UV-I 139 W/m 15,8 C 15,1 C 14,5 km/h (3 Bft) 95,83 %
07.07.2018 07:29 16,6 C 22,2 C 94 % 1018,9 hPa 0,0 l/m 6,7 km/h (2 Bft) W-SW 246 0 min 0,000 mm 0,5 UV-I 125 W/m 15,6 C 16,5 C 9,7 km/h (2 Bft) 92,86 %
07.07.2018 07:30 16,6 C 22,2 C 94 % 1019,0 hPa 0,0 l/m 9,6 km/h (2 Bft) W 265 0 min 0,000 mm 0,5 UV-I 117 W/m 15,6 C 15,1 C 12,9 km/h (3 Bft) 95,83 %
07.07.2018 07:31 16,6 C 22,2 C 94 % 1019,0 hPa 0,0 l/m 9,1 km/h (2 Bft) W 263 0 min 0,000 mm 0,5 UV-I 122 W/m 15,6 C 15,3 C 14,5 km/h (3 Bft) 88,46 %
07.07.2018 07:32 16,6 C 22,2 C 94 % 1019,0 hPa 0,0 l/m 6,7 km/h (2 Bft) W 267 0 min 0,000 mm 0,5 UV-I 131 W/m 15,6 C 16,5 C 12,9 km/h (3 Bft) 100,00 %
07.07.2018 07:33 16,6 C 22,2 C 94 % 1019,0 hPa 0,0 l/m 7,2 km/h (2 Bft) W 267 0 min 0,000 mm 0,5 UV-I 134 W/m 15,6 C 16,2 C 11,3 km/h (2 Bft) 82,61 %
07.07.2018 07:34 16,7 C 22,2 C 94 % 1019,0 hPa 0,0 l/m 8,0 km/h (2 Bft) W 278 0 min 0,000 mm 0,6 UV-I 150 W/m 15,7 C 15,9 C 11,3 km/h (2 Bft) 100,00 %
07.07.2018 07:35 16,7 C 22,2 C 94 % 1019,0 hPa 0,0 l/m 5,8 km/h (2 Bft) W-SW 244 1 min 0,000 mm 0,6 UV-I 195 W/m 15,7 C 16,7 C 8,0 km/h (2 Bft) 86,96 %
07.07.2018 07:36 16,7 C 22,2 C 94 % 1019,0 hPa 0,0 l/m 8,5 km/h (2 Bft) W 260 0 min 0,000 mm 0,6 UV-I 163 W/m 15,7 C 15,6 C 11,3 km/h (2 Bft) 100,00 %
07.07.2018 07:37 16,7 C 22,2 C 94 % 1019,0 hPa 0,0 l/m 11,3 km/h (2 Bft) W-NW 294 0 min 0,000 mm 0,6 UV-I 160 W/m 15,7 C 14,5 C 19,3 km/h (3 Bft) 92,31 %
07.07.2018 07:38 16,7 C 22,2 C 94 % 1019,0 hPa 0,0 l/m 8,6 km/h (2 Bft) W-SW 244 0 min 0,000 mm 0,6 UV-I 157 W/m 15,7 C 15,6 C 14,5 km/h (3 Bft) 91,67 %
07.07.2018 07:39 16,7 C 22,2 C 94 % 1019,0 hPa 0,0 l/m 8,7 km/h (2 Bft) W 279 0 min 0,000 mm 0,6 UV-I 154 W/m 15,7 C 15,6 C 12,9 km/h (3 Bft) 100,00 %
07.07.2018 07:40 16,7 C 22,2 C 94 % 1019,0 hPa 0,0 l/m 9,0 km/h (2 Bft) W 271 0 min 0,000 mm 0,5 UV-I 147 W/m 15,7 C 15,4 C 14,5 km/h (3 Bft) 91,67 %
07.07.2018 07:41 16,8 C 22,2 C 94 % 1019,0 hPa 0,0 l/m 6,7 km/h (2 Bft) W 281 0 min 0,000 mm 0,5 UV-I 136 W/m 15,8 C 16,7 C 11,3 km/h (2 Bft) 100,00 %
07.07.2018 07:42 16,8 C 22,2 C 94 % 1019,0 hPa 0,0 l/m 7,1 km/h (2 Bft) W 281 0 min 0,000 mm 0,5 UV-I 136 W/m 15,8 C 16,4 C 11,3 km/h (2 Bft) 95,65 %
07.07.2018 07:43 16,8 C 22,2 C 94 % 1019,1 hPa 0,0 l/m 5,4 km/h (1 Bft) W 269 0 min 0,000 mm 0,5 UV-I 134 W/m 15,8 C 16,8 C 11,3 km/h (2 Bft) 100,00 %
07.07.2018 07:44 16,8 C 22,2 C 94 % 1019,1 hPa 0,0 l/m 7,8 km/h (2 Bft) W-SW 243 0 min 0,000 mm 0,5 UV-I 138 W/m 15,8 C 16,1 C 12,9 km/h (3 Bft) 91,30 %
07.07.2018 07:45 16,8 C 22,2 C 94 % 1019,0 hPa 0,0 l/m 7,0 km/h (2 Bft) W 275 0 min 0,000 mm 0,5 UV-I 135 W/m 15,8 C 16,5 C 11,3 km/h (2 Bft) 95,83 %
07.07.2018 07:46 16,8 C 22,2 C 94 % 1019,1 hPa 0,0 l/m 8,0 km/h (2 Bft) W 261 0 min 0,000 mm 0,5 UV-I 137 W/m 15,8 C 16,0 C 14,5 km/h (3 Bft) 92,86 %
07.07.2018 07:47 16,8 C 22,2 C 94 % 1019,1 hPa 0,0 l/m 6,6 km/h (2 Bft) W 275 0 min 0,000 mm 0,5 UV-I 137 W/m 15,8 C 16,7 C 9,7 km/h (2 Bft) 100,00 %
07.07.2018 07:48 16,8 C 22,2 C 94 % 1019,1 hPa 0,0 l/m 9,0 km/h (2 Bft) W 276 0 min 0,000 mm 0,5 UV-I 131 W/m 15,8 C 15,5 C 12,9 km/h (3 Bft) 95,65 %
07.07.2018 07:49 16,7 C 22,2 C 94 % 1019,1 hPa 0,0 l/m 7,5 km/h (2 Bft) W-SW 244 0 min 0,000 mm 0,5 UV-I 134 W/m 15,7 C 16,1 C 12,9 km/h (3 Bft) 95,83 %
07.07.2018 07:50 16,8 C 22,2 C 94 % 1019,1 hPa 0,0 l/m 9,9 km/h (2 Bft) W-SW 254 0 min 0,000 mm 0,5 UV-I 143 W/m 15,8 C 15,1 C 14,5 km/h (3 Bft) 95,83 %
07.07.2018 07:51 16,8 C 22,2 C 94 % 1019,1 hPa 0,0 l/m 12,9 km/h (3 Bft) W 269 0 min 0,000 mm 0,5 UV-I 152 W/m 15,8 C 14,0 C 14,5 km/h (3 Bft) 100,00 %
07.07.2018 07:52 16,8 C 22,2 C 94 % 1019,1 hPa 0,0 l/m 11,7 km/h (2 Bft) W-NW 296 0 min 0,000 mm 0,1 UV-I 128 W/m 15,8 C 14,5 C 16,1 km/h (3 Bft) 95,83 %
07.07.2018 07:53 16,8 C 22,2 C 94 % 1019,1 hPa 0,0 l/m 6,4 km/h (2 Bft) SW 217 0 min 0,000 mm 0,0 UV-I 95 W/m 15,8 C 16,8 C 11,3 km/h (2 Bft) 95,65 %
07.07.2018 07:54 16,7 C 22,2 C 94 % 1019,1 hPa 0,0 l/m 8,9 km/h (2 Bft) W-SW 248 0 min 0,000 mm 0,0 UV-I 84 W/m 15,7 C 15,5 C 12,9 km/h (3 Bft) 100,00 %
07.07.2018 07:55 16,7 C 22,2 C 94 % 1019,1 hPa 0,0 l/m 11,3 km/h (2 Bft) W-SW 248 0 min 0,000 mm 0,0 UV-I 85 W/m 15,7 C 14,5 C 16,1 km/h (3 Bft) 96,15 %
07.07.2018 07:56 16,7 C 22,2 C 94 % 1019,1 hPa 0,0 l/m 9,7 km/h (2 Bft) W-SW 250 0 min 0,000 mm 0,0 UV-I 86 W/m 15,7 C 15,1 C 12,9 km/h (3 Bft) 100,00 %
07.07.2018 07:57 16,7 C 22,2 C 94 % 1019,2 hPa 0,0 l/m 7,0 km/h (2 Bft) W 271 0 min 0,000 mm 0,0 UV-I 82 W/m 15,7 C 16,4 C 12,9 km/h (3 Bft) 95,65 %
07.07.2018 07:58 16,7 C 22,2 C 94 % 1019,2 hPa 0,0 l/m 12,6 km/h (3 Bft) W 273 0 min 0,000 mm 0,0 UV-I 70 W/m 15,7 C 14,0 C 17,7 km/h (3 Bft) 100,00 %
07.07.2018 07:59 16,7 C 22,2 C 94 % 1019,2 hPa 0,0 l/m 10,6 km/h (2 Bft) W 275 0 min 0,000 mm 0,0 UV-I 69 W/m 15,7 C 14,8 C 14,5 km/h (3 Bft) 95,65 %
07.07.2018 08:00 16,6 C 22,2 C 94 % 1019,2 hPa 0,0 l/m 8,9 km/h (2 Bft) W 275 0 min 0,000 mm 0,0 UV-I 70 W/m 15,6 C 15,4 C 17,7 km/h (3 Bft) 91,67 %
07.07.2018 08:01 16,6 C 22,2 C 94 % 1019,2 hPa 0,0 l/m 11,2 km/h (2 Bft) W 259 0 min 0,077 mm 0,0 UV-I 88 W/m 15,6 C 14,4 C 14,5 km/h (3 Bft) 100,00 %
07.07.2018 08:02 16,6 C 22,2 C 94 % 1019,2 hPa 0,0 l/m 7,2 km/h (2 Bft) NW 325 0 min 0,000 mm 0,0 UV-I 110 W/m 15,6 C 16,2 C 12,9 km/h (3 Bft) 100,00 %
07.07.2018 08:03 16,6 C 22,2 C 94 % 1019,2 hPa 0,0 l/m 6,9 km/h (2 Bft) W 262 0 min 0,000 mm 0,0 UV-I 133 W/m 15,6 C 16,3 C 14,5 km/h (3 Bft) 95,65 %
07.07.2018 08:04 16,6 C 22,2 C 94 % 1019,1 hPa 0,0 l/m 11,2 km/h (2 Bft) W-NW 298 0 min 0,000 mm 0,0 UV-I 123 W/m 15,6 C 14,4 C 16,1 km/h (3 Bft) 95,83 %
07.07.2018 08:05 16,6 C 22,2 C 94 % 1019,2 hPa 0,0 l/m 6,8 km/h (2 Bft) W-NW 291 0 min 0,000 mm 0,0 UV-I 108 W/m 15,6 C 16,4 C 11,3 km/h (2 Bft) 95,65 %
07.07.2018 08:06 16,6 C 22,2 C 94 % 1019,2 hPa 0,0 l/m 5,9 km/h (2 Bft) W 274 0 min 0,000 mm 0,0 UV-I 90 W/m 15,6 C 16,6 C 9,7 km/h (2 Bft) 91,67 %
07.07.2018 08:07 16,7 C 22,2 C 94 % 1019,2 hPa 0,0 l/m 6,0 km/h (2 Bft) W-NW 287 0 min 0,000 mm 0,0 UV-I 73 W/m 15,7 C 16,7 C 11,3 km/h (2 Bft) 100,00 %
07.07.2018 08:08 16,6 C 22,2 C 94 % 1019,2 hPa 0,0 l/m 13,1 km/h (3 Bft) SW 227 0 min 0,000 mm 0,0 UV-I 64 W/m 15,6 C 13,7 C 22,5 km/h (4 Bft) 96,30 %
07.07.2018 08:09 16,6 C 22,2 C 94 % 1019,2 hPa 0,0 l/m 13,0 km/h (3 Bft) W 272 0 min 0,000 mm 0,0 UV-I 65 W/m 15,6 C 13,8 C 19,3 km/h (3 Bft) 100,00 %
07.07.2018 08:10 16,6 C 22,2 C 94 % 1019,2 hPa 0,0 l/m 12,7 km/h (3 Bft) W-NW 295 0 min 0,000 mm 0,0 UV-I 65 W/m 15,6 C 13,9 C 17,7 km/h (3 Bft) 95,83 %
07.07.2018 08:11 16,6 C 22,2 C 94 % 1019,2 hPa 0,0 l/m 6,4 km/h (2 Bft) NW 313 0 min 0,000 mm 0,0 UV-I 62 W/m 15,6 C 16,6 C 9,7 km/h (2 Bft) 92,31 %
07.07.2018 08:12 16,6 C 22,2 C 94 % 1019,2 hPa 0,0 l/m 8,3 km/h (2 Bft) W 259 0 min 0,000 mm 0,0 UV-I 64 W/m 15,6 C 15,6 C 12,9 km/h (3 Bft) 100,00 %
07.07.2018 08:13 16,6 C 22,2 C 94 % 1019,2 hPa 0,0 l/m 12,0 km/h (2 Bft) W 273 0 min 0,000 mm 0,0 UV-I 69 W/m 15,6 C 14,1 C 17,7 km/h (3 Bft) 91,30 %
07.07.2018 08:14 16,6 C 22,2 C 94 % 1019,2 hPa 0,0 l/m 8,0 km/h (2 Bft) NW 318 0 min 0,000 mm 0,0 UV-I 77 W/m 15,6 C 15,8 C 14,5 km/h (3 Bft) 100,00 %
07.07.2018 08:15 16,6 C 22,2 C 94 % 1019,2 hPa 0,0 l/m 12,0 km/h (2 Bft) W-NW 290 0 min 0,000 mm 0,4 UV-I 103 W/m 15,6 C 14,1 C 20,9 km/h (4 Bft) 95,65 %
07.07.2018 08:16 16,5 C 22,2 C 94 % 1019,2 hPa 0,0 l/m 12,3 km/h (3 Bft) W-NW 294 0 min 0,000 mm 0,6 UV-I 146 W/m 15,5 C 13,9 C 16,1 km/h (3 Bft) 100,00 %
07.07.2018 08:17 16,5 C 22,2 C 94 % 1019,2 hPa 0,0 l/m 9,5 km/h (2 Bft) W-NW 284 0 min 0,000 mm 0,6 UV-I 183 W/m 15,5 C 15,0 C 14,5 km/h (3 Bft) 95,83 %
07.07.2018 08:18 16,6 C 22,2 C 94 % 1019,2 hPa 0,0 l/m 8,5 km/h (2 Bft) W-SW 250 0 min 0,000 mm 0,6 UV-I 210 W/m 15,6 C 15,5 C 14,5 km/h (3 Bft) 95,65 %
07.07.2018 08:19 16,6 C 22,2 C 94 % 1019,3 hPa 0,0 l/m 9,7 km/h (2 Bft) W 269 0 min 0,000 mm 0,6 UV-I 197 W/m 15,6 C 15,0 C 14,5 km/h (3 Bft) 95,83 %
07.07.2018 08:20 16,6 C 22,2 C 94 % 1019,2 hPa 0,0 l/m 11,4 km/h (2 Bft) W-SW 257 0 min 0,000 mm 0,5 UV-I 158 W/m 15,6 C 14,3 C 14,5 km/h (3 Bft) 100,00 %
07.07.2018 08:21 16,6 C 22,2 C 94 % 1019,3 hPa 0,0 l/m 12,7 km/h (3 Bft) W-SW 246 0 min 0,000 mm 0,5 UV-I 128 W/m 15,6 C 13,9 C 17,7 km/h (3 Bft) 91,67 %
07.07.2018 08:22 16,7 C 22,2 C 94 % 1019,3 hPa 0,0 l/m 13,5 km/h (3 Bft) W 271 0 min 0,000 mm 0,0 UV-I 111 W/m 15,7 C 13,7 C 17,7 km/h (3 Bft) 96,43 %
07.07.2018 08:23 16,7 C 22,2 C 94 % 1019,3 hPa 0,0 l/m 11,1 km/h (2 Bft) SW 227 0 min 0,000 mm 0,1 UV-I 107 W/m 15,7 C 14,6 C 16,1 km/h (3 Bft) 95,83 %
07.07.2018 08:24 16,7 C 22,2 C 94 % 1019,3 hPa 0,0 l/m 11,8 km/h (2 Bft) W-SW 246 0 min 0,000 mm 0,5 UV-I 112 W/m 15,7 C 14,3 C 16,1 km/h (3 Bft) 91,30 %
07.07.2018 08:25 16,7 C 22,2 C 94 % 1019,3 hPa 0,0 l/m 11,7 km/h (2 Bft) W 278 0 min 0,000 mm 0,5 UV-I 107 W/m 15,7 C 14,3 C 17,7 km/h (3 Bft) 100,00 %
07.07.2018 08:26 16,7 C 22,2 C 94 % 1019,3 hPa 0,0 l/m 9,5 km/h (2 Bft) W-SW 251 0 min 0,000 mm 0,2 UV-I 95 W/m 15,7 C 15,2 C 16,1 km/h (3 Bft) 95,65 %
07.07.2018 08:27 16,7 C 22,2 C 94 % 1019,3 hPa 0,0 l/m 9,3 km/h (2 Bft) W 273 0 min 0,000 mm 0,0 UV-I 84 W/m 15,7 C 15,3 C 14,5 km/h (3 Bft) 100,00 %
07.07.2018 08:28 16,7 C 22,2 C 94 % 1019,3 hPa 0,0 l/m 6,8 km/h (2 Bft) W-NW 293 0 min 0,000 mm 0,0 UV-I 78 W/m 15,7 C 16,5 C 12,9 km/h (3 Bft) 96,15 %
07.07.2018 08:29 16,7 C 22,2 C 94 % 1019,4 hPa 0,0 l/m 6,2 km/h (2 Bft) W-SW 254 0 min 0,000 mm 0,1 UV-I 90 W/m 15,7 C 16,7 C 8,0 km/h (2 Bft) 100,00 %
07.07.2018 08:30 16,7 C 22,2 C 94 % 1019,3 hPa 0,0 l/m 7,2 km/h (2 Bft) W 271 0 min 0,000 mm 0,5 UV-I 110 W/m 15,7 C 16,3 C 12,9 km/h (3 Bft) 96,15 %
07.07.2018 08:31 16,7 C 22,2 C 94 % 1019,3 hPa 0,0 l/m 6,9 km/h (2 Bft) W 264 0 min 0,000 mm 0,5 UV-I 122 W/m 15,7 C 16,4 C 11,3 km/h (2 Bft) 100,00 %
07.07.2018 08:32 16,7 C 22,2 C 94 % 1019,3 hPa 0,0 l/m 6,5 km/h (2 Bft) W 267 0 min 0,000 mm 0,5 UV-I 123 W/m 15,7 C 16,7 C 11,3 km/h (2 Bft) 91,30 %
07.07.2018 08:33 16,7 C 22,2 C 94 % 1019,3 hPa 0,0 l/m 12,1 km/h (2 Bft) W-SW 256 0 min 0,000 mm 0,5 UV-I 117 W/m 15,7 C 14,2 C 17,7 km/h (3 Bft) 95,83 %
07.07.2018 08:34 16,7 C 22,2 C 94 % 1019,3 hPa 0,0 l/m 9,7 km/h (2 Bft) W-NW 296 0 min 0,000 mm 0,5 UV-I 126 W/m 15,7 C 15,1 C 12,9 km/h (3 Bft) 100,00 %
07.07.2018 08:35 16,7 C 22,2 C 94 % 1019,3 hPa 0,0 l/m 9,3 km/h (2 Bft) W 273 0 min 0,000 mm 0,6 UV-I 139 W/m 15,7 C 15,3 C 12,9 km/h (3 Bft) 100,00 %
07.07.2018 08:36 16,7 C 22,2 C 94 % 1019,3 hPa 0,0 l/m 7,1 km/h (2 Bft) W-SW 256 0 min 0,000 mm 0,6 UV-I 143 W/m 15,7 C 16,3 C 11,3 km/h (2 Bft) 96,30 %
07.07.2018 08:37 16,7 C 22,2 C 94 % 1019,3 hPa 0,0 l/m 8,9 km/h (2 Bft) W 271 0 min 0,000 mm 0,6 UV-I 146 W/m 15,7 C 15,5 C 11,3 km/h (2 Bft) 95,65 %
07.07.2018 08:38 16,7 C 22,2 C 94 % 1019,3 hPa 0,0 l/m 7,7 km/h (2 Bft) W 259 0 min 0,000 mm 0,7 UV-I 151 W/m 15,7 C 16,0 C 11,3 km/h (2 Bft) 96,30 %
07.07.2018 08:39 16,8 C 22,2 C 94 % 1019,3 hPa 0,0 l/m 5,7 km/h (1 Bft) W 262 0 min 0,000 mm 0,7 UV-I 155 W/m 15,8 C 16,8 C 11,3 km/h (2 Bft) 100,00 %
07.07.2018 08:40 16,8 C 22,2 C 94 % 1019,3 hPa 0,0 l/m 9,6 km/h (2 Bft) W 261 0 min 0,000 mm 0,6 UV-I 138 W/m 15,8 C 15,3 C 14,5 km/h (3 Bft) 100,00 %
07.07.2018 08:41 16,8 C 22,2 C 94 % 1019,3 hPa 0,0 l/m 7,0 km/h (2 Bft) W-SW 251 0 min 0,000 mm 0,7 UV-I 137 W/m 15,8 C 16,5 C 12,9 km/h (3 Bft) 100,00 %
07.07.2018 08:42 16,8 C 22,2 C 93 % 1019,3 hPa 0,0 l/m 14,6 km/h (3 Bft) W 263 0 min 0,000 mm 0,7 UV-I 130 W/m 15,7 C 13,5 C 20,9 km/h (4 Bft) 100,00 %
07.07.2018 08:43 16,8 C 22,2 C 93 % 1019,4 hPa 0,0 l/m 12,0 km/h (2 Bft) W 280 0 min 0,000 mm 0,6 UV-I 128 W/m 15,7 C 14,3 C 17,7 km/h (3 Bft) 91,30 %
07.07.2018 08:44 16,8 C 22,2 C 93 % 1019,3 hPa 0,0 l/m 12,9 km/h (3 Bft) W 260 0 min 0,000 mm 0,7 UV-I 152 W/m 15,7 C 14,0 C 17,7 km/h (3 Bft) 100,00 %
07.07.2018 08:45 16,8 C 22,2 C 93 % 1019,3 hPa 0,0 l/m 13,7 km/h (3 Bft) W-SW 255 0 min 0,000 mm 0,9 UV-I 171 W/m 15,7 C 13,8 C 20,9 km/h (4 Bft) 100,00 %
07.07.2018 08:46 16,8 C 22,2 C 93 % 1019,3 hPa 0,0 l/m 10,4 km/h (2 Bft) W 268 0 min 0,000 mm 0,9 UV-I 191 W/m 15,7 C 14,9 C 17,7 km/h (3 Bft) 100,00 %
07.07.2018 08:47 16,8 C 22,2 C 93 % 1019,3 hPa 0,0 l/m 12,2 km/h (2 Bft) W-NW 286 0 min 0,000 mm 1,0 UV-I 225 W/m 15,7 C 14,3 C 17,7 km/h (3 Bft) 100,00 %
07.07.2018 08:48 16,9 C 22,2 C 93 % 1019,3 hPa 0,0 l/m 9,3 km/h (2 Bft) W 281 0 min 0,000 mm 0,8 UV-I 206 W/m 15,8 C 15,5 C 11,3 km/h (2 Bft) 100,00 %
07.07.2018 08:49 16,9 C 22,2 C 93 % 1019,3 hPa 0,0 l/m 6,9 km/h (2 Bft) NW 306 0 min 0,000 mm 0,9 UV-I 180 W/m 15,8 C 16,7 C 11,3 km/h (2 Bft) 100,00 %
07.07.2018 08:50 16,9 C 22,2 C 93 % 1019,3 hPa 0,0 l/m 10,5 km/h (2 Bft) W 281 0 min 0,000 mm 0,9 UV-I 178 W/m 15,8 C 15,0 C 14,5 km/h (3 Bft) 100,00 %
07.07.2018 08:51 16,9 C 22,2 C 93 % 1019,4 hPa 0,0 l/m 8,5 km/h (2 Bft) W-SW 254 0 min 0,000 mm 0,8 UV-I 176 W/m 15,8 C 15,9 C 14,5 km/h (3 Bft) 100,00 %
07.07.2018 08:52 16,9 C 22,2 C 93 % 1019,4 hPa 0,0 l/m 6,4 km/h (2 Bft) W-NW 288 0 min 0,000 mm 0,8 UV-I 171 W/m 15,8 C 16,9 C 9,7 km/h (2 Bft) 100,00 %
07.07.2018 08:53 17,0 C 22,2 C 93 % 1019,4 hPa 0,0 l/m 9,9 km/h (2 Bft) W-NW 292 0 min 0,000 mm 0,6 UV-I 137 W/m 15,9 C 15,4 C 17,7 km/h (3 Bft) 100,00 %
07.07.2018 08:54 17,0 C 22,2 C 93 % 1019,4 hPa 0,0 l/m 10,1 km/h (2 Bft) W 272 0 min 0,000 mm 0,7 UV-I 146 W/m 15,9 C 15,3 C 16,1 km/h (3 Bft) 100,00 %
07.07.2018 08:55 17,0 C 22,2 C 93 % 1019,4 hPa 0,0 l/m 9,6 km/h (2 Bft) W 275 0 min 0,000 mm 0,8 UV-I 176 W/m 15,9 C 15,5 C 17,7 km/h (3 Bft) 100,00 %
07.07.2018 08:56 16,9 C 22,2 C 93 % 1019,4 hPa 0,0 l/m 10,1 km/h (2 Bft) W 259 0 min 0,000 mm 0,9 UV-I 197 W/m 15,8 C 15,2 C 14,5 km/h (3 Bft) 100,00 %
07.07.2018 08:57 16,9 C 22,2 C 93 % 1019,4 hPa 0,2 l/m 14,6 km/h (3 Bft) W-NW 285 0 min 0,000 mm 0,8 UV-I 200 W/m 15,8 C 13,6 C 25,7 km/h (4 Bft) 100,00 %
07.07.2018 08:58 16,9 C 22,2 C 92 % 1019,4 hPa 0,0 l/m 10,4 km/h (2 Bft) W 262 0 min 0,000 mm 0,8 UV-I 184 W/m 15,6 C 15,1 C 14,5 km/h (3 Bft) 100,00 %
07.07.2018 08:59 16,9 C 22,2 C 92 % 1019,4 hPa 0,0 l/m 10,7 km/h (2 Bft) W 261 0 min 0,000 mm 0,7 UV-I 160 W/m 15,6 C 14,9 C 17,7 km/h (3 Bft) 100,00 %
07.07.2018 09:00 16,9 C 22,2 C 92 % 1019,4 hPa 0,0 l/m 8,0 km/h (2 Bft) W 274 0 min 0,076 mm 0,7 UV-I 159 W/m 15,6 C 16,1 C 12,9 km/h (3 Bft) 100,00 %
07.07.2018 09:01 16,9 C 22,2 C 92 % 1019,4 hPa 0,0 l/m 9,3 km/h (2 Bft) W-SW 248 0 min 0,000 mm 0,8 UV-I 163 W/m 15,6 C 15,5 C 12,9 km/h (3 Bft) 100,00 %
07.07.2018 09:02 16,9 C 22,2 C 93 % 1019,4 hPa 0,0 l/m 6,2 km/h (2 Bft) W 269 0 min 0,000 mm 0,8 UV-I 176 W/m 15,8 C 16,9 C 12,9 km/h (3 Bft) 92,31 %
07.07.2018 09:03 16,9 C 22,2 C 93 % 1019,4 hPa 0,0 l/m 9,0 km/h (2 Bft) W 279 0 min 0,000 mm 0,8 UV-I 185 W/m 15,8 C 15,6 C 12,9 km/h (3 Bft) 100,00 %
07.07.2018 09:04 17,0 C 22,2 C 93 % 1019,4 hPa 0,0 l/m 10,2 km/h (2 Bft) NW 312 0 min 0,000 mm 0,7 UV-I 166 W/m 15,9 C 15,2 C 14,5 km/h (3 Bft) 95,65 %
07.07.2018 09:05 17,0 C 22,2 C 92 % 1019,4 hPa 0,0 l/m 7,5 km/h (2 Bft) W 271 0 min 0,000 mm 0,7 UV-I 156 W/m 15,7 C 16,4 C 12,9 km/h (3 Bft) 100,00 %
07.07.2018 09:06 16,9 C 22,2 C 92 % 1019,4 hPa 0,0 l/m 8,1 km/h (2 Bft) W 281 0 min 0,000 mm 0,7 UV-I 148 W/m 15,6 C 16,0 C 12,9 km/h (3 Bft) 100,00 %
07.07.2018 09:07 16,9 C 22,2 C 92 % 1019,4 hPa 0,0 l/m 6,0 km/h (2 Bft) W 271 0 min 0,000 mm 0,6 UV-I 142 W/m 15,6 C 16,9 C 9,7 km/h (2 Bft) 96,15 %
07.07.2018 09:08 16,9 C 22,2 C 92 % 1019,4 hPa 0,0 l/m 2,9 km/h (1 Bft) W 272 0 min 0,000 mm 0,5 UV-I 128 W/m 15,6 C 16,9 C 4,8 km/h (1 Bft) 95,83 %
07.07.2018 09:09 17,0 C 22,2 C 92 % 1019,4 hPa 0,0 l/m 3,8 km/h (1 Bft) W-SW 257 0 min 0,000 mm 0,5 UV-I 119 W/m 15,7 C 17,0 C 6,4 km/h (2 Bft) 100,00 %
07.07.2018 09:10 17,0 C 22,2 C 93 % 1019,4 hPa 0,0 l/m 7,7 km/h (2 Bft) W 271 0 min 0,000 mm 0,5 UV-I 120 W/m 15,9 C 16,3 C 9,7 km/h (2 Bft) 95,83 %
07.07.2018 09:11 17,0 C 22,2 C 93 % 1019,4 hPa 0,0 l/m 7,9 km/h (2 Bft) W-NW 282 0 min 0,000 mm 0,5 UV-I 131 W/m 15,9 C 16,2 C 12,9 km/h (3 Bft) 100,00 %
07.07.2018 09:12 17,0 C 22,2 C 92 % 1019,4 hPa 0,0 l/m 5,5 km/h (1 Bft) W-NW 285 0 min 0,000 mm 0,6 UV-I 138 W/m 15,7 C 17,0 C 6,4 km/h (2 Bft) 95,83 %
07.07.2018 09:13 17,0 C 22,2 C 92 % 1019,4 hPa 0,0 l/m 7,5 km/h (2 Bft) W 272 0 min 0,000 mm 0,5 UV-I 127 W/m 15,7 C 16,4 C 12,9 km/h (3 Bft) 100,00 %
07.07.2018 09:14 16,9 C 22,2 C 92 % 1019,4 hPa 0,0 l/m 9,2 km/h (2 Bft) W-NW 286 0 min 0,000 mm 0,5 UV-I 110 W/m 15,6 C 15,6 C 14,5 km/h (3 Bft) 95,83 %
07.07.2018 09:15 16,9 C 22,2 C 92 % 1019,4 hPa 0,0 l/m 4,8 km/h (1 Bft) W 259 0 min 0,000 mm 0,5 UV-I 115 W/m 15,6 C 16,9 C 6,4 km/h (2 Bft) 96,15 %
07.07.2018 09:16 16,9 C 22,2 C 92 % 1019,5 hPa 0,0 l/m 4,9 km/h (1 Bft) W-NW 298 0 min 0,000 mm 0,7 UV-I 145 W/m 15,6 C 16,9 C 6,4 km/h (2 Bft) 100,00 %
07.07.2018 09:17 16,9 C 22,2 C 93 % 1019,5 hPa 0,0 l/m 9,1 km/h (2 Bft) W-SW 252 0 min 0,000 mm 0,8 UV-I 165 W/m 15,8 C 15,6 C 12,9 km/h (3 Bft) 92,86 %
07.07.2018 09:18 17,0 C 22,2 C 93 % 1019,5 hPa 0,0 l/m 7,7 km/h (2 Bft) W 263 0 min 0,000 mm 0,6 UV-I 143 W/m 15,9 C 16,3 C 12,9 km/h (3 Bft) 95,83 %
07.07.2018 09:19 17,0 C 22,2 C 93 % 1019,5 hPa 0,0 l/m 5,4 km/h (1 Bft) W 267 0 min 0,000 mm 0,7 UV-I 123 W/m 15,9 C 17,0 C 9,7 km/h (2 Bft) 95,65 %
07.07.2018 09:20 17,1 C 22,2 C 93 % 1019,5 hPa 0,0 l/m 8,3 km/h (2 Bft) W 276 0 min 0,000 mm 0,9 UV-I 151 W/m 16,0 C 16,2 C 12,9 km/h (3 Bft) 100,00 %
07.07.2018 09:21 17,1 C 22,2 C 92 % 1019,5 hPa 0,0 l/m 7,4 km/h (2 Bft) W-SW 237 0 min 0,000 mm 0,9 UV-I 225 W/m 15,8 C 16,6 C 11,3 km/h (2 Bft) 92,31 %
07.07.2018 09:22 17,1 C 22,2 C 92 % 1019,5 hPa 0,0 l/m 6,2 km/h (2 Bft) W-NW 289 0 min 0,000 mm 1,3 UV-I 284 W/m 15,8 C 17,1 C 9,7 km/h (2 Bft) 100,00 %
07.07.2018 09:23 17,2 C 22,2 C 93 % 1019,5 hPa 0,0 l/m 5,9 km/h (2 Bft) W 265 0 min 0,000 mm 1,3 UV-I 276 W/m 16,1 C 17,2 C 9,7 km/h (2 Bft) 95,65 %
07.07.2018 09:24 17,2 C 22,2 C 93 % 1019,5 hPa 0,0 l/m 5,8 km/h (2 Bft) NW 307 0 min 0,000 mm 1,3 UV-I 244 W/m 16,1 C 17,2 C 9,7 km/h (2 Bft) 95,83 %
07.07.2018 09:25 17,2 C 22,2 C 93 % 1019,5 hPa 0,0 l/m 7,4 km/h (2 Bft) W 272 0 min 0,000 mm 1,4 UV-I 259 W/m 16,1 C 16,7 C 11,3 km/h (2 Bft) 100,00 %
07.07.2018 09:26 17,3 C 22,2 C 93 % 1019,5 hPa 0,0 l/m 5,2 km/h (1 Bft) W 266 1 min 0,000 mm 1,7 UV-I 359 W/m 16,2 C 17,3 C 11,3 km/h (2 Bft) 95,83 %
07.07.2018 09:27 17,3 C 22,2 C 92 % 1019,4 hPa 0,0 l/m 7,6 km/h (2 Bft) W-NW 286 1 min 0,000 mm 1,7 UV-I 359 W/m 16,0 C 16,7 C 12,9 km/h (3 Bft) 100,00 %
07.07.2018 09:28 17,4 C 22,2 C 93 % 1019,4 hPa 0,0 l/m 6,6 km/h (2 Bft) W-SW 257 0 min 0,000 mm 1,7 UV-I 321 W/m 16,3 C 17,3 C 11,3 km/h (2 Bft) 95,65 %
07.07.2018 09:29 17,4 C 22,2 C 91 % 1019,4 hPa 0,0 l/m 8,9 km/h (2 Bft) W-NW 284 0 min 0,000 mm 2,0 UV-I 272 W/m 15,9 C 16,2 C 16,1 km/h (3 Bft) 100,00 %
07.07.2018 09:30 17,5 C 22,2 C 91 % 1019,4 hPa 0,0 l/m 5,2 km/h (1 Bft) W 271 1 min 0,000 mm 2,3 UV-I 559 W/m 16,0 C 17,5 C 9,7 km/h (2 Bft) 95,65 %
07.07.2018 09:31 17,5 C 22,2 C 91 % 1019,4 hPa 0,0 l/m 5,8 km/h (2 Bft) W-SW 254 1 min 0,000 mm 2,3 UV-I 671 W/m 16,0 C 17,5 C 9,7 km/h (2 Bft) 100,00 %
07.07.2018 09:32 17,7 C 22,2 C 92 % 1019,4 hPa 0,0 l/m 6,8 km/h (2 Bft) W-SW 258 1 min 0,000 mm 2,2 UV-I 494 W/m 16,4 C 17,5 C 11,3 km/h (2 Bft) 92,86 %
07.07.2018 09:33 17,7 C 22,2 C 91 % 1019,4 hPa 0,0 l/m 8,6 km/h (2 Bft) W-NW 301 1 min 0,000 mm 2,2 UV-I 418 W/m 16,2 C 16,7 C 12,9 km/h (3 Bft) 100,00 %
07.07.2018 09:34 17,7 C 22,2 C 90 % 1019,4 hPa 0,0 l/m 5,9 km/h (2 Bft) W 263 0 min 0,000 mm 2,2 UV-I 265 W/m 16,0 C 17,7 C 9,7 km/h (2 Bft) 95,65 %
07.07.2018 09:35 17,8 C 22,2 C 90 % 1019,4 hPa 0,0 l/m 5,8 km/h (2 Bft) W 271 0 min 0,000 mm 2,6 UV-I 265 W/m 16,1 C 17,8 C 9,7 km/h (2 Bft) 95,83 %
07.07.2018 09:36 17,9 C 22,2 C 91 % 1019,4 hPa 0,0 l/m 5,9 km/h (2 Bft) W-NW 303 0 min 0,000 mm 2,8 UV-I 265 W/m 16,4 C 17,9 C 11,3 km/h (2 Bft) 95,65 %
07.07.2018 09:37 18,1 C 22,2 C 92 % 1019,4 hPa 0,0 l/m 7,3 km/h (2 Bft) W-NW 301 0 min 0,000 mm 2,8 UV-I 298 W/m 16,8 C 17,7 C 16,1 km/h (3 Bft) 95,83 %
07.07.2018 09:38 18,2 C 22,2 C 90 % 1019,4 hPa 0,0 l/m 5,1 km/h (1 Bft) SW 235 1 min 0,000 mm 2,9 UV-I 662 W/m 16,5 C 18,2 C 6,4 km/h (2 Bft) 95,65 %
07.07.2018 09:39 18,3 C 22,2 C 90 % 1019,4 hPa 0,0 l/m 7,6 km/h (2 Bft) W-SW 252 1 min 0,000 mm 2,9 UV-I 684 W/m 16,6 C 17,7 C 11,3 km/h (2 Bft) 95,83 %
07.07.2018 09:40 18,4 C 22,2 C 89 % 1019,3 hPa 0,0 l/m 7,0 km/h (2 Bft) N-NW 342 1 min 0,000 mm 2,8 UV-I 710 W/m 16,6 C 18,1 C 16,1 km/h (3 Bft) 100,00 %
07.07.2018 09:41 18,5 C 22,2 C 88 % 1019,3 hPa 0,0 l/m 4,2 km/h (1 Bft) W 259 1 min 0,000 mm 2,5 UV-I 612 W/m 16,5 C 18,5 C 6,4 km/h (2 Bft) 95,83 %
07.07.2018 09:42 18,6 C 22,2 C 88 % 1019,4 hPa 0,0 l/m 8,5 km/h (2 Bft) W 262 1 min 0,000 mm 2,1 UV-I 559 W/m 16,6 C 17,7 C 14,5 km/h (3 Bft) 100,00 %
07.07.2018 09:43 18,6 C 22,2 C 87 % 1019,3 hPa 0,0 l/m 9,7 km/h (2 Bft) W-NW 292 1 min 0,000 mm 2,2 UV-I 548 W/m 16,4 C 17,2 C 14,5 km/h (3 Bft) 95,65 %
07.07.2018 09:44 18,6 C 22,2 C 87 % 1019,3 hPa 0,0 l/m 9,6 km/h (2 Bft) W-NW 291 1 min 0,000 mm 2,2 UV-I 422 W/m 16,4 C 17,2 C 12,9 km/h (3 Bft) 100,00 %
07.07.2018 09:45 18,6 C 22,2 C 87 % 1019,3 hPa 0,0 l/m 7,6 km/h (2 Bft) W-SW 257 0 min 0,000 mm 1,7 UV-I 332 W/m 16,4 C 18,1 C 12,9 km/h (3 Bft) 92,31 %
07.07.2018 09:46 18,4 C 22,2 C 86 % 1019,3 hPa 0,0 l/m 13,8 km/h (3 Bft) W-SW 245 0 min 0,000 mm 1,6 UV-I 227 W/m 16,0 C 15,6 C 20,9 km/h (4 Bft) 100,00 %
07.07.2018 09:47 18,4 C 22,2 C 86 % 1019,3 hPa 0,0 l/m 13,4 km/h (3 Bft) W-SW 244 0 min 0,000 mm 1,5 UV-I 220 W/m 16,0 C 15,8 C 22,5 km/h (4 Bft) 100,00 %
07.07.2018 09:48 18,4 C 22,2 C 87 % 1019,3 hPa 0,0 l/m 7,8 km/h (2 Bft) W-NW 284 0 min 0,000 mm 1,6 UV-I 193 W/m 16,2 C 17,8 C 14,5 km/h (3 Bft) 100,00 %
07.07.2018 09:49 18,4 C 22,2 C 87 % 1019,3 hPa 0,0 l/m 11,0 km/h (2 Bft) W 278 0 min 0,000 mm 1,8 UV-I 198 W/m 16,2 C 16,5 C 16,1 km/h (3 Bft) 95,65 %
07.07.2018 09:50 18,4 C 22,2 C 87 % 1019,3 hPa 0,0 l/m 16,2 km/h (3 Bft) W-NW 284 0 min 0,000 mm 2,2 UV-I 251 W/m 16,2 C 15,0 C 27,4 km/h (4 Bft) 100,00 %
07.07.2018 09:51 18,3 C 22,2 C 86 % 1019,3 hPa 0,0 l/m 18,8 km/h (3 Bft) W-SW 252 1 min 0,000 mm 3,1 UV-I 450 W/m 15,9 C 14,3 C 24,1 km/h (4 Bft) 100,00 %
07.07.2018 09:52 18,4 C 22,2 C 85 % 1019,3 hPa 0,0 l/m 18,5 km/h (3 Bft) W-NW 293 1 min 0,000 mm 2,9 UV-I 782 W/m 15,8 C 14,5 C 22,5 km/h (4 Bft) 100,00 %
07.07.2018 09:53 18,5 C 22,2 C 85 % 1019,3 hPa 0,0 l/m 14,9 km/h (3 Bft) SW 222 1 min 0,000 mm 2,5 UV-I 782 W/m 15,9 C 15,5 C 24,1 km/h (4 Bft) 100,00 %
07.07.2018 09:54 18,6 C 22,2 C 85 % 1019,3 hPa 0,0 l/m 18,9 km/h (3 Bft) W-SW 241 1 min 0,000 mm 2,9 UV-I 766 W/m 16,0 C 14,6 C 24,1 km/h (4 Bft) 100,00 %
07.07.2018 09:55 18,7 C 22,2 C 84 % 1019,3 hPa 0,0 l/m 16,5 km/h (3 Bft) W 273 1 min 0,000 mm 3,1 UV-I 810 W/m 15,9 C 15,3 C 22,5 km/h (4 Bft) 95,65 %
07.07.2018 09:56 18,7 C 22,2 C 84 % 1019,3 hPa 0,0 l/m 15,7 km/h (3 Bft) W 260 1 min 0,000 mm 2,1 UV-I 661 W/m 15,9 C 15,5 C 20,9 km/h (4 Bft) 100,00 %
07.07.2018 09:57 18,7 C 22,2 C 83 % 1019,3 hPa 0,0 l/m 7,7 km/h (2 Bft) W 275 0 min 0,000 mm 2,1 UV-I 235 W/m 15,8 C 18,1 C 14,5 km/h (3 Bft) 100,00 %
07.07.2018 09:58 18,6 C 22,2 C 84 % 1019,3 hPa 0,0 l/m 14,7 km/h (3 Bft) W-NW 292 0 min 0,000 mm 2,4 UV-I 234 W/m 15,8 C 15,6 C 20,9 km/h (4 Bft) 100,00 %
07.07.2018 09:59 18,6 C 22,2 C 84 % 1019,3 hPa 0,0 l/m 18,3 km/h (3 Bft) W 265 0 min 0,000 mm 2,8 UV-I 234 W/m 15,8 C 14,8 C 27,4 km/h (4 Bft) 100,00 %
07.07.2018 10:00 18,6 C 22,2 C 83 % 1019,4 hPa 0,0 l/m 12,9 km/h (3 Bft) W 267 0 min 0,203 mm 3,2 UV-I 234 W/m 15,7 C 16,1 C 17,7 km/h (3 Bft) 100,00 %
07.07.2018 10:01 18,7 C 22,2 C 85 % 1019,3 hPa 0,0 l/m 14,0 km/h (3 Bft) W 273 1 min 0,000 mm 3,3 UV-I 731 W/m 16,1 C 15,9 C 29,0 km/h (5 Bft) 100,00 %
07.07.2018 10:02 18,7 C 22,2 C 84 % 1019,4 hPa 0,0 l/m 16,2 km/h (3 Bft) W 273 1 min 0,000 mm 3,4 UV-I 727 W/m 15,9 C 15,4 C 19,3 km/h (3 Bft) 100,00 %
07.07.2018 10:03 18,8 C 22,2 C 84 % 1019,3 hPa 0,0 l/m 17,7 km/h (3 Bft) W 267 1 min 0,000 mm 3,4 UV-I 726 W/m 16,0 C 15,1 C 24,1 km/h (4 Bft) 100,00 %
07.07.2018 10:04 18,8 C 22,2 C 82 % 1019,4 hPa 0,0 l/m 15,1 km/h (3 Bft) W 262 1 min 0,000 mm 3,4 UV-I 706 W/m 15,7 C 15,8 C 22,5 km/h (4 Bft) 95,65 %
07.07.2018 10:05 18,8 C 22,2 C 82 % 1019,4 hPa 0,0 l/m 14,5 km/h (3 Bft) W 275 1 min 0,000 mm 3,5 UV-I 736 W/m 15,7 C 15,9 C 22,5 km/h (4 Bft) 100,00 %
07.07.2018 10:06 18,8 C 22,2 C 82 % 1019,3 hPa 0,0 l/m 17,8 km/h (3 Bft) W-SW 258 1 min 0,000 mm 3,5 UV-I 752 W/m 15,7 C 15,1 C 27,4 km/h (4 Bft) 100,00 %
07.07.2018 10:07 18,9 C 22,2 C 81 % 1019,4 hPa 0,0 l/m 18,6 km/h (3 Bft) W 261 1 min 0,000 mm 3,6 UV-I 764 W/m 15,6 C 15,1 C 25,7 km/h (4 Bft) 100,00 %
07.07.2018 10:08 18,9 C 22,2 C 81 % 1019,3 hPa 0,0 l/m 13,9 km/h (3 Bft) W 265 1 min 0,000 mm 3,6 UV-I 756 W/m 15,6 C 16,2 C 20,9 km/h (4 Bft) 100,00 %
07.07.2018 10:09 19,1 C 22,2 C 82 % 1019,3 hPa 0,0 l/m 12,5 km/h (3 Bft) W-NW 284 1 min 0,000 mm 3,6 UV-I 777 W/m 16,0 C 16,8 C 17,7 km/h (3 Bft) 100,00 %
07.07.2018 10:10 19,1 C 22,2 C 81 % 1019,3 hPa 0,0 l/m 17,0 km/h (3 Bft) SW 215 1 min 0,000 mm 3,4 UV-I 777 W/m 15,8 C 15,7 C 22,5 km/h (4 Bft) 100,00 %
07.07.2018 10:11 19,2 C 22,2 C 81 % 1019,4 hPa 0,0 l/m 17,4 km/h (3 Bft) W-SW 252 1 min 0,000 mm 3,4 UV-I 777 W/m 15,9 C 15,7 C 24,1 km/h (4 Bft) 100,00 %
07.07.2018 10:13 19,2 C 22,2 C 80 % 1019,3 hPa 0,0 l/m 16,4 km/h (3 Bft) W-NW 296 2 min 0,000 mm 3,3 UV-I 774 W/m 15,7 C 15,9 C 27,4 km/h (4 Bft) 100,00 %
07.07.2018 10:14 19,2 C 22,2 C 81 % 1019,3 hPa 0,0 l/m 11,7 km/h (2 Bft) W-NW 292 1 min 0,000 mm 3,6 UV-I 769 W/m 15,9 C 17,2 C 14,5 km/h (3 Bft) 100,00 %
07.07.2018 10:15 19,3 C 22,2 C 81 % 1019,3 hPa 0,0 l/m 7,0 km/h (2 Bft) SW 236 1 min 0,000 mm 3,7 UV-I 797 W/m 16,0 C 19,0 C 11,3 km/h (2 Bft) 100,00 %
07.07.2018 10:16 19,4 C 22,2 C 81 % 1019,4 hPa 0,0 l/m 13,9 km/h (3 Bft) SW 227 1 min 0,000 mm 3,6 UV-I 788 W/m 16,1 C 16,8 C 22,5 km/h (4 Bft) 100,00 %
07.07.2018 10:17 19,5 C 22,8 C 81 % 1019,3 hPa 0,0 l/m 19,4 km/h (3 Bft) W 262 1 min 0,000 mm 3,7 UV-I 800 W/m 16,1 C 15,7 C 25,7 km/h (4 Bft) 100,00 %
07.07.2018 10:18 19,5 C 22,8 C 79 % 1019,4 hPa 0,0 l/m 12,7 km/h (3 Bft) W-SW 250 1 min 0,000 mm 4,0 UV-I 803 W/m 15,8 C 17,3 C 20,9 km/h (4 Bft) 100,00 %
07.07.2018 10:19 19,5 C 22,2 C 80 % 1019,3 hPa 0,0 l/m 11,4 km/h (2 Bft) W 281 1 min 0,000 mm 4,0 UV-I 792 W/m 16,0 C 17,6 C 17,7 km/h (3 Bft) 100,00 %
07.07.2018 10:20 19,5 C 22,2 C 81 % 1019,4 hPa 0,0 l/m 14,2 km/h (3 Bft) W 280 1 min 0,000 mm 3,8 UV-I 733 W/m 16,1 C 16,8 C 22,5 km/h (4 Bft) 100,00 %
07.07.2018 10:21 19,6 C 22,8 C 79 % 1019,3 hPa 0,0 l/m 13,6 km/h (3 Bft) NW 315 1 min 0,000 mm 4,0 UV-I 788 W/m 15,9 C 17,1 C 17,7 km/h (3 Bft) 100,00 %
07.07.2018 10:22 19,6 C 22,2 C 80 % 1019,3 hPa 0,0 l/m 11,0 km/h (2 Bft) SW 230 1 min 0,000 mm 4,0 UV-I 794 W/m 16,1 C 17,9 C 16,1 km/h (3 Bft) 100,00 %
07.07.2018 10:23 19,7 C 22,2 C 79 % 1019,3 hPa 0,0 l/m 6,3 km/h (2 Bft) W 272 1 min 0,000 mm 3,4 UV-I 773 W/m 16,0 C 19,7 C 11,3 km/h (2 Bft) 100,00 %
07.07.2018 10:24 19,8 C 22,8 C 80 % 1019,4 hPa 0,0 l/m 7,6 km/h (2 Bft) SW 232 1 min 0,000 mm 3,4 UV-I 759 W/m 16,2 C 19,3 C 14,5 km/h (3 Bft) 100,00 %
07.07.2018 10:25 19,8 C 22,8 C 78 % 1019,4 hPa 0,0 l/m 8,9 km/h (2 Bft) W 267 1 min 0,000 mm 3,9 UV-I 606 W/m 15,8 C 18,8 C 14,5 km/h (3 Bft) 100,00 %
07.07.2018 10:26 19,8 C 22,8 C 78 % 1019,4 hPa 0,0 l/m 5,0 km/h (1 Bft) W-SW 242 1 min 0,000 mm 4,2 UV-I 700 W/m 15,8 C 19,8 C 9,7 km/h (2 Bft) 100,00 %
07.07.2018 10:27 19,8 C 22,2 C 78 % 1019,4 hPa 0,0 l/m 6,7 km/h (2 Bft) W-NW 299 1 min 0,000 mm 4,1 UV-I 831 W/m 15,8 C 19,7 C 12,9 km/h (3 Bft) 100,00 %
07.07.2018 10:28 19,7 C 22,2 C 77 % 1019,4 hPa 0,0 l/m 9,7 km/h (2 Bft) W-SW 246 1 min 0,000 mm 3,7 UV-I 795 W/m 15,5 C 18,4 C 16,1 km/h (3 Bft) 100,00 %
07.07.2018 10:29 19,6 C 22,2 C 77 % 1019,4 hPa 0,0 l/m 7,0 km/h (2 Bft) W 276 1 min 0,000 mm 3,2 UV-I 531 W/m 15,5 C 19,3 C 11,3 km/h (2 Bft) 100,00 %
07.07.2018 10:30 19,6 C 22,2 C 77 % 1019,4 hPa 0,0 l/m 10,9 km/h (2 Bft) W-SW 248 1 min 0,000 mm 3,0 UV-I 423 W/m 15,5 C 17,9 C 16,1 km/h (3 Bft) 100,00 %
07.07.2018 10:31 19,6 C 22,2 C 77 % 1019,4 hPa 0,0 l/m 8,9 km/h (2 Bft) SW 219 1 min 0,000 mm 3,1 UV-I 453 W/m 15,5 C 18,6 C 12,9 km/h (3 Bft) 100,00 %
07.07.2018 10:32 19,6 C 22,2 C 78 % 1019,4 hPa 0,0 l/m 5,6 km/h (1 Bft) SW 233 1 min 0,000 mm 3,3 UV-I 494 W/m 15,7 C 19,6 C 11,3 km/h (2 Bft) 100,00 %
07.07.2018 10:33 19,7 C 22,2 C 79 % 1019,4 hPa 0,0 l/m 6,0 km/h (2 Bft) N-NW 328 1 min 0,000 mm 3,5 UV-I 494 W/m 16,0 C 19,7 C 16,1 km/h (3 Bft) 100,00 %
07.07.2018 10:34 19,8 C 22,2 C 78 % 1019,4 hPa 0,0 l/m 15,2 km/h (3 Bft) W 263 1 min 0,000 mm 2,9 UV-I 494 W/m 15,8 C 17,0 C 19,3 km/h (3 Bft) 100,00 %
07.07.2018 10:35 19,7 C 22,8 C 76 % 1019,5 hPa 0,0 l/m 12,8 km/h (3 Bft) W-SW 256 1 min 0,000 mm 3,6 UV-I 494 W/m 15,3 C 17,5 C 19,3 km/h (3 Bft) 100,00 %
07.07.2018 10:36 19,7 C 22,2 C 77 % 1019,4 hPa 0,0 l/m 13,1 km/h (3 Bft) SW 225 1 min 0,000 mm 4,3 UV-I 494 W/m 15,5 C 17,4 C 24,1 km/h (4 Bft) 100,00 %
07.07.2018 10:37 19,7 C 22,2 C 76 % 1019,4 hPa 0,0 l/m 14,9 km/h (3 Bft) W 269 1 min 0,000 mm 3,4 UV-I 494 W/m 15,3 C 16,9 C 17,7 km/h (3 Bft) 100,00 %
07.07.2018 10:38 19,7 C 22,2 C 76 % 1019,4 hPa 0,0 l/m 12,9 km/h (3 Bft) N-NW 330 1 min 0,000 mm 4,0 UV-I 494 W/m 15,3 C 17,4 C 16,1 km/h (3 Bft) 100,00 %
07.07.2018 10:39 19,7 C 22,2 C 76 % 1019,4 hPa 0,0 l/m 13,4 km/h (3 Bft) W-NW 282 1 min 0,000 mm 3,6 UV-I 494 W/m 15,3 C 17,3 C 22,5 km/h (4 Bft) 100,00 %
07.07.2018 10:40 19,7 C 22,8 C 76 % 1019,5 hPa 0,0 l/m 14,1 km/h (3 Bft) W 275 1 min 0,000 mm 3,6 UV-I 529 W/m 15,3 C 17,1 C 22,5 km/h (4 Bft) 96,15 %
07.07.2018 10:41 19,7 C 22,2 C 75 % 1019,4 hPa 0,0 l/m 15,0 km/h (3 Bft) W-NW 303 1 min 0,000 mm 3,6 UV-I 494 W/m 15,1 C 16,9 C 19,3 km/h (3 Bft) 100,00 %
07.07.2018 10:42 19,7 C 22,2 C 76 % 1019,4 hPa 0,0 l/m 10,8 km/h (2 Bft) W-SW 250 1 min 0,000 mm 3,8 UV-I 482 W/m 15,3 C 18,0 C 17,7 km/h (3 Bft) 95,65 %
07.07.2018 10:43 19,7 C 22,8 C 76 % 1019,4 hPa 0,0 l/m 5,8 km/h (2 Bft) NW 306 1 min 0,000 mm 3,5 UV-I 441 W/m 15,3 C 19,7 C 9,7 km/h (2 Bft) 100,00 %
07.07.2018 10:44 19,8 C 22,8 C 76 % 1019,4 hPa 0,0 l/m 7,5 km/h (2 Bft) W-SW 245 1 min 0,000 mm 3,6 UV-I 629 W/m 15,4 C 19,3 C 12,9 km/h (3 Bft) 96,15 %
07.07.2018 10:45 19,8 C 22,2 C 77 % 1019,4 hPa 0,0 l/m 8,5 km/h (2 Bft) W-NW 283 1 min 0,000 mm 3,9 UV-I 835 W/m 15,6 C 18,9 C 16,1 km/h (3 Bft) 100,00 %
07.07.2018 10:46 19,9 C 22,2 C 76 % 1019,4 hPa 0,0 l/m 12,2 km/h (2 Bft) W-NW 297 1 min 0,000 mm 3,5 UV-I 704 W/m 15,5 C 17,9 C 16,1 km/h (3 Bft) 100,00 %
07.07.2018 10:47 19,9 C 22,2 C 75 % 1019,4 hPa 0,0 l/m 10,6 km/h (2 Bft) W-NW 283 1 min 0,000 mm 3,8 UV-I 579 W/m 15,3 C 18,3 C 14,5 km/h (3 Bft) 100,00 %
07.07.2018 10:48 20,0 C 22,8 C 75 % 1019,4 hPa 0,0 l/m 16,4 km/h (3 Bft) NW 309 1 min 0,000 mm 4,7 UV-I 625 W/m 15,4 C 16,9 C 22,5 km/h (4 Bft) 95,65 %
07.07.2018 10:49 20,1 C 22,2 C 75 % 1019,4 hPa 0,0 l/m 12,7 km/h (3 Bft) W 265 1 min 0,000 mm 4,6 UV-I 930 W/m 15,5 C 18,0 C 19,3 km/h (3 Bft) 100,00 %
07.07.2018 10:50 20,1 C 22,2 C 75 % 1019,4 hPa 0,0 l/m 14,7 km/h (3 Bft) W 261 1 min 0,000 mm 3,6 UV-I 659 W/m 15,5 C 17,4 C 19,3 km/h (3 Bft) 100,00 %
07.07.2018 10:51 20,1 C 22,8 C 76 % 1019,4 hPa 0,0 l/m 9,2 km/h (2 Bft) W 272 0 min 0,000 mm 4,5 UV-I 313 W/m 15,7 C 19,0 C 14,5 km/h (3 Bft) 100,00 %
07.07.2018 10:52 20,2 C 22,8 C 76 % 1019,5 hPa 0,0 l/m 6,0 km/h (2 Bft) W-NW 297 1 min 0,000 mm 4,9 UV-I 783 W/m 15,8 C 20,2 C 12,9 km/h (3 Bft) 100,00 %
07.07.2018 10:53 20,4 C 22,8 C 77 % 1019,4 hPa 0,0 l/m 8,8 km/h (2 Bft) W 270 1 min 0,000 mm 4,9 UV-I 940 W/m 16,2 C 19,5 C 16,1 km/h (3 Bft) 100,00 %
07.07.2018 10:54 20,5 C 22,8 C 74 % 1019,5 hPa 0,0 l/m 13,8 km/h (3 Bft) W-SW 255 1 min 0,000 mm 4,9 UV-I 940 W/m 15,7 C 18,1 C 19,3 km/h (3 Bft) 100,00 %
07.07.2018 10:55 20,6 C 22,8 C 73 % 1019,4 hPa 0,0 l/m 11,6 km/h (2 Bft) NW 315 1 min 0,000 mm 5,1 UV-I 930 W/m 15,6 C 18,8 C 17,7 km/h (3 Bft) 100,00 %
07.07.2018 10:56 20,7 C 22,2 C 72 % 1019,4 hPa 0,0 l/m 5,0 km/h (1 Bft) W 259 1 min 0,000 mm 5,1 UV-I 906 W/m 15,5 C 20,7 C 11,3 km/h (2 Bft) 100,00 %
07.07.2018 10:57 20,9 C 22,8 C 71 % 1019,5 hPa 0,0 l/m 9,6 km/h (2 Bft) W-NW 294 1 min 0,000 mm 5,1 UV-I 889 W/m 15,4 C 19,8 C 12,9 km/h (3 Bft) 100,00 %
07.07.2018 10:58 20,9 C 22,8 C 72 % 1019,3 hPa 0,0 l/m 12,4 km/h (3 Bft) W-NW 300 1 min 0,000 mm 5,1 UV-I 885 W/m 15,7 C 19,0 C 20,9 km/h (4 Bft) 100,00 %
07.07.2018 10:59 20,9 C 22,8 C 69 % 1019,3 hPa 0,0 l/m 11,6 km/h (2 Bft) W-NW 295 1 min 0,000 mm 5,1 UV-I 882 W/m 15,0 C 19,2 C 16,1 km/h (3 Bft) 95,65 %
07.07.2018 11:00 20,9 C 22,8 C 69 % 1019,3 hPa 0,0 l/m 13,7 km/h (3 Bft) W 269 1 min 0,000 mm 5,1 UV-I 885 W/m 15,0 C 18,6 C 20,9 km/h (4 Bft) 100,00 %
07.07.2018 11:01 20,9 C 22,8 C 68 % 1019,4 hPa 0,0 l/m 10,9 km/h (2 Bft) W 265 1 min 0,432 mm 5,2 UV-I 889 W/m 14,8 C 19,4 C 24,1 km/h (4 Bft) 100,00 %
07.07.2018 11:02 20,9 C 22,8 C 68 % 1019,4 hPa 0,0 l/m 10,7 km/h (2 Bft) W-NW 283 1 min 0,000 mm 5,2 UV-I 894 W/m 14,8 C 19,4 C 14,5 km/h (3 Bft) 100,00 %
07.07.2018 11:03 20,9 C 22,8 C 69 % 1019,4 hPa 0,0 l/m 14,7 km/h (3 Bft) SW 232 1 min 0,000 mm 5,2 UV-I 908 W/m 15,0 C 18,4 C 24,1 km/h (4 Bft) 95,65 %
07.07.2018 11:04 21,0 C 22,8 C 69 % 1019,4 hPa 0,0 l/m 14,4 km/h (3 Bft) W-NW 289 1 min 0,000 mm 5,0 UV-I 912 W/m 15,1 C 18,6 C 20,9 km/h (4 Bft) 100,00 %
07.07.2018 11:05 21,0 C 22,8 C 69 % 1019,4 hPa 0,0 l/m 12,1 km/h (2 Bft) NW 309 1 min 0,000 mm 5,0 UV-I 912 W/m 15,1 C 19,2 C 19,3 km/h (3 Bft) 95,65 %
07.07.2018 11:06 21,1 C 22,8 C 70 % 1019,4 hPa 0,0 l/m 9,4 km/h (2 Bft) W-NW 298 1 min 0,000 mm 4,4 UV-I 912 W/m 15,4 C 20,0 C 16,1 km/h (3 Bft) 100,00 %
07.07.2018 11:07 21,1 C 22,8 C 69 % 1019,3 hPa 0,0 l/m 12,5 km/h (3 Bft) W-SW 255 1 min 0,000 mm 4,4 UV-I 912 W/m 15,2 C 19,2 C 19,3 km/h (3 Bft) 91,30 %
07.07.2018 11:08 21,1 C 22,8 C 70 % 1019,4 hPa 0,0 l/m 8,8 km/h (2 Bft) N-NW 331 1 min 0,000 mm 5,0 UV-I 916 W/m 15,4 C 20,2 C 12,9 km/h (3 Bft) 95,83 %
07.07.2018 11:09 21,2 C 22,8 C 70 % 1019,4 hPa 0,0 l/m 15,9 km/h (3 Bft) W 273 1 min 0,000 mm 4,3 UV-I 875 W/m 15,5 C 18,5 C 20,9 km/h (4 Bft) 95,65 %
07.07.2018 11:10 21,1 C 22,8 C 69 % 1019,4 hPa 0,0 l/m 9,6 km/h (2 Bft) NW 311 1 min 0,000 mm 3,3 UV-I 851 W/m 15,2 C 20,0 C 16,1 km/h (3 Bft) 91,67 %
07.07.2018 11:11 20,9 C 22,8 C 68 % 1019,3 hPa 0,0 l/m 16,4 km/h (3 Bft) W-NW 290 0 min 0,000 mm 3,1 UV-I 269 W/m 14,8 C 18,0 C 24,1 km/h (4 Bft) 100,00 %
07.07.2018 11:12 20,9 C 22,8 C 69 % 1019,5 hPa 0,0 l/m 20,0 km/h (4 Bft) W 263 0 min 0,000 mm 4,9 UV-I 403 W/m 15,0 C 17,4 C 25,7 km/h (4 Bft) 95,83 %
07.07.2018 11:13 20,8 C 22,8 C 67 % 1019,5 hPa 0,0 l/m 13,3 km/h (3 Bft) W 276 1 min 0,000 mm 5,2 UV-I 876 W/m 14,4 C 18,6 C 19,3 km/h (3 Bft) 100,00 %
07.07.2018 11:14 20,8 C 22,8 C 68 % 1019,4 hPa 0,0 l/m 17,8 km/h (3 Bft) W-SW 241 1 min 0,000 mm 5,3 UV-I 868 W/m 14,7 C 17,6 C 24,1 km/h (4 Bft) 96,30 %
07.07.2018 11:15 20,8 C 22,8 C 68 % 1019,4 hPa 0,0 l/m 18,0 km/h (3 Bft) W-SW 244 1 min 0,000 mm 5,4 UV-I 856 W/m 14,7 C 17,6 C 27,4 km/h (4 Bft) 91,30 %
07.07.2018 11:16 20,9 C 22,8 C 67 % 1019,4 hPa 0,0 l/m 14,4 km/h (3 Bft) W 277 1 min 0,000 mm 5,4 UV-I 853 W/m 14,5 C 18,5 C 24,1 km/h (4 Bft) 95,83 %
07.07.2018 11:17 21,0 C 22,8 C 70 % 1019,4 hPa 0,0 l/m 14,3 km/h (3 Bft) W 266 1 min 0,000 mm 5,4 UV-I 847 W/m 15,3 C 18,6 C 20,9 km/h (4 Bft) 91,30 %
07.07.2018 11:18 21,1 C 22,8 C 65 % 1019,3 hPa 0,0 l/m 12,5 km/h (3 Bft) NW 316 1 min 0,000 mm 5,4 UV-I 850 W/m 14,3 C 19,2 C 19,3 km/h (3 Bft) 100,00 %
07.07.2018 11:19 21,1 C 22,8 C 65 % 1019,4 hPa 0,0 l/m 10,4 km/h (2 Bft) W 267 1 min 0,000 mm 5,5 UV-I 847 W/m 14,3 C 19,7 C 17,7 km/h (3 Bft) 95,65 %
07.07.2018 11:20 21,1 C 22,8 C 67 % 1019,4 hPa 0,0 l/m 10,9 km/h (2 Bft) NW 313 1 min 0,000 mm 5,5 UV-I 851 W/m 14,7 C 19,6 C 14,5 km/h (3 Bft) 100,00 %
07.07.2018 11:21 21,2 C 22,8 C 64 % 1019,4 hPa 0,0 l/m 14,5 km/h (3 Bft) W-SW 258 1 min 0,000 mm 5,5 UV-I 847 W/m 14,1 C 18,8 C 19,3 km/h (3 Bft) 95,83 %
07.07.2018 11:22 21,3 C 22,8 C 65 % 1019,4 hPa 0,0 l/m 11,1 km/h (2 Bft) SW 224 1 min 0,000 mm 5,6 UV-I 856 W/m 14,4 C 19,8 C 16,1 km/h (3 Bft) 100,00 %
07.07.2018 11:23 21,3 C 22,8 C 65 % 1019,4 hPa 0,0 l/m 7,5 km/h (2 Bft) W-SW 246 1 min 0,000 mm 5,6 UV-I 856 W/m 14,4 C 20,9 C 11,3 km/h (2 Bft) 95,83 %
07.07.2018 11:24 21,5 C 22,8 C 65 % 1019,4 hPa 0,0 l/m 11,4 km/h (2 Bft) W 269 1 min 0,000 mm 5,6 UV-I 855 W/m 14,6 C 19,9 C 16,1 km/h (3 Bft) 96,15 %
07.07.2018 11:25 21,6 C 22,8 C 64 % 1019,4 hPa 0,0 l/m 13,6 km/h (3 Bft) SW 224 1 min 0,000 mm 5,5 UV-I 856 W/m 14,5 C 19,5 C 17,7 km/h (3 Bft) 100,00 %
07.07.2018 11:26 21,5 C 22,8 C 61 % 1019,3 hPa 0,0 l/m 17,5 km/h (3 Bft) W 269 1 min 0,000 mm 5,5 UV-I 856 W/m 13,7 C 18,6 C 29,0 km/h (5 Bft) 95,65 %
07.07.2018 11:28 21,4 C 22,8 C 61 % 1019,3 hPa 0,0 l/m 15,3 km/h (3 Bft) W-SW 241 2 min 0,000 mm 5,6 UV-I 858 W/m 13,6 C 18,9 C 20,9 km/h (4 Bft) 93,22 %
07.07.2018 11:29 21,4 C 22,8 C 59 % 1019,3 hPa 0,0 l/m 11,6 km/h (2 Bft) W-NW 301 1 min 0,000 mm 5,6 UV-I 844 W/m 13,0 C 19,7 C 20,9 km/h (4 Bft) 100,00 %
07.07.2018 11:30 21,4 C 22,8 C 61 % 1019,4 hPa 0,0 l/m 12,7 km/h (3 Bft) W-SW 250 1 min 0,000 mm 5,6 UV-I 848 W/m 13,6 C 19,5 C 20,9 km/h (4 Bft) 86,96 %
07.07.2018 11:31 21,4 C 22,8 C 58 % 1019,4 hPa 0,0 l/m 13,9 km/h (3 Bft) W 270 1 min 0,000 mm 5,7 UV-I 857 W/m 12,8 C 19,2 C 20,9 km/h (4 Bft) 95,83 %
07.07.2018 11:32 21,4 C 22,8 C 58 % 1019,4 hPa 0,0 l/m 10,2 km/h (2 Bft) W-SW 252 1 min 0,000 mm 5,7 UV-I 862 W/m 12,8 C 20,1 C 16,1 km/h (3 Bft) 95,83 %
07.07.2018 11:33 21,4 C 22,8 C 61 % 1019,4 hPa 0,0 l/m 15,2 km/h (3 Bft) NW 307 1 min 0,000 mm 5,8 UV-I 864 W/m 13,6 C 18,9 C 22,5 km/h (4 Bft) 95,65 %
07.07.2018 11:34 21,4 C 22,8 C 60 % 1019,4 hPa 0,0 l/m 12,3 km/h (3 Bft) W 279 1 min 0,000 mm 5,8 UV-I 869 W/m 13,3 C 19,6 C 19,3 km/h (3 Bft) 100,00 %
07.07.2018 11:35 21,4 C 22,8 C 61 % 1019,4 hPa 0,0 l/m 12,4 km/h (3 Bft) SW 224 1 min 0,000 mm 5,8 UV-I 872 W/m 13,6 C 19,5 C 16,1 km/h (3 Bft) 88,46 %
07.07.2018 11:36 21,5 C 22,8 C 60 % 1019,4 hPa 0,0 l/m 8,7 km/h (2 Bft) W 274 1 min 0,000 mm 5,8 UV-I 872 W/m 13,4 C 20,7 C 17,7 km/h (3 Bft) 92,31 %
07.07.2018 11:38 21,6 C 22,8 C 61 % 1019,3 hPa 0,0 l/m 11,5 km/h (2 Bft) W-NW 297 2 min 0,000 mm 5,8 UV-I 874 W/m 13,7 C 20,0 C 17,7 km/h (3 Bft) 97,92 %
07.07.2018 11:39 21,5 C 22,8 C 61 % 1019,3 hPa 0,0 l/m 14,0 km/h (3 Bft) W-SW 248 1 min 0,000 mm 5,9 UV-I 875 W/m 13,7 C 19,3 C 20,9 km/h (4 Bft) 100,00 %
07.07.2018 11:40 21,5 C 22,8 C 60 % 1019,4 hPa 0,0 l/m 10,5 km/h (2 Bft) W 261 1 min 0,000 mm 5,9 UV-I 879 W/m 13,4 C 20,2 C 16,1 km/h (3 Bft) 95,83 %
07.07.2018 11:41 21,5 C 22,8 C 58 % 1019,3 hPa 0,0 l/m 8,8 km/h (2 Bft) W 265 1 min 0,000 mm 6,0 UV-I 899 W/m 12,9 C 20,7 C 16,1 km/h (3 Bft) 100,00 %
07.07.2018 11:42 21,6 C 22,8 C 61 % 1019,4 hPa 0,0 l/m 8,8 km/h (2 Bft) W 280 1 min 0,000 mm 6,0 UV-I 913 W/m 13,7 C 20,8 C 16,1 km/h (3 Bft) 95,83 %
07.07.2018 11:43 21,7 C 22,8 C 59 % 1019,4 hPa 0,0 l/m 13,7 km/h (3 Bft) W-NW 290 1 min 0,000 mm 6,0 UV-I 929 W/m 13,3 C 19,6 C 17,7 km/h (3 Bft) 100,00 %
07.07.2018 11:44 21,7 C 22,8 C 59 % 1019,4 hPa 0,0 l/m 15,6 km/h (3 Bft) W 273 1 min 0,000 mm 6,1 UV-I 941 W/m 13,3 C 19,2 C 20,9 km/h (4 Bft) 95,83 %
07.07.2018 11:45 21,8 C 22,8 C 58 % 1019,4 hPa 0,0 l/m 16,6 km/h (3 Bft) W-NW 289 1 min 0,000 mm 6,1 UV-I 952 W/m 13,2 C 19,1 C 25,7 km/h (4 Bft) 100,00 %
07.07.2018 11:46 21,8 C 22,8 C 57 % 1019,3 hPa 0,0 l/m 13,4 km/h (3 Bft) W-NW 294 1 min 0,000 mm 6,1 UV-I 949 W/m 12,9 C 19,8 C 17,7 km/h (3 Bft) 95,83 %
07.07.2018 11:47 21,8 C 22,8 C 58 % 1019,3 hPa 0,0 l/m 13,5 km/h (3 Bft) W 267 1 min 0,000 mm 6,0 UV-I 946 W/m 13,2 C 19,8 C 24,1 km/h (4 Bft) 92,31 %
07.07.2018 11:48 21,8 C 22,8 C 57 % 1019,3 hPa 0,0 l/m 7,8 km/h (2 Bft) NW 315 1 min 0,000 mm 6,1 UV-I 946 W/m 12,9 C 21,3 C 16,1 km/h (3 Bft) 100,00 %
07.07.2018 11:49 21,9 C 22,8 C 58 % 1019,3 hPa 0,0 l/m 7,7 km/h (2 Bft) NW 323 1 min 0,000 mm 6,1 UV-I 952 W/m 13,3 C 21,4 C 16,1 km/h (3 Bft) 95,65 %
07.07.2018 11:50 21,9 C 22,8 C 56 % 1019,3 hPa 0,0 l/m 14,3 km/h (3 Bft) W-NW 293 1 min 0,000 mm 6,1 UV-I 965 W/m 12,7 C 19,7 C 22,5 km/h (4 Bft) 100,00 %
07.07.2018 11:51 21,9 C 22,8 C 55 % 1019,3 hPa 0,0 l/m 10,9 km/h (2 Bft) W-NW 288 1 min 0,000 mm 6,1 UV-I 983 W/m 12,4 C 20,5 C 20,9 km/h (4 Bft) 95,65 %
07.07.2018 11:52 21,9 C 22,8 C 55 % 1019,3 hPa 0,0 l/m 11,7 km/h (2 Bft) W 278 1 min 0,000 mm 5,9 UV-I 974 W/m 12,4 C 20,3 C 20,9 km/h (4 Bft) 100,00 %
07.07.2018 11:53 21,9 C 22,8 C 56 % 1019,3 hPa 0,0 l/m 12,6 km/h (3 Bft) W 268 1 min 0,000 mm 3,5 UV-I 814 W/m 12,7 C 20,1 C 19,3 km/h (3 Bft) 95,65 %
07.07.2018 11:54 21,8 C 22,8 C 56 % 1019,3 hPa 0,0 l/m 7,6 km/h (2 Bft) S-SW 211 0 min 0,000 mm 3,8 UV-I 237 W/m 12,6 C 21,4 C 12,9 km/h (3 Bft) 100,00 %
07.07.2018 11:55 21,7 C 22,8 C 56 % 1019,3 hPa 0,0 l/m 7,7 km/h (2 Bft) W 278 1 min 0,000 mm 4,3 UV-I 593 W/m 12,5 C 21,2 C 14,5 km/h (3 Bft) 91,30 %
07.07.2018 11:56 21,7 C 22,8 C 59 % 1019,3 hPa 0,0 l/m 11,7 km/h (2 Bft) W-SW 254 1 min 0,000 mm 3,6 UV-I 895 W/m 13,3 C 20,1 C 19,3 km/h (3 Bft) 95,83 %
07.07.2018 11:57 21,7 C 22,8 C 58 % 1019,3 hPa 0,0 l/m 10,6 km/h (2 Bft) NW 311 1 min 0,000 mm 5,0 UV-I 895 W/m 13,1 C 20,4 C 19,3 km/h (3 Bft) 95,83 %
07.07.2018 11:58 21,6 C 22,8 C 57 % 1019,3 hPa 0,0 l/m 11,3 km/h (2 Bft) W-SW 258 0 min 0,000 mm 4,8 UV-I 290 W/m 12,7 C 20,1 C 14,5 km/h (3 Bft) 95,65 %
07.07.2018 11:59 21,5 C 22,8 C 57 % 1019,3 hPa 0,0 l/m 9,7 km/h (2 Bft) W-SW 255 0 min 0,000 mm 3,8 UV-I 287 W/m 12,6 C 20,4 C 16,1 km/h (3 Bft) 100,00 %
07.07.2018 12:00 21,4 C 22,8 C 57 % 1019,3 hPa 0,0 l/m 8,6 km/h (2 Bft) NW 305 0 min 0,533 mm 4,4 UV-I 343 W/m 12,5 C 20,6 C 14,5 km/h (3 Bft) 91,30 %
07.07.2018 12:01 21,4 C 22,8 C 59 % 1019,3 hPa 0,0 l/m 9,2 km/h (2 Bft) W-SW 248 1 min 0,000 mm 6,1 UV-I 701 W/m 13,0 C 20,4 C 16,1 km/h (3 Bft) 100,00 %
07.07.2018 12:02 21,4 C 22,8 C 59 % 1019,2 hPa 0,0 l/m 10,2 km/h (2 Bft) SW 233 1 min 0,000 mm 6,2 UV-I 976 W/m 13,0 C 20,1 C 12,9 km/h (3 Bft) 96,15 %
07.07.2018 12:03 21,6 C 22,8 C 60 % 1019,2 hPa 0,0 l/m 4,8 km/h (1 Bft) NW 312 1 min 0,000 mm 6,2 UV-I 982 W/m 13,5 C 21,6 C 8,0 km/h (2 Bft) 100,00 %
07.07.2018 12:04 21,8 C 22,8 C 61 % 1019,2 hPa 0,0 l/m 5,6 km/h (1 Bft) NW 317 1 min 0,000 mm 6,2 UV-I 1005 W/m 13,9 C 21,8 C 12,9 km/h (3 Bft) 91,30 %
07.07.2018 12:05 22,0 C 22,8 C 63 % 1019,3 hPa 0,0 l/m 10,9 km/h (2 Bft) SW 236 1 min 0,000 mm 4,3 UV-I 1005 W/m 14,6 C 20,6 C 19,3 km/h (3 Bft) 100,00 %
07.07.2018 12:06 22,1 C 22,8 C 61 % 1019,2 hPa 0,0 l/m 16,3 km/h (3 Bft) SW 234 1 min 0,000 mm 6,4 UV-I 997 W/m 14,2 C 19,5 C 22,5 km/h (4 Bft) 95,65 %
07.07.2018 12:07 22,2 C 22,8 C 57 % 1019,3 hPa 0,0 l/m 12,3 km/h (3 Bft) W-SW 253 1 min 0,000 mm 6,4 UV-I 980 W/m 13,3 C 20,5 C 16,1 km/h (3 Bft) 95,83 %
07.07.2018 12:08 22,2 C 22,8 C 58 % 1019,3 hPa 0,0 l/m 11,2 km/h (2 Bft) W-SW 244 1 min 0,000 mm 6,4 UV-I 988 W/m 13,5 C 20,8 C 16,1 km/h (3 Bft) 100,00 %
07.07.2018 12:09 22,3 C 22,8 C 60 % 1019,2 hPa 0,0 l/m 9,6 km/h (2 Bft) W-SW 242 1 min 0,000 mm 6,4 UV-I 1007 W/m 14,2 C 21,3 C 12,9 km/h (3 Bft) 100,00 %
07.07.2018 12:10 22,3 C 22,8 C 60 % 1019,2 hPa 0,0 l/m 13,2 km/h (3 Bft) NW 304 1 min 0,000 mm 6,2 UV-I 1009 W/m 14,2 C 20,4 C 17,7 km/h (3 Bft) 95,65 %
07.07.2018 12:11 22,2 C 22,8 C 56 % 1019,3 hPa 0,0 l/m 9,9 km/h (2 Bft) W-SW 239 1 min 0,000 mm 6,1 UV-I 1004 W/m 13,0 C 21,1 C 16,1 km/h (3 Bft) 95,83 %
07.07.2018 12:12 22,2 C 22,8 C 57 % 1019,2 hPa 0,0 l/m 12,2 km/h (2 Bft) W 275 1 min 0,000 mm 6,2 UV-I 1025 W/m 13,3 C 20,5 C 19,3 km/h (3 Bft) 100,00 %
07.07.2018 12:13 22,3 C 22,8 C 59 % 1019,2 hPa 0,0 l/m 14,6 km/h (3 Bft) W 278 1 min 0,000 mm 6,0 UV-I 1034 W/m 13,9 C 20,1 C 27,4 km/h (4 Bft) 91,67 %
07.07.2018 12:14 22,3 C 22,8 C 58 % 1019,2 hPa 0,0 l/m 22,6 km/h (4 Bft) W-SW 244 1 min 0,000 mm 5,5 UV-I 1032 W/m 13,6 C 18,8 C 29,0 km/h (5 Bft) 100,00 %
07.07.2018 12:15 22,3 C 22,8 C 57 % 1019,2 hPa 0,0 l/m 16,5 km/h (3 Bft) W 266 1 min 0,000 mm 3,7 UV-I 990 W/m 13,4 C 19,8 C 25,7 km/h (4 Bft) 86,96 %
07.07.2018 12:16 22,1 C 22,8 C 56 % 1019,2 hPa 0,0 l/m 14,1 km/h (3 Bft) W-SW 251 0 min 0,000 mm 2,6 UV-I 233 W/m 12,9 C 20,0 C 22,5 km/h (4 Bft) 100,00 %
07.07.2018 12:17 21,9 C 22,8 C 56 % 1019,2 hPa 0,0 l/m 14,6 km/h (3 Bft) W-NW 292 0 min 0,000 mm 2,6 UV-I 228 W/m 12,7 C 19,6 C 20,9 km/h (4 Bft) 95,65 %
07.07.2018 12:18 21,7 C 22,8 C 57 % 1019,3 hPa 0,0 l/m 16,0 km/h (3 Bft) W-SW 246 0 min 0,000 mm 2,4 UV-I 227 W/m 12,8 C 19,1 C 25,7 km/h (4 Bft) 100,00 %
07.07.2018 12:19 21,6 C 22,8 C 58 % 1019,3 hPa 0,0 l/m 10,7 km/h (2 Bft) W-NW 292 0 min 0,000 mm 2,5 UV-I 228 W/m 13,0 C 20,2 C 16,1 km/h (3 Bft) 95,65 %
07.07.2018 12:20 21,4 C 22,8 C 59 % 1019,2 hPa 0,0 l/m 14,3 km/h (3 Bft) W-SW 252 0 min 0,000 mm 2,6 UV-I 229 W/m 13,0 C 19,1 C 20,9 km/h (4 Bft) 95,83 %
07.07.2018 12:21 21,3 C 22,8 C 59 % 1019,2 hPa 0,0 l/m 16,0 km/h (3 Bft) W 260 0 min 0,000 mm 2,7 UV-I 237 W/m 13,0 C 18,6 C 20,9 km/h (4 Bft) 91,30 %
07.07.2018 12:22 21,2 C 22,8 C 59 % 1019,2 hPa 0,0 l/m 14,3 km/h (3 Bft) W 274 0 min 0,000 mm 2,9 UV-I 259 W/m 12,9 C 18,9 C 22,5 km/h (4 Bft) 95,83 %
07.07.2018 12:23 21,2 C 22,8 C 60 % 1019,2 hPa 0,0 l/m 13,5 km/h (3 Bft) W 277 0 min 0,000 mm 3,1 UV-I 277 W/m 13,1 C 19,0 C 19,3 km/h (3 Bft) 100,00 %
07.07.2018 12:24 21,1 C 22,8 C 60 % 1019,3 hPa 0,0 l/m 15,8 km/h (3 Bft) W 264 0 min 0,000 mm 3,2 UV-I 284 W/m 13,0 C 18,4 C 22,5 km/h (4 Bft) 95,83 %
07.07.2018 12:25 21,1 C 22,8 C 61 % 1019,2 hPa 0,0 l/m 11,7 km/h (2 Bft) W-SW 253 0 min 0,000 mm 3,9 UV-I 290 W/m 13,3 C 19,4 C 16,1 km/h (3 Bft) 100,00 %
07.07.2018 12:26 21,1 C 22,8 C 61 % 1019,3 hPa 0,0 l/m 13,1 km/h (3 Bft) SW 229 0 min 0,000 mm 5,5 UV-I 290 W/m 13,3 C 19,0 C 20,9 km/h (4 Bft) 91,67 %
07.07.2018 12:27 21,2 C 22,8 C 61 % 1019,2 hPa 0,0 l/m 18,0 km/h (3 Bft) W 260 1 min 0,000 mm 5,4 UV-I 1057 W/m 13,4 C 18,1 C 20,9 km/h (4 Bft) 96,15 %
07.07.2018 12:28 21,4 C 22,8 C 62 % 1019,2 hPa 0,0 l/m 12,3 km/h (3 Bft) W 265 1 min 0,000 mm 3,9 UV-I 908 W/m 13,8 C 19,6 C 16,1 km/h (3 Bft) 95,83 %
07.07.2018 12:29 21,4 C 22,8 C 61 % 1019,2 hPa 0,0 l/m 10,8 km/h (2 Bft) W-SW 248 0 min 0,000 mm 3,7 UV-I 302 W/m 13,6 C 20,0 C 12,9 km/h (3 Bft) 97,72 %
07.07.2018 12:30 21,4 C 22,8 C 60 % 1019,2 hPa 0,0 l/m 10,7 km/h (2 Bft) W 276 0 min 0,000 mm 4,9 UV-I 306 W/m 13,3 C 20,0 C 14,5 km/h (3 Bft) 97,37 %
07.07.2018 12:31 21,6 C 22,8 C 62 % 1019,3 hPa 0,0 l/m 14,0 km/h (3 Bft) W 263 1 min 0,000 mm 6,6 UV-I 779 W/m 14,0 C 19,4 C 24,1 km/h (4 Bft) 100,00 %
07.07.2018 12:32 21,6 C 22,8 C 62 % 1019,2 hPa 0,0 l/m 12,3 km/h (3 Bft) W-SW 252 1 min 0,000 mm 6,7 UV-I 1018 W/m 14,0 C 19,8 C 17,7 km/h (3 Bft) 95,65 %
07.07.2018 12:33 21,7 C 22,8 C 61 % 1019,3 hPa 0,0 l/m 14,3 km/h (3 Bft) W-NW 284 1 min 0,000 mm 6,8 UV-I 1029 W/m 13,8 C 19,5 C 20,9 km/h (4 Bft) 95,83 %
07.07.2018 12:34 21,9 C 22,8 C 62 % 1019,2 hPa 0,0 l/m 13,3 km/h (3 Bft) W-NW 292 1 min 0,000 mm 6,8 UV-I 1044 W/m 14,3 C 19,9 C 17,7 km/h (3 Bft) 100,00 %
07.07.2018 12:35 22,0 C 22,8 C 63 % 1019,2 hPa 0,0 l/m 16,2 km/h (3 Bft) W-NW 299 1 min 0,000 mm 6,8 UV-I 1054 W/m 14,6 C 19,4 C 24,1 km/h (4 Bft) 95,83 %
07.07.2018 12:36 22,1 C 22,8 C 59 % 1019,3 hPa 0,0 l/m 15,3 km/h (3 Bft) W 263 1 min 0,000 mm 6,7 UV-I 1067 W/m 13,7 C 19,7 C 24,1 km/h (4 Bft) 100,00 %
07.07.2018 12:37 22,1 C 22,8 C 58 % 1019,3 hPa 0,0 l/m 16,7 km/h (3 Bft) S-SW 213 1 min 0,000 mm 6,8 UV-I 1090 W/m 13,4 C 19,5 C 20,9 km/h (4 Bft) 95,83 %
07.07.2018 12:38 22,2 C 22,8 C 60 % 1019,1 hPa 0,0 l/m 12,7 km/h (3 Bft) SW 225 1 min 0,000 mm 6,7 UV-I 1104 W/m 14,1 C 20,4 C 19,3 km/h (3 Bft) 100,00 %
07.07.2018 12:39 22,2 C 22,8 C 58 % 1019,1 hPa 0,0 l/m 13,1 km/h (3 Bft) W-SW 246 1 min 0,000 mm 5,2 UV-I 1106 W/m 13,5 C 20,3 C 19,3 km/h (3 Bft) 95,83 %
07.07.2018 12:40 22,2 C 22,8 C 60 % 1019,1 hPa 0,0 l/m 9,7 km/h (2 Bft) W-SW 254 1 min 0,000 mm 3,7 UV-I 896 W/m 14,1 C 21,2 C 14,5 km/h (3 Bft) 100,00 %
07.07.2018 12:41 22,2 C 22,8 C 59 % 1019,1 hPa 0,0 l/m 7,5 km/h (2 Bft) NW 312 0 min 0,000 mm 3,0 UV-I 263 W/m 13,8 C 21,8 C 14,5 km/h (3 Bft) 100,00 %
07.07.2018 12:43 21,8 C 22,8 C 58 % 1019,2 hPa 0,0 l/m 13,5 km/h (3 Bft) W-SW 252 0 min 0,000 mm 2,9 UV-I 263 W/m 13,2 C 19,8 C 19,3 km/h (3 Bft) 100,00 %
07.07.2018 12:44 21,7 C 22,8 C 58 % 1019,2 hPa 0,0 l/m 7,1 km/h (2 Bft) W-NW 297 0 min 0,000 mm 3,1 UV-I 272 W/m 13,1 C 21,5 C 12,9 km/h (3 Bft) 100,00 %
07.07.2018 12:45 21,6 C 22,8 C 60 % 1019,2 hPa 0,0 l/m 7,9 km/h (2 Bft) NW 316 0 min 0,000 mm 3,3 UV-I 290 W/m 13,5 C 21,1 C 12,9 km/h (3 Bft) 100,00 %
07.07.2018 12:46 21,4 C 22,8 C 60 % 1019,2 hPa 0,0 l/m 12,0 km/h (2 Bft) NW 318 0 min 0,000 mm 4,0 UV-I 327 W/m 13,3 C 19,6 C 17,7 km/h (3 Bft) 100,00 %
07.07.2018 12:48 21,5 C 22,8 C 61 % 1019,2 hPa 0,0 l/m 9,5 km/h (2 Bft) W-SW 248 2 min 0,000 mm 5,7 UV-I 532 W/m 13,7 C 20,4 C 16,1 km/h (3 Bft) 100,00 %
07.07.2018 12:49 21,6 C 22,8 C 60 % 1019,2 hPa 0,0 l/m 5,7 km/h (1 Bft) N-NW 336 1 min 0,000 mm 6,8 UV-I 1028 W/m 13,5 C 21,6 C 9,7 km/h (2 Bft) 100,00 %
07.07.2018 12:50 21,9 C 22,8 C 60 % 1019,1 hPa 0,0 l/m 6,9 km/h (2 Bft) W-SW 240 1 min 0,000 mm 6,8 UV-I 1033 W/m 13,8 C 21,7 C 11,3 km/h (2 Bft) 100,00 %
07.07.2018 12:51 22,2 C 22,8 C 63 % 1019,1 hPa 0,0 l/m 7,2 km/h (2 Bft) W-NW 286 1 min 0,000 mm 6,6 UV-I 1034 W/m 14,8 C 21,9 C 12,9 km/h (3 Bft) 100,00 %
07.07.2018 12:52 22,4 C 22,8 C 59 % 1019,2 hPa 0,0 l/m 8,4 km/h (2 Bft) W 271 1 min 0,000 mm 6,4 UV-I 1034 W/m 14,0 C 21,7 C 17,7 km/h (3 Bft) 100,00 %
07.07.2018 12:53 22,4 C 22,8 C 56 % 1019,1 hPa 0,0 l/m 10,7 km/h (2 Bft) W 281 1 min 0,000 mm 3,9 UV-I 726 W/m 13,2 C 21,1 C 14,5 km/h (3 Bft) 95,65 %
07.07.2018 12:54 22,4 C 22,8 C 57 % 1019,1 hPa 0,0 l/m 9,9 km/h (2 Bft) W 269 0 min 0,000 mm 5,6 UV-I 295 W/m 13,5 C 21,3 C 19,3 km/h (3 Bft) 100,00 %
07.07.2018 12:55 22,3 C 22,8 C 57 % 1019,1 hPa 0,0 l/m 9,5 km/h (2 Bft) NW 326 1 min 0,000 mm 7,0 UV-I 859 W/m 13,4 C 21,3 C 14,5 km/h (3 Bft) 100,00 %
07.07.2018 12:56 22,3 C 22,8 C 58 % 1019,1 hPa 0,0 l/m 6,9 km/h (2 Bft) W-NW 290 1 min 0,000 mm 7,1 UV-I 1081 W/m 13,6 C 22,1 C 11,3 km/h (2 Bft) 95,83 %
07.07.2018 12:57 22,5 C 22,8 C 60 % 1019,1 hPa 0,0 l/m 7,3 km/h (2 Bft) NW 317 1 min 0,000 mm 6,9 UV-I 1014 W/m 14,3 C 22,2 C 11,3 km/h (2 Bft) 97,77 %
07.07.2018 12:58 22,7 C 22,8 C 60 % 1019,0 hPa 0,0 l/m 11,1 km/h (2 Bft) W-SW 248 1 min 0,000 mm 6,9 UV-I 1076 W/m 14,5 C 21,3 C 27,4 km/h (4 Bft) 97,56 %
07.07.2018 12:59 22,7 C 22,8 C 58 % 1019,1 hPa 0,0 l/m 16,8 km/h (3 Bft) W 279 1 min 0,000 mm 7,0 UV-I 1058 W/m 14,0 C 20,2 C 27,4 km/h (4 Bft) 100,00 %
07.07.2018 13:00 22,8 C 22,8 C 57 % 1019,0 hPa 0,0 l/m 8,1 km/h (2 Bft) W-SW 239 1 min 0,508 mm 7,0 UV-I 1074 W/m 13,8 C 22,3 C 12,9 km/h (3 Bft) 91,67 %
07.07.2018 13:01 22,9 C 23,3 C 57 % 1019,0 hPa 0,0 l/m 12,5 km/h (3 Bft) W 279 1 min 0,000 mm 7,0 UV-I 1102 W/m 13,9 C 21,3 C 20,9 km/h (4 Bft) 91,30 %
07.07.2018 13:02 23,1 C 23,3 C 54 % 1019,1 hPa 0,0 l/m 15,6 km/h (3 Bft) W 260 1 min 0,000 mm 6,2 UV-I 1097 W/m 13,3 C 20,9 C 24,1 km/h (4 Bft) 100,00 %
07.07.2018 13:03 23,1 C 22,8 C 52 % 1019,0 hPa 0,0 l/m 14,1 km/h (3 Bft) W 267 1 min 0,000 mm 6,6 UV-I 1100 W/m 12,7 C 21,2 C 22,5 km/h (4 Bft) 95,65 %
07.07.2018 13:04 23,1 C 22,8 C 53 % 1019,0 hPa 0,0 l/m 18,9 km/h (3 Bft) W-SW 252 1 min 0,000 mm 6,9 UV-I 1058 W/m 13,0 C 20,4 C 24,1 km/h (4 Bft) 100,00 %
07.07.2018 13:05 23,1 C 23,3 C 54 % 1019,0 hPa 0,0 l/m 16,9 km/h (3 Bft) W-SW 254 1 min 0,000 mm 6,9 UV-I 1020 W/m 13,3 C 20,7 C 20,9 km/h (4 Bft) 91,30 %
07.07.2018 13:06 23,1 C 23,3 C 54 % 1019,0 hPa 0,0 l/m 16,3 km/h (3 Bft) W-SW 237 1 min 0,000 mm 7,0 UV-I 1003 W/m 13,3 C 20,8 C 22,5 km/h (4 Bft) 95,83 %
07.07.2018 13:07 23,1 C 23,3 C 54 % 1019,0 hPa 0,0 l/m 17,3 km/h (3 Bft) W 263 1 min 0,000 mm 7,0 UV-I 988 W/m 13,3 C 20,6 C 25,7 km/h (4 Bft) 91,30 %
07.07.2018 13:08 23,1 C 23,3 C 54 % 1019,0 hPa 0,0 l/m 16,0 km/h (3 Bft) W 261 1 min 0,000 mm 7,0 UV-I 976 W/m 13,3 C 20,8 C 19,3 km/h (3 Bft) 100,00 %
07.07.2018 13:09 23,2 C 23,3 C 56 % 1019,0 hPa 0,0 l/m 8,0 km/h (2 Bft) W-SW 238 1 min 0,000 mm 6,9 UV-I 968 W/m 13,9 C 22,7 C 16,1 km/h (3 Bft) 95,83 %
07.07.2018 13:10 23,3 C 23,3 C 55 % 1019,0 hPa 0,0 l/m 7,6 km/h (2 Bft) W 262 1 min 0,000 mm 6,9 UV-I 966 W/m 13,7 C 22,9 C 14,5 km/h (3 Bft) 95,65 %
07.07.2018 13:11 23,3 C 23,3 C 56 % 1019,0 hPa 0,0 l/m 15,9 km/h (3 Bft) W-SW 239 1 min 0,000 mm 7,0 UV-I 982 W/m 14,0 C 21,1 C 24,1 km/h (4 Bft) 100,00 %
07.07.2018 13:12 23,2 C 23,3 C 55 % 1019,0 hPa 0,0 l/m 14,9 km/h (3 Bft) W 266 1 min 0,000 mm 7,1 UV-I 990 W/m 13,6 C 21,1 C 25,7 km/h (4 Bft) 95,65 %
07.07.2018 13:13 23,1 C 23,3 C 53 % 1019,1 hPa 0,0 l/m 11,5 km/h (2 Bft) W-SW 254 1 min 0,000 mm 7,0 UV-I 973 W/m 13,0 C 21,7 C 24,1 km/h (4 Bft) 96,30 %
07.07.2018 13:14 23,0 C 23,3 C 53 % 1019,0 hPa 0,0 l/m 11,9 km/h (2 Bft) W-SW 240 1 min 0,000 mm 6,9 UV-I 970 W/m 12,9 C 21,5 C 17,7 km/h (3 Bft) 95,65 %
07.07.2018 13:15 22,9 C 23,3 C 55 % 1019,0 hPa 0,0 l/m 17,7 km/h (3 Bft) W 275 1 min 0,000 mm 6,9 UV-I 980 W/m 13,4 C 20,3 C 24,1 km/h (4 Bft) 100,00 %
07.07.2018 13:16 22,9 C 23,3 C 54 % 1019,0 hPa 0,0 l/m 16,1 km/h (3 Bft) W-SW 253 1 min 0,000 mm 6,5 UV-I 977 W/m 13,1 C 20,6 C 22,5 km/h (4 Bft) 95,65 %
07.07.2018 13:17 22,8 C 23,3 C 55 % 1019,0 hPa 0,0 l/m 20,9 km/h (4 Bft) W-SW 246 1 min 0,000 mm 5,6 UV-I 977 W/m 13,3 C 19,7 C 27,4 km/h (4 Bft) 100,00 %
07.07.2018 13:18 22,8 C 23,3 C 55 % 1019,0 hPa 0,0 l/m 13,8 km/h (3 Bft) W 276 1 min 0,000 mm 6,8 UV-I 977 W/m 13,3 C 20,9 C 17,7 km/h (3 Bft) 95,65 %
07.07.2018 13:19 22,9 C 23,3 C 55 % 1019,0 hPa 0,0 l/m 12,7 km/h (3 Bft) SW 236 1 min 0,000 mm 5,8 UV-I 994 W/m 13,4 C 21,2 C 16,1 km/h (3 Bft) 95,83 %
07.07.2018 13:20 22,8 C 23,3 C 54 % 1018,9 hPa 0,0 l/m 9,8 km/h (2 Bft) W 267 1 min 0,000 mm 4,4 UV-I 998 W/m 13,0 C 21,8 C 14,5 km/h (3 Bft) 100,00 %
07.07.2018 13:21 22,7 C 23,3 C 55 % 1018,9 hPa 0,0 l/m 10,0 km/h (2 Bft) SW 236 1 min 0,000 mm 4,7 UV-I 998 W/m 13,2 C 21,6 C 14,5 km/h (3 Bft) 95,83 %
07.07.2018 13:22 22,7 C 23,3 C 57 % 1018,9 hPa 0,0 l/m 11,8 km/h (2 Bft) W-SW 252 1 min 0,000 mm 3,7 UV-I 998 W/m 13,7 C 21,2 C 20,9 km/h (4 Bft) 100,00 %
07.07.2018 13:23 22,7 C 23,3 C 55 % 1018,9 hPa 0,0 l/m 13,1 km/h (3 Bft) W 261 1 min 0,000 mm 3,3 UV-I 647 W/m 13,2 C 20,9 C 20,9 km/h (4 Bft) 95,83 %
07.07.2018 13:24 22,7 C 23,3 C 57 % 1018,9 hPa 0,0 l/m 14,3 km/h (3 Bft) W-SW 257 0 min 0,000 mm 3,2 UV-I 368 W/m 13,7 C 20,7 C 17,7 km/h (3 Bft) 91,30 %
07.07.2018 13:25 22,6 C 23,3 C 58 % 1018,9 hPa 0,0 l/m 16,0 km/h (3 Bft) W-SW 258 0 min 0,000 mm 2,7 UV-I 376 W/m 13,9 C 20,2 C 29,0 km/h (5 Bft) 91,67 %
07.07.2018 13:26 22,5 C 23,3 C 57 % 1018,9 hPa 0,0 l/m 21,6 km/h (4 Bft) W-SW 254 0 min 0,000 mm 2,4 UV-I 239 W/m 13,5 C 19,2 C 29,0 km/h (5 Bft) 96,15 %
07.07.2018 13:27 22,3 C 23,3 C 57 % 1019,0 hPa 0,0 l/m 16,0 km/h (3 Bft) W 278 0 min 0,000 mm 2,6 UV-I 239 W/m 13,4 C 19,8 C 20,9 km/h (4 Bft) 100,00 %
07.07.2018 13:28 22,2 C 23,3 C 56 % 1018,9 hPa 0,0 l/m 12,9 km/h (3 Bft) W-NW 287 0 min 0,000 mm 2,9 UV-I 250 W/m 13,0 C 20,4 C 20,9 km/h (4 Bft) 95,65 %
07.07.2018 13:29 22,1 C 23,3 C 55 % 1018,9 hPa 0,0 l/m 13,5 km/h (3 Bft) W-SW 239 0 min 0,000 mm 3,4 UV-I 290 W/m 12,6 C 20,1 C 17,7 km/h (3 Bft) 95,83 %
07.07.2018 13:30 22,1 C 23,3 C 56 % 1018,9 hPa 0,0 l/m 12,2 km/h (2 Bft) W-NW 287 0 min 0,000 mm 5,0 UV-I 313 W/m 12,9 C 20,4 C 20,9 km/h (4 Bft) 100,00 %
07.07.2018 13:31 22,1 C 23,3 C 57 % 1018,9 hPa 0,0 l/m 11,7 km/h (2 Bft) W-SW 252 0 min 0,000 mm 5,9 UV-I 313 W/m 13,2 C 20,5 C 17,7 km/h (3 Bft) 100,00 %
07.07.2018 13:32 22,1 C 23,3 C 59 % 1018,9 hPa 0,0 l/m 10,3 km/h (2 Bft) W 259 0 min 0,000 mm 5,3 UV-I 399 W/m 13,7 C 20,9 C 16,1 km/h (3 Bft) 95,65 %
07.07.2018 13:33 22,2 C 23,3 C 57 % 1018,8 hPa 0,0 l/m 13,2 km/h (3 Bft) W 265 1 min 0,000 mm 6,6 UV-I 570 W/m 13,3 C 20,3 C 20,9 km/h (4 Bft) 95,83 %
07.07.2018 13:34 22,3 C 23,3 C 56 % 1018,9 hPa 0,0 l/m 10,2 km/h (2 Bft) W-SW 253 1 min 0,000 mm 6,7 UV-I 976 W/m 13,1 C 21,1 C 16,1 km/h (3 Bft) 100,00 %
07.07.2018 13:35 22,4 C 23,3 C 57 % 1018,9 hPa 0,0 l/m 11,5 km/h (2 Bft) W-SW 251 1 min 0,000 mm 6,6 UV-I 962 W/m 13,5 C 20,9 C 20,9 km/h (4 Bft) 100,00 %
07.07.2018 13:36 22,6 C 23,3 C 56 % 1018,8 hPa 0,0 l/m 10,5 km/h (2 Bft) W-SW 238 1 min 0,000 mm 6,7 UV-I 956 W/m 13,4 C 21,4 C 14,5 km/h (3 Bft) 100,00 %
07.07.2018 13:37 22,7 C 23,3 C 58 % 1018,8 hPa 0,0 l/m 14,3 km/h (3 Bft) W-SW 239 1 min 0,000 mm 6,7 UV-I 947 W/m 14,0 C 20,7 C 20,9 km/h (4 Bft) 100,00 %
07.07.2018 13:38 22,8 C 23,3 C 55 % 1018,8 hPa 0,0 l/m 18,6 km/h (3 Bft) W 271 1 min 0,000 mm 6,7 UV-I 939 W/m 13,3 C 20,0 C 27,4 km/h (4 Bft) 95,83 %
07.07.2018 13:39 22,9 C 23,3 C 55 % 1018,8 hPa 0,0 l/m 11,5 km/h (2 Bft) W 265 1 min 0,000 mm 6,7 UV-I 933 W/m 13,4 C 21,5 C 19,3 km/h (3 Bft) 100,00 %
07.07.2018 13:40 23,0 C 23,3 C 55 % 1018,7 hPa 0,0 l/m 18,3 km/h (3 Bft) W 278 1 min 0,000 mm 6,6 UV-I 925 W/m 13,5 C 20,3 C 25,7 km/h (4 Bft) 100,00 %
07.07.2018 13:41 23,1 C 23,3 C 52 % 1018,8 hPa 0,0 l/m 19,3 km/h (3 Bft) W 281 1 min 0,000 mm 6,6 UV-I 924 W/m 12,7 C 20,3 C 33,8 km/h (5 Bft) 100,00 %
07.07.2018 13:42 23,1 C 23,3 C 47 % 1018,8 hPa 0,0 l/m 21,4 km/h (4 Bft) W 265 1 min 0,000 mm 6,6 UV-I 931 W/m 11,2 C 20,0 C 32,2 km/h (5 Bft) 100,00 %
07.07.2018 13:43 23,1 C 23,3 C 47 % 1018,8 hPa 0,0 l/m 23,2 km/h (4 Bft) W-SW 249 1 min 0,000 mm 6,6 UV-I 917 W/m 11,2 C 19,8 C 35,4 km/h (5 Bft) 100,00 %
07.07.2018 13:44 22,9 C 23,3 C 48 % 1018,9 hPa 0,0 l/m 19,4 km/h (3 Bft) W 276 1 min 0,000 mm 6,6 UV-I 917 W/m 11,3 C 20,0 C 25,7 km/h (4 Bft) 100,00 %
07.07.2018 13:45 22,9 C 23,3 C 50 % 1018,8 hPa 0,0 l/m 15,3 km/h (3 Bft) W 271 1 min 0,000 mm 6,4 UV-I 903 W/m 11,9 C 20,7 C 20,9 km/h (4 Bft) 100,00 %
07.07.2018 13:46 22,9 C 23,3 C 50 % 1018,7 hPa 0,0 l/m 8,7 km/h (2 Bft) S-SW 209 1 min 0,000 mm 5,9 UV-I 882 W/m 11,9 C 22,2 C 14,5 km/h (3 Bft) 100,00 %
07.07.2018 13:47 23,0 C 23,3 C 51 % 1018,7 hPa 0,0 l/m 11,8 km/h (2 Bft) W-NW 298 1 min 0,000 mm 6,4 UV-I 882 W/m 12,3 C 21,5 C 16,1 km/h (3 Bft) 96,15 %
07.07.2018 13:48 22,9 C 23,3 C 50 % 1018,7 hPa 0,0 l/m 8,5 km/h (2 Bft) W-SW 252 1 min 0,000 mm 6,5 UV-I 902 W/m 11,9 C 22,2 C 12,9 km/h (3 Bft) 100,00 %
07.07.2018 13:49 23,0 C 23,3 C 53 % 1018,7 hPa 0,0 l/m 10,9 km/h (2 Bft) W-NW 300 1 min 0,000 mm 6,5 UV-I 904 W/m 12,9 C 21,7 C 19,3 km/h (3 Bft) 100,00 %
07.07.2018 13:50 23,1 C 23,3 C 50 % 1018,7 hPa 0,0 l/m 7,4 km/h (2 Bft) N 350 1 min 0,000 mm 6,4 UV-I 893 W/m 12,1 C 22,8 C 16,1 km/h (3 Bft) 100,00 %
07.07.2018 13:51 23,1 C 23,3 C 52 % 1018,7 hPa 0,0 l/m 12,3 km/h (3 Bft) NW 317 1 min 0,000 mm 6,4 UV-I 888 W/m 12,7 C 21,5 C 19,3 km/h (3 Bft) 100,00 %
07.07.2018 13:52 23,1 C 23,3 C 51 % 1018,7 hPa 0,0 l/m 7,1 km/h (2 Bft) W-NW 290 1 min 0,000 mm 6,4 UV-I 888 W/m 12,4 C 22,9 C 14,5 km/h (3 Bft) 100,00 %
07.07.2018 13:53 23,1 C 23,3 C 51 % 1018,7 hPa 0,0 l/m 11,1 km/h (2 Bft) W 269 1 min 0,000 mm 6,4 UV-I 885 W/m 12,4 C 21,8 C 20,9 km/h (4 Bft) 100,00 %
07.07.2018 13:54 23,2 C 23,3 C 52 % 1018,8 hPa 0,0 l/m 17,4 km/h (3 Bft) W-NW 288 1 min 0,000 mm 6,4 UV-I 886 W/m 12,8 C 20,7 C 22,5 km/h (4 Bft) 95,65 %
07.07.2018 13:55 23,1 C 23,3 C 53 % 1018,7 hPa 0,0 l/m 12,8 km/h (3 Bft) W 270 1 min 0,000 mm 6,4 UV-I 895 W/m 13,0 C 21,4 C 19,3 km/h (3 Bft) 100,00 %
07.07.2018 13:56 23,1 C 23,3 C 54 % 1018,7 hPa 0,0 l/m 18,6 km/h (3 Bft) W 261 1 min 0,000 mm 6,4 UV-I 898 W/m 13,3 C 20,4 C 24,1 km/h (4 Bft) 100,00 %
07.07.2018 13:57 23,1 C 23,3 C 54 % 1018,8 hPa 0,0 l/m 16,7 km/h (3 Bft) W 263 1 min 0,000 mm 6,4 UV-I 898 W/m 13,3 C 20,7 C 22,5 km/h (4 Bft) 100,00 %
07.07.2018 13:58 23,0 C 23,3 C 53 % 1018,8 hPa 0,0 l/m 14,5 km/h (3 Bft) W 261 1 min 0,000 mm 6,3 UV-I 897 W/m 12,9 C 21,0 C 20,9 km/h (4 Bft) 100,00 %
07.07.2018 13:59 23,1 C 23,3 C 56 % 1018,7 hPa 0,0 l/m 14,0 km/h (3 Bft) W-SW 247 1 min 0,000 mm 6,2 UV-I 907 W/m 13,8 C 21,2 C 25,7 km/h (4 Bft) 100,00 %
07.07.2018 14:00 23,1 C 23,3 C 54 % 1018,6 hPa 0,0 l/m 13,4 km/h (3 Bft) W-NW 287 1 min 0,584 mm 6,1 UV-I 925 W/m 13,3 C 21,3 C 20,9 km/h (4 Bft) 100,00 %
07.07.2018 14:01 23,2 C 23,3 C 56 % 1018,6 hPa 0,0 l/m 11,4 km/h (2 Bft) W 268 1 min 0,000 mm 5,9 UV-I 935 W/m 13,9 C 21,8 C 16,1 km/h (3 Bft) 100,00 %
07.07.2018 14:02 23,2 C 23,3 C 55 % 1018,6 hPa 0,0 l/m 14,2 km/h (3 Bft) NW 308 1 min 0,000 mm 3,4 UV-I 754 W/m 13,6 C 21,3 C 19,3 km/h (3 Bft) 100,00 %
07.07.2018 14:03 23,1 C 23,3 C 55 % 1018,6 hPa 0,0 l/m 10,5 km/h (2 Bft) W 278 0 min 0,000 mm 3,0 UV-I 219 W/m 13,6 C 21,9 C 16,1 km/h (3 Bft) 100,00 %
07.07.2018 14:04 23,0 C 23,3 C 54 % 1018,6 hPa 0,0 l/m 14,5 km/h (3 Bft) N 350 0 min 0,000 mm 3,2 UV-I 236 W/m 13,2 C 21,0 C 17,7 km/h (3 Bft) 100,00 %
07.07.2018 14:05 22,8 C 23,3 C 54 % 1018,6 hPa 0,0 l/m 16,1 km/h (3 Bft) W-NW 282 0 min 0,000 mm 4,6 UV-I 243 W/m 13,0 C 20,4 C 24,1 km/h (4 Bft) 100,00 %
07.07.2018 14:06 22,8 C 23,3 C 55 % 1018,5 hPa 0,0 l/m 14,4 km/h (3 Bft) SW 226 1 min 0,000 mm 5,9 UV-I 844 W/m 13,3 C 20,8 C 17,7 km/h (3 Bft) 100,00 %
07.07.2018 14:08 22,9 C 23,3 C 53 % 1018,6 hPa 0,0 l/m 14,1 km/h (3 Bft) W-NW 291 2 min 0,000 mm 6,1 UV-I 954 W/m 12,8 C 20,9 C 24,1 km/h (4 Bft) 100,00 %
07.07.2018 14:09 23,0 C 23,3 C 52 % 1018,6 hPa 0,0 l/m 14,2 km/h (3 Bft) W 265 1 min 0,000 mm 5,5 UV-I 955 W/m 12,6 C 21,0 C 20,9 km/h (4 Bft) 100,00 %
07.07.2018 14:10 23,1 C 23,3 C 54 % 1018,6 hPa 0,0 l/m 10,9 km/h (2 Bft) W-SW 253 1 min 0,000 mm 4,0 UV-I 954 W/m 13,3 C 21,8 C 17,7 km/h (3 Bft) 100,00 %
07.07.2018 14:11 23,1 C 23,3 C 53 % 1018,5 hPa 0,0 l/m 15,5 km/h (3 Bft) W 260 1 min 0,000 mm 4,1 UV-I 485 W/m 13,0 C 20,9 C 20,9 km/h (4 Bft) 100,00 %
07.07.2018 14:13 23,1 C 23,3 C 54 % 1018,5 hPa 0,0 l/m 10,6 km/h (2 Bft) W 279 2 min 0,000 mm 5,0 UV-I 655 W/m 13,3 C 21,9 C 19,3 km/h (3 Bft) 97,87 %
07.07.2018 14:14 23,1 C 23,3 C 55 % 1018,5 hPa 0,0 l/m 15,1 km/h (3 Bft) W-SW 246 1 min 0,000 mm 5,9 UV-I 954 W/m 13,6 C 21,0 C 29,0 km/h (5 Bft) 95,83 %
07.07.2018 14:15 23,2 C 23,3 C 56 % 1018,5 hPa 0,0 l/m 16,7 km/h (3 Bft) W-SW 254 1 min 0,000 mm 5,8 UV-I 998 W/m 13,9 C 20,8 C 27,4 km/h (4 Bft) 100,00 %
07.07.2018 14:16 23,3 C 23,3 C 53 % 1018,5 hPa 0,0 l/m 20,3 km/h (4 Bft) W-SW 248 1 min 0,000 mm 5,9 UV-I 990 W/m 13,2 C 20,4 C 27,4 km/h (4 Bft) 100,00 %
07.07.2018 14:17 23,3 C 23,3 C 53 % 1018,5 hPa 0,0 l/m 18,8 km/h (3 Bft) W 280 1 min 0,000 mm 6,2 UV-I 991 W/m 13,2 C 20,6 C 27,4 km/h (4 Bft) 92,31 %
07.07.2018 14:18 23,4 C 23,3 C 52 % 1018,5 hPa 0,0 l/m 12,0 km/h (2 Bft) W 265 1 min 0,000 mm 6,2 UV-I 976 W/m 13,0 C 21,9 C 17,7 km/h (3 Bft) 100,00 %
07.07.2018 14:19 23,5 C 23,3 C 53 % 1018,4 hPa 0,0 l/m 11,3 km/h (2 Bft) SW 232 1 min 0,000 mm 6,3 UV-I 970 W/m 13,4 C 22,2 C 16,1 km/h (3 Bft) 95,65 %
07.07.2018 14:20 23,6 C 23,3 C 51 % 1018,4 hPa 0,0 l/m 16,9 km/h (3 Bft) W 263 1 min 0,000 mm 6,2 UV-I 972 W/m 12,9 C 21,3 C 25,7 km/h (4 Bft) 100,00 %
07.07.2018 14:21 23,5 C 23,3 C 51 % 1018,4 hPa 0,0 l/m 11,9 km/h (2 Bft) N-NW 339 1 min 0,000 mm 6,0 UV-I 990 W/m 12,8 C 22,1 C 20,9 km/h (4 Bft) 100,00 %
07.07.2018 14:23 23,5 C 23,3 C 52 % 1018,4 hPa 0,0 l/m 17,2 km/h (3 Bft) SW 234 2 min 0,000 mm 5,8 UV-I 1020 W/m 13,1 C 21,1 C 29,0 km/h (5 Bft) 100,00 %
07.07.2018 14:24 23,6 C 23,3 C 52 % 1018,5 hPa 0,0 l/m 21,0 km/h (4 Bft) W-SW 246 1 min 0,000 mm 4,1 UV-I 1013 W/m 13,2 C 20,7 C 25,7 km/h (4 Bft) 100,00 %
07.07.2018 14:25 23,6 C 23,3 C 52 % 1018,4 hPa 0,0 l/m 20,3 km/h (4 Bft) W-NW 287 1 min 0,000 mm 3,7 UV-I 737 W/m 13,2 C 20,8 C 25,7 km/h (4 Bft) 100,00 %
07.07.2018 14:26 23,5 C 23,3 C 53 % 1018,4 hPa 0,0 l/m 19,9 km/h (4 Bft) W-NW 301 1 min 0,000 mm 4,9 UV-I 737 W/m 13,4 C 20,7 C 25,7 km/h (4 Bft) 100,00 %
07.07.2018 14:27 23,4 C 23,3 C 53 % 1018,3 hPa 0,0 l/m 17,3 km/h (3 Bft) W 271 1 min 0,000 mm 2,9 UV-I 516 W/m 13,3 C 21,0 C 33,8 km/h (5 Bft) 100,00 %
07.07.2018 14:28 23,2 C 23,3 C 54 % 1018,4 hPa 0,0 l/m 9,7 km/h (2 Bft) W 263 0 min 0,000 mm 2,6 UV-I 288 W/m 13,4 C 22,3 C 16,1 km/h (3 Bft) 100,00 %
07.07.2018 14:29 23,0 C 23,3 C 54 % 1018,4 hPa 0,0 l/m 15,2 km/h (3 Bft) W-NW 301 0 min 0,000 mm 2,5 UV-I 276 W/m 13,2 C 20,8 C 22,5 km/h (4 Bft) 100,00 %
07.07.2018 14:30 22,8 C 23,3 C 55 % 1018,4 hPa 0,0 l/m 11,3 km/h (2 Bft) W 271 0 min 0,000 mm 2,7 UV-I 287 W/m 13,3 C 21,4 C 20,9 km/h (4 Bft) 100,00 %
07.07.2018 14:31 22,6 C 23,3 C 56 % 1018,5 hPa 0,0 l/m 10,5 km/h (2 Bft) NW 314 0 min 0,000 mm 4,4 UV-I 288 W/m 13,4 C 21,4 C 16,1 km/h (3 Bft) 100,00 %
07.07.2018 14:32 22,5 C 23,3 C 57 % 1018,4 hPa 0,0 l/m 8,6 km/h (2 Bft) SW 225 0 min 0,000 mm 4,6 UV-I 383 W/m 13,5 C 21,8 C 16,1 km/h (3 Bft) 95,65 %
07.07.2018 14:33 22,5 C 23,3 C 57 % 1018,4 hPa 0,0 l/m 6,9 km/h (2 Bft) SW 226 1 min 0,000 mm 4,0 UV-I 541 W/m 13,5 C 22,3 C 14,5 km/h (3 Bft) 100,00 %
07.07.2018 14:34 22,6 C 23,3 C 57 % 1018,5 hPa 0,0 l/m 11,4 km/h (2 Bft) NW 309 1 min 0,000 mm 3,6 UV-I 541 W/m 13,6 C 21,2 C 19,3 km/h (3 Bft) 95,65 %
07.07.2018 14:35 22,6 C 23,3 C 57 % 1018,5 hPa 0,0 l/m 10,9 km/h (2 Bft) W 261 0 min 0,000 mm 3,1 UV-I 373 W/m 13,6 C 21,3 C 20,9 km/h (4 Bft) 100,00 %
07.07.2018 14:36 22,5 C 23,3 C 57 % 1018,4 hPa 0,0 l/m 10,0 km/h (2 Bft) W 277 0 min 0,000 mm 2,7 UV-I 290 W/m 13,5 C 21,4 C 14,5 km/h (3 Bft) 100,00 %
07.07.2018 14:37 22,4 C 23,3 C 57 % 1018,5 hPa 0,0 l/m 12,7 km/h (3 Bft) W-SW 255 0 min 0,000 mm 2,5 UV-I 263 W/m 13,5 C 20,6 C 19,3 km/h (3 Bft) 100,00 %
07.07.2018 14:38 22,3 C 23,3 C 56 % 1018,5 hPa 0,0 l/m 8,2 km/h (2 Bft) W-NW 296 0 min 0,000 mm 2,3 UV-I 242 W/m 13,1 C 21,7 C 14,5 km/h (3 Bft) 95,65 %
07.07.2018 14:39 22,2 C 23,3 C 58 % 1018,5 hPa 0,0 l/m 11,5 km/h (2 Bft) NW 304 0 min 0,000 mm 2,2 UV-I 235 W/m 13,5 C 20,7 C 19,3 km/h (3 Bft) 100,00 %
07.07.2018 14:40 22,1 C 23,3 C 58 % 1018,4 hPa 0,0 l/m 9,3 km/h (2 Bft) W-SW 253 0 min 0,000 mm 2,2 UV-I 240 W/m 13,4 C 21,2 C 14,5 km/h (3 Bft) 95,65 %
07.07.2018 14:41 22,1 C 23,3 C 57 % 1018,5 hPa 0,0 l/m 8,6 km/h (2 Bft) W 279 0 min 0,000 mm 2,3 UV-I 256 W/m 13,2 C 21,4 C 12,9 km/h (3 Bft) 100,00 %
07.07.2018 14:42 22,0 C 23,3 C 57 % 1018,5 hPa 0,0 l/m 8,9 km/h (2 Bft) NW 312 0 min 0,000 mm 2,7 UV-I 292 W/m 13,1 C 21,2 C 12,9 km/h (3 Bft) 95,65 %
07.07.2018 14:43 22,0 C 23,3 C 59 % 1018,5 hPa 0,0 l/m 6,9 km/h (2 Bft) W-SW 256 0 min 0,000 mm 3,7 UV-I 357 W/m 13,6 C 21,8 C 12,9 km/h (3 Bft) 100,00 %
07.07.2018 14:44 22,2 C 23,3 C 59 % 1018,4 hPa 0,0 l/m 8,7 km/h (2 Bft) W-NW 287 1 min 0,000 mm 5,1 UV-I 630 W/m 13,8 C 21,4 C 12,9 km/h (3 Bft) 100,00 %
07.07.2018 14:45 22,3 C 23,3 C 59 % 1018,4 hPa 0,0 l/m 8,6 km/h (2 Bft) W-SW 248 1 min 0,000 mm 4,9 UV-I 1013 W/m 13,9 C 21,6 C 16,1 km/h (3 Bft) 95,83 %
07.07.2018 14:46 22,4 C 23,3 C 57 % 1018,4 hPa 0,0 l/m 12,1 km/h (2 Bft) W-NW 300 1 min 0,000 mm 4,3 UV-I 1013 W/m 13,5 C 20,8 C 17,7 km/h (3 Bft) 100,00 %
07.07.2018 14:47 22,6 C 23,3 C 58 % 1018,4 hPa 0,0 l/m 8,9 km/h (2 Bft) W-NW 293 1 min 0,000 mm 5,1 UV-I 956 W/m 13,9 C 21,8 C 17,7 km/h (3 Bft) 95,65 %
07.07.2018 14:48 22,6 C 23,3 C 58 % 1018,4 hPa 0,0 l/m 7,8 km/h (2 Bft) W 259 1 min 0,000 mm 4,1 UV-I 827 W/m 13,9 C 22,1 C 14,5 km/h (3 Bft) 100,00 %
07.07.2018 14:49 22,6 C 23,3 C 59 % 1018,4 hPa 0,0 l/m 4,1 km/h (1 Bft) W-SW 255 0 min 0,000 mm 4,4 UV-I 357 W/m 14,2 C 22,6 C 6,4 km/h (2 Bft) 100,00 %
07.07.2018 14:50 22,7 C 23,3 C 59 % 1018,4 hPa 0,0 l/m 11,1 km/h (2 Bft) W 268 1 min 0,000 mm 5,3 UV-I 609 W/m 14,3 C 21,3 C 16,1 km/h (3 Bft) 100,00 %
07.07.2018 14:51 22,8 C 23,3 C 59 % 1018,3 hPa 0,0 l/m 14,8 km/h (3 Bft) SW 236 1 min 0,000 mm 5,4 UV-I 913 W/m 14,4 C 20,7 C 19,3 km/h (3 Bft) 95,65 %
07.07.2018 14:52 22,9 C 23,3 C 57 % 1018,3 hPa 0,0 l/m 13,0 km/h (3 Bft) W 277 1 min 0,000 mm 5,4 UV-I 908 W/m 13,9 C 21,2 C 22,5 km/h (4 Bft) 91,67 %
07.07.2018 14:53 22,9 C 23,3 C 57 % 1018,3 hPa 0,0 l/m 11,0 km/h (2 Bft) W-SW 254 1 min 0,000 mm 5,4 UV-I 935 W/m 13,9 C 21,6 C 20,9 km/h (4 Bft) 100,00 %
07.07.2018 14:54 23,1 C 23,3 C 59 % 1018,3 hPa 0,0 l/m 10,4 km/h (2 Bft) W-NW 296 1 min 0,000 mm 4,2 UV-I 928 W/m 14,6 C 22,0 C 16,1 km/h (3 Bft) 95,83 %
07.07.2018 14:55 23,1 C 23,3 C 57 % 1018,3 hPa 0,0 l/m 8,0 km/h (2 Bft) SW 229 1 min 0,000 mm 5,2 UV-I 936 W/m 14,1 C 22,6 C 11,3 km/h (2 Bft) 100,00 %
07.07.2018 14:56 23,2 C 23,3 C 58 % 1018,3 hPa 0,0 l/m 12,5 km/h (3 Bft) W 281 1 min 0,000 mm 5,4 UV-I 928 W/m 14,5 C 21,6 C 19,3 km/h (3 Bft) 96,30 %
07.07.2018 14:57 23,2 C 23,3 C 56 % 1018,3 hPa 0,0 l/m 13,1 km/h (3 Bft) S-SW 213 1 min 0,000 mm 5,5 UV-I 902 W/m 13,9 C 21,5 C 19,3 km/h (3 Bft) 100,00 %
07.07.2018 14:58 23,3 C 23,3 C 56 % 1018,3 hPa 0,0 l/m 7,9 km/h (2 Bft) W-SW 239 1 min 0,000 mm 5,5 UV-I 888 W/m 14,0 C 22,8 C 12,9 km/h (3 Bft) 95,83 %
07.07.2018 14:59 23,4 C 23,3 C 53 % 1018,4 hPa 0,0 l/m 18,8 km/h (3 Bft) NW 305 1 min 0,000 mm 5,4 UV-I 875 W/m 13,3 C 20,8 C 25,7 km/h (4 Bft) 100,00 %
07.07.2018 15:00 23,4 C 23,3 C 52 % 1018,3 hPa 0,0 l/m 10,9 km/h (2 Bft) SW 231 1 min 0,000 mm 5,4 UV-I 858 W/m 13,0 C 22,2 C 16,1 km/h (3 Bft) 95,83 %
07.07.2018 15:01 23,4 C 23,3 C 51 % 1018,3 hPa 0,0 l/m 11,2 km/h (2 Bft) W 272 1 min 0,508 mm 5,3 UV-I 847 W/m 12,7 C 22,1 C 16,1 km/h (3 Bft) 95,65 %
07.07.2018 15:02 23,4 C 23,3 C 52 % 1018,3 hPa 0,0 l/m 14,6 km/h (3 Bft) W 275 1 min 0,000 mm 5,3 UV-I 850 W/m 13,0 C 21,4 C 19,3 km/h (3 Bft) 91,67 %
07.07.2018 15:03 23,6 C 23,3 C 52 % 1018,3 hPa 0,0 l/m 19,6 km/h (3 Bft) W-SW 249 1 min 0,000 mm 5,3 UV-I 844 W/m 13,2 C 20,9 C 35,4 km/h (5 Bft) 95,65 %
07.07.2018 15:04 23,6 C 23,3 C 52 % 1018,3 hPa 0,0 l/m 10,7 km/h (2 Bft) W-NW 294 1 min 0,000 mm 5,3 UV-I 843 W/m 13,2 C 22,5 C 17,7 km/h (3 Bft) 100,00 %
07.07.2018 15:05 23,6 C 23,3 C 51 % 1018,3 hPa 0,0 l/m 11,7 km/h (2 Bft) NW 315 1 min 0,000 mm 5,3 UV-I 850 W/m 12,9 C 22,2 C 19,3 km/h (3 Bft) 95,83 %
07.07.2018 15:06 23,6 C 23,3 C 52 % 1018,3 hPa 0,0 l/m 11,5 km/h (2 Bft) W-NW 293 1 min 0,000 mm 5,2 UV-I 846 W/m 13,2 C 22,3 C 22,5 km/h (4 Bft) 100,00 %
07.07.2018 15:07 23,6 C 23,3 C 51 % 1018,3 hPa 0,0 l/m 10,0 km/h (2 Bft) W-NW 297 1 min 0,000 mm 5,3 UV-I 853 W/m 12,9 C 22,6 C 19,3 km/h (3 Bft) 95,83 %
07.07.2018 15:08 23,7 C 23,3 C 52 % 1018,3 hPa 0,0 l/m 11,9 km/h (2 Bft) S-SO 153 1 min 0,000 mm 5,3 UV-I 852 W/m 13,2 C 22,3 C 22,5 km/h (4 Bft) 95,65 %
07.07.2018 15:09 23,8 C 23,3 C 52 % 1018,3 hPa 0,0 l/m 11,4 km/h (2 Bft) W 277 1 min 0,000 mm 5,2 UV-I 845 W/m 13,3 C 22,5 C 25,7 km/h (4 Bft) 95,83 %
07.07.2018 15:10 23,8 C 23,3 C 51 % 1018,2 hPa 0,0 l/m 9,1 km/h (2 Bft) W-NW 288 1 min 0,000 mm 5,1 UV-I 838 W/m 13,0 C 23,1 C 16,1 km/h (3 Bft) 100,00 %
07.07.2018 15:11 23,8 C 23,3 C 51 % 1018,2 hPa 0,0 l/m 13,9 km/h (3 Bft) NW 308 1 min 0,000 mm 5,1 UV-I 841 W/m 13,0 C 22,0 C 19,3 km/h (3 Bft) 91,67 %
07.07.2018 15:12 23,8 C 23,3 C 53 % 1018,2 hPa 0,0 l/m 16,3 km/h (3 Bft) W-SW 247 1 min 0,000 mm 5,2 UV-I 853 W/m 13,6 C 21,6 C 29,0 km/h (5 Bft) 95,65 %
07.07.2018 15:13 23,8 C 23,3 C 49 % 1018,3 hPa 0,0 l/m 17,5 km/h (3 Bft) SW 227 1 min 0,000 mm 5,2 UV-I 859 W/m 12,4 C 21,5 C 24,1 km/h (4 Bft) 100,00 %
07.07.2018 15:14 23,8 C 23,3 C 49 % 1018,2 hPa 0,0 l/m 13,4 km/h (3 Bft) W-SW 257 1 min 0,000 mm 5,1 UV-I 856 W/m 12,4 C 22,1 C 24,1 km/h (4 Bft) 95,65 %
07.07.2018 15:15 23,8 C 23,9 C 49 % 1018,3 hPa 0,0 l/m 14,8 km/h (3 Bft) SW 229 1 min 0,000 mm 5,1 UV-I 849 W/m 12,4 C 21,9 C 19,3 km/h (3 Bft) 100,00 %
07.07.2018 15:16 23,9 C 23,9 C 49 % 1018,2 hPa 0,0 l/m 21,8 km/h (4 Bft) W 263 1 min 0,000 mm 5,1 UV-I 841 W/m 12,5 C 21,0 C 32,2 km/h (5 Bft) 95,65 %
07.07.2018 15:17 23,9 C 23,9 C 48 % 1018,3 hPa 0,0 l/m 18,3 km/h (3 Bft) W-NW 284 1 min 0,000 mm 5,0 UV-I 829 W/m 12,2 C 21,5 C 22,5 km/h (4 Bft) 100,00 %
07.07.2018 15:18 23,9 C 23,9 C 48 % 1018,2 hPa 0,0 l/m 20,5 km/h (4 Bft) W-SW 237 1 min 0,000 mm 4,7 UV-I 830 W/m 12,2 C 21,2 C 27,4 km/h (4 Bft) 91,67 %
07.07.2018 15:19 23,9 C 23,9 C 47 % 1018,2 hPa 0,0 l/m 12,5 km/h (3 Bft) N-NW 342 1 min 0,000 mm 4,9 UV-I 812 W/m 11,9 C 22,4 C 24,1 km/h (4 Bft) 100,00 %
07.07.2018 15:20 23,8 C 23,9 C 48 % 1018,2 hPa 0,0 l/m 17,4 km/h (3 Bft) W 281 1 min 0,000 mm 4,3 UV-I 800 W/m 12,1 C 21,5 C 25,7 km/h (4 Bft) 95,83 %
07.07.2018 15:21 23,8 C 23,9 C 49 % 1018,3 hPa 0,0 l/m 14,2 km/h (3 Bft) W 279 1 min 0,000 mm 3,4 UV-I 786 W/m 12,4 C 22,0 C 24,1 km/h (4 Bft) 91,30 %
07.07.2018 15:23 23,8 C 23,9 C 50 % 1018,2 hPa 0,0 l/m 9,2 km/h (2 Bft) W 269 2 min 0,000 mm 4,6 UV-I 799 W/m 12,7 C 23,0 C 16,1 km/h (3 Bft) 97,87 %
07.07.2018 15:24 23,8 C 23,9 C 49 % 1018,2 hPa 0,0 l/m 12,5 km/h (3 Bft) NW 305 1 min 0,000 mm 4,7 UV-I 804 W/m 12,4 C 22,3 C 17,7 km/h (3 Bft) 100,00 %
07.07.2018 15:25 23,9 C 23,9 C 50 % 1018,3 hPa 0,0 l/m 12,0 km/h (2 Bft) NW 308 1 min 0,000 mm 3,9 UV-I 816 W/m 12,8 C 22,5 C 20,9 km/h (4 Bft) 96,15 %
07.07.2018 15:26 23,9 C 23,9 C 49 % 1018,2 hPa 0,0 l/m 16,7 km/h (3 Bft) W-SW 238 1 min 0,000 mm 3,8 UV-I 816 W/m 12,5 C 21,7 C 25,7 km/h (4 Bft) 100,00 %
07.07.2018 15:27 23,9 C 23,9 C 50 % 1018,2 hPa 0,0 l/m 15,3 km/h (3 Bft) W 267 1 min 0,000 mm 4,8 UV-I 809 W/m 12,8 C 21,9 C 19,3 km/h (3 Bft) 90,91 %
07.07.2018 15:28 23,9 C 23,9 C 48 % 1018,2 hPa 0,0 l/m 14,2 km/h (3 Bft) SW 221 1 min 0,000 mm 4,8 UV-I 811 W/m 12,2 C 22,1 C 20,9 km/h (4 Bft) 100,00 %
07.07.2018 15:29 23,9 C 23,9 C 47 % 1018,3 hPa 0,0 l/m 13,8 km/h (3 Bft) W 275 1 min 0,000 mm 4,7 UV-I 789 W/m 11,9 C 22,2 C 19,3 km/h (3 Bft) 100,00 %
07.07.2018 15:30 23,9 C 23,9 C 46 % 1018,2 hPa 0,0 l/m 12,2 km/h (2 Bft) NW 308 1 min 0,000 mm 4,5 UV-I 786 W/m 11,6 C 22,5 C 17,7 km/h (3 Bft) 100,00 %
07.07.2018 15:31 23,8 C 23,9 C 47 % 1018,2 hPa 0,0 l/m 8,7 km/h (2 Bft) N-NW 337 1 min 0,000 mm 3,8 UV-I 786 W/m 11,8 C 23,2 C 11,3 km/h (2 Bft) 100,00 %
07.07.2018 15:32 23,8 C 23,9 C 49 % 1018,2 hPa 0,0 l/m 7,0 km/h (2 Bft) NW 305 1 min 0,000 mm 4,6 UV-I 781 W/m 12,4 C 23,6 C 17,7 km/h (3 Bft) 100,00 %
07.07.2018 15:33 23,7 C 23,9 C 48 % 1018,2 hPa 0,0 l/m 13,6 km/h (3 Bft) NW 306 1 min 0,000 mm 4,7 UV-I 785 W/m 12,0 C 22,0 C 24,1 km/h (4 Bft) 95,65 %
07.07.2018 15:34 23,8 C 23,9 C 48 % 1018,2 hPa 0,0 l/m 7,8 km/h (2 Bft) W-NW 290 1 min 0,000 mm 3,9 UV-I 798 W/m 12,1 C 23,4 C 24,1 km/h (4 Bft) 100,00 %
07.07.2018 15:35 23,7 C 23,9 C 47 % 1018,1 hPa 0,0 l/m 10,5 km/h (2 Bft) NW 318 1 min 0,000 mm 3,1 UV-I 800 W/m 11,7 C 22,6 C 19,3 km/h (3 Bft) 100,00 %
07.07.2018 15:36 23,6 C 23,9 C 49 % 1018,1 hPa 0,0 l/m 12,5 km/h (3 Bft) W 281 1 min 0,000 mm 3,9 UV-I 800 W/m 12,2 C 22,1 C 20,9 km/h (4 Bft) 100,00 %
07.07.2018 15:37 23,5 C 23,9 C 47 % 1018,1 hPa 0,0 l/m 4,8 km/h (1 Bft) W-SW 254 1 min 0,000 mm 4,5 UV-I 808 W/m 11,5 C 23,5 C 8,0 km/h (2 Bft) 100,00 %
07.07.2018 15:38 23,6 C 23,9 C 49 % 1018,2 hPa 0,0 l/m 8,1 km/h (2 Bft) W-SW 257 1 min 0,000 mm 4,7 UV-I 807 W/m 12,2 C 23,1 C 12,9 km/h (3 Bft) 95,83 %
07.07.2018 15:39 23,6 C 23,9 C 48 % 1018,2 hPa 0,0 l/m 11,9 km/h (2 Bft) W-SW 237 1 min 0,000 mm 4,6 UV-I 795 W/m 11,9 C 22,2 C 19,3 km/h (3 Bft) 95,65 %
07.07.2018 15:40 23,8 C 23,9 C 48 % 1018,2 hPa 0,0 l/m 21,7 km/h (4 Bft) W-SW 257 1 min 0,000 mm 4,5 UV-I 777 W/m 12,1 C 20,9 C 33,8 km/h (5 Bft) 95,83 %
07.07.2018 15:41 23,8 C 23,9 C 47 % 1018,2 hPa 0,0 l/m 12,6 km/h (3 Bft) W 276 1 min 0,000 mm 4,5 UV-I 771 W/m 11,8 C 22,3 C 17,7 km/h (3 Bft) 100,00 %
07.07.2018 15:42 23,8 C 23,9 C 48 % 1018,2 hPa 0,0 l/m 18,2 km/h (3 Bft) W 277 1 min 0,000 mm 4,5 UV-I 779 W/m 12,1 C 21,4 C 32,2 km/h (5 Bft) 97,37 %
07.07.2018 15:43 23,8 C 23,9 C 47 % 1018,4 hPa 0,0 l/m 22,4 km/h (4 Bft) W-SW 258 1 min 0,000 mm 4,3 UV-I 779 W/m 11,8 C 20,8 C 29,0 km/h (5 Bft) 100,00 %
07.07.2018 15:44 23,8 C 23,9 C 46 % 1018,3 hPa 0,0 l/m 17,0 km/h (3 Bft) W 260 1 min 0,000 mm 4,4 UV-I 785 W/m 11,5 C 21,5 C 25,7 km/h (4 Bft) 100,00 %
07.07.2018 15:45 23,7 C 23,9 C 46 % 1018,3 hPa 0,0 l/m 14,8 km/h (3 Bft) W-SW 252 1 min 0,000 mm 3,6 UV-I 788 W/m 11,4 C 21,8 C 25,7 km/h (4 Bft) 100,00 %
07.07.2018 15:46 23,7 C 23,9 C 48 % 1018,1 hPa 0,0 l/m 12,1 km/h (2 Bft) W 262 1 min 0,000 mm 2,9 UV-I 788 W/m 12,0 C 22,3 C 16,1 km/h (3 Bft) 100,00 %
07.07.2018 15:47 23,6 C 23,9 C 48 % 1018,2 hPa 0,0 l/m 12,5 km/h (3 Bft) W 261 1 min 0,000 mm 3,0 UV-I 797 W/m 11,9 C 22,1 C 17,7 km/h (3 Bft) 100,00 %
07.07.2018 15:48 23,7 C 23,9 C 49 % 1018,2 hPa 0,0 l/m 15,6 km/h (3 Bft) W 260 1 min 0,000 mm 4,4 UV-I 826 W/m 12,3 C 21,6 C 22,5 km/h (4 Bft) 100,00 %
07.07.2018 15:49 23,7 C 23,9 C 47 % 1018,3 hPa 0,0 l/m 19,7 km/h (3 Bft) W 261 1 min 0,000 mm 4,4 UV-I 810 W/m 11,7 C 21,0 C 27,4 km/h (4 Bft) 95,83 %
07.07.2018 15:50 23,7 C 23,9 C 46 % 1018,3 hPa 0,0 l/m 23,3 km/h (4 Bft) W 279 1 min 0,000 mm 4,3 UV-I 790 W/m 11,4 C 20,6 C 35,4 km/h (5 Bft) 100,00 %
07.07.2018 15:51 23,8 C 23,9 C 46 % 1018,2 hPa 0,0 l/m 17,2 km/h (3 Bft) W-NW 292 1 min 0,000 mm 4,2 UV-I 772 W/m 11,5 C 21,5 C 25,7 km/h (4 Bft) 95,83 %
07.07.2018 15:52 23,8 C 23,9 C 46 % 1018,1 hPa 0,0 l/m 16,9 km/h (3 Bft) W-NW 299 1 min 0,000 mm 4,2 UV-I 766 W/m 11,5 C 21,6 C 27,4 km/h (4 Bft) 100,00 %
07.07.2018 15:53 23,8 C 23,9 C 45 % 1018,2 hPa 0,0 l/m 14,2 km/h (3 Bft) W-SW 240 1 min 0,000 mm 4,2 UV-I 756 W/m 11,1 C 22,0 C 27,4 km/h (4 Bft) 91,67 %
07.07.2018 15:54 23,9 C 23,9 C 46 % 1018,2 hPa 0,0 l/m 13,7 km/h (3 Bft) W-SW 248 1 min 0,000 mm 4,2 UV-I 747 W/m 11,6 C 22,2 C 17,7 km/h (3 Bft) 95,65 %
07.07.2018 15:55 24,0 C 23,9 C 46 % 1018,2 hPa 0,0 l/m 12,6 km/h (3 Bft) W 277 1 min 0,000 mm 4,2 UV-I 746 W/m 11,7 C 22,5 C 19,3 km/h (3 Bft) 100,00 %
07.07.2018 15:56 24,1 C 23,9 C 46 % 1018,3 hPa 0,0 l/m 18,6 km/h (3 Bft) W 266 1 min 0,000 mm 4,1 UV-I 745 W/m 11,7 C 21,7 C 25,7 km/h (4 Bft) 95,65 %
07.07.2018 15:57 24,1 C 23,9 C 47 % 1018,2 hPa 0,0 l/m 14,3 km/h (3 Bft) W-NW 284 1 min 0,000 mm 4,0 UV-I 736 W/m 12,1 C 22,3 C 20,9 km/h (4 Bft) 100,00 %
07.07.2018 15:58 24,1 C 23,9 C 46 % 1018,2 hPa 0,0 l/m 12,5 km/h (3 Bft) W 263 1 min 0,000 mm 4,0 UV-I 715 W/m 11,7 C 22,7 C 24,1 km/h (4 Bft) 95,83 %
07.07.2018 15:59 24,1 C 23,9 C 47 % 1018,1 hPa 0,0 l/m 10,6 km/h (2 Bft) W 271 1 min 0,000 mm 4,0 UV-I 720 W/m 12,1 C 23,0 C 17,7 km/h (3 Bft) 100,00 %
07.07.2018 16:00 24,1 C 23,9 C 48 % 1018,2 hPa 0,0 l/m 8,4 km/h (2 Bft) W-SW 244 1 min 0,559 mm 4,0 UV-I 723 W/m 12,4 C 23,6 C 12,9 km/h (3 Bft) 95,83 %
07.07.2018 16:01 24,2 C 23,9 C 47 % 1018,2 hPa 0,0 l/m 13,3 km/h (3 Bft) N-NW 348 1 min 0,000 mm 4,0 UV-I 729 W/m 12,2 C 22,6 C 19,3 km/h (3 Bft) 95,65 %
07.07.2018 16:02 24,2 C 23,9 C 46 % 1018,3 hPa 0,0 l/m 13,7 km/h (3 Bft) W 281 1 min 0,000 mm 4,0 UV-I 732 W/m 11,8 C 22,6 C 17,7 km/h (3 Bft) 95,83 %
07.07.2018 16:03 24,2 C 23,9 C 47 % 1018,3 hPa 0,0 l/m 15,3 km/h (3 Bft) W-SW 243 1 min 0,000 mm 4,0 UV-I 727 W/m 12,2 C 22,3 C 20,9 km/h (4 Bft) 100,00 %
07.07.2018 16:04 24,2 C 23,9 C 46 % 1018,4 hPa 0,0 l/m 15,6 km/h (3 Bft) W 274 1 min 0,000 mm 4,0 UV-I 720 W/m 11,8 C 22,2 C 22,5 km/h (4 Bft) 95,83 %
07.07.2018 16:05 24,1 C 23,9 C 46 % 1018,4 hPa 0,0 l/m 18,1 km/h (3 Bft) W 273 1 min 0,000 mm 3,9 UV-I 712 W/m 11,7 C 21,8 C 27,4 km/h (4 Bft) 95,65 %
07.07.2018 16:06 23,9 C 23,9 C 43 % 1018,3 hPa 0,0 l/m 13,4 km/h (3 Bft) W 263 1 min 0,000 mm 3,9 UV-I 706 W/m 10,5 C 22,3 C 24,1 km/h (4 Bft) 100,00 %
07.07.2018 16:08 23,9 C 23,9 C 44 % 1018,2 hPa 0,0 l/m 11,7 km/h (2 Bft) W 273 2 min 0,000 mm 3,8 UV-I 702 W/m 10,9 C 22,6 C 17,7 km/h (3 Bft) 97,87 %
07.07.2018 16:09 23,8 C 23,9 C 43 % 1018,2 hPa 0,0 l/m 10,8 km/h (2 Bft) W-SW 248 1 min 0,000 mm 3,8 UV-I 698 W/m 10,5 C 22,7 C 17,7 km/h (3 Bft) 95,65 %
07.07.2018 16:10 23,8 C 23,9 C 44 % 1018,2 hPa 0,0 l/m 14,9 km/h (3 Bft) W 261 1 min 0,000 mm 3,8 UV-I 691 W/m 10,8 C 21,9 C 24,1 km/h (4 Bft) 100,00 %
07.07.2018 16:11 23,8 C 23,9 C 44 % 1018,2 hPa 0,0 l/m 11,8 km/h (2 Bft) W-NW 284 1 min 0,000 mm 3,8 UV-I 692 W/m 10,8 C 22,4 C 24,1 km/h (4 Bft) 92,31 %
07.07.2018 16:13 23,9 C 23,9 C 43 % 1018,4 hPa 0,0 l/m 13,4 km/h (3 Bft) W 273 2 min 0,000 mm 3,7 UV-I 689 W/m 10,5 C 22,3 C 19,3 km/h (3 Bft) 97,87 %
07.07.2018 16:14 23,9 C 23,9 C 42 % 1018,4 hPa 0,0 l/m 12,2 km/h (2 Bft) W-SW 249 1 min 0,000 mm 3,7 UV-I 687 W/m 10,2 C 22,5 C 17,7 km/h (3 Bft) 95,83 %
07.07.2018 16:15 23,9 C 23,9 C 43 % 1018,3 hPa 0,0 l/m 12,5 km/h (3 Bft) SW 234 1 min 0,000 mm 3,6 UV-I 674 W/m 10,5 C 22,4 C 17,7 km/h (3 Bft) 100,00 %
07.07.2018 16:16 24,0 C 23,9 C 41 % 1018,4 hPa 0,0 l/m 19,1 km/h (3 Bft) W 264 1 min 0,000 mm 3,6 UV-I 677 W/m 9,9 C 21,5 C 29,0 km/h (5 Bft) 100,00 %
07.07.2018 16:17 24,1 C 23,9 C 41 % 1018,3 hPa 0,0 l/m 15,9 km/h (3 Bft) W 271 1 min 0,000 mm 3,6 UV-I 677 W/m 10,0 C 22,1 C 24,1 km/h (4 Bft) 95,83 %
07.07.2018 16:18 24,1 C 23,9 C 40 % 1018,4 hPa 0,0 l/m 16,6 km/h (3 Bft) SW 221 1 min 0,000 mm 3,6 UV-I 675 W/m 9,6 C 22,0 C 24,1 km/h (4 Bft) 91,30 %
07.07.2018 16:19 24,0 C 23,9 C 40 % 1018,4 hPa 0,0 l/m 19,2 km/h (3 Bft) S-SW 213 1 min 0,000 mm 3,6 UV-I 672 W/m 9,6 C 21,5 C 24,1 km/h (4 Bft) 100,00 %
07.07.2018 16:20 24,0 C 23,9 C 41 % 1018,3 hPa 0,0 l/m 10,9 km/h (2 Bft) SW 231 1 min 0,000 mm 3,5 UV-I 669 W/m 9,9 C 22,9 C 17,7 km/h (3 Bft) 96,15 %
07.07.2018 16:21 24,0 C 23,9 C 41 % 1018,3 hPa 0,0 l/m 13,0 km/h (3 Bft) SW 221 1 min 0,000 mm 3,5 UV-I 666 W/m 9,9 C 22,4 C 16,1 km/h (3 Bft) 91,67 %
07.07.2018 16:22 24,0 C 23,9 C 41 % 1018,3 hPa 0,0 l/m 8,2 km/h (2 Bft) W-SW 250 1 min 0,000 mm 3,5 UV-I 663 W/m 9,9 C 23,5 C 17,7 km/h (3 Bft) 96,15 %
07.07.2018 16:23 24,1 C 23,9 C 41 % 1018,3 hPa 0,0 l/m 13,9 km/h (3 Bft) W-SW 240 1 min 0,000 mm 3,5 UV-I 660 W/m 10,0 C 22,4 C 29,0 km/h (5 Bft) 100,00 %
07.07.2018 16:24 24,1 C 23,9 C 39 % 1018,3 hPa 0,0 l/m 16,8 km/h (3 Bft) W-SW 257 1 min 0,000 mm 3,4 UV-I 660 W/m 9,3 C 21,9 C 27,4 km/h (4 Bft) 95,65 %
07.07.2018 16:25 24,1 C 23,9 C 38 % 1018,3 hPa 0,0 l/m 14,2 km/h (3 Bft) NW 311 1 min 0,000 mm 3,4 UV-I 658 W/m 8,9 C 22,4 C 30,6 km/h (5 Bft) 95,83 %
07.07.2018 16:26 24,0 C 23,9 C 39 % 1018,3 hPa 0,0 l/m 16,7 km/h (3 Bft) W-NW 292 1 min 0,000 mm 3,3 UV-I 652 W/m 9,2 C 21,8 C 20,9 km/h (4 Bft) 100,00 %
07.07.2018 16:27 23,9 C 23,9 C 38 % 1018,4 hPa 0,0 l/m 11,6 km/h (2 Bft) W-NW 293 1 min 0,000 mm 3,3 UV-I 650 W/m 8,7 C 22,6 C 19,3 km/h (3 Bft) 95,83 %
07.07.2018 16:28 23,8 C 23,9 C 40 % 1018,3 hPa 0,0 l/m 13,8 km/h (3 Bft) W-SW 245 1 min 0,000 mm 3,3 UV-I 650 W/m 9,4 C 22,1 C 24,1 km/h (4 Bft) 100,00 %
07.07.2018 16:29 23,9 C 23,9 C 40 % 1018,3 hPa 0,0 l/m 13,8 km/h (3 Bft) W 279 1 min 0,000 mm 3,3 UV-I 648 W/m 9,5 C 22,2 C 20,9 km/h (4 Bft) 95,83 %
07.07.2018 16:30 23,8 C 23,9 C 38 % 1018,3 hPa 0,0 l/m 7,3 km/h (2 Bft) W 271 1 min 0,000 mm 3,3 UV-I 644 W/m 8,6 C 23,5 C 12,9 km/h (3 Bft) 100,00 %
07.07.2018 16:31 23,9 C 23,9 C 41 % 1018,3 hPa 0,0 l/m 9,9 km/h (2 Bft) W 265 1 min 0,000 mm 3,2 UV-I 641 W/m 9,8 C 23,0 C 19,3 km/h (3 Bft) 100,00 %
07.07.2018 16:32 24,0 C 23,9 C 40 % 1018,3 hPa 0,0 l/m 9,7 km/h (2 Bft) W-NW 284 1 min 0,000 mm 3,2 UV-I 638 W/m 9,6 C 23,1 C 16,1 km/h (3 Bft) 100,00 %
07.07.2018 16:33 24,0 C 23,9 C 39 % 1018,4 hPa 0,0 l/m 10,5 km/h (2 Bft) W-NW 296 1 min 0,000 mm 3,2 UV-I 636 W/m 9,2 C 22,9 C 20,9 km/h (4 Bft) 95,83 %
07.07.2018 16:34 24,0 C 23,9 C 41 % 1018,3 hPa 0,0 l/m 8,1 km/h (2 Bft) SW 236 1 min 0,000 mm 3,2 UV-I 635 W/m 9,9 C 23,5 C 16,1 km/h (3 Bft) 91,30 %
07.07.2018 16:35 24,1 C 23,9 C 41 % 1018,4 hPa 0,0 l/m 9,4 km/h (2 Bft) SW 229 1 min 0,000 mm 3,1 UV-I 628 W/m 10,0 C 23,3 C 16,1 km/h (3 Bft) 95,83 %
07.07.2018 16:36 24,1 C 23,9 C 41 % 1018,4 hPa 0,0 l/m 13,3 km/h (3 Bft) NW 318 1 min 0,000 mm 3,1 UV-I 624 W/m 10,0 C 22,5 C 19,3 km/h (3 Bft) 95,65 %
07.07.2018 16:37 24,1 C 23,9 C 40 % 1018,4 hPa 0,0 l/m 9,4 km/h (2 Bft) W 273 1 min 0,000 mm 3,1 UV-I 630 W/m 9,6 C 23,3 C 14,5 km/h (3 Bft) 100,00 %
07.07.2018 16:38 24,0 C 23,9 C 40 % 1018,3 hPa 0,0 l/m 7,6 km/h (2 Bft) W 261 1 min 0,000 mm 3,1 UV-I 633 W/m 9,6 C 23,7 C 17,7 km/h (3 Bft) 91,67 %
07.07.2018 16:39 24,1 C 23,9 C 43 % 1018,3 hPa 0,0 l/m 4,9 km/h (1 Bft) W 263 1 min 0,000 mm 3,1 UV-I 625 W/m 10,7 C 24,1 C 6,4 km/h (2 Bft) 100,00 %
07.07.2018 16:40 24,2 C 23,9 C 41 % 1018,2 hPa 0,0 l/m 5,6 km/h (1 Bft) W-SW 249 1 min 0,000 mm 3,1 UV-I 629 W/m 10,1 C 24,2 C 9,7 km/h (2 Bft) 95,83 %
07.07.2018 16:41 24,2 C 23,9 C 41 % 1018,3 hPa 0,0 l/m 6,7 km/h (2 Bft) W 280 1 min 0,000 mm 3,1 UV-I 632 W/m 10,1 C 24,1 C 11,3 km/h (2 Bft) 100,00 %
07.07.2018 16:42 24,2 C 23,9 C 41 % 1018,3 hPa 0,0 l/m 10,6 km/h (2 Bft) W 263 1 min 0,000 mm 3,0 UV-I 632 W/m 10,1 C 23,1 C 14,5 km/h (3 Bft) 91,67 %
07.07.2018 16:43 24,2 C 23,9 C 41 % 1018,3 hPa 0,0 l/m 8,6 km/h (2 Bft) SW 230 1 min 0,000 mm 3,0 UV-I 630 W/m 10,1 C 23,6 C 12,9 km/h (3 Bft) 100,00 %
07.07.2018 16:44 24,3 C 23,9 C 42 % 1018,3 hPa 0,0 l/m 12,7 km/h (3 Bft) W-SW 240 1 min 0,000 mm 3,0 UV-I 631 W/m 10,6 C 22,9 C 19,3 km/h (3 Bft) 95,83 %
07.07.2018 16:45 24,4 C 23,9 C 42 % 1018,3 hPa 0,0 l/m 14,9 km/h (3 Bft) W 268 1 min 0,000 mm 2,8 UV-I 620 W/m 10,6 C 22,6 C 22,5 km/h (4 Bft) 100,00 %
07.07.2018 16:46 24,3 C 23,9 C 41 % 1018,3 hPa 0,0 l/m 21,1 km/h (4 Bft) W-SW 246 1 min 0,000 mm 2,8 UV-I 616 W/m 10,2 C 21,6 C 29,0 km/h (5 Bft) 95,83 %
07.07.2018 16:47 24,3 C 23,9 C 41 % 1018,4 hPa 0,0 l/m 18,9 km/h (3 Bft) W 275 1 min 0,000 mm 2,8 UV-I 618 W/m 10,2 C 21,9 C 30,6 km/h (5 Bft) 95,65 %
07.07.2018 16:48 24,2 C 23,9 C 42 % 1018,3 hPa 0,0 l/m 15,2 km/h (3 Bft) W-SW 257 1 min 0,000 mm 2,8 UV-I 612 W/m 10,5 C 22,3 C 24,1 km/h (4 Bft) 100,00 %
07.07.2018 16:49 24,1 C 23,9 C 42 % 1018,3 hPa 0,0 l/m 11,1 km/h (2 Bft) W 277 1 min 0,000 mm 2,8 UV-I 612 W/m 10,4 C 22,9 C 19,3 km/h (3 Bft) 95,65 %
07.07.2018 16:50 24,0 C 23,9 C 43 % 1018,2 hPa 0,0 l/m 11,5 km/h (2 Bft) W-NW 302 1 min 0,000 mm 2,8 UV-I 607 W/m 10,6 C 22,7 C 16,1 km/h (3 Bft) 95,83 %
07.07.2018 16:51 24,0 C 23,9 C 42 % 1018,3 hPa 0,0 l/m 13,9 km/h (3 Bft) W 271 1 min 0,000 mm 2,8 UV-I 608 W/m 10,3 C 22,3 C 27,4 km/h (4 Bft) 91,67 %
07.07.2018 16:52 23,9 C 23,9 C 41 % 1018,1 hPa 0,0 l/m 12,7 km/h (3 Bft) W-SW 246 1 min 0,000 mm 2,7 UV-I 605 W/m 9,8 C 22,4 C 24,1 km/h (4 Bft) 96,15 %
07.07.2018 16:53 23,9 C 23,9 C 41 % 1018,2 hPa 0,0 l/m 13,6 km/h (3 Bft) S-SO 159 1 min 0,000 mm 2,7 UV-I 603 W/m 9,8 C 22,2 C 20,9 km/h (4 Bft) 91,67 %
07.07.2018 16:54 23,9 C 23,9 C 41 % 1018,1 hPa 0,0 l/m 12,3 km/h (3 Bft) W 261 1 min 0,000 mm 2,7 UV-I 598 W/m 9,8 C 22,5 C 19,3 km/h (3 Bft) 91,30 %
07.07.2018 16:55 23,9 C 23,9 C 41 % 1018,2 hPa 0,0 l/m 13,7 km/h (3 Bft) W 263 1 min 0,000 mm 2,6 UV-I 590 W/m 9,8 C 22,2 C 20,9 km/h (4 Bft) 95,83 %
07.07.2018 16:56 23,9 C 23,9 C 41 % 1018,2 hPa 0,0 l/m 12,1 km/h (2 Bft) W 269 1 min 0,000 mm 2,6 UV-I 586 W/m 9,8 C 22,5 C 17,7 km/h (3 Bft) 96,15 %
07.07.2018 16:57 23,9 C 23,9 C 41 % 1018,2 hPa 0,0 l/m 9,3 km/h (2 Bft) W-NW 293 1 min 0,000 mm 2,6 UV-I 582 W/m 9,8 C 23,1 C 22,5 km/h (4 Bft) 95,83 %
07.07.2018 16:58 23,9 C 23,9 C 41 % 1018,2 hPa 0,0 l/m 12,0 km/h (2 Bft) W-SW 257 1 min 0,000 mm 2,6 UV-I 579 W/m 9,8 C 22,5 C 16,1 km/h (3 Bft) 95,65 %
07.07.2018 16:59 23,9 C 23,9 C 40 % 1018,2 hPa 0,0 l/m 12,9 km/h (3 Bft) W-NW 282 1 min 0,000 mm 2,5 UV-I 574 W/m 9,5 C 22,3 C 17,7 km/h (3 Bft) 95,83 %
07.07.2018 17:00 23,9 C 23,9 C 40 % 1018,2 hPa 0,0 l/m 9,2 km/h (2 Bft) SW 227 1 min 0,000 mm 2,5 UV-I 567 W/m 9,5 C 23,1 C 16,1 km/h (3 Bft) 95,65 %
07.07.2018 17:02 23,9 C 23,9 C 39 % 1018,2 hPa 0,0 l/m 13,7 km/h (3 Bft) W 278 2 min 0,508 mm 2,3 UV-I 562 W/m 9,1 C 22,2 C 24,1 km/h (4 Bft) 96,00 %
07.07.2018 17:03 23,8 C 23,9 C 40 % 1018,2 hPa 0,0 l/m 10,1 km/h (2 Bft) W-NW 294 1 min 0,000 mm 2,3 UV-I 558 W/m 9,4 C 22,8 C 19,3 km/h (3 Bft) 95,83 %
07.07.2018 17:04 23,8 C 23,9 C 40 % 1018,2 hPa 0,0 l/m 14,4 km/h (3 Bft) W-SW 254 1 min 0,000 mm 2,4 UV-I 558 W/m 9,4 C 22,0 C 20,9 km/h (4 Bft) 100,00 %
07.07.2018 17:05 23,8 C 23,9 C 40 % 1018,2 hPa 0,0 l/m 9,4 km/h (2 Bft) N 9 1 min 0,000 mm 2,3 UV-I 552 W/m 9,4 C 23,0 C 17,7 km/h (3 Bft) 91,67 %
07.07.2018 17:06 23,8 C 23,9 C 40 % 1018,2 hPa 0,0 l/m 8,0 km/h (2 Bft) W 271 1 min 0,000 mm 2,4 UV-I 557 W/m 9,4 C 23,3 C 12,9 km/h (3 Bft) 97,14 %
07.07.2018 17:07 23,8 C 23,9 C 39 % 1018,2 hPa 0,0 l/m 16,4 km/h (3 Bft) W-SW 248 1 min 0,000 mm 2,3 UV-I 557 W/m 9,0 C 21,6 C 25,7 km/h (4 Bft) 91,67 %
07.07.2018 17:08 23,8 C 23,9 C 39 % 1018,2 hPa 0,0 l/m 11,1 km/h (2 Bft) N-NW 347 1 min 0,000 mm 2,3 UV-I 555 W/m 9,0 C 22,6 C 20,9 km/h (4 Bft) 100,00 %
07.07.2018 17:09 23,8 C 23,9 C 42 % 1018,2 hPa 0,0 l/m 10,4 km/h (2 Bft) NO 40 1 min 0,000 mm 2,3 UV-I 552 W/m 10,1 C 22,7 C 16,1 km/h (3 Bft) 96,30 %
07.07.2018 17:10 23,8 C 23,9 C 40 % 1018,2 hPa 0,0 l/m 14,0 km/h (3 Bft) W 273 1 min 0,000 mm 2,3 UV-I 549 W/m 9,4 C 22,0 C 24,1 km/h (4 Bft) 96,55 %
07.07.2018 17:11 23,8 C 23,9 C 39 % 1018,3 hPa 0,0 l/m 11,7 km/h (2 Bft) W 274 1 min 0,000 mm 2,3 UV-I 544 W/m 9,0 C 22,5 C 20,9 km/h (4 Bft) 95,83 %
07.07.2018 17:13 23,7 C 23,9 C 39 % 1018,3 hPa 0,0 l/m 15,2 km/h (3 Bft) W-NW 285 2 min 0,000 mm 1,8 UV-I 371 W/m 8,9 C 21,7 C 27,4 km/h (4 Bft) 97,87 %
07.07.2018 17:14 23,6 C 23,9 C 40 % 1018,3 hPa 0,0 l/m 7,7 km/h (2 Bft) W-NW 288 0 min 0,000 mm 1,8 UV-I 127 W/m 9,2 C 23,2 C 16,1 km/h (3 Bft) 95,65 %
07.07.2018 17:15 23,6 C 23,9 C 40 % 1018,3 hPa 0,0 l/m 10,9 km/h (2 Bft) W 279 0 min 0,000 mm 2,0 UV-I 127 W/m 9,2 C 22,4 C 14,5 km/h (3 Bft) 100,00 %
07.07.2018 17:16 23,5 C 23,9 C 41 % 1018,2 hPa 0,0 l/m 10,2 km/h (2 Bft) SW 226 0 min 0,000 mm 1,5 UV-I 127 W/m 9,5 C 22,5 C 14,5 km/h (3 Bft) 95,83 %
07.07.2018 17:18 23,4 C 23,9 C 42 % 1018,2 hPa 0,0 l/m 9,6 km/h (2 Bft) SW 232 0 min 0,000 mm 1,8 UV-I 143 W/m 9,7 C 22,5 C 17,7 km/h (3 Bft) 97,87 %
07.07.2018 17:19 23,4 C 23,9 C 44 % 1018,2 hPa 0,0 l/m 8,4 km/h (2 Bft) NW 304 1 min 0,000 mm 2,1 UV-I 524 W/m 10,4 C 22,8 C 14,5 km/h (3 Bft) 91,30 %
07.07.2018 17:20 23,4 C 23,9 C 42 % 1018,2 hPa 0,0 l/m 7,4 km/h (2 Bft) W-SW 257 1 min 0,000 mm 2,1 UV-I 554 W/m 9,7 C 23,1 C 16,1 km/h (3 Bft) 100,00 %
07.07.2018 17:21 23,5 C 23,9 C 42 % 1018,1 hPa 0,0 l/m 8,6 km/h (2 Bft) N 9 1 min 0,000 mm 2,1 UV-I 548 W/m 9,8 C 22,9 C 24,1 km/h (4 Bft) 100,00 %
07.07.2018 17:22 23,7 C 23,9 C 44 % 1018,2 hPa 0,0 l/m 11,2 km/h (2 Bft) NO 42 1 min 0,000 mm 2,1 UV-I 541 W/m 10,7 C 22,5 C 20,9 km/h (4 Bft) 100,00 %
07.07.2018 17:23 23,7 C 23,9 C 43 % 1018,2 hPa 0,0 l/m 13,1 km/h (3 Bft) W-SW 252 1 min 0,000 mm 2,0 UV-I 529 W/m 10,4 C 22,1 C 19,3 km/h (3 Bft) 95,65 %
07.07.2018 17:24 23,8 C 23,9 C 42 % 1018,2 hPa 0,0 l/m 8,8 km/h (2 Bft) S-SW 213 1 min 0,000 mm 2,0 UV-I 526 W/m 10,1 C 23,1 C 12,9 km/h (3 Bft) 100,00 %
07.07.2018 17:25 23,9 C 23,9 C 43 % 1018,2 hPa 0,0 l/m 12,5 km/h (3 Bft) W-NW 297 1 min 0,000 mm 2,0 UV-I 526 W/m 10,5 C 22,4 C 24,1 km/h (4 Bft) 100,00 %
07.07.2018 17:26 23,9 C 23,9 C 41 % 1018,2 hPa 0,0 l/m 11,5 km/h (2 Bft) N 9 1 min 0,000 mm 1,9 UV-I 524 W/m 9,8 C 22,6 C 17,7 km/h (3 Bft) 100,00 %
07.07.2018 17:27 23,9 C 23,9 C 41 % 1018,3 hPa 0,0 l/m 17,2 km/h (3 Bft) W-SW 257 1 min 0,000 mm 1,9 UV-I 510 W/m 9,8 C 21,6 C 27,4 km/h (4 Bft) 95,65 %
07.07.2018 17:28 23,8 C 23,9 C 41 % 1018,3 hPa 0,0 l/m 17,6 km/h (3 Bft) NW 310 1 min 0,000 mm 1,9 UV-I 510 W/m 9,7 C 21,4 C 27,4 km/h (4 Bft) 100,00 %
07.07.2018 17:29 23,7 C 23,9 C 40 % 1018,3 hPa 0,0 l/m 14,1 km/h (3 Bft) NW 325 1 min 0,000 mm 1,9 UV-I 519 W/m 9,3 C 21,9 C 24,1 km/h (4 Bft) 100,00 %
07.07.2018 17:30 23,7 C 23,9 C 42 % 1018,2 hPa 0,0 l/m 7,3 km/h (2 Bft) W-SW 251 1 min 0,000 mm 1,6 UV-I 513 W/m 10,0 C 23,4 C 11,3 km/h (2 Bft) 100,00 %
07.07.2018 17:31 23,7 C 23,9 C 41 % 1018,3 hPa 0,0 l/m 8,4 km/h (2 Bft) SW 236 1 min 0,000 mm 1,7 UV-I 518 W/m 9,7 C 23,1 C 11,3 km/h (2 Bft) 100,00 %
07.07.2018 17:32 23,7 C 23,9 C 42 % 1018,2 hPa 0,0 l/m 14,1 km/h (3 Bft) W 262 1 min 0,000 mm 1,8 UV-I 499 W/m 10,0 C 21,9 C 17,7 km/h (3 Bft) 100,00 %
07.07.2018 17:33 23,7 C 23,9 C 42 % 1018,2 hPa 0,0 l/m 14,4 km/h (3 Bft) W-NW 286 1 min 0,000 mm 1,8 UV-I 501 W/m 10,0 C 21,8 C 19,3 km/h (3 Bft) 100,00 %
07.07.2018 17:34 23,8 C 23,9 C 43 % 1018,2 hPa 0,0 l/m 9,1 km/h (2 Bft) W-NW 303 1 min 0,000 mm 1,8 UV-I 503 W/m 10,5 C 23,1 C 16,1 km/h (3 Bft) 100,00 %
07.07.2018 17:35 23,8 C 23,9 C 42 % 1018,2 hPa 0,0 l/m 15,3 km/h (3 Bft) W-SW 238 1 min 0,000 mm 1,8 UV-I 506 W/m 10,1 C 21,8 C 24,1 km/h (4 Bft) 100,00 %
07.07.2018 17:36 23,8 C 23,9 C 42 % 1018,2 hPa 0,0 l/m 18,1 km/h (3 Bft) W 276 1 min 0,000 mm 1,7 UV-I 510 W/m 10,1 C 21,4 C 30,6 km/h (5 Bft) 100,00 %
07.07.2018 17:38 23,8 C 23,9 C 42 % 1018,2 hPa 0,0 l/m 15,1 km/h (3 Bft) W 275 2 min 0,000 mm 1,7 UV-I 505 W/m 10,1 C 21,8 C 24,1 km/h (4 Bft) 100,00 %
07.07.2018 17:39 23,8 C 23,9 C 42 % 1018,2 hPa 0,0 l/m 13,3 km/h (3 Bft) W 277 1 min 0,000 mm 1,4 UV-I 499 W/m 10,1 C 22,2 C 16,1 km/h (3 Bft) 100,00 %
07.07.2018 17:40 23,7 C 23,9 C 41 % 1018,2 hPa 0,0 l/m 11,7 km/h (2 Bft) NW 325 1 min 0,000 mm 1,6 UV-I 491 W/m 9,7 C 22,4 C 16,1 km/h (3 Bft) 100,00 %
07.07.2018 17:41 23,7 C 23,9 C 43 % 1018,2 hPa 0,0 l/m 12,7 km/h (3 Bft) W 279 1 min 0,000 mm 1,5 UV-I 499 W/m 10,4 C 22,2 C 17,7 km/h (3 Bft) 100,00 %
07.07.2018 17:42 23,7 C 23,9 C 43 % 1018,2 hPa 0,0 l/m 12,5 km/h (3 Bft) W 259 0 min 0,000 mm 1,2 UV-I 205 W/m 10,4 C 22,2 C 16,1 km/h (3 Bft) 95,65 %
07.07.2018 17:43 23,6 C 23,9 C 44 % 1018,2 hPa 0,0 l/m 11,1 km/h (2 Bft) W 277 0 min 0,000 mm 1,4 UV-I 122 W/m 10,6 C 22,4 C 16,1 km/h (3 Bft) 100,00 %
07.07.2018 17:44 23,6 C 23,9 C 44 % 1018,2 hPa 0,0 l/m 18,8 km/h (3 Bft) W 263 1 min 0,000 mm 1,5 UV-I 457 W/m 10,6 C 21,0 C 29,0 km/h (5 Bft) 100,00 %
07.07.2018 17:45 23,6 C 23,9 C 43 % 1018,1 hPa 0,0 l/m 10,7 km/h (2 Bft) W-SW 252 1 min 0,000 mm 1,5 UV-I 463 W/m 10,3 C 22,5 C 19,3 km/h (3 Bft) 100,00 %
07.07.2018 17:46 23,6 C 23,9 C 43 % 1018,1 hPa 0,0 l/m 14,4 km/h (3 Bft) W-SW 257 1 min 0,000 mm 1,5 UV-I 470 W/m 10,3 C 21,7 C 20,9 km/h (4 Bft) 100,00 %
07.07.2018 17:48 23,6 C 23,9 C 43 % 1018,1 hPa 0,0 l/m 11,4 km/h (2 Bft) SW 223 2 min 0,000 mm 1,5 UV-I 469 W/m 10,3 C 22,3 C 20,9 km/h (4 Bft) 98,28 %
07.07.2018 17:49 23,6 C 23,9 C 44 % 1018,1 hPa 0,0 l/m 7,5 km/h (2 Bft) W 272 1 min 0,000 mm 1,5 UV-I 463 W/m 10,6 C 23,3 C 14,5 km/h (3 Bft) 100,00 %
07.07.2018 17:50 23,7 C 23,9 C 44 % 1018,1 hPa 0,0 l/m 5,6 km/h (1 Bft) NW 312 1 min 0,000 mm 1,4 UV-I 452 W/m 10,7 C 23,7 C 8,0 km/h (2 Bft) 100,00 %
07.07.2018 17:51 23,8 C 23,9 C 44 % 1018,2 hPa 0,0 l/m 10,5 km/h (2 Bft) W-NW 286 1 min 0,000 mm 1,3 UV-I 464 W/m 10,8 C 22,7 C 16,1 km/h (3 Bft) 100,00 %
07.07.2018 17:52 23,8 C 23,9 C 43 % 1018,1 hPa 0,0 l/m 13,3 km/h (3 Bft) W-NW 290 1 min 0,000 mm 1,1 UV-I 464 W/m 10,5 C 22,2 C 22,5 km/h (4 Bft) 100,00 %
07.07.2018 17:53 23,8 C 23,9 C 42 % 1018,1 hPa 0,0 l/m 15,5 km/h (3 Bft) W 261 1 min 0,000 mm 1,1 UV-I 464 W/m 10,1 C 21,8 C 27,4 km/h (4 Bft) 96,15 %
07.07.2018 17:54 23,6 C 23,9 C 43 % 1018,1 hPa 0,0 l/m 10,9 km/h (2 Bft) W 273 1 min 0,000 mm 1,2 UV-I 464 W/m 10,3 C 22,4 C 19,3 km/h (3 Bft) 100,00 %
07.07.2018 17:55 23,6 C 23,9 C 44 % 1018,1 hPa 0,0 l/m 6,4 km/h (2 Bft) SW 236 1 min 0,000 mm 1,1 UV-I 464 W/m 10,6 C 23,6 C 11,3 km/h (2 Bft) 91,30 %
07.07.2018 17:56 23,5 C 23,9 C 44 % 1018,1 hPa 0,0 l/m 7,6 km/h (2 Bft) W-SW 248 1 min 0,000 mm 1,2 UV-I 379 W/m 10,5 C 23,1 C 11,3 km/h (2 Bft) 100,00 %
07.07.2018 17:57 23,4 C 23,9 C 44 % 1018,1 hPa 0,0 l/m 7,3 km/h (2 Bft) NW 315 0 min 0,000 mm 1,0 UV-I 130 W/m 10,4 C 23,1 C 16,1 km/h (3 Bft) 95,65 %
07.07.2018 17:58 23,3 C 23,9 C 43 % 1018,0 hPa 0,0 l/m 9,2 km/h (2 Bft) N-NW 327 0 min 0,000 mm 1,1 UV-I 172 W/m 10,0 C 22,5 C 16,1 km/h (3 Bft) 100,00 %
07.07.2018 17:59 23,2 C 23,9 C 45 % 1018,1 hPa 0,0 l/m 4,8 km/h (1 Bft) S 171 0 min 0,000 mm 1,1 UV-I 184 W/m 10,6 C 23,2 C 9,7 km/h (2 Bft) 100,00 %
07.07.2018 18:00 23,1 C 23,9 C 45 % 1018,1 hPa 0,0 l/m 9,7 km/h (2 Bft) SW 215 0 min 0,000 mm 1,1 UV-I 209 W/m 10,5 C 22,1 C 16,1 km/h (3 Bft) 100,00 %
07.07.2018 18:01 23,1 C 23,9 C 44 % 1018,0 hPa 0,0 l/m 12,4 km/h (3 Bft) W 263 1 min 0,356 mm 1,1 UV-I 285 W/m 10,2 C 21,5 C 17,7 km/h (3 Bft) 100,00 %
07.07.2018 18:03 23,1 C 23,9 C 45 % 1018,1 hPa 0,0 l/m 11,4 km/h (2 Bft) W-NW 298 2 min 0,000 mm 1,2 UV-I 338 W/m 10,5 C 21,7 C 16,1 km/h (3 Bft) 93,62 %
07.07.2018 18:04 23,2 C 23,9 C 44 % 1018,1 hPa 0,0 l/m 12,6 km/h (3 Bft) W 260 1 min 0,000 mm 1,2 UV-I 394 W/m 10,3 C 21,6 C 19,3 km/h (3 Bft) 100,00 %
07.07.2018 18:05 23,3 C 23,9 C 45 % 1018,0 hPa 0,0 l/m 10,5 km/h (2 Bft) W 265 1 min 0,000 mm 1,2 UV-I 388 W/m 10,7 C 22,2 C 17,7 km/h (3 Bft) 100,00 %
07.07.2018 18:06 23,4 C 23,9 C 44 % 1018,1 hPa 0,0 l/m 12,6 km/h (3 Bft) W 278 1 min 0,000 mm 1,0 UV-I 310 W/m 10,4 C 21,8 C 20,9 km/h (4 Bft) 96,55 %
07.07.2018 18:07 23,4 C 23,9 C 43 % 1018,1 hPa 0,0 l/m 11,1 km/h (2 Bft) W 276 1 min 0,000 mm 0,9 UV-I 288 W/m 10,1 C 22,1 C 17,7 km/h (3 Bft) 100,00 %
07.07.2018 18:08 23,4 C 23,9 C 43 % 1018,1 hPa 0,0 l/m 13,2 km/h (3 Bft) W 280 0 min 0,000 mm 0,9 UV-I 146 W/m 10,1 C 21,7 C 17,7 km/h (3 Bft) 100,00 %
07.07.2018 18:09 23,3 C 23,9 C 43 % 1018,0 hPa 0,0 l/m 14,4 km/h (3 Bft) W-SW 244 0 min 0,000 mm 0,9 UV-I 123 W/m 10,0 C 21,4 C 19,3 km/h (3 Bft) 95,83 %
07.07.2018 18:10 23,2 C 23,9 C 42 % 1018,0 hPa 0,0 l/m 13,0 km/h (3 Bft) W 278 0 min 0,000 mm 0,9 UV-I 139 W/m 9,6 C 21,5 C 22,5 km/h (4 Bft) 95,65 %
07.07.2018 18:11 23,2 C 23,9 C 41 % 1018,0 hPa 0,0 l/m 11,9 km/h (2 Bft) W-SW 251 0 min 0,000 mm 0,9 UV-I 190 W/m 9,2 C 21,7 C 19,3 km/h (3 Bft) 100,00 %
07.07.2018 18:12 23,1 C 23,9 C 42 % 1018,1 hPa 0,0 l/m 11,8 km/h (2 Bft) W-NW 290 0 min 0,000 mm 0,9 UV-I 178 W/m 9,5 C 21,6 C 16,1 km/h (3 Bft) 100,00 %
07.07.2018 18:13 23,0 C 23,9 C 43 % 1018,0 hPa 0,0 l/m 10,9 km/h (2 Bft) W 261 0 min 0,000 mm 0,9 UV-I 160 W/m 9,7 C 21,7 C 20,9 km/h (4 Bft) 100,00 %
07.07.2018 18:14 22,9 C 23,9 C 42 % 1018,0 hPa 0,0 l/m 16,2 km/h (3 Bft) W 279 0 min 0,000 mm 0,8 UV-I 153 W/m 9,3 C 20,5 C 20,9 km/h (4 Bft) 100,00 %
07.07.2018 18:15 22,9 C 23,9 C 41 % 1018,0 hPa 0,0 l/m 9,7 km/h (2 Bft) W-SW 255 0 min 0,000 mm 0,9 UV-I 167 W/m 8,9 C 21,9 C 16,1 km/h (3 Bft) 100,00 %
07.07.2018 18:16 22,9 C 23,9 C 42 % 1018,0 hPa 0,0 l/m 7,8 km/h (2 Bft) W 279 0 min 0,000 mm 0,8 UV-I 151 W/m 9,3 C 22,5 C 12,9 km/h (3 Bft) 95,65 %
07.07.2018 18:17 22,8 C 23,9 C 43 % 1018,0 hPa 0,0 l/m 13,1 km/h (3 Bft) W-SW 256 0 min 0,000 mm 0,8 UV-I 170 W/m 9,6 C 21,0 C 19,3 km/h (3 Bft) 100,00 %
07.07.2018 18:18 22,8 C 23,9 C 42 % 1018,0 hPa 0,0 l/m 13,1 km/h (3 Bft) SW 229 1 min 0,000 mm 0,9 UV-I 249 W/m 9,2 C 21,0 C 19,3 km/h (3 Bft) 95,65 %
07.07.2018 18:19 22,9 C 23,9 C 42 % 1018,0 hPa 0,0 l/m 8,7 km/h (2 Bft) W-SW 258 1 min 0,000 mm 0,9 UV-I 313 W/m 9,3 C 22,2 C 14,5 km/h (3 Bft) 100,00 %
07.07.2018 18:20 22,9 C 23,9 C 42 % 1018,0 hPa 0,0 l/m 13,8 km/h (3 Bft) W-NW 303 1 min 0,000 mm 0,9 UV-I 323 W/m 9,3 C 21,0 C 24,1 km/h (4 Bft) 100,00 %
07.07.2018 18:21 22,9 C 23,9 C 41 % 1018,0 hPa 0,0 l/m 9,9 km/h (2 Bft) W-SW 244 1 min 0,000 mm 0,9 UV-I 252 W/m 8,9 C 21,9 C 17,7 km/h (3 Bft) 100,00 %
07.07.2018 18:22 23,0 C 23,9 C 42 % 1018,0 hPa 0,0 l/m 10,5 km/h (2 Bft) W-NW 284 0 min 0,000 mm 0,8 UV-I 168 W/m 9,4 C 21,8 C 14,5 km/h (3 Bft) 100,00 %
07.07.2018 18:23 23,0 C 23,9 C 41 % 1018,0 hPa 0,0 l/m 12,0 km/h (2 Bft) W 263 0 min 0,000 mm 0,8 UV-I 167 W/m 9,0 C 21,5 C 19,3 km/h (3 Bft) 100,00 %
07.07.2018 18:24 23,0 C 23,9 C 42 % 1018,0 hPa 0,0 l/m 15,0 km/h (3 Bft) W 269 0 min 0,000 mm 0,8 UV-I 170 W/m 9,4 C 20,9 C 20,9 km/h (4 Bft) 95,65 %
07.07.2018 18:25 23,0 C 23,9 C 42 % 1018,0 hPa 0,0 l/m 9,1 km/h (2 Bft) W 276 0 min 0,000 mm 0,8 UV-I 135 W/m 9,4 C 22,2 C 16,1 km/h (3 Bft) 100,00 %
07.07.2018 18:26 22,9 C 23,9 C 42 % 1018,0 hPa 0,0 l/m 8,9 km/h (2 Bft) W-NW 302 0 min 0,000 mm 0,8 UV-I 188 W/m 9,3 C 22,1 C 14,5 km/h (3 Bft) 100,00 %
07.07.2018 18:27 22,9 C 23,9 C 42 % 1018,0 hPa 0,0 l/m 7,2 km/h (2 Bft) W-SW 244 1 min 0,000 mm 0,9 UV-I 256 W/m 9,3 C 22,6 C 11,3 km/h (2 Bft) 95,65 %
07.07.2018 18:28 23,1 C 23,9 C 43 % 1018,0 hPa 0,0 l/m 8,8 km/h (2 Bft) W-NW 294 1 min 0,000 mm 0,9 UV-I 335 W/m 9,8 C 22,4 C 14,5 km/h (3 Bft) 95,83 %
07.07.2018 18:29 23,2 C 23,9 C 43 % 1018,0 hPa 0,0 l/m 12,3 km/h (3 Bft) W-SW 252 1 min 0,000 mm 0,8 UV-I 327 W/m 9,9 C 21,7 C 22,5 km/h (4 Bft) 100,00 %
07.07.2018 18:30 23,2 C 23,9 C 42 % 1018,0 hPa 0,0 l/m 16,6 km/h (3 Bft) W-NW 294 1 min 0,000 mm 0,8 UV-I 323 W/m 9,6 C 20,9 C 22,5 km/h (4 Bft) 100,00 %
07.07.2018 18:31 23,3 C 23,9 C 41 % 1018,0 hPa 0,0 l/m 14,8 km/h (3 Bft) W 272 1 min 0,000 mm 0,8 UV-I 262 W/m 9,3 C 21,3 C 20,9 km/h (4 Bft) 100,00 %
07.07.2018 18:32 23,2 C 23,9 C 41 % 1018,1 hPa 0,0 l/m 9,5 km/h (2 Bft) SW 227 1 min 0,000 mm 0,8 UV-I 332 W/m 9,2 C 22,3 C 16,1 km/h (3 Bft) 100,00 %
07.07.2018 18:33 23,3 C 23,9 C 42 % 1018,1 hPa 0,0 l/m 12,3 km/h (3 Bft) W 267 1 min 0,000 mm 0,8 UV-I 330 W/m 9,7 C 21,8 C 16,1 km/h (3 Bft) 100,00 %
07.07.2018 18:34 23,3 C 23,9 C 42 % 1018,0 hPa 0,0 l/m 12,5 km/h (3 Bft) W-SW 251 1 min 0,000 mm 0,8 UV-I 336 W/m 9,7 C 21,7 C 17,7 km/h (3 Bft) 100,00 %
07.07.2018 18:35 23,3 C 23,9 C 42 % 1018,0 hPa 0,0 l/m 7,7 km/h (2 Bft) NW 309 1 min 0,000 mm 0,8 UV-I 335 W/m 9,7 C 22,9 C 11,3 km/h (2 Bft) 100,00 %
07.07.2018 18:36 23,3 C 23,9 C 42 % 1018,0 hPa 0,0 l/m 5,0 km/h (1 Bft) W-NW 287 1 min 0,000 mm 0,7 UV-I 243 W/m 9,7 C 23,3 C 11,3 km/h (2 Bft) 100,00 %
07.07.2018 18:37 23,4 C 23,9 C 43 % 1018,0 hPa 0,0 l/m 10,2 km/h (2 Bft) NW 316 1 min 0,000 mm 0,8 UV-I 226 W/m 10,1 C 22,3 C 17,7 km/h (3 Bft) 100,00 %
07.07.2018 18:38 23,3 C 23,9 C 42 % 1018,0 hPa 0,0 l/m 12,5 km/h (3 Bft) W 277 1 min 0,000 mm 0,7 UV-I 243 W/m 9,7 C 21,7 C 17,7 km/h (3 Bft) 100,00 %
07.07.2018 18:39 23,3 C 23,9 C 42 % 1018,0 hPa 0,0 l/m 11,0 km/h (2 Bft) W 269 1 min 0,000 mm 0,7 UV-I 220 W/m 9,7 C 22,0 C 14,5 km/h (3 Bft) 100,00 %
07.07.2018 18:40 23,2 C 23,9 C 43 % 1017,9 hPa 0,0 l/m 7,8 km/h (2 Bft) W-SW 249 1 min 0,000 mm 0,7 UV-I 298 W/m 9,9 C 22,8 C 12,9 km/h (3 Bft) 100,00 %
07.07.2018 18:41 23,2 C 23,9 C 43 % 1018,0 hPa 0,0 l/m 6,8 km/h (2 Bft) SW 227 1 min 0,000 mm 0,6 UV-I 322 W/m 9,9 C 23,1 C 11,3 km/h (2 Bft) 100,00 %
07.07.2018 18:43 23,1 C 23,9 C 42 % 1017,9 hPa 0,0 l/m 7,6 km/h (2 Bft) SW 232 0 min 0,000 mm 0,7 UV-I 161 W/m 9,5 C 22,7 C 16,1 km/h (3 Bft) 98,00 %
07.07.2018 18:44 23,2 C 23,9 C 43 % 1017,9 hPa 0,0 l/m 4,7 km/h (1 Bft) NW 306 1 min 0,000 mm 0,7 UV-I 326 W/m 9,9 C 23,2 C 8,0 km/h (2 Bft) 91,67 %
07.07.2018 18:45 23,2 C 23,9 C 43 % 1017,9 hPa 0,0 l/m 5,2 km/h (1 Bft) W-SW 257 1 min 0,000 mm 0,7 UV-I 314 W/m 9,9 C 23,2 C 6,4 km/h (2 Bft) 95,65 %
07.07.2018 18:46 23,2 C 23,9 C 43 % 1018,0 hPa 0,0 l/m 10,7 km/h (2 Bft) W 263 1 min 0,000 mm 0,6 UV-I 313 W/m 9,9 C 22,0 C 14,5 km/h (3 Bft) 100,00 %
07.07.2018 18:48 23,2 C 23,9 C 44 % 1018,0 hPa 0,0 l/m 7,4 km/h (2 Bft) NW 325 0 min 0,000 mm 0,6 UV-I 148 W/m 10,3 C 22,9 C 14,5 km/h (3 Bft) 94,92 %
07.07.2018 18:49 23,2 C 23,9 C 43 % 1018,0 hPa 0,0 l/m 7,6 km/h (2 Bft) W 269 0 min 0,000 mm 0,6 UV-I 121 W/m 9,9 C 22,8 C 11,3 km/h (2 Bft) 91,67 %
07.07.2018 18:50 23,1 C 23,9 C 43 % 1018,0 hPa 0,0 l/m 7,2 km/h (2 Bft) NW 317 0 min 0,000 mm 0,6 UV-I 121 W/m 9,8 C 22,8 C 11,3 km/h (2 Bft) 95,65 %
07.07.2018 18:51 23,0 C 23,9 C 43 % 1018,0 hPa 0,0 l/m 7,3 km/h (2 Bft) NW 305 0 min 0,000 mm 0,6 UV-I 117 W/m 9,7 C 22,7 C 11,3 km/h (2 Bft) 95,83 %
07.07.2018 18:52 22,9 C 23,9 C 45 % 1018,0 hPa 0,0 l/m 4,4 km/h (1 Bft) N-NW 334 0 min 0,000 mm 0,6 UV-I 169 W/m 10,3 C 22,9 C 8,0 km/h (2 Bft) 100,00 %
07.07.2018 18:53 23,0 C 23,9 C 44 % 1018,0 hPa 0,0 l/m 4,3 km/h (1 Bft) NW 304 1 min 0,000 mm 0,6 UV-I 193 W/m 10,1 C 23,0 C 12,9 km/h (3 Bft) 96,30 %
07.07.2018 18:54 23,0 C 23,9 C 46 % 1018,0 hPa 0,0 l/m 5,3 km/h (1 Bft) W 263 1 min 0,000 mm 0,6 UV-I 284 W/m 10,7 C 23,0 C 8,0 km/h (2 Bft) 100,00 %
07.07.2018 18:55 23,1 C 23,9 C 45 % 1018,0 hPa 0,0 l/m 7,1 km/h (2 Bft) W-NW 294 1 min 0,000 mm 0,6 UV-I 262 W/m 10,5 C 22,9 C 12,9 km/h (3 Bft) 95,83 %
07.07.2018 18:56 23,2 C 23,9 C 45 % 1017,9 hPa 0,0 l/m 12,5 km/h (3 Bft) W-NW 290 1 min 0,000 mm 0,6 UV-I 250 W/m 10,6 C 21,6 C 19,3 km/h (3 Bft) 91,30 %
07.07.2018 18:58 23,2 C 23,9 C 45 % 1018,0 hPa 0,0 l/m 9,8 km/h (2 Bft) S-SW 205 2 min 0,000 mm 0,5 UV-I 202 W/m 10,6 C 22,2 C 20,9 km/h (4 Bft) 97,87 %
07.07.2018 18:59 23,1 C 23,9 C 44 % 1018,0 hPa 0,0 l/m 3,1 km/h (1 Bft) NW 309 0 min 0,000 mm 0,5 UV-I 90 W/m 10,2 C 23,1 C 4,8 km/h (1 Bft) 100,00 %
07.07.2018 19:00 23,1 C 23,9 C 45 % 1018,0 hPa 0,0 l/m 8,2 km/h (2 Bft) N-NO 33 0 min 0,228 mm 0,5 UV-I 115 W/m 10,5 C 22,5 C 12,9 km/h (3 Bft) 95,65 %
07.07.2018 19:02 23,0 C 23,9 C 44 % 1018,0 hPa 0,0 l/m 6,2 km/h (2 Bft) W-NW 285 2 min 0,000 mm 0,5 UV-I 242 W/m 10,1 C 23,0 C 12,9 km/h (3 Bft) 98,00 %
07.07.2018 19:03 23,1 C 23,9 C 45 % 1018,0 hPa 0,0 l/m 6,3 km/h (2 Bft) W-SW 250 1 min 0,000 mm 0,5 UV-I 242 W/m 10,5 C 23,1 C 19,3 km/h (3 Bft) 95,83 %
07.07.2018 19:04 23,1 C 23,9 C 43 % 1017,9 hPa 0,0 l/m 7,2 km/h (2 Bft) W-SW 239 1 min 0,000 mm 0,5 UV-I 240 W/m 9,8 C 22,8 C 17,7 km/h (3 Bft) 95,65 %
07.07.2018 19:05 23,1 C 23,9 C 43 % 1018,0 hPa 0,0 l/m 7,7 km/h (2 Bft) SW 214 1 min 0,000 mm 0,5 UV-I 236 W/m 9,8 C 22,7 C 11,3 km/h (2 Bft) 95,83 %
07.07.2018 19:06 23,1 C 23,9 C 43 % 1018,0 hPa 0,0 l/m 4,5 km/h (1 Bft) SW 217 1 min 0,000 mm 0,5 UV-I 231 W/m 9,8 C 23,1 C 6,4 km/h (2 Bft) 100,00 %
07.07.2018 19:08 23,2 C 23,9 C 45 % 1018,0 hPa 0,0 l/m 7,7 km/h (2 Bft) W-SW 256 2 min 0,000 mm 0,5 UV-I 224 W/m 10,6 C 22,8 C 12,9 km/h (3 Bft) 95,83 %
07.07.2018 19:09 23,3 C 23,9 C 43 % 1018,0 hPa 0,0 l/m 7,5 km/h (2 Bft) NW 311 1 min 0,000 mm 0,5 UV-I 220 W/m 10,0 C 23,0 C 14,5 km/h (3 Bft) 95,65 %
07.07.2018 19:10 23,3 C 23,9 C 44 % 1018,0 hPa 0,0 l/m 8,3 km/h (2 Bft) W-NW 293 1 min 0,000 mm 0,2 UV-I 218 W/m 10,4 C 22,7 C 14,5 km/h (3 Bft) 95,83 %
07.07.2018 19:11 23,3 C 23,9 C 43 % 1017,9 hPa 0,0 l/m 12,4 km/h (3 Bft) W 260 1 min 0,000 mm 0,0 UV-I 214 W/m 10,0 C 21,7 C 17,7 km/h (3 Bft) 100,00 %
07.07.2018 19:12 23,2 C 23,9 C 43 % 1018,0 hPa 0,0 l/m 6,5 km/h (2 Bft) W 261 1 min 0,000 mm 0,0 UV-I 210 W/m 9,9 C 23,2 C 12,9 km/h (3 Bft) 95,83 %
07.07.2018 19:13 23,2 C 23,9 C 43 % 1018,0 hPa 0,0 l/m 4,6 km/h (1 Bft) N 5 1 min 0,000 mm 0,0 UV-I 203 W/m 9,9 C 23,2 C 8,0 km/h (2 Bft) 100,00 %
07.07.2018 19:14 23,2 C 23,9 C 45 % 1018,0 hPa 0,0 l/m 4,7 km/h (1 Bft) W-SW 257 1 min 0,000 mm 0,0 UV-I 201 W/m 10,6 C 23,2 C 6,4 km/h (2 Bft) 95,83 %
07.07.2018 19:15 23,2 C 23,9 C 44 % 1018,0 hPa 0,0 l/m 4,6 km/h (1 Bft) NW 323 1 min 0,000 mm 0,0 UV-I 200 W/m 10,3 C 23,2 C 9,7 km/h (2 Bft) 100,00 %
07.07.2018 19:16 23,2 C 23,9 C 43 % 1017,9 hPa 0,0 l/m 4,6 km/h (1 Bft) W-NW 290 1 min 0,000 mm 0,0 UV-I 196 W/m 9,9 C 23,2 C 11,3 km/h (2 Bft) 100,00 %
07.07.2018 19:17 23,2 C 23,9 C 44 % 1018,0 hPa 0,0 l/m 5,2 km/h (1 Bft) W-SW 255 1 min 0,000 mm 0,0 UV-I 192 W/m 10,3 C 23,2 C 8,0 km/h (2 Bft) 100,00 %
07.07.2018 19:18 23,2 C 23,9 C 43 % 1017,9 hPa 0,0 l/m 6,8 km/h (2 Bft) W 273 1 min 0,000 mm 0,0 UV-I 188 W/m 9,9 C 23,1 C 14,5 km/h (3 Bft) 100,00 %
07.07.2018 19:19 23,2 C 23,9 C 43 % 1017,9 hPa 0,0 l/m 4,7 km/h (1 Bft) W-NW 288 1 min 0,000 mm 0,0 UV-I 187 W/m 9,9 C 23,2 C 11,3 km/h (2 Bft) 100,00 %
07.07.2018 19:20 23,2 C 23,9 C 43 % 1017,9 hPa 0,0 l/m 3,8 km/h (1 Bft) W-SW 245 1 min 0,000 mm 0,0 UV-I 184 W/m 9,9 C 23,2 C 6,4 km/h (2 Bft) 91,30 %
07.07.2018 19:21 23,2 C 23,9 C 43 % 1017,9 hPa 0,0 l/m 4,7 km/h (1 Bft) W-NW 295 1 min 0,000 mm 0,0 UV-I 182 W/m 9,9 C 23,2 C 8,0 km/h (2 Bft) 100,00 %
07.07.2018 19:22 23,2 C 23,9 C 43 % 1017,9 hPa 0,0 l/m 6,6 km/h (2 Bft) W-SW 253 1 min 0,000 mm 0,0 UV-I 179 W/m 9,9 C 23,1 C 9,7 km/h (2 Bft) 96,15 %
07.07.2018 19:23 23,2 C 23,9 C 43 % 1017,9 hPa 0,0 l/m 6,6 km/h (2 Bft) W-SW 244 1 min 0,000 mm 0,0 UV-I 176 W/m 9,9 C 23,1 C 11,3 km/h (2 Bft) 100,00 %
07.07.2018 19:24 23,2 C 23,9 C 44 % 1017,9 hPa 0,0 l/m 4,9 km/h (1 Bft) W-SW 238 1 min 0,000 mm 0,0 UV-I 175 W/m 10,3 C 23,2 C 6,4 km/h (2 Bft) 95,65 %
07.07.2018 19:25 23,2 C 23,9 C 43 % 1017,9 hPa 0,0 l/m 10,8 km/h (2 Bft) W-NW 299 1 min 0,000 mm 0,0 UV-I 172 W/m 9,9 C 22,0 C 20,9 km/h (4 Bft) 95,83 %
07.07.2018 19:26 23,2 C 23,9 C 42 % 1017,9 hPa 0,0 l/m 9,7 km/h (2 Bft) W 269 1 min 0,000 mm 0,0 UV-I 169 W/m 9,6 C 22,3 C 16,1 km/h (3 Bft) 100,00 %
07.07.2018 19:27 23,2 C 23,9 C 43 % 1017,9 hPa 0,0 l/m 9,9 km/h (2 Bft) W-NW 290 1 min 0,000 mm 0,0 UV-I 166 W/m 9,9 C 22,2 C 17,7 km/h (3 Bft) 100,00 %
07.07.2018 19:28 23,2 C 23,9 C 42 % 1017,8 hPa 0,0 l/m 16,6 km/h (3 Bft) W-SW 248 1 min 0,000 mm 0,0 UV-I 165 W/m 9,6 C 20,9 C 22,5 km/h (4 Bft) 100,00 %
07.07.2018 19:29 23,1 C 23,9 C 42 % 1017,9 hPa 0,0 l/m 10,9 km/h (2 Bft) W-SW 248 1 min 0,000 mm 0,0 UV-I 162 W/m 9,5 C 21,8 C 19,3 km/h (3 Bft) 100,00 %
07.07.2018 19:30 23,1 C 23,9 C 41 % 1017,9 hPa 0,0 l/m 8,8 km/h (2 Bft) W-SW 251 1 min 0,000 mm 0,0 UV-I 161 W/m 9,1 C 22,4 C 16,1 km/h (3 Bft) 95,65 %
07.07.2018 19:31 23,1 C 23,9 C 42 % 1017,9 hPa 0,0 l/m 11,0 km/h (2 Bft) W-SW 258 1 min 0,000 mm 0,0 UV-I 157 W/m 9,5 C 21,8 C 16,1 km/h (3 Bft) 100,00 %
07.07.2018 19:32 23,1 C 23,9 C 42 % 1017,9 hPa 0,0 l/m 10,5 km/h (2 Bft) W-NW 284 1 min 0,000 mm 0,0 UV-I 154 W/m 9,5 C 21,9 C 14,5 km/h (3 Bft) 100,00 %
07.07.2018 19:33 23,1 C 23,9 C 43 % 1017,9 hPa 0,0 l/m 6,1 km/h (2 Bft) W 265 1 min 0,000 mm 0,0 UV-I 152 W/m 9,8 C 23,1 C 12,9 km/h (3 Bft) 100,00 %
07.07.2018 19:34 23,1 C 23,9 C 43 % 1017,9 hPa 0,0 l/m 4,4 km/h (1 Bft) W 272 1 min 0,000 mm 0,0 UV-I 146 W/m 9,8 C 23,1 C 6,4 km/h (2 Bft) 100,00 %
07.07.2018 19:35 23,1 C 23,9 C 43 % 1017,9 hPa 0,0 l/m 6,0 km/h (2 Bft) W-NW 301 1 min 0,000 mm 0,0 UV-I 129 W/m 9,8 C 23,1 C 11,3 km/h (2 Bft) 100,00 %
07.07.2018 19:36 23,1 C 23,9 C 43 % 1017,9 hPa 0,0 l/m 3,4 km/h (1 Bft) NW 312 1 min 0,000 mm 0,0 UV-I 126 W/m 9,8 C 23,1 C 8,0 km/h (2 Bft) 96,15 %
07.07.2018 19:37 23,1 C 23,9 C 44 % 1017,9 hPa 0,0 l/m 1,4 km/h (1 Bft) SW 226 1 min 0,000 mm 0,0 UV-I 130 W/m 10,2 C 23,1 C 8,0 km/h (2 Bft) 100,00 %
07.07.2018 19:38 23,0 C 23,9 C 43 % 1017,9 hPa 0,0 l/m 3,8 km/h (1 Bft) SW 226 1 min 0,000 mm 0,0 UV-I 138 W/m 9,7 C 23,0 C 6,4 km/h (2 Bft) 100,00 %
07.07.2018 19:39 22,9 C 23,9 C 44 % 1017,9 hPa 0,0 l/m 6,8 km/h (2 Bft) W 279 1 min 0,000 mm 0,0 UV-I 140 W/m 10,0 C 22,8 C 12,9 km/h (3 Bft) 100,00 %
07.07.2018 19:40 22,9 C 23,9 C 43 % 1017,9 hPa 0,0 l/m 7,1 km/h (2 Bft) W-NW 286 1 min 0,000 mm 0,0 UV-I 137 W/m 9,6 C 22,7 C 11,3 km/h (2 Bft) 100,00 %
07.07.2018 19:41 22,9 C 23,9 C 43 % 1017,9 hPa 0,0 l/m 5,0 km/h (1 Bft) W 263 1 min 0,000 mm 0,0 UV-I 134 W/m 9,6 C 22,9 C 9,7 km/h (2 Bft) 100,00 %
07.07.2018 19:43 22,9 C 23,9 C 43 % 1017,9 hPa 0,0 l/m 5,5 km/h (1 Bft) W 263 2 min 0,000 mm 0,0 UV-I 130 W/m 9,6 C 22,9 C 12,9 km/h (3 Bft) 100,00 %
07.07.2018 19:44 22,9 C 23,9 C 44 % 1017,9 hPa 0,0 l/m 6,2 km/h (2 Bft) W-SW 258 1 min 0,000 mm 0,0 UV-I 128 W/m 10,0 C 22,9 C 9,7 km/h (2 Bft) 100,00 %
07.07.2018 19:45 22,9 C 23,9 C 43 % 1017,9 hPa 0,0 l/m 5,9 km/h (2 Bft) W-NW 301 1 min 0,000 mm 0,0 UV-I 124 W/m 9,6 C 22,9 C 9,7 km/h (2 Bft) 100,00 %
07.07.2018 19:46 22,9 C 23,9 C 43 % 1017,9 hPa 0,0 l/m 7,8 km/h (2 Bft) W-NW 290 0 min 0,000 mm 0,0 UV-I 90 W/m 9,6 C 22,5 C 14,5 km/h (3 Bft) 100,00 %
07.07.2018 19:47 22,9 C 23,9 C 42 % 1017,9 hPa 0,0 l/m 5,2 km/h (1 Bft) W-NW 291 0 min 0,000 mm 0,0 UV-I 62 W/m 9,3 C 22,9 C 6,4 km/h (2 Bft) 100,00 %
07.07.2018 19:48 22,8 C 23,9 C 44 % 1017,9 hPa 0,0 l/m 4,0 km/h (1 Bft) W-SW 246 0 min 0,000 mm 0,0 UV-I 46 W/m 9,9 C 22,8 C 6,4 km/h (2 Bft) 100,00 %
07.07.2018 19:49 22,8 C 23,9 C 43 % 1017,9 hPa 0,0 l/m 5,4 km/h (1 Bft) W-NW 301 0 min 0,000 mm 0,0 UV-I 41 W/m 9,6 C 22,8 C 8,0 km/h (2 Bft) 100,00 %
07.07.2018 19:50 22,7 C 23,9 C 44 % 1017,9 hPa 0,0 l/m 5,9 km/h (2 Bft) W 275 0 min 0,000 mm 0,0 UV-I 37 W/m 9,8 C 22,7 C 8,0 km/h (2 Bft) 100,00 %
07.07.2018 19:51 22,6 C 23,9 C 44 % 1017,9 hPa 0,0 l/m 6,2 km/h (2 Bft) W 279 0 min 0,000 mm 0,0 UV-I 34 W/m 9,7 C 22,6 C 9,7 km/h (2 Bft) 100,00 %
07.07.2018 19:53 22,4 C 23,9 C 44 % 1017,9 hPa 0,0 l/m 2,5 km/h (1 Bft) W-NW 289 0 min 0,000 mm 0,0 UV-I 31 W/m 9,5 C 22,4 C 4,8 km/h (1 Bft) 100,00 %
07.07.2018 19:54 22,4 C 23,9 C 45 % 1017,9 hPa 0,0 l/m 0,4 km/h (0 Bft) W-NW 289 0 min 0,000 mm 0,0 UV-I 27 W/m 9,9 C 22,4 C 1,6 km/h (1 Bft) 100,00 %
07.07.2018 19:55 22,3 C 23,9 C 45 % 1017,9 hPa 0,0 l/m 2,1 km/h (1 Bft) W 267 0 min 0,000 mm 0,0 UV-I 26 W/m 9,8 C 22,3 C 3,2 km/h (1 Bft) 100,00 %
07.07.2018 19:56 22,2 C 23,9 C 44 % 1017,9 hPa 0,0 l/m 3,9 km/h (1 Bft) W-SW 254 0 min 0,000 mm 0,0 UV-I 25 W/m 9,4 C 22,2 C 6,4 km/h (2 Bft) 100,00 %
07.07.2018 19:57 22,1 C 23,9 C 45 % 1018,0 hPa 0,0 l/m 3,0 km/h (1 Bft) W-SW 252 0 min 0,000 mm 0,0 UV-I 25 W/m 9,6 C 22,1 C 4,8 km/h (1 Bft) 100,00 %
07.07.2018 19:58 22,0 C 23,9 C 45 % 1018,0 hPa 0,0 l/m 4,1 km/h (1 Bft) W-SW 252 0 min 0,000 mm 0,0 UV-I 25 W/m 9,5 C 22,0 C 6,4 km/h (2 Bft) 100,00 %
07.07.2018 19:59 22,0 C 23,9 C 45 % 1018,0 hPa 0,0 l/m 3,6 km/h (1 Bft) W-NW 286 0 min 0,000 mm 0,0 UV-I 25 W/m 9,5 C 22,0 C 9,7 km/h (2 Bft) 100,00 %
07.07.2018 20:00 21,9 C 23,9 C 45 % 1018,0 hPa 0,0 l/m 6,4 km/h (2 Bft) W 278 0 min 0,153 mm 0,0 UV-I 25 W/m 9,4 C 21,9 C 12,9 km/h (3 Bft) 95,83 %
07.07.2018 20:02 21,9 C 23,9 C 46 % 1018,0 hPa 0,0 l/m 4,6 km/h (1 Bft) W 264 0 min 0,000 mm 0,0 UV-I 25 W/m 9,7 C 21,9 C 9,7 km/h (2 Bft) 100,00 %
07.07.2018 20:03 21,8 C 23,9 C 46 % 1018,0 hPa 0,0 l/m 2,5 km/h (1 Bft) W 267 0 min 0,000 mm 0,0 UV-I 25 W/m 9,7 C 21,8 C 3,2 km/h (1 Bft) 100,00 %
07.07.2018 20:04 21,8 C 23,9 C 46 % 1018,0 hPa 0,0 l/m 4,4 km/h (1 Bft) W 266 0 min 0,000 mm 0,0 UV-I 25 W/m 9,7 C 21,8 C 6,4 km/h (2 Bft) 100,00 %
07.07.2018 20:05 21,8 C 23,9 C 46 % 1018,0 hPa 0,0 l/m 5,0 km/h (1 Bft) W 277 0 min 0,000 mm 0,0 UV-I 25 W/m 9,7 C 21,8 C 6,4 km/h (2 Bft) 100,00 %
07.07.2018 20:06 21,7 C 23,9 C 45 % 1018,0 hPa 0,0 l/m 3,9 km/h (1 Bft) W 262 0 min 0,000 mm 0,0 UV-I 25 W/m 9,2 C 21,7 C 9,7 km/h (2 Bft) 100,00 %
07.07.2018 20:07 21,7 C 23,9 C 46 % 1018,0 hPa 0,0 l/m 5,6 km/h (1 Bft) W 265 0 min 0,000 mm 0,0 UV-I 25 W/m 9,6 C 21,7 C 9,7 km/h (2 Bft) 100,00 %
07.07.2018 20:08 21,7 C 23,9 C 47 % 1018,0 hPa 0,0 l/m 7,2 km/h (2 Bft) W 265 0 min 0,000 mm 0,0 UV-I 25 W/m 9,9 C 21,4 C 9,7 km/h (2 Bft) 100,00 %
07.07.2018 20:09 21,6 C 23,9 C 46 % 1018,0 hPa 0,0 l/m 5,5 km/h (1 Bft) W-NW 286 0 min 0,000 mm 0,0 UV-I 26 W/m 9,5 C 21,6 C 9,7 km/h (2 Bft) 100,00 %
07.07.2018 20:10 21,6 C 23,9 C 46 % 1017,9 hPa 0,0 l/m 4,2 km/h (1 Bft) W 278 0 min 0,000 mm 0,0 UV-I 31 W/m 9,5 C 21,6 C 6,4 km/h (2 Bft) 95,65 %
07.07.2018 20:11 21,6 C 23,9 C 46 % 1017,9 hPa 0,0 l/m 5,2 km/h (1 Bft) W 266 0 min 0,000 mm 0,0 UV-I 44 W/m 9,5 C 21,6 C 6,4 km/h (2 Bft) 100,00 %
07.07.2018 20:12 21,6 C 23,9 C 46 % 1018,0 hPa 0,0 l/m 5,8 km/h (2 Bft) W 273 0 min 0,000 mm 0,0 UV-I 57 W/m 9,5 C 21,6 C 8,0 km/h (2 Bft) 95,65 %
07.07.2018 20:13 21,6 C 23,9 C 47 % 1017,9 hPa 0,0 l/m 4,2 km/h (1 Bft) W-SW 252 0 min 0,000 mm 0,0 UV-I 59 W/m 9,8 C 21,6 C 4,8 km/h (1 Bft) 100,00 %
07.07.2018 20:14 21,7 C 23,9 C 46 % 1017,9 hPa 0,0 l/m 5,5 km/h (1 Bft) W 259 1 min 0,000 mm 0,0 UV-I 63 W/m 9,6 C 21,7 C 9,7 km/h (2 Bft) 96,30 %
07.07.2018 20:15 21,7 C 23,9 C 47 % 1017,9 hPa 0,0 l/m 4,2 km/h (1 Bft) W 261 1 min 0,000 mm 0,0 UV-I 65 W/m 9,9 C 21,7 C 6,4 km/h (2 Bft) 95,65 %
07.07.2018 20:16 21,7 C 23,9 C 46 % 1018,0 hPa 0,0 l/m 4,6 km/h (1 Bft) W-SW 250 1 min 0,000 mm 0,0 UV-I 63 W/m 9,6 C 21,7 C 6,4 km/h (2 Bft) 95,83 %
07.07.2018 20:17 21,7 C 23,9 C 46 % 1017,9 hPa 0,0 l/m 4,7 km/h (1 Bft) W-SW 257 1 min 0,000 mm 0,0 UV-I 63 W/m 9,6 C 21,7 C 4,8 km/h (1 Bft) 96,15 %
07.07.2018 20:18 21,7 C 23,9 C 46 % 1017,9 hPa 0,0 l/m 5,0 km/h (1 Bft) W-SW 254 0 min 0,000 mm 0,0 UV-I 54 W/m 9,6 C 21,7 C 8,0 km/h (2 Bft) 96,15 %
07.07.2018 20:19 21,7 C 23,9 C 47 % 1017,9 hPa 0,0 l/m 4,0 km/h (1 Bft) W 269 0 min 0,000 mm 0,0 UV-I 48 W/m 9,9 C 21,7 C 6,4 km/h (2 Bft) 100,00 %
07.07.2018 20:20 21,7 C 23,9 C 47 % 1017,9 hPa 0,0 l/m 4,7 km/h (1 Bft) W-SW 254 1 min 0,000 mm 0,0 UV-I 57 W/m 9,9 C 21,7 C 6,4 km/h (2 Bft) 95,83 %
07.07.2018 20:21 21,7 C 23,9 C 46 % 1017,9 hPa 0,0 l/m 4,7 km/h (1 Bft) W 269 1 min 0,000 mm 0,0 UV-I 60 W/m 9,6 C 21,7 C 6,4 km/h (2 Bft) 92,86 %
07.07.2018 20:22 21,7 C 23,9 C 46 % 1017,9 hPa 0,0 l/m 5,4 km/h (1 Bft) W 270 1 min 0,000 mm 0,0 UV-I 60 W/m 9,6 C 21,7 C 9,7 km/h (2 Bft) 95,83 %
07.07.2018 20:23 21,7 C 23,9 C 47 % 1017,9 hPa 0,0 l/m 4,8 km/h (1 Bft) W-SW 258 1 min 0,000 mm 0,0 UV-I 60 W/m 9,9 C 21,7 C 9,7 km/h (2 Bft) 100,00 %
07.07.2018 20:24 21,6 C 23,9 C 47 % 1017,9 hPa 0,0 l/m 4,8 km/h (1 Bft) W-SW 257 1 min 0,000 mm 0,0 UV-I 59 W/m 9,8 C 21,6 C 6,4 km/h (2 Bft) 95,83 %
07.07.2018 20:25 21,6 C 23,9 C 47 % 1017,9 hPa 0,0 l/m 5,0 km/h (1 Bft) W-SW 254 1 min 0,000 mm 0,0 UV-I 58 W/m 9,8 C 21,6 C 6,4 km/h (2 Bft) 100,00 %
07.07.2018 20:26 21,5 C 23,9 C 47 % 1017,9 hPa 0,0 l/m 6,2 km/h (2 Bft) W-SW 251 1 min 0,000 mm 0,0 UV-I 56 W/m 9,7 C 21,5 C 8,0 km/h (2 Bft) 95,83 %
07.07.2018 20:27 21,5 C 23,9 C 47 % 1017,9 hPa 0,0 l/m 5,3 km/h (1 Bft) W 261 1 min 0,000 mm 0,0 UV-I 54 W/m 9,7 C 21,5 C 8,0 km/h (2 Bft) 91,30 %
07.07.2018 20:28 21,4 C 23,9 C 48 % 1017,9 hPa 0,0 l/m 4,4 km/h (1 Bft) W-SW 258 1 min 0,000 mm 0,0 UV-I 54 W/m 9,9 C 21,4 C 6,4 km/h (2 Bft) 100,00 %
07.07.2018 20:29 21,4 C 23,9 C 47 % 1017,9 hPa 0,0 l/m 5,0 km/h (1 Bft) W-SW 258 1 min 0,000 mm 0,0 UV-I 53 W/m 9,6 C 21,4 C 6,4 km/h (2 Bft) 95,65 %
07.07.2018 20:30 21,3 C 23,9 C 48 % 1017,9 hPa 0,0 l/m 4,0 km/h (1 Bft) W-SW 248 1 min 0,000 mm 0,0 UV-I 52 W/m 9,8 C 21,3 C 4,8 km/h (1 Bft) 100,00 %
07.07.2018 20:31 21,3 C 23,9 C 49 % 1017,9 hPa 0,0 l/m 4,8 km/h (1 Bft) SW 235 1 min 0,000 mm 0,0 UV-I 50 W/m 10,1 C 21,3 C 8,0 km/h (2 Bft) 95,83 %
07.07.2018 20:32 21,2 C 23,9 C 50 % 1017,9 hPa 0,0 l/m 5,2 km/h (1 Bft) W-SW 239 1 min 0,000 mm 0,0 UV-I 49 W/m 10,4 C 21,2 C 6,4 km/h (2 Bft) 100,00 %
07.07.2018 20:33 21,2 C 23,9 C 50 % 1017,9 hPa 0,0 l/m 6,3 km/h (2 Bft) W-SW 241 1 min 0,000 mm 0,0 UV-I 47 W/m 10,4 C 21,2 C 8,0 km/h (2 Bft) 96,15 %
07.07.2018 20:34 21,1 C 23,9 C 50 % 1017,9 hPa 0,0 l/m 5,6 km/h (1 Bft) SW 233 1 min 0,000 mm 0,0 UV-I 47 W/m 10,3 C 21,1 C 8,0 km/h (2 Bft) 95,83 %
07.07.2018 20:35 21,0 C 23,9 C 50 % 1017,9 hPa 0,0 l/m 4,6 km/h (1 Bft) W-SW 246 1 min 0,000 mm 0,0 UV-I 45 W/m 10,2 C 21,0 C 6,4 km/h (2 Bft) 95,83 %
07.07.2018 20:36 20,9 C 23,9 C 52 % 1017,9 hPa 0,0 l/m 6,4 km/h (2 Bft) SW 229 1 min 0,000 mm 0,0 UV-I 43 W/m 10,7 C 20,9 C 8,0 km/h (2 Bft) 95,65 %
07.07.2018 20:37 20,9 C 23,9 C 51 % 1017,9 hPa 0,0 l/m 6,4 km/h (2 Bft) SW 232 1 min 0,000 mm 0,0 UV-I 41 W/m 10,4 C 20,9 C 8,0 km/h (2 Bft) 100,00 %
07.07.2018 20:38 20,9 C 23,9 C 50 % 1018,0 hPa 0,0 l/m 5,3 km/h (1 Bft) W-SW 240 1 min 0,000 mm 0,0 UV-I 39 W/m 10,1 C 20,9 C 6,4 km/h (2 Bft) 91,30 %
07.07.2018 20:39 20,9 C 23,9 C 50 % 1017,9 hPa 0,0 l/m 5,6 km/h (1 Bft) W-SW 242 1 min 0,000 mm 0,0 UV-I 37 W/m 10,1 C 20,9 C 6,4 km/h (2 Bft) 100,00 %
07.07.2018 20:40 20,9 C 23,9 C 51 % 1017,9 hPa 0,0 l/m 5,2 km/h (1 Bft) SW 236 1 min 0,000 mm 0,0 UV-I 37 W/m 10,4 C 20,9 C 6,4 km/h (2 Bft) 86,96 %
07.07.2018 20:41 20,9 C 23,9 C 51 % 1017,9 hPa 0,0 l/m 6,3 km/h (2 Bft) SW 234 1 min 0,000 mm 0,0 UV-I 34 W/m 10,4 C 20,9 C 8,0 km/h (2 Bft) 95,83 %
07.07.2018 20:42 20,8 C 23,9 C 52 % 1017,9 hPa 0,0 l/m 4,9 km/h (1 Bft) SW 232 1 min 0,000 mm 0,0 UV-I 33 W/m 10,6 C 20,8 C 6,4 km/h (2 Bft) 91,30 %
07.07.2018 20:43 20,8 C 23,9 C 52 % 1017,9 hPa 0,0 l/m 5,6 km/h (1 Bft) SW 223 1 min 0,000 mm 0,0 UV-I 33 W/m 10,6 C 20,8 C 8,0 km/h (2 Bft) 95,83 %
07.07.2018 20:44 20,7 C 23,9 C 52 % 1017,9 hPa 0,0 l/m 6,0 km/h (2 Bft) SW 229 1 min 0,000 mm 0,0 UV-I 33 W/m 10,5 C 20,7 C 8,0 km/h (2 Bft) 88,46 %
07.07.2018 20:45 20,6 C 23,9 C 53 % 1018,0 hPa 0,0 l/m 5,1 km/h (1 Bft) SW 236 1 min 0,000 mm 0,0 UV-I 32 W/m 10,7 C 20,6 C 6,4 km/h (2 Bft) 91,67 %
07.07.2018 20:46 20,5 C 23,9 C 54 % 1017,9 hPa 0,0 l/m 6,4 km/h (2 Bft) SW 223 1 min 0,000 mm 0,0 UV-I 30 W/m 10,9 C 20,5 C 8,0 km/h (2 Bft) 100,00 %
07.07.2018 20:47 20,4 C 23,9 C 54 % 1017,9 hPa 0,0 l/m 5,8 km/h (2 Bft) SW 217 1 min 0,000 mm 0,0 UV-I 30 W/m 10,8 C 20,4 C 6,4 km/h (2 Bft) 96,30 %
07.07.2018 20:48 20,3 C 23,9 C 54 % 1017,9 hPa 0,0 l/m 5,9 km/h (2 Bft) SW 214 1 min 0,000 mm 0,0 UV-I 30 W/m 10,7 C 20,3 C 8,0 km/h (2 Bft) 95,65 %
07.07.2018 20:49 20,2 C 23,9 C 55 % 1017,9 hPa 0,0 l/m 7,2 km/h (2 Bft) SW 226 1 min 0,000 mm 0,0 UV-I 30 W/m 10,9 C 19,9 C 9,7 km/h (2 Bft) 91,67 %
07.07.2018 20:50 20,2 C 23,9 C 54 % 1017,9 hPa 0,0 l/m 7,1 km/h (2 Bft) SW 234 1 min 0,000 mm 0,0 UV-I 21 W/m 10,6 C 19,9 C 9,7 km/h (2 Bft) 100,00 %
07.07.2018 20:51 20,2 C 23,9 C 54 % 1017,9 hPa 0,0 l/m 6,1 km/h (2 Bft) SW 215 1 min 0,000 mm 0,0 UV-I 18 W/m 10,6 C 20,2 C 8,0 km/h (2 Bft) 91,67 %
07.07.2018 20:52 20,2 C 23,9 C 55 % 1017,9 hPa 0,0 l/m 6,3 km/h (2 Bft) SW 228 1 min 0,000 mm 0,0 UV-I 16 W/m 10,9 C 20,2 C 8,0 km/h (2 Bft) 100,00 %
07.07.2018 20:53 20,1 C 23,9 C 54 % 1017,9 hPa 0,0 l/m 6,1 km/h (2 Bft) SW 221 0 min 0,000 mm 0,0 UV-I 14 W/m 10,5 C 20,1 C 8,0 km/h (2 Bft) 91,67 %
07.07.2018 20:54 20,1 C 23,9 C 55 % 1017,9 hPa 0,0 l/m 6,9 km/h (2 Bft) SW 224 0 min 0,000 mm 0,0 UV-I 11 W/m 10,8 C 19,9 C 9,7 km/h (2 Bft) 100,00 %
07.07.2018 20:55 20,1 C 23,9 C 55 % 1017,9 hPa 0,0 l/m 6,3 km/h (2 Bft) SW 224 0 min 0,000 mm 0,0 UV-I 9 W/m 10,8 C 20,1 C 8,0 km/h (2 Bft) 86,67 %
07.07.2018 20:56 20,1 C 23,9 C 55 % 1017,9 hPa 0,0 l/m 6,2 km/h (2 Bft) SW 234 0 min 0,000 mm 0,0 UV-I 7 W/m 10,8 C 20,1 C 8,0 km/h (2 Bft) 95,83 %
07.07.2018 20:57 20,1 C 23,9 C 56 % 1017,9 hPa 0,0 l/m 5,9 km/h (2 Bft) SW 219 0 min 0,000 mm 0,0 UV-I 4 W/m 11,0 C 20,1 C 6,4 km/h (2 Bft) 95,65 %
07.07.2018 20:58 20,0 C 23,9 C 57 % 1017,9 hPa 0,0 l/m 6,4 km/h (2 Bft) SW 219 0 min 0,000 mm 0,0 UV-I 2 W/m 11,2 C 20,0 C 8,0 km/h (2 Bft) 95,83 %
07.07.2018 20:59 19,9 C 23,9 C 58 % 1017,9 hPa 0,0 l/m 6,2 km/h (2 Bft) SW 216 0 min 0,000 mm 0,0 UV-I 0 W/m 11,4 C 19,9 C 8,0 km/h (2 Bft) 95,65 %
07.07.2018 21:00 19,8 C 23,9 C 59 % 1017,9 hPa 0,0 l/m 6,4 km/h (2 Bft) SW 216 0 min 0,000 mm 0,0 UV-I 0 W/m 11,6 C 19,8 C 8,0 km/h (2 Bft) 91,67 %
07.07.2018 21:02 19,7 C 23,9 C 59 % 1017,9 hPa 0,0 l/m 5,7 km/h (1 Bft) SW 217 0 min 0,076 mm 0,0 UV-I 19 W/m 11,5 C 19,7 C 6,4 km/h (2 Bft) 93,62 %
07.07.2018 21:03 19,6 C 23,9 C 60 % 1017,9 hPa 0,0 l/m 6,2 km/h (2 Bft) SW 221 0 min 0,000 mm 0,0 UV-I 18 W/m 11,6 C 19,6 C 8,0 km/h (2 Bft) 100,00 %
07.07.2018 21:04 19,6 C 23,9 C 60 % 1017,9 hPa 0,0 l/m 6,9 km/h (2 Bft) S-SW 213 0 min 0,000 mm 0,0 UV-I 17 W/m 11,6 C 19,4 C 8,0 km/h (2 Bft) 91,67 %
07.07.2018 21:05 19,6 C 23,9 C 59 % 1017,9 hPa 0,0 l/m 6,2 km/h (2 Bft) SW 219 0 min 0,000 mm 0,0 UV-I 16 W/m 11,4 C 19,6 C 8,0 km/h (2 Bft) 100,00 %
07.07.2018 21:06 19,5 C 23,9 C 60 % 1017,9 hPa 0,0 l/m 5,6 km/h (1 Bft) SW 223 0 min 0,000 mm 0,0 UV-I 15 W/m 11,5 C 19,5 C 8,0 km/h (2 Bft) 91,67 %
07.07.2018 21:07 19,5 C 23,9 C 59 % 1017,9 hPa 0,0 l/m 7,0 km/h (2 Bft) SW 218 0 min 0,000 mm 0,0 UV-I 12 W/m 11,3 C 19,2 C 9,7 km/h (2 Bft) 91,30 %
07.07.2018 21:08 19,6 C 23,9 C 59 % 1017,9 hPa 0,0 l/m 6,6 km/h (2 Bft) SW 223 0 min 0,000 mm 0,0 UV-I 12 W/m 11,4 C 19,5 C 8,0 km/h (2 Bft) 95,83 %
07.07.2018 21:09 19,5 C 23,9 C 59 % 1017,9 hPa 0,0 l/m 7,0 km/h (2 Bft) SW 215 0 min 0,000 mm 0,0 UV-I 11 W/m 11,3 C 19,2 C 9,7 km/h (2 Bft) 95,65 %
07.07.2018 21:10 19,4 C 23,9 C 59 % 1018,0 hPa 0,0 l/m 6,2 km/h (2 Bft) S-SW 213 0 min 0,000 mm 0,0 UV-I 10 W/m 11,2 C 19,4 C 8,0 km/h (2 Bft) 95,83 %
07.07.2018 21:11 19,4 C 23,9 C 60 % 1018,0 hPa 0,0 l/m 5,6 km/h (1 Bft) SW 219 0 min 0,000 mm 0,0 UV-I 9 W/m 11,4 C 19,4 C 6,4 km/h (2 Bft) 91,30 %
07.07.2018 21:12 19,4 C 23,9 C 60 % 1018,0 hPa 0,0 l/m 6,6 km/h (2 Bft) SW 215 0 min 0,000 mm 0,0 UV-I 9 W/m 11,4 C 19,3 C 9,7 km/h (2 Bft) 100,00 %
07.07.2018 21:13 19,4 C 23,9 C 60 % 1018,0 hPa 0,0 l/m 6,4 km/h (2 Bft) SW 219 0 min 0,000 mm 0,0 UV-I 7 W/m 11,4 C 19,4 C 8,0 km/h (2 Bft) 91,67 %
07.07.2018 21:14 19,3 C 23,9 C 60 % 1018,0 hPa 0,0 l/m 7,0 km/h (2 Bft) SW 226 0 min 0,000 mm 0,0 UV-I 7 W/m 11,3 C 19,0 C 9,7 km/h (2 Bft) 100,00 %
07.07.2018 21:15 19,3 C 23,9 C 60 % 1018,0 hPa 0,0 l/m 6,6 km/h (2 Bft) S-SW 212 0 min 0,000 mm 0,0 UV-I 7 W/m 11,3 C 19,2 C 8,0 km/h (2 Bft) 96,30 %
07.07.2018 21:16 19,3 C 23,9 C 60 % 1018,0 hPa 0,0 l/m 6,6 km/h (2 Bft) SW 217 0 min 0,000 mm 0,0 UV-I 5 W/m 11,3 C 19,2 C 8,0 km/h (2 Bft) 100,00 %
07.07.2018 21:17 19,2 C 23,9 C 60 % 1018,0 hPa 0,0 l/m 6,9 km/h (2 Bft) SW 221 0 min 0,000 mm 0,0 UV-I 5 W/m 11,2 C 19,0 C 8,0 km/h (2 Bft) 95,83 %
07.07.2018 21:18 19,2 C 23,9 C 61 % 1018,0 hPa 0,0 l/m 6,6 km/h (2 Bft) SW 215 0 min 0,000 mm 0,0 UV-I 5 W/m 11,5 C 19,1 C 8,0 km/h (2 Bft) 100,00 %
07.07.2018 21:19 19,2 C 23,9 C 61 % 1018,0 hPa 0,0 l/m 7,2 km/h (2 Bft) SW 221 0 min 0,000 mm 0,0 UV-I 5 W/m 11,5 C 18,9 C 8,0 km/h (2 Bft) 100,00 %
07.07.2018 21:20 19,1 C 23,9 C 61 % 1018,1 hPa 0,0 l/m 6,4 km/h (2 Bft) SW 216 0 min 0,000 mm 0,0 UV-I 5 W/m 11,4 C 19,1 C 8,0 km/h (2 Bft) 100,00 %
07.07.2018 21:21 19,1 C 23,9 C 61 % 1018,0 hPa 0,0 l/m 6,4 km/h (2 Bft) SW 223 0 min 0,000 mm 0,0 UV-I 5 W/m 11,4 C 19,1 C 8,0 km/h (2 Bft) 100,00 %
07.07.2018 21:22 19,1 C 23,9 C 61 % 1018,0 hPa 0,0 l/m 6,8 km/h (2 Bft) SW 226 0 min 0,000 mm 0,0 UV-I 5 W/m 11,4 C 18,9 C 8,0 km/h (2 Bft) 100,00 %
07.07.2018 21:23 19,1 C 23,9 C 61 % 1018,1 hPa 0,0 l/m 5,9 km/h (2 Bft) SW 221 0 min 0,000 mm 0,0 UV-I 2 W/m 11,4 C 19,1 C 6,4 km/h (2 Bft) 100,00 %
07.07.2018 21:24 19,1 C 23,9 C 61 % 1018,1 hPa 0,0 l/m 6,1 km/h (2 Bft) SW 224 0 min 0,000 mm 0,0 UV-I 0 W/m 11,4 C 19,1 C 6,4 km/h (2 Bft) 100,00 %
07.07.2018 21:25 19,1 C 23,9 C 61 % 1018,1 hPa 0,0 l/m 6,0 km/h (2 Bft) SW 225 0 min 0,000 mm 0,0 UV-I 0 W/m 11,4 C 19,1 C 8,0 km/h (2 Bft) 100,00 %
07.07.2018 21:26 19,0 C 23,9 C 62 % 1018,2 hPa 0,0 l/m 5,9 km/h (2 Bft) SW 223 0 min 0,000 mm 0,0 UV-I 0 W/m 11,6 C 19,0 C 6,4 km/h (2 Bft) 100,00 %
07.07.2018 21:28 18,9 C 23,9 C 62 % 1018,1 hPa 0,0 l/m 5,8 km/h (2 Bft) SW 221 0 min 0,000 mm 0,0 UV-I 0 W/m 11,5 C 18,9 C 8,0 km/h (2 Bft) 97,87 %
07.07.2018 21:29 18,8 C 23,9 C 62 % 1018,1 hPa 0,0 l/m 6,2 km/h (2 Bft) SW 214 0 min 0,000 mm 0,0 UV-I 0 W/m 11,4 C 18,8 C 8,0 km/h (2 Bft) 100,00 %
07.07.2018 21:30 18,8 C 23,9 C 62 % 1018,1 hPa 0,0 l/m 5,8 km/h (2 Bft) SW 219 0 min 0,000 mm 0,0 UV-I 0 W/m 11,4 C 18,8 C 8,0 km/h (2 Bft) 100,00 %
07.07.2018 21:31 18,8 C 23,9 C 63 % 1018,2 hPa 0,0 l/m 5,6 km/h (1 Bft) S-SW 212 0 min 0,000 mm 0,0 UV-I 0 W/m 11,6 C 18,8 C 6,4 km/h (2 Bft) 95,83 %
07.07.2018 21:32 18,7 C 23,9 C 63 % 1018,2 hPa 0,0 l/m 6,1 km/h (2 Bft) S-SW 213 0 min 0,000 mm 0,0 UV-I 0 W/m 11,5 C 18,7 C 8,0 km/h (2 Bft) 95,65 %
07.07.2018 21:33 18,7 C 23,9 C 63 % 1018,1 hPa 0,0 l/m 5,9 km/h (2 Bft) SW 217 0 min 0,000 mm 0,0 UV-I 0 W/m 11,5 C 18,7 C 8,0 km/h (2 Bft) 100,00 %
07.07.2018 21:34 18,7 C 23,9 C 63 % 1018,1 hPa 0,0 l/m 6,0 km/h (2 Bft) S-SW 213 0 min 0,000 mm 0,0 UV-I 0 W/m 11,5 C 18,7 C 8,0 km/h (2 Bft) 100,00 %
07.07.2018 21:35 18,7 C 23,9 C 63 % 1018,1 hPa 0,0 l/m 7,3 km/h (2 Bft) SW 219 0 min 0,000 mm 0,0 UV-I 0 W/m 11,5 C 18,3 C 8,0 km/h (2 Bft) 100,00 %
07.07.2018 21:36 18,7 C 23,9 C 64 % 1018,1 hPa 0,0 l/m 5,8 km/h (2 Bft) SW 215 0 min 0,000 mm 0,0 UV-I 0 W/m 11,7 C 18,7 C 6,4 km/h (2 Bft) 95,83 %
07.07.2018 21:38 18,6 C 23,9 C 63 % 1018,2 hPa 0,0 l/m 5,5 km/h (1 Bft) SW 218 0 min 0,000 mm 0,0 UV-I 0 W/m 11,4 C 18,6 C 6,4 km/h (2 Bft) 100,00 %
07.07.2018 21:39 18,6 C 23,9 C 63 % 1018,2 hPa 0,0 l/m 5,8 km/h (2 Bft) SW 220 0 min 0,000 mm 0,0 UV-I 0 W/m 11,4 C 18,6 C 6,4 km/h (2 Bft) 95,65 %
07.07.2018 21:40 18,6 C 23,9 C 64 % 1018,1 hPa 0,0 l/m 6,0 km/h (2 Bft) SW 216 0 min 0,000 mm 0,0 UV-I 0 W/m 11,7 C 18,6 C 6,4 km/h (2 Bft) 100,00 %
07.07.2018 21:41 18,5 C 23,9 C 65 % 1018,2 hPa 0,0 l/m 5,6 km/h (1 Bft) SW 217 0 min 0,000 mm 0,0 UV-I 0 W/m 11,8 C 18,5 C 8,0 km/h (2 Bft) 100,00 %
07.07.2018 21:43 18,4 C 23,9 C 66 % 1018,2 hPa 0,0 l/m 6,0 km/h (2 Bft) SW 215 0 min 0,000 mm 0,0 UV-I 0 W/m 11,9 C 18,4 C 8,0 km/h (2 Bft) 98,31 %
07.07.2018 21:44 18,4 C 23,9 C 66 % 1018,2 hPa 0,0 l/m 6,4 km/h (2 Bft) SW 214 0 min 0,000 mm 0,0 UV-I 0 W/m 11,9 C 18,4 C 8,0 km/h (2 Bft) 100,00 %
07.07.2018 21:45 18,3 C 23,3 C 66 % 1018,2 hPa 0,0 l/m 5,1 km/h (1 Bft) S-SW 210 0 min 0,000 mm 0,0 UV-I 0 W/m 11,8 C 18,3 C 6,4 km/h (2 Bft) 100,00 %
07.07.2018 21:46 18,3 C 23,3 C 66 % 1018,2 hPa 0,0 l/m 6,4 km/h (2 Bft) SW 221 0 min 0,000 mm 0,0 UV-I 0 W/m 11,8 C 18,3 C 8,0 km/h (2 Bft) 95,83 %
07.07.2018 21:47 18,3 C 23,3 C 66 % 1018,2 hPa 0,0 l/m 6,3 km/h (2 Bft) SW 215 0 min 0,000 mm 0,0 UV-I 0 W/m 11,8 C 18,3 C 6,4 km/h (2 Bft) 100,00 %
07.07.2018 21:48 18,3 C 23,3 C 66 % 1018,2 hPa 0,0 l/m 6,5 km/h (2 Bft) SW 215 0 min 0,000 mm 0,0 UV-I 0 W/m 11,8 C 18,3 C 8,0 km/h (2 Bft) 100,00 %
07.07.2018 21:49 18,3 C 23,9 C 66 % 1018,2 hPa 0,0 l/m 6,3 km/h (2 Bft) SW 217 0 min 0,000 mm 0,0 UV-I 0 W/m 11,8 C 18,3 C 9,7 km/h (2 Bft) 100,00 %
07.07.2018 21:50 18,3 C 23,9 C 65 % 1018,2 hPa 0,0 l/m 6,9 km/h (2 Bft) SW 218 0 min 0,000 mm 0,0 UV-I 0 W/m 11,6 C 18,1 C 8,0 km/h (2 Bft) 100,00 %
07.07.2018 21:51 18,3 C 23,9 C 65 % 1018,2 hPa 0,0 l/m 6,6 km/h (2 Bft) SW 218 0 min 0,000 mm 0,0 UV-I 0 W/m 11,6 C 18,2 C 9,7 km/h (2 Bft) 95,65 %
07.07.2018 21:52 18,3 C 23,9 C 66 % 1018,2 hPa 0,0 l/m 6,3 km/h (2 Bft) SW 215 0 min 0,000 mm 0,0 UV-I 0 W/m 11,8 C 18,3 C 8,0 km/h (2 Bft) 100,00 %
07.07.2018 21:53 18,3 C 23,9 C 65 % 1018,2 hPa 0,0 l/m 7,1 km/h (2 Bft) SW 218 0 min 0,000 mm 0,0 UV-I 0 W/m 11,6 C 18,0 C 8,0 km/h (2 Bft) 95,83 %
07.07.2018 21:54 18,3 C 23,9 C 66 % 1018,2 hPa 0,0 l/m 6,1 km/h (2 Bft) SW 216 0 min 0,000 mm 0,0 UV-I 0 W/m 11,8 C 18,3 C 8,0 km/h (2 Bft) 100,00 %
07.07.2018 21:55 18,3 C 23,9 C 65 % 1018,3 hPa 0,0 l/m 6,6 km/h (2 Bft) SW 222 0 min 0,000 mm 0,0 UV-I 0 W/m 11,6 C 18,2 C 8,0 km/h (2 Bft) 100,00 %
07.07.2018 21:56 18,3 C 23,9 C 64 % 1018,2 hPa 0,0 l/m 7,5 km/h (2 Bft) SW 214 0 min 0,000 mm 0,0 UV-I 0 W/m 11,4 C 17,8 C 8,0 km/h (2 Bft) 100,00 %
07.07.2018 21:57 18,3 C 23,3 C 65 % 1018,2 hPa 0,0 l/m 6,1 km/h (2 Bft) SW 218 0 min 0,000 mm 0,0 UV-I 0 W/m 11,6 C 18,3 C 8,0 km/h (2 Bft) 100,00 %
07.07.2018 21:58 18,3 C 23,3 C 65 % 1018,2 hPa 0,0 l/m 6,6 km/h (2 Bft) SW 218 0 min 0,000 mm 0,0 UV-I 0 W/m 11,6 C 18,2 C 8,0 km/h (2 Bft) 95,65 %
07.07.2018 21:59 18,3 C 23,3 C 65 % 1018,2 hPa 0,0 l/m 6,6 km/h (2 Bft) SW 222 0 min 0,000 mm 0,0 UV-I 0 W/m 11,6 C 18,2 C 8,0 km/h (2 Bft) 100,00 %
07.07.2018 22:00 18,3 C 23,3 C 65 % 1018,2 hPa 0,0 l/m 6,5 km/h (2 Bft) SW 215 0 min 0,000 mm 0,0 UV-I 0 W/m 11,6 C 18,3 C 8,0 km/h (2 Bft) 100,00 %
07.07.2018 22:02 18,2 C 23,3 C 64 % 1018,3 hPa 0,0 l/m 6,6 km/h (2 Bft) SW 232 0 min 0,051 mm 0,0 UV-I 0 W/m 11,3 C 18,1 C 8,0 km/h (2 Bft) 97,87 %
07.07.2018 22:03 18,2 C 23,3 C 65 % 1018,3 hPa 0,0 l/m 7,2 km/h (2 Bft) W-SW 238 0 min 0,000 mm 0,0 UV-I 0 W/m 11,5 C 17,8 C 8,0 km/h (2 Bft) 95,83 %
07.07.2018 22:04 18,2 C 23,3 C 65 % 1018,3 hPa 0,0 l/m 7,6 km/h (2 Bft) SW 229 0 min 0,000 mm 0,0 UV-I 0 W/m 11,5 C 17,6 C 9,7 km/h (2 Bft) 100,00 %
07.07.2018 22:05 18,2 C 23,3 C 65 % 1018,3 hPa 0,0 l/m 7,7 km/h (2 Bft) SW 227 0 min 0,000 mm 0,0 UV-I 0 W/m 11,5 C 17,6 C 9,7 km/h (2 Bft) 100,00 %
07.07.2018 22:06 18,2 C 23,3 C 65 % 1018,2 hPa 0,0 l/m 7,5 km/h (2 Bft) SW 217 0 min 0,000 mm 0,0 UV-I 0 W/m 11,5 C 17,7 C 8,0 km/h (2 Bft) 100,00 %
07.07.2018 22:07 18,1 C 23,3 C 65 % 1018,2 hPa 0,0 l/m 7,2 km/h (2 Bft) SW 217 0 min 0,000 mm 0,0 UV-I 0 W/m 11,4 C 17,7 C 8,0 km/h (2 Bft) 100,00 %
07.07.2018 22:08 18,1 C 23,3 C 66 % 1018,2 hPa 0,0 l/m 8,6 km/h (2 Bft) S-SW 213 0 min 0,000 mm 0,0 UV-I 0 W/m 11,6 C 17,1 C 11,3 km/h (2 Bft) 100,00 %
07.07.2018 22:09 18,0 C 23,3 C 65 % 1018,2 hPa 0,0 l/m 7,0 km/h (2 Bft) SW 215 0 min 0,000 mm 0,0 UV-I 0 W/m 11,3 C 17,7 C 9,7 km/h (2 Bft) 100,00 %
07.07.2018 22:10 18,0 C 23,3 C 65 % 1018,2 hPa 0,0 l/m 7,1 km/h (2 Bft) SW 214 0 min 0,000 mm 0,0 UV-I 0 W/m 11,3 C 17,7 C 9,7 km/h (2 Bft) 100,00 %
07.07.2018 22:11 18,0 C 23,3 C 65 % 1018,2 hPa 0,0 l/m 6,6 km/h (2 Bft) SW 214 0 min 0,000 mm 0,0 UV-I 0 W/m 11,3 C 17,9 C 8,0 km/h (2 Bft) 100,00 %
07.07.2018 22:12 18,1 C 23,3 C 65 % 1018,2 hPa 0,0 l/m 6,0 km/h (2 Bft) SW 215 0 min 0,000 mm 0,0 UV-I 0 W/m 11,4 C 18,1 C 6,4 km/h (2 Bft) 100,00 %
07.07.2018 22:13 18,1 C 23,3 C 65 % 1018,2 hPa 0,0 l/m 5,9 km/h (2 Bft) S-SW 209 0 min 0,000 mm 0,0 UV-I 0 W/m 11,4 C 18,1 C 6,4 km/h (2 Bft) 95,65 %
07.07.2018 22:14 18,1 C 23,3 C 65 % 1018,2 hPa 0,0 l/m 5,4 km/h (1 Bft) S-SW 207 0 min 0,000 mm 0,0 UV-I 0 W/m 11,4 C 18,1 C 6,4 km/h (2 Bft) 100,00 %
07.07.2018 22:15 18,1 C 23,3 C 65 % 1018,2 hPa 0,0 l/m 5,1 km/h (1 Bft) S-SW 194 0 min 0,000 mm 0,0 UV-I 0 W/m 11,4 C 18,1 C 8,0 km/h (2 Bft) 100,00 %
07.07.2018 22:16 18,0 C 23,3 C 65 % 1018,3 hPa 0,0 l/m 5,8 km/h (2 Bft) S-SW 210 0 min 0,000 mm 0,0 UV-I 0 W/m 11,3 C 18,0 C 8,0 km/h (2 Bft) 100,00 %
07.07.2018 22:17 18,0 C 23,3 C 65 % 1018,2 hPa 0,0 l/m 6,9 km/h (2 Bft) S-SW 207 0 min 0,000 mm 0,0 UV-I 0 W/m 11,3 C 17,8 C 9,7 km/h (2 Bft) 100,00 %
07.07.2018 22:18 18,0 C 23,3 C 64 % 1018,3 hPa 0,0 l/m 8,1 km/h (2 Bft) S-SW 206 0 min 0,000 mm 0,0 UV-I 0 W/m 11,1 C 17,2 C 9,7 km/h (2 Bft) 100,00 %
07.07.2018 22:19 18,1 C 23,3 C 64 % 1018,2 hPa 0,0 l/m 7,6 km/h (2 Bft) SW 220 0 min 0,000 mm 0,0 UV-I 0 W/m 11,2 C 17,5 C 9,7 km/h (2 Bft) 91,30 %
07.07.2018 22:20 18,1 C 23,3 C 65 % 1018,3 hPa 0,0 l/m 7,3 km/h (2 Bft) SW 225 0 min 0,000 mm 0,0 UV-I 0 W/m 11,4 C 17,7 C 9,7 km/h (2 Bft) 100,00 %
07.07.2018 22:21 18,1 C 23,3 C 64 % 1018,3 hPa 0,0 l/m 6,7 km/h (2 Bft) W-SW 240 0 min 0,000 mm 0,0 UV-I 0 W/m 11,2 C 18,0 C 9,7 km/h (2 Bft) 95,65 %
07.07.2018 22:22 18,0 C 23,3 C 65 % 1018,3 hPa 0,0 l/m 7,6 km/h (2 Bft) SW 221 0 min 0,000 mm 0,0 UV-I 0 W/m 11,3 C 17,4 C 8,0 km/h (2 Bft) 95,83 %
07.07.2018 22:23 17,9 C 23,3 C 65 % 1018,3 hPa 0,0 l/m 6,5 km/h (2 Bft) SW 218 0 min 0,000 mm 0,0 UV-I 0 W/m 11,2 C 17,9 C 8,0 km/h (2 Bft) 100,00 %
07.07.2018 22:24 17,9 C 23,3 C 65 % 1018,3 hPa 0,0 l/m 6,4 km/h (2 Bft) S-SW 202 0 min 0,000 mm 0,0 UV-I 0 W/m 11,2 C 17,9 C 9,7 km/h (2 Bft) 100,00 %
07.07.2018 22:25 17,8 C 23,3 C 65 % 1018,3 hPa 0,0 l/m 6,6 km/h (2 Bft) S-SW 211 0 min 0,000 mm 0,0 UV-I 0 W/m 11,1 C 17,7 C 8,0 km/h (2 Bft) 100,00 %
07.07.2018 22:26 17,8 C 23,3 C 66 % 1018,2 hPa 0,0 l/m 6,4 km/h (2 Bft) S-SW 213 0 min 0,000 mm 0,0 UV-I 0 W/m 11,4 C 17,8 C 8,0 km/h (2 Bft) 100,00 %
07.07.2018 22:27 17,8 C 23,3 C 66 % 1018,3 hPa 0,0 l/m 6,9 km/h (2 Bft) SW 215 0 min 0,000 mm 0,0 UV-I 0 W/m 11,4 C 17,6 C 9,7 km/h (2 Bft) 100,00 %
07.07.2018 22:28 17,8 C 23,3 C 65 % 1018,3 hPa 0,0 l/m 6,4 km/h (2 Bft) SW 229 0 min 0,000 mm 0,0 UV-I 0 W/m 11,1 C 17,8 C 8,0 km/h (2 Bft) 100,00 %
07.07.2018 22:29 17,8 C 23,3 C 66 % 1018,3 hPa 0,0 l/m 7,0 km/h (2 Bft) S-SW 211 0 min 0,000 mm 0,0 UV-I 0 W/m 11,4 C 17,5 C 9,7 km/h (2 Bft) 100,00 %
07.07.2018 22:30 17,8 C 23,3 C 66 % 1018,3 hPa 0,0 l/m 6,4 km/h (2 Bft) S-SW 213 0 min 0,000 mm 0,0 UV-I 0 W/m 11,4 C 17,8 C 8,0 km/h (2 Bft) 100,00 %
07.07.2018 22:31 17,7 C 23,3 C 66 % 1018,3 hPa 0,0 l/m 6,3 km/h (2 Bft) S-SW 210 0 min 0,000 mm 0,0 UV-I 0 W/m 11,3 C 17,7 C 8,0 km/h (2 Bft) 100,00 %
07.07.2018 22:32 17,7 C 23,3 C 66 % 1018,3 hPa 0,0 l/m 6,2 km/h (2 Bft) S-SW 196 0 min 0,000 mm 0,0 UV-I 0 W/m 11,3 C 17,7 C 8,0 km/h (2 Bft) 100,00 %
07.07.2018 22:33 17,7 C 23,3 C 67 % 1018,3 hPa 0,0 l/m 6,4 km/h (2 Bft) SW 218 0 min 0,000 mm 0,0 UV-I 0 W/m 11,5 C 17,7 C 8,0 km/h (2 Bft) 100,00 %
07.07.2018 22:34 17,7 C 23,3 C 67 % 1018,3 hPa 0,0 l/m 6,1 km/h (2 Bft) SW 221 0 min 0,000 mm 0,0 UV-I 0 W/m 11,5 C 17,7 C 6,4 km/h (2 Bft) 96,15 %
07.07.2018 22:35 17,6 C 23,3 C 67 % 1018,3 hPa 0,0 l/m 5,9 km/h (2 Bft) S-SW 211 0 min 0,000 mm 0,0 UV-I 0 W/m 11,4 C 17,6 C 8,0 km/h (2 Bft) 100,00 %
07.07.2018 22:36 17,6 C 23,3 C 67 % 1018,2 hPa 0,0 l/m 5,7 km/h (1 Bft) S-SW 199 0 min 0,000 mm 0,0 UV-I 0 W/m 11,4 C 17,6 C 6,4 km/h (2 Bft) 100,00 %
07.07.2018 22:37 17,6 C 23,3 C 67 % 1018,3 hPa 0,0 l/m 5,6 km/h (1 Bft) S-SW 206 0 min 0,000 mm 0,0 UV-I 0 W/m 11,4 C 17,6 C 9,7 km/h (2 Bft) 100,00 %
07.07.2018 22:38 17,6 C 23,3 C 67 % 1018,2 hPa 0,0 l/m 6,6 km/h (2 Bft) SW 215 0 min 0,000 mm 0,0 UV-I 0 W/m 11,4 C 17,5 C 9,7 km/h (2 Bft) 95,65 %
07.07.2018 22:39 17,6 C 23,3 C 67 % 1018,3 hPa 0,0 l/m 6,8 km/h (2 Bft) SW 215 0 min 0,000 mm 0,0 UV-I 0 W/m 11,4 C 17,4 C 9,7 km/h (2 Bft) 100,00 %
07.07.2018 22:40 17,6 C 23,3 C 68 % 1018,2 hPa 0,0 l/m 6,9 km/h (2 Bft) S-SW 208 0 min 0,000 mm 0,0 UV-I 0 W/m 11,6 C 17,4 C 8,0 km/h (2 Bft) 100,00 %
07.07.2018 22:41 17,6 C 23,3 C 68 % 1018,2 hPa 0,0 l/m 6,6 km/h (2 Bft) S-SW 213 0 min 0,000 mm 0,0 UV-I 0 W/m 11,6 C 17,5 C 8,0 km/h (2 Bft) 95,83 %
07.07.2018 22:42 17,6 C 23,3 C 68 % 1018,2 hPa 0,0 l/m 7,1 km/h (2 Bft) SW 220 0 min 0,000 mm 0,0 UV-I 0 W/m 11,6 C 17,3 C 8,0 km/h (2 Bft) 100,00 %
07.07.2018 22:43 17,5 C 23,3 C 69 % 1018,2 hPa 0,0 l/m 6,9 km/h (2 Bft) S-SW 213 0 min 0,000 mm 0,0 UV-I 0 W/m 11,7 C 17,3 C 9,7 km/h (2 Bft) 95,83 %
07.07.2018 22:44 17,5 C 23,3 C 69 % 1018,2 hPa 0,0 l/m 7,7 km/h (2 Bft) S-SW 205 0 min 0,000 mm 0,0 UV-I 0 W/m 11,7 C 16,9 C 9,7 km/h (2 Bft) 96,15 %
07.07.2018 22:45 17,4 C 23,3 C 69 % 1018,2 hPa 0,0 l/m 7,4 km/h (2 Bft) SW 230 0 min 0,000 mm 0,0 UV-I 0 W/m 11,7 C 16,9 C 9,7 km/h (2 Bft) 100,00 %
07.07.2018 22:46 17,4 C 23,3 C 69 % 1018,2 hPa 0,0 l/m 6,8 km/h (2 Bft) SW 223 0 min 0,000 mm 0,0 UV-I 0 W/m 11,7 C 17,2 C 9,7 km/h (2 Bft) 92,31 %
07.07.2018 22:47 17,4 C 23,3 C 70 % 1018,2 hPa 0,0 l/m 6,8 km/h (2 Bft) SW 227 0 min 0,000 mm 0,0 UV-I 0 W/m 11,9 C 17,2 C 9,7 km/h (2 Bft) 100,00 %
07.07.2018 22:48 17,4 C 23,3 C 70 % 1018,2 hPa 0,0 l/m 6,6 km/h (2 Bft) S-SW 210 0 min 0,000 mm 0,0 UV-I 0 W/m 11,9 C 17,3 C 9,7 km/h (2 Bft) 95,83 %
07.07.2018 22:49 17,3 C 23,3 C 70 % 1018,2 hPa 0,0 l/m 7,7 km/h (2 Bft) S-SW 201 0 min 0,000 mm 0,0 UV-I 0 W/m 11,8 C 16,7 C 11,3 km/h (2 Bft) 95,65 %
07.07.2018 22:50 17,3 C 23,3 C 70 % 1018,2 hPa 0,0 l/m 7,3 km/h (2 Bft) SW 215 0 min 0,000 mm 0,0 UV-I 0 W/m 11,8 C 16,9 C 11,3 km/h (2 Bft) 100,00 %
07.07.2018 22:51 17,3 C 23,3 C 70 % 1018,2 hPa 0,0 l/m 7,0 km/h (2 Bft) SW 231 0 min 0,000 mm 0,0 UV-I 0 W/m 11,8 C 17,0 C 11,3 km/h (2 Bft) 86,96 %
07.07.2018 22:52 17,3 C 23,3 C 70 % 1018,2 hPa 0,0 l/m 6,4 km/h (2 Bft) SW 214 0 min 0,000 mm 0,0 UV-I 0 W/m 11,8 C 17,3 C 11,3 km/h (2 Bft) 100,00 %
07.07.2018 22:53 17,3 C 23,3 C 70 % 1018,2 hPa 0,0 l/m 7,5 km/h (2 Bft) S-SW 202 0 min 0,000 mm 0,0 UV-I 0 W/m 11,8 C 16,8 C 9,7 km/h (2 Bft) 92,31 %
07.07.2018 22:54 17,3 C 23,3 C 70 % 1018,2 hPa 0,0 l/m 7,4 km/h (2 Bft) SW 217 0 min 0,000 mm 0,0 UV-I 0 W/m 11,8 C 16,8 C 9,7 km/h (2 Bft) 100,00 %
07.07.2018 22:55 17,3 C 23,3 C 70 % 1018,2 hPa 0,0 l/m 8,6 km/h (2 Bft) S-SW 209 0 min 0,000 mm 0,0 UV-I 0 W/m 11,8 C 16,2 C 12,9 km/h (3 Bft) 95,65 %
07.07.2018 22:56 17,3 C 23,3 C 71 % 1018,2 hPa 0,0 l/m 7,8 km/h (2 Bft) S-SW 211 0 min 0,000 mm 0,0 UV-I 0 W/m 12,0 C 16,6 C 9,7 km/h (2 Bft) 95,83 %
07.07.2018 22:57 17,2 C 23,3 C 71 % 1018,2 hPa 0,0 l/m 7,6 km/h (2 Bft) SW 221 0 min 0,000 mm 0,0 UV-I 0 W/m 11,9 C 16,6 C 11,3 km/h (2 Bft) 95,65 %
07.07.2018 22:58 17,2 C 23,3 C 71 % 1018,3 hPa 0,0 l/m 9,0 km/h (2 Bft) S-SW 212 0 min 0,000 mm 0,0 UV-I 0 W/m 11,9 C 16,0 C 12,9 km/h (3 Bft) 95,83 %
07.07.2018 22:59 17,2 C 23,3 C 71 % 1018,2 hPa 0,0 l/m 7,6 km/h (2 Bft) SW 223 0 min 0,000 mm 0,0 UV-I 0 W/m 11,9 C 16,6 C 11,3 km/h (2 Bft) 100,00 %
07.07.2018 23:00 17,2 C 23,3 C 71 % 1018,3 hPa 0,0 l/m 7,8 km/h (2 Bft) SW 217 0 min 0,000 mm 0,0 UV-I 0 W/m 11,9 C 16,5 C 11,3 km/h (2 Bft) 95,83 %
07.07.2018 23:02 17,1 C 23,3 C 72 % 1018,2 hPa 0,0 l/m 7,0 km/h (2 Bft) SW 236 0 min 0,025 mm 0,0 UV-I 0 W/m 12,0 C 16,8 C 11,3 km/h (2 Bft) 98,00 %
07.07.2018 23:03 17,1 C 23,3 C 72 % 1018,3 hPa 0,0 l/m 8,9 km/h (2 Bft) S-SW 213 0 min 0,000 mm 0,0 UV-I 0 W/m 12,0 C 15,9 C 11,3 km/h (2 Bft) 100,00 %
07.07.2018 23:04 17,1 C 23,3 C 72 % 1018,2 hPa 0,0 l/m 9,0 km/h (2 Bft) S-SW 210 0 min 0,000 mm 0,0 UV-I 0 W/m 12,0 C 15,9 C 11,3 km/h (2 Bft) 95,65 %
07.07.2018 23:05 17,1 C 23,3 C 72 % 1018,2 hPa 0,0 l/m 8,9 km/h (2 Bft) S-SW 211 0 min 0,000 mm 0,0 UV-I 0 W/m 12,0 C 15,9 C 9,7 km/h (2 Bft) 100,00 %
07.07.2018 23:06 17,0 C 23,3 C 72 % 1018,2 hPa 0,0 l/m 9,7 km/h (2 Bft) S-SW 205 0 min 0,000 mm 0,0 UV-I 0 W/m 11,9 C 15,4 C 12,9 km/h (3 Bft) 95,65 %
07.07.2018 23:07 17,0 C 23,3 C 72 % 1018,2 hPa 0,0 l/m 8,6 km/h (2 Bft) SW 221 0 min 0,000 mm 0,0 UV-I 0 W/m 11,9 C 15,9 C 11,3 km/h (2 Bft) 95,83 %
07.07.2018 23:08 17,0 C 23,3 C 73 % 1018,2 hPa 0,0 l/m 8,9 km/h (2 Bft) SW 225 0 min 0,000 mm 0,0 UV-I 0 W/m 12,1 C 15,8 C 11,3 km/h (2 Bft) 100,00 %
07.07.2018 23:09 16,9 C 23,3 C 73 % 1018,2 hPa 0,0 l/m 9,0 km/h (2 Bft) S-SW 213 0 min 0,000 mm 0,0 UV-I 0 W/m 12,0 C 15,6 C 12,9 km/h (3 Bft) 95,83 %
07.07.2018 23:10 16,9 C 23,3 C 73 % 1018,3 hPa 0,0 l/m 10,3 km/h (2 Bft) S-SW 210 0 min 0,000 mm 0,0 UV-I 0 W/m 12,0 C 15,1 C 14,5 km/h (3 Bft) 100,00 %
07.07.2018 23:11 16,9 C 23,3 C 74 % 1018,2 hPa 0,0 l/m 8,7 km/h (2 Bft) S-SW 209 0 min 0,000 mm 0,0 UV-I 0 W/m 12,2 C 15,8 C 9,7 km/h (2 Bft) 95,83 %
07.07.2018 23:12 16,9 C 23,3 C 74 % 1018,2 hPa 0,0 l/m 7,0 km/h (2 Bft) S-SW 210 0 min 0,000 mm 0,0 UV-I 0 W/m 12,2 C 16,6 C 8,0 km/h (2 Bft) 100,00 %
07.07.2018 23:13 16,9 C 23,3 C 74 % 1018,2 hPa 0,0 l/m 7,9 km/h (2 Bft) SW 227 0 min 0,000 mm 0,0 UV-I 0 W/m 12,2 C 16,1 C 9,7 km/h (2 Bft) 96,30 %
07.07.2018 23:14 16,9 C 23,3 C 74 % 1018,2 hPa 0,0 l/m 6,6 km/h (2 Bft) S-SW 212 0 min 0,000 mm 0,0 UV-I 0 W/m 12,2 C 16,8 C 9,7 km/h (2 Bft) 91,30 %
07.07.2018 23:15 16,9 C 23,3 C 74 % 1018,2 hPa 0,0 l/m 8,0 km/h (2 Bft) SW 224 0 min 0,000 mm 0,0 UV-I 0 W/m 12,2 C 16,1 C 11,3 km/h (2 Bft) 100,00 %
07.07.2018 23:16 16,9 C 23,3 C 74 % 1018,2 hPa 0,0 l/m 7,8 km/h (2 Bft) W-SW 257 0 min 0,000 mm 0,0 UV-I 0 W/m 12,2 C 16,2 C 11,3 km/h (2 Bft) 95,65 %
07.07.2018 23:17 16,8 C 23,3 C 74 % 1018,2 hPa 0,0 l/m 8,2 km/h (2 Bft) SW 229 0 min 0,000 mm 0,0 UV-I 0 W/m 12,1 C 15,9 C 11,3 km/h (2 Bft) 100,00 %
07.07.2018 23:18 16,9 C 23,3 C 74 % 1018,2 hPa 0,0 l/m 7,6 km/h (2 Bft) W-SW 239 0 min 0,000 mm 0,0 UV-I 0 W/m 12,2 C 16,3 C 11,3 km/h (2 Bft) 100,00 %
07.07.2018 23:19 16,9 C 23,3 C 74 % 1018,2 hPa 0,0 l/m 8,3 km/h (2 Bft) SW 219 0 min 0,000 mm 0,0 UV-I 0 W/m 12,2 C 16,0 C 11,3 km/h (2 Bft) 100,00 %
07.07.2018 23:20 16,9 C 23,3 C 74 % 1018,2 hPa 0,0 l/m 7,7 km/h (2 Bft) SW 218 0 min 0,000 mm 0,0 UV-I 0 W/m 12,2 C 16,2 C 11,3 km/h (2 Bft) 91,30 %
07.07.2018 23:21 16,9 C 23,3 C 74 % 1018,2 hPa 0,0 l/m 7,4 km/h (2 Bft) SW 231 0 min 0,000 mm 0,0 UV-I 0 W/m 12,2 C 16,4 C 9,7 km/h (2 Bft) 95,83 %
07.07.2018 23:22 16,8 C 23,3 C 74 % 1018,2 hPa 0,0 l/m 7,4 km/h (2 Bft) SW 217 0 min 0,000 mm 0,0 UV-I 0 W/m 12,1 C 16,3 C 11,3 km/h (2 Bft) 100,00 %
07.07.2018 23:23 16,8 C 23,3 C 74 % 1018,1 hPa 0,0 l/m 7,7 km/h (2 Bft) SW 223 0 min 0,000 mm 0,0 UV-I 0 W/m 12,1 C 16,1 C 9,7 km/h (2 Bft) 91,67 %
07.07.2018 23:24 16,8 C 23,3 C 74 % 1018,2 hPa 0,0 l/m 6,4 km/h (2 Bft) SW 218 0 min 0,000 mm 0,0 UV-I 0 W/m 12,1 C 16,8 C 8,0 km/h (2 Bft) 100,00 %
07.07.2018 23:25 16,8 C 23,3 C 74 % 1018,2 hPa 0,0 l/m 7,8 km/h (2 Bft) SW 223 0 min 0,000 mm 0,0 UV-I 0 W/m 12,1 C 16,1 C 9,7 km/h (2 Bft) 100,00 %
07.07.2018 23:26 16,8 C 23,3 C 74 % 1018,2 hPa 0,0 l/m 9,3 km/h (2 Bft) SW 215 0 min 0,000 mm 0,0 UV-I 0 W/m 12,1 C 15,4 C 14,5 km/h (3 Bft) 100,00 %
07.07.2018 23:27 16,8 C 23,3 C 74 % 1018,2 hPa 0,0 l/m 8,4 km/h (2 Bft) SW 217 0 min 0,000 mm 0,0 UV-I 0 W/m 12,1 C 15,8 C 11,3 km/h (2 Bft) 100,00 %
07.07.2018 23:28 16,8 C 23,3 C 74 % 1018,2 hPa 0,0 l/m 10,1 km/h (2 Bft) S-SW 201 0 min 0,000 mm 0,0 UV-I 0 W/m 12,1 C 15,1 C 12,9 km/h (3 Bft) 100,00 %
07.07.2018 23:29 16,8 C 23,3 C 74 % 1018,2 hPa 0,0 l/m 7,5 km/h (2 Bft) S-SW 196 0 min 0,000 mm 0,0 UV-I 0 W/m 12,1 C 16,2 C 9,7 km/h (2 Bft) 100,00 %
07.07.2018 23:30 16,8 C 23,3 C 74 % 1018,2 hPa 0,0 l/m 9,6 km/h (2 Bft) SW 229 0 min 0,000 mm 0,0 UV-I 0 W/m 12,1 C 15,3 C 12,9 km/h (3 Bft) 100,00 %
07.07.2018 23:31 16,8 C 23,3 C 74 % 1018,3 hPa 0,0 l/m 7,8 km/h (2 Bft) SW 219 0 min 0,000 mm 0,0 UV-I 0 W/m 12,1 C 16,1 C 11,3 km/h (2 Bft) 95,65 %
07.07.2018 23:32 16,8 C 23,3 C 74 % 1018,2 hPa 0,0 l/m 7,6 km/h (2 Bft) SW 221 0 min 0,000 mm 0,0 UV-I 0 W/m 12,1 C 16,2 C 11,3 km/h (2 Bft) 100,00 %
07.07.2018 23:33 16,8 C 23,3 C 74 % 1018,3 hPa 0,0 l/m 9,7 km/h (2 Bft) S-SW 210 0 min 0,000 mm 0,0 UV-I 0 W/m 12,1 C 15,2 C 12,9 km/h (3 Bft) 100,00 %
07.07.2018 23:34 16,8 C 23,3 C 74 % 1018,3 hPa 0,0 l/m 10,3 km/h (2 Bft) S-SW 210 0 min 0,000 mm 0,0 UV-I 0 W/m 12,1 C 15,0 C 14,5 km/h (3 Bft) 100,00 %
07.07.2018 23:35 16,8 C 23,3 C 74 % 1018,3 hPa 0,0 l/m 9,6 km/h (2 Bft) S-SW 212 0 min 0,000 mm 0,0 UV-I 0 W/m 12,1 C 15,3 C 12,9 km/h (3 Bft) 100,00 %
07.07.2018 23:36 16,9 C 23,3 C 74 % 1018,3 hPa 0,0 l/m 9,3 km/h (2 Bft) SW 229 0 min 0,000 mm 0,0 UV-I 0 W/m 12,2 C 15,5 C 12,9 km/h (3 Bft) 100,00 %
07.07.2018 23:37 16,9 C 23,3 C 74 % 1018,2 hPa 0,0 l/m 10,5 km/h (2 Bft) SW 217 0 min 0,000 mm 0,0 UV-I 0 W/m 12,2 C 15,0 C 12,9 km/h (3 Bft) 100,00 %
07.07.2018 23:38 16,9 C 23,3 C 74 % 1018,3 hPa 0,0 l/m 8,7 km/h (2 Bft) SW 220 0 min 0,000 mm 0,0 UV-I 0 W/m 12,2 C 15,8 C 12,9 km/h (3 Bft) 100,00 %
07.07.2018 23:39 17,0 C 23,3 C 74 % 1018,3 hPa 0,0 l/m 10,1 km/h (2 Bft) S-SW 198 0 min 0,000 mm 0,0 UV-I 0 W/m 12,3 C 15,3 C 12,9 km/h (3 Bft) 100,00 %
07.07.2018 23:40 16,9 C 23,3 C 74 % 1018,3 hPa 0,0 l/m 9,2 km/h (2 Bft) SW 217 0 min 0,000 mm 0,0 UV-I 0 W/m 12,2 C 15,6 C 11,3 km/h (2 Bft) 100,00 %
07.07.2018 23:41 16,9 C 23,3 C 74 % 1018,2 hPa 0,0 l/m 9,9 km/h (2 Bft) S-SW 208 0 min 0,000 mm 0,0 UV-I 0 W/m 12,2 C 15,3 C 16,1 km/h (3 Bft) 91,30 %
07.07.2018 23:42 16,9 C 23,3 C 74 % 1018,3 hPa 0,0 l/m 10,7 km/h (2 Bft) SW 215 0 min 0,000 mm 0,0 UV-I 0 W/m 12,2 C 14,9 C 12,9 km/h (3 Bft) 100,00 %
07.07.2018 23:43 16,9 C 23,3 C 74 % 1018,3 hPa 0,0 l/m 9,9 km/h (2 Bft) S-SW 208 0 min 0,000 mm 0,0 UV-I 0 W/m 12,2 C 15,3 C 11,3 km/h (2 Bft) 100,00 %
07.07.2018 23:44 16,9 C 23,3 C 74 % 1018,3 hPa 0,0 l/m 11,3 km/h (2 Bft) S-SW 205 0 min 0,000 mm 0,0 UV-I 0 W/m 12,2 C 14,7 C 16,1 km/h (3 Bft) 95,83 %
07.07.2018 23:45 16,9 C 23,3 C 74 % 1018,2 hPa 0,0 l/m 9,9 km/h (2 Bft) SW 223 0 min 0,000 mm 0,0 UV-I 0 W/m 12,2 C 15,3 C 14,5 km/h (3 Bft) 100,00 %
07.07.2018 23:46 16,9 C 23,3 C 74 % 1018,2 hPa 0,0 l/m 10,7 km/h (2 Bft) SW 223 0 min 0,000 mm 0,0 UV-I 0 W/m 12,2 C 14,9 C 12,9 km/h (3 Bft) 95,83 %
07.07.2018 23:47 16,9 C 23,3 C 74 % 1018,2 hPa 0,0 l/m 9,8 km/h (2 Bft) SW 225 0 min 0,000 mm 0,0 UV-I 0 W/m 12,2 C 15,3 C 12,9 km/h (3 Bft) 100,00 %
07.07.2018 23:48 16,9 C 23,3 C 74 % 1018,2 hPa 0,0 l/m 9,3 km/h (2 Bft) SW 214 0 min 0,000 mm 0,0 UV-I 0 W/m 12,2 C 15,5 C 12,9 km/h (3 Bft) 100,00 %
07.07.2018 23:49 16,9 C 23,3 C 74 % 1018,3 hPa 0,0 l/m 10,5 km/h (2 Bft) SW 234 0 min 0,000 mm 0,0 UV-I 0 W/m 12,2 C 15,0 C 14,5 km/h (3 Bft) 100,00 %
07.07.2018 23:50 16,9 C 23,3 C 74 % 1018,2 hPa 0,0 l/m 9,4 km/h (2 Bft) S-SW 210 0 min 0,000 mm 0,0 UV-I 0 W/m 12,2 C 15,5 C 12,9 km/h (3 Bft) 100,00 %
07.07.2018 23:51 16,9 C 23,3 C 74 % 1018,3 hPa 0,0 l/m 9,8 km/h (2 Bft) SW 234 0 min 0,000 mm 0,0 UV-I 0 W/m 12,2 C 15,3 C 12,9 km/h (3 Bft) 100,00 %
07.07.2018 23:52 16,9 C 23,3 C 74 % 1018,2 hPa 0,0 l/m 9,3 km/h (2 Bft) W-SW 238 0 min 0,000 mm 0,0 UV-I 0 W/m 12,2 C 15,5 C 12,9 km/h (3 Bft) 100,00 %
07.07.2018 23:53 16,8 C 23,3 C 74 % 1018,3 hPa 0,0 l/m 8,3 km/h (2 Bft) SW 219 0 min 0,000 mm 0,0 UV-I 0 W/m 12,1 C 15,8 C 12,9 km/h (3 Bft) 100,00 %
07.07.2018 23:54 16,8 C 23,3 C 74 % 1018,2 hPa 0,0 l/m 10,7 km/h (2 Bft) SW 224 0 min 0,000 mm 0,0 UV-I 0 W/m 12,1 C 14,8 C 16,1 km/h (3 Bft) 100,00 %
07.07.2018 23:55 16,9 C 23,3 C 74 % 1018,2 hPa 0,0 l/m 8,7 km/h (2 Bft) SW 223 0 min 0,000 mm 0,0 UV-I 0 W/m 12,2 C 15,8 C 12,9 km/h (3 Bft) 95,83 %
07.07.2018 23:56 16,8 C 23,3 C 74 % 1018,2 hPa 0,0 l/m 10,2 km/h (2 Bft) SW 227 0 min 0,000 mm 0,0 UV-I 0 W/m 12,1 C 15,0 C 14,5 km/h (3 Bft) 100,00 %
07.07.2018 23:57 16,8 C 23,3 C 75 % 1018,2 hPa 0,0 l/m 11,6 km/h (2 Bft) SW 229 0 min 0,000 mm 0,0 UV-I 0 W/m 12,3 C 14,5 C 14,5 km/h (3 Bft) 100,00 %
07.07.2018 23:58 16,8 C 23,3 C 74 % 1018,3 hPa 0,0 l/m 8,7 km/h (2 Bft) SW 227 0 min 0,000 mm 0,0 UV-I 0 W/m 12,1 C 15,7 C 11,3 km/h (2 Bft) 100,00 %
_ Min-Zeit 04:26 02:53 16:25 19:28 - 19:54 - - - - - - 16:30 07:08 19:54 07:33
Minimum _ 15,9 C 22,2 C 38 % 1017,8 hPa - 0,4 km/h (0 Bft) - - - - - - 8,6 C 13,1 C 1,6 km/h (1 Bft) 82,61 %
_ Max-Zeit 16:45 15:15 04:33 09:16 03:17 15:50 - - 10:13 14:00 12:56 12:39 09:37 16:40 13:43 00:00
Maximum _ 24,4 C 23,9 C 96 % 1019,5 hPa 0,2 l/m 23,3 km/h
W (4 Bft)
- - 2 min 0,584 mm 7,1 UV-I 1106 W/m 16,8 C 24,2 C 35,4 km/h
W (5 Bft)
100,00 %
Durchschnitt _ 19,4 C 23,0 C 72 % 1018,5 hPa #2,2 l/m 9,1 km/h (2 Bft) W - #9:13 h #4,902 mm 3,3 UV-I 414 W/m 13,4 C 18,4 C 13,7 km/h (3 Bft) 97,88 %